<?xml version="1.0" encoding="UTF-8" standalone="no" ?>
<gpx xmlns="http://www.topografix.com/GPX/1/1" xmlns:xsi="http://www.w3.org/2001/XMLSchema-instance" xsi:schemaLocation="http://www.topografix.com/GPX/1/1 http://www.topografix.com/GPX/1/1/gpx.xsd" version="1.1" creator="VisuGPX - https://www.visugpx.com">
  <metadata>
    <name>Rando 22km autour du plan</name>
  </metadata>
  <trk>
    <name><![CDATA[Rando 22km autour du plan_1]]></name>
    <extensions>
      <line xmlns="http://www.topografix.com/GPX/gpx_style/0/2">
        <color>0000FF</color>
        <width>4</width>
      </line>
    </extensions>
    <trkseg>
      <trkpt lat="43.33789" lon="6.54681">
        <ele>72</ele>
        <time>2022-09-28T12:50:56.000Z</time>
      </trkpt>
      <trkpt lat="43.33787" lon="6.54689">
        <ele>71.6</ele>
        <time>2022-09-28T12:50:58.001Z</time>
      </trkpt>
      <trkpt lat="43.33785" lon="6.54691">
        <ele>71.4</ele>
        <time>2022-09-28T12:50:59.001Z</time>
      </trkpt>
      <trkpt lat="43.33779" lon="6.54692">
        <ele>71.2</ele>
        <time>2022-09-28T12:51:01.001Z</time>
      </trkpt>
      <trkpt lat="43.33774" lon="6.54691">
        <ele>71.5</ele>
        <time>2022-09-28T12:51:02.001Z</time>
      </trkpt>
      <trkpt lat="43.3377" lon="6.54689">
        <ele>71.8</ele>
        <time>2022-09-28T12:51:03.000Z</time>
      </trkpt>
      <trkpt lat="43.33764" lon="6.54687">
        <ele>72.3</ele>
        <time>2022-09-28T12:51:05.001Z</time>
      </trkpt>
      <trkpt lat="43.33761" lon="6.54686">
        <ele>72.5</ele>
        <time>2022-09-28T12:51:06.000Z</time>
      </trkpt>
      <trkpt lat="43.33757" lon="6.54684">
        <ele>72.7</ele>
        <time>2022-09-28T12:51:07.001Z</time>
      </trkpt>
      <trkpt lat="43.33753" lon="6.54681">
        <ele>72.9</ele>
        <time>2022-09-28T12:51:08.001Z</time>
      </trkpt>
      <trkpt lat="43.33749" lon="6.5468">
        <ele>73</ele>
        <time>2022-09-28T12:51:09.000Z</time>
      </trkpt>
      <trkpt lat="43.33744" lon="6.54677">
        <ele>72.9</ele>
        <time>2022-09-28T12:51:10.000Z</time>
      </trkpt>
      <trkpt lat="43.33738" lon="6.54675">
        <ele>72.7</ele>
        <time>2022-09-28T12:51:12.001Z</time>
      </trkpt>
      <trkpt lat="43.33735" lon="6.54673">
        <ele>72.6</ele>
        <time>2022-09-28T12:51:13.001Z</time>
      </trkpt>
      <trkpt lat="43.33733" lon="6.54672">
        <ele>72.5</ele>
        <time>2022-09-28T12:51:14.001Z</time>
      </trkpt>
      <trkpt lat="43.33729" lon="6.54669">
        <ele>72.3</ele>
        <time>2022-09-28T12:51:15.001Z</time>
      </trkpt>
      <trkpt lat="43.33725" lon="6.54667">
        <ele>72.1</ele>
        <time>2022-09-28T12:51:16.002Z</time>
      </trkpt>
      <trkpt lat="43.3372" lon="6.54665">
        <ele>71.9</ele>
        <time>2022-09-28T12:51:17.003Z</time>
      </trkpt>
      <trkpt lat="43.33717" lon="6.54663">
        <ele>71.8</ele>
        <time>2022-09-28T12:51:18.001Z</time>
      </trkpt>
      <trkpt lat="43.33712" lon="6.54661">
        <ele>71.7</ele>
        <time>2022-09-28T12:51:20.001Z</time>
      </trkpt>
      <trkpt lat="43.33708" lon="6.54659">
        <ele>71.6</ele>
        <time>2022-09-28T12:51:21.001Z</time>
      </trkpt>
      <trkpt lat="43.33704" lon="6.54656">
        <ele>71.6</ele>
        <time>2022-09-28T12:51:23.001Z</time>
      </trkpt>
      <trkpt lat="43.33702" lon="6.54652">
        <ele>71.6</ele>
        <time>2022-09-28T12:51:24.000Z</time>
      </trkpt>
      <trkpt lat="43.33701" lon="6.54649">
        <ele>71.7</ele>
        <time>2022-09-28T12:51:25.001Z</time>
      </trkpt>
      <trkpt lat="43.337" lon="6.54647">
        <ele>71.8</ele>
        <time>2022-09-28T12:51:26.001Z</time>
      </trkpt>
      <trkpt lat="43.33698" lon="6.54649">
        <ele>71.7</ele>
        <time>2022-09-28T12:51:28.001Z</time>
      </trkpt>
      <trkpt lat="43.33697" lon="6.54651">
        <ele>71.6</ele>
        <time>2022-09-28T12:51:29.000Z</time>
      </trkpt>
      <trkpt lat="43.33694" lon="6.54652">
        <ele>71.5</ele>
        <time>2022-09-28T12:51:44.001Z</time>
      </trkpt>
      <trkpt lat="43.33691" lon="6.54652">
        <ele>71.4</ele>
        <time>2022-09-28T12:51:45.000Z</time>
      </trkpt>
      <trkpt lat="43.33688" lon="6.54652">
        <ele>71.3</ele>
        <time>2022-09-28T12:51:46.001Z</time>
      </trkpt>
      <trkpt lat="43.33686" lon="6.54651">
        <ele>71.3</ele>
        <time>2022-09-28T12:51:47.001Z</time>
      </trkpt>
      <trkpt lat="43.33682" lon="6.5465">
        <ele>71.2</ele>
        <time>2022-09-28T12:51:48.001Z</time>
      </trkpt>
      <trkpt lat="43.33678" lon="6.5465">
        <ele>71</ele>
        <time>2022-09-28T12:51:49.000Z</time>
      </trkpt>
      <trkpt lat="43.33674" lon="6.5465">
        <ele>70.9</ele>
        <time>2022-09-28T12:51:50.001Z</time>
      </trkpt>
      <trkpt lat="43.33669" lon="6.54652">
        <ele>70.6</ele>
        <time>2022-09-28T12:51:51.000Z</time>
      </trkpt>
      <trkpt lat="43.33668" lon="6.5466">
        <ele>70.3</ele>
        <time>2022-09-28T12:51:52.000Z</time>
      </trkpt>
      <trkpt lat="43.3367" lon="6.54668">
        <ele>70.1</ele>
        <time>2022-09-28T12:51:53.000Z</time>
      </trkpt>
      <trkpt lat="43.33671" lon="6.54675">
        <ele>69.9</ele>
        <time>2022-09-28T12:51:54.001Z</time>
      </trkpt>
      <trkpt lat="43.33673" lon="6.54683">
        <ele>69.6</ele>
        <time>2022-09-28T12:51:55.000Z</time>
      </trkpt>
      <trkpt lat="43.33674" lon="6.54691">
        <ele>69.4</ele>
        <time>2022-09-28T12:51:56.000Z</time>
      </trkpt>
      <trkpt lat="43.33675" lon="6.547">
        <ele>69.1</ele>
        <time>2022-09-28T12:51:57.000Z</time>
      </trkpt>
      <trkpt lat="43.33676" lon="6.54709">
        <ele>68.8</ele>
        <time>2022-09-28T12:51:58.001Z</time>
      </trkpt>
      <trkpt lat="43.33677" lon="6.54719">
        <ele>68.5</ele>
        <time>2022-09-28T12:51:59.001Z</time>
      </trkpt>
      <trkpt lat="43.33678" lon="6.54729">
        <ele>68.1</ele>
        <time>2022-09-28T12:52:00.001Z</time>
      </trkpt>
      <trkpt lat="43.33678" lon="6.5474">
        <ele>67.8</ele>
        <time>2022-09-28T12:52:01.001Z</time>
      </trkpt>
      <trkpt lat="43.33677" lon="6.54751">
        <ele>67.4</ele>
        <time>2022-09-28T12:52:02.001Z</time>
      </trkpt>
      <trkpt lat="43.33675" lon="6.54762">
        <ele>67.2</ele>
        <time>2022-09-28T12:52:03.000Z</time>
      </trkpt>
      <trkpt lat="43.33672" lon="6.54773">
        <ele>67</ele>
        <time>2022-09-28T12:52:04.000Z</time>
      </trkpt>
      <trkpt lat="43.33669" lon="6.54784">
        <ele>66.8</ele>
        <time>2022-09-28T12:52:05.001Z</time>
      </trkpt>
      <trkpt lat="43.33667" lon="6.54796">
        <ele>66.4</ele>
        <time>2022-09-28T12:52:06.000Z</time>
      </trkpt>
      <trkpt lat="43.33666" lon="6.54807">
        <ele>65.9</ele>
        <time>2022-09-28T12:52:07.001Z</time>
      </trkpt>
      <trkpt lat="43.33668" lon="6.54818">
        <ele>65.7</ele>
        <time>2022-09-28T12:52:08.003Z</time>
      </trkpt>
      <trkpt lat="43.33671" lon="6.54826">
        <ele>65.5</ele>
        <time>2022-09-28T12:52:09.000Z</time>
      </trkpt>
      <trkpt lat="43.33674" lon="6.54833">
        <ele>65.5</ele>
        <time>2022-09-28T12:52:10.000Z</time>
      </trkpt>
      <trkpt lat="43.33677" lon="6.54839">
        <ele>65.4</ele>
        <time>2022-09-28T12:52:11.000Z</time>
      </trkpt>
      <trkpt lat="43.3368" lon="6.54843">
        <ele>65.3</ele>
        <time>2022-09-28T12:52:12.000Z</time>
      </trkpt>
      <trkpt lat="43.33681" lon="6.54844">
        <ele>65.3</ele>
        <time>2022-09-28T12:52:13.003Z</time>
      </trkpt>
      <trkpt lat="43.33682" lon="6.54845">
        <ele>65.3</ele>
        <time>2022-09-28T12:52:14.015Z</time>
      </trkpt>
      <trkpt lat="43.33683" lon="6.54845">
        <ele>65.3</ele>
        <time>2022-09-28T12:52:16.001Z</time>
      </trkpt>
      <trkpt lat="43.33684" lon="6.54846">
        <ele>65.4</ele>
        <time>2022-09-28T12:52:18.001Z</time>
      </trkpt>
      <trkpt lat="43.33685" lon="6.54847">
        <ele>65.4</ele>
        <time>2022-09-28T12:52:19.001Z</time>
      </trkpt>
      <trkpt lat="43.33686" lon="6.54847">
        <ele>65.4</ele>
        <time>2022-09-28T12:52:20.006Z</time>
      </trkpt>
      <trkpt lat="43.33687" lon="6.54849">
        <ele>65.4</ele>
        <time>2022-09-28T12:52:22.001Z</time>
      </trkpt>
      <trkpt lat="43.33689" lon="6.54849">
        <ele>65.4</ele>
        <time>2022-09-28T12:52:23.001Z</time>
      </trkpt>
      <trkpt lat="43.3369" lon="6.5485">
        <ele>65.5</ele>
        <time>2022-09-28T12:52:24.000Z</time>
      </trkpt>
      <trkpt lat="43.33692" lon="6.54851">
        <ele>65.5</ele>
        <time>2022-09-28T12:52:25.001Z</time>
      </trkpt>
      <trkpt lat="43.33694" lon="6.54853">
        <ele>65.5</ele>
        <time>2022-09-28T12:52:26.001Z</time>
      </trkpt>
      <trkpt lat="43.33694" lon="6.54855">
        <ele>65.4</ele>
        <time>2022-09-28T12:52:27.001Z</time>
      </trkpt>
      <trkpt lat="43.33694" lon="6.54856">
        <ele>65.3</ele>
        <time>2022-09-28T12:52:28.000Z</time>
      </trkpt>
      <trkpt lat="43.33693" lon="6.54857">
        <ele>65.2</ele>
        <time>2022-09-28T12:52:33.000Z</time>
      </trkpt>
      <trkpt lat="43.33692" lon="6.54859">
        <ele>65</ele>
        <time>2022-09-28T12:52:34.001Z</time>
      </trkpt>
      <trkpt lat="43.33691" lon="6.54863">
        <ele>64.7</ele>
        <time>2022-09-28T12:52:35.004Z</time>
      </trkpt>
      <trkpt lat="43.3369" lon="6.54864">
        <ele>64.6</ele>
        <time>2022-09-28T12:52:36.000Z</time>
      </trkpt>
      <trkpt lat="43.33687" lon="6.54867">
        <ele>64.3</ele>
        <time>2022-09-28T12:52:38.001Z</time>
      </trkpt>
      <trkpt lat="43.33685" lon="6.54871">
        <ele>64</ele>
        <time>2022-09-28T12:52:39.000Z</time>
      </trkpt>
      <trkpt lat="43.33681" lon="6.54876">
        <ele>63.5</ele>
        <time>2022-09-28T12:52:40.000Z</time>
      </trkpt>
      <trkpt lat="43.33676" lon="6.54886">
        <ele>62.8</ele>
        <time>2022-09-28T12:52:42.000Z</time>
      </trkpt>
      <trkpt lat="43.33675" lon="6.54893">
        <ele>62.4</ele>
        <time>2022-09-28T12:52:43.001Z</time>
      </trkpt>
      <trkpt lat="43.33675" lon="6.54901">
        <ele>62</ele>
        <time>2022-09-28T12:52:44.001Z</time>
      </trkpt>
      <trkpt lat="43.33675" lon="6.54906">
        <ele>61.8</ele>
        <time>2022-09-28T12:52:45.000Z</time>
      </trkpt>
      <trkpt lat="43.33673" lon="6.54911">
        <ele>61.5</ele>
        <time>2022-09-28T12:52:47.001Z</time>
      </trkpt>
      <trkpt lat="43.33674" lon="6.54915">
        <ele>61.4</ele>
        <time>2022-09-28T12:52:48.001Z</time>
      </trkpt>
      <trkpt lat="43.33674" lon="6.54917">
        <ele>61.2</ele>
        <time>2022-09-28T12:52:49.000Z</time>
      </trkpt>
      <trkpt lat="43.33672" lon="6.5492">
        <ele>60.9</ele>
        <time>2022-09-28T12:52:51.001Z</time>
      </trkpt>
      <trkpt lat="43.33669" lon="6.54922">
        <ele>60.6</ele>
        <time>2022-09-28T12:52:52.000Z</time>
      </trkpt>
      <trkpt lat="43.33667" lon="6.54926">
        <ele>60</ele>
        <time>2022-09-28T12:52:53.000Z</time>
      </trkpt>
      <trkpt lat="43.33665" lon="6.54929">
        <ele>59.5</ele>
        <time>2022-09-28T12:52:54.000Z</time>
      </trkpt>
      <trkpt lat="43.33662" lon="6.54934">
        <ele>58.9</ele>
        <time>2022-09-28T12:52:55.000Z</time>
      </trkpt>
      <trkpt lat="43.33655" lon="6.54944">
        <ele>57.6</ele>
        <time>2022-09-28T12:52:57.001Z</time>
      </trkpt>
      <trkpt lat="43.3365" lon="6.5495">
        <ele>57.4</ele>
        <time>2022-09-28T12:52:58.001Z</time>
      </trkpt>
      <trkpt lat="43.33646" lon="6.54956">
        <ele>57.3</ele>
        <time>2022-09-28T12:52:59.000Z</time>
      </trkpt>
      <trkpt lat="43.33645" lon="6.54958">
        <ele>57.2</ele>
        <time>2022-09-28T12:53:00.000Z</time>
      </trkpt>
      <trkpt lat="43.33639" lon="6.54965">
        <ele>57</ele>
        <time>2022-09-28T12:53:02.001Z</time>
      </trkpt>
      <trkpt lat="43.33637" lon="6.54966">
        <ele>57</ele>
        <time>2022-09-28T12:53:03.000Z</time>
      </trkpt>
      <trkpt lat="43.33636" lon="6.54967">
        <ele>57</ele>
        <time>2022-09-28T12:53:05.002Z</time>
      </trkpt>
      <trkpt lat="43.33633" lon="6.54967">
        <ele>57</ele>
        <time>2022-09-28T12:53:06.000Z</time>
      </trkpt>
      <trkpt lat="43.33631" lon="6.54968">
        <ele>57</ele>
        <time>2022-09-28T12:53:07.000Z</time>
      </trkpt>
      <trkpt lat="43.33629" lon="6.5497">
        <ele>57</ele>
        <time>2022-09-28T12:53:08.001Z</time>
      </trkpt>
      <trkpt lat="43.33627" lon="6.54974">
        <ele>57</ele>
        <time>2022-09-28T12:53:09.000Z</time>
      </trkpt>
      <trkpt lat="43.33625" lon="6.54975">
        <ele>57.1</ele>
        <time>2022-09-28T12:53:10.000Z</time>
      </trkpt>
      <trkpt lat="43.33621" lon="6.54978">
        <ele>57.2</ele>
        <time>2022-09-28T12:53:11.001Z</time>
      </trkpt>
      <trkpt lat="43.33618" lon="6.54978">
        <ele>57.3</ele>
        <time>2022-09-28T12:53:13.000Z</time>
      </trkpt>
      <trkpt lat="43.33617" lon="6.54979">
        <ele>57.3</ele>
        <time>2022-09-28T12:53:14.004Z</time>
      </trkpt>
      <trkpt lat="43.33614" lon="6.54978">
        <ele>57.4</ele>
        <time>2022-09-28T12:53:15.000Z</time>
      </trkpt>
      <trkpt lat="43.33607" lon="6.5498">
        <ele>57.5</ele>
        <time>2022-09-28T12:53:17.000Z</time>
      </trkpt>
      <trkpt lat="43.33602" lon="6.5498">
        <ele>57.5</ele>
        <time>2022-09-28T12:53:18.001Z</time>
      </trkpt>
      <trkpt lat="43.33598" lon="6.5498">
        <ele>57.4</ele>
        <time>2022-09-28T12:53:19.001Z</time>
      </trkpt>
      <trkpt lat="43.33593" lon="6.54979">
        <ele>57.3</ele>
        <time>2022-09-28T12:53:20.002Z</time>
      </trkpt>
      <trkpt lat="43.33589" lon="6.54977">
        <ele>57.2</ele>
        <time>2022-09-28T12:53:21.001Z</time>
      </trkpt>
      <trkpt lat="43.33585" lon="6.54975">
        <ele>57.1</ele>
        <time>2022-09-28T12:53:22.000Z</time>
      </trkpt>
      <trkpt lat="43.33581" lon="6.54973">
        <ele>57</ele>
        <time>2022-09-28T12:53:23.000Z</time>
      </trkpt>
      <trkpt lat="43.33576" lon="6.54972">
        <ele>57</ele>
        <time>2022-09-28T12:53:24.001Z</time>
      </trkpt>
      <trkpt lat="43.33571" lon="6.54969">
        <ele>57</ele>
        <time>2022-09-28T12:53:25.001Z</time>
      </trkpt>
      <trkpt lat="43.33565" lon="6.54967">
        <ele>57</ele>
        <time>2022-09-28T12:53:26.001Z</time>
      </trkpt>
      <trkpt lat="43.33561" lon="6.54965">
        <ele>57</ele>
        <time>2022-09-28T12:53:27.000Z</time>
      </trkpt>
      <trkpt lat="43.33556" lon="6.54962">
        <ele>57</ele>
        <time>2022-09-28T12:53:28.000Z</time>
      </trkpt>
      <trkpt lat="43.33553" lon="6.54961">
        <ele>57</ele>
        <time>2022-09-28T12:53:29.001Z</time>
      </trkpt>
      <trkpt lat="43.33548" lon="6.54959">
        <ele>57.1</ele>
        <time>2022-09-28T12:53:30.000Z</time>
      </trkpt>
      <trkpt lat="43.33543" lon="6.54956">
        <ele>57.3</ele>
        <time>2022-09-28T12:53:31.000Z</time>
      </trkpt>
      <trkpt lat="43.33539" lon="6.54954">
        <ele>57.4</ele>
        <time>2022-09-28T12:53:32.000Z</time>
      </trkpt>
      <trkpt lat="43.33534" lon="6.54952">
        <ele>57.5</ele>
        <time>2022-09-28T12:53:33.001Z</time>
      </trkpt>
      <trkpt lat="43.33531" lon="6.5495">
        <ele>57.7</ele>
        <time>2022-09-28T12:53:34.001Z</time>
      </trkpt>
      <trkpt lat="43.33526" lon="6.5495">
        <ele>57.8</ele>
        <time>2022-09-28T12:53:35.001Z</time>
      </trkpt>
      <trkpt lat="43.33522" lon="6.54948">
        <ele>57.9</ele>
        <time>2022-09-28T12:53:37.001Z</time>
      </trkpt>
      <trkpt lat="43.33515" lon="6.54946">
        <ele>58</ele>
        <time>2022-09-28T12:53:38.000Z</time>
      </trkpt>
      <trkpt lat="43.33512" lon="6.54944">
        <ele>58</ele>
        <time>2022-09-28T12:53:39.000Z</time>
      </trkpt>
      <trkpt lat="43.33508" lon="6.54942">
        <ele>58</ele>
        <time>2022-09-28T12:53:40.000Z</time>
      </trkpt>
      <trkpt lat="43.33504" lon="6.54941">
        <ele>58</ele>
        <time>2022-09-28T12:53:41.001Z</time>
      </trkpt>
      <trkpt lat="43.33502" lon="6.54939">
        <ele>58</ele>
        <time>2022-09-28T12:53:42.000Z</time>
      </trkpt>
      <trkpt lat="43.335" lon="6.54938">
        <ele>58</ele>
        <time>2022-09-28T12:53:43.000Z</time>
      </trkpt>
      <trkpt lat="43.335" lon="6.5494">
        <ele>58</ele>
        <time>2022-09-28T12:53:44.001Z</time>
      </trkpt>
      <trkpt lat="43.33499" lon="6.54941">
        <ele>58</ele>
        <time>2022-09-28T12:54:00.001Z</time>
      </trkpt>
      <trkpt lat="43.33498" lon="6.54942">
        <ele>57.9</ele>
        <time>2022-09-28T12:54:01.001Z</time>
      </trkpt>
      <trkpt lat="43.33497" lon="6.54946">
        <ele>57.8</ele>
        <time>2022-09-28T12:54:02.000Z</time>
      </trkpt>
      <trkpt lat="43.33499" lon="6.54954">
        <ele>57.6</ele>
        <time>2022-09-28T12:54:03.001Z</time>
      </trkpt>
      <trkpt lat="43.33501" lon="6.54959">
        <ele>57.5</ele>
        <time>2022-09-28T12:54:04.001Z</time>
      </trkpt>
      <trkpt lat="43.33503" lon="6.54965">
        <ele>57.3</ele>
        <time>2022-09-28T12:54:05.001Z</time>
      </trkpt>
      <trkpt lat="43.33504" lon="6.54971">
        <ele>57</ele>
        <time>2022-09-28T12:54:07.003Z</time>
      </trkpt>
      <trkpt lat="43.33505" lon="6.54978">
        <ele>56.8</ele>
        <time>2022-09-28T12:54:08.000Z</time>
      </trkpt>
      <trkpt lat="43.33507" lon="6.54985">
        <ele>56.7</ele>
        <time>2022-09-28T12:54:09.002Z</time>
      </trkpt>
      <trkpt lat="43.33507" lon="6.54988">
        <ele>56.6</ele>
        <time>2022-09-28T12:54:10.000Z</time>
      </trkpt>
      <trkpt lat="43.33509" lon="6.54997">
        <ele>56.4</ele>
        <time>2022-09-28T12:54:11.000Z</time>
      </trkpt>
      <trkpt lat="43.3351" lon="6.55003">
        <ele>56.3</ele>
        <time>2022-09-28T12:54:12.000Z</time>
      </trkpt>
      <trkpt lat="43.33512" lon="6.5501">
        <ele>56.3</ele>
        <time>2022-09-28T12:54:13.005Z</time>
      </trkpt>
      <trkpt lat="43.33513" lon="6.55016">
        <ele>56.2</ele>
        <time>2022-09-28T12:54:14.012Z</time>
      </trkpt>
      <trkpt lat="43.33513" lon="6.55018">
        <ele>56.2</ele>
        <time>2022-09-28T12:54:15.000Z</time>
      </trkpt>
      <trkpt lat="43.33514" lon="6.55027">
        <ele>56</ele>
        <time>2022-09-28T12:54:16.001Z</time>
      </trkpt>
      <trkpt lat="43.33515" lon="6.55031">
        <ele>55.9</ele>
        <time>2022-09-28T12:54:17.002Z</time>
      </trkpt>
      <trkpt lat="43.33515" lon="6.55041">
        <ele>55.8</ele>
        <time>2022-09-28T12:54:19.001Z</time>
      </trkpt>
      <trkpt lat="43.33514" lon="6.5505">
        <ele>55.6</ele>
        <time>2022-09-28T12:54:20.000Z</time>
      </trkpt>
      <trkpt lat="43.33512" lon="6.55055">
        <ele>55.4</ele>
        <time>2022-09-28T12:54:21.000Z</time>
      </trkpt>
      <trkpt lat="43.3351" lon="6.55061">
        <ele>55.1</ele>
        <time>2022-09-28T12:54:23.000Z</time>
      </trkpt>
      <trkpt lat="43.33508" lon="6.55066">
        <ele>54.9</ele>
        <time>2022-09-28T12:54:24.005Z</time>
      </trkpt>
      <trkpt lat="43.33506" lon="6.55072">
        <ele>54.6</ele>
        <time>2022-09-28T12:54:25.001Z</time>
      </trkpt>
      <trkpt lat="43.33504" lon="6.55076">
        <ele>54.4</ele>
        <time>2022-09-28T12:54:26.001Z</time>
      </trkpt>
      <trkpt lat="43.33502" lon="6.55082">
        <ele>54.1</ele>
        <time>2022-09-28T12:54:27.000Z</time>
      </trkpt>
      <trkpt lat="43.33499" lon="6.55089">
        <ele>54</ele>
        <time>2022-09-28T12:54:28.000Z</time>
      </trkpt>
      <trkpt lat="43.33497" lon="6.55096">
        <ele>54</ele>
        <time>2022-09-28T12:54:29.001Z</time>
      </trkpt>
      <trkpt lat="43.33495" lon="6.55103">
        <ele>54</ele>
        <time>2022-09-28T12:54:30.001Z</time>
      </trkpt>
      <trkpt lat="43.33493" lon="6.55108">
        <ele>54</ele>
        <time>2022-09-28T12:54:31.001Z</time>
      </trkpt>
      <trkpt lat="43.33491" lon="6.55114">
        <ele>54</ele>
        <time>2022-09-28T12:54:32.003Z</time>
      </trkpt>
      <trkpt lat="43.33488" lon="6.5512">
        <ele>53.9</ele>
        <time>2022-09-28T12:54:33.001Z</time>
      </trkpt>
      <trkpt lat="43.33485" lon="6.55126">
        <ele>53.7</ele>
        <time>2022-09-28T12:54:34.001Z</time>
      </trkpt>
      <trkpt lat="43.33482" lon="6.55132">
        <ele>53.5</ele>
        <time>2022-09-28T12:54:35.001Z</time>
      </trkpt>
      <trkpt lat="43.33479" lon="6.55137">
        <ele>53.3</ele>
        <time>2022-09-28T12:54:36.001Z</time>
      </trkpt>
      <trkpt lat="43.33476" lon="6.55142">
        <ele>53.1</ele>
        <time>2022-09-28T12:54:37.001Z</time>
      </trkpt>
      <trkpt lat="43.33473" lon="6.55147">
        <ele>53</ele>
        <time>2022-09-28T12:54:38.000Z</time>
      </trkpt>
      <trkpt lat="43.3347" lon="6.55153">
        <ele>52.9</ele>
        <time>2022-09-28T12:54:39.000Z</time>
      </trkpt>
      <trkpt lat="43.33466" lon="6.55159">
        <ele>52.7</ele>
        <time>2022-09-28T12:54:40.001Z</time>
      </trkpt>
      <trkpt lat="43.33463" lon="6.55165">
        <ele>52.4</ele>
        <time>2022-09-28T12:54:41.001Z</time>
      </trkpt>
      <trkpt lat="43.3346" lon="6.55171">
        <ele>52.1</ele>
        <time>2022-09-28T12:54:42.001Z</time>
      </trkpt>
      <trkpt lat="43.33456" lon="6.55177">
        <ele>51.8</ele>
        <time>2022-09-28T12:54:43.001Z</time>
      </trkpt>
      <trkpt lat="43.33453" lon="6.55183">
        <ele>51.6</ele>
        <time>2022-09-28T12:54:44.004Z</time>
      </trkpt>
      <trkpt lat="43.33449" lon="6.55189">
        <ele>51.3</ele>
        <time>2022-09-28T12:54:45.001Z</time>
      </trkpt>
      <trkpt lat="43.33445" lon="6.55195">
        <ele>51.1</ele>
        <time>2022-09-28T12:54:46.000Z</time>
      </trkpt>
      <trkpt lat="43.33442" lon="6.552">
        <ele>50.9</ele>
        <time>2022-09-28T12:54:47.002Z</time>
      </trkpt>
      <trkpt lat="43.33438" lon="6.55206">
        <ele>50.6</ele>
        <time>2022-09-28T12:54:48.001Z</time>
      </trkpt>
      <trkpt lat="43.33434" lon="6.55211">
        <ele>50.2</ele>
        <time>2022-09-28T12:54:49.000Z</time>
      </trkpt>
      <trkpt lat="43.33432" lon="6.55218">
        <ele>49.8</ele>
        <time>2022-09-28T12:54:50.000Z</time>
      </trkpt>
      <trkpt lat="43.33429" lon="6.55224">
        <ele>49.4</ele>
        <time>2022-09-28T12:54:51.000Z</time>
      </trkpt>
      <trkpt lat="43.33428" lon="6.55231">
        <ele>49.1</ele>
        <time>2022-09-28T12:54:52.002Z</time>
      </trkpt>
      <trkpt lat="43.33426" lon="6.55238">
        <ele>48.9</ele>
        <time>2022-09-28T12:54:53.001Z</time>
      </trkpt>
      <trkpt lat="43.33427" lon="6.55245">
        <ele>48.9</ele>
        <time>2022-09-28T12:54:54.001Z</time>
      </trkpt>
      <trkpt lat="43.33427" lon="6.55251">
        <ele>48.9</ele>
        <time>2022-09-28T12:54:55.000Z</time>
      </trkpt>
      <trkpt lat="43.33427" lon="6.55255">
        <ele>48.6</ele>
        <time>2022-09-28T12:54:56.001Z</time>
      </trkpt>
      <trkpt lat="43.33425" lon="6.55258">
        <ele>48.2</ele>
        <time>2022-09-28T12:54:57.000Z</time>
      </trkpt>
      <trkpt lat="43.33422" lon="6.55258">
        <ele>47.6</ele>
        <time>2022-09-28T12:54:58.002Z</time>
      </trkpt>
      <trkpt lat="43.33418" lon="6.55256">
        <ele>47.1</ele>
        <time>2022-09-28T12:54:59.000Z</time>
      </trkpt>
      <trkpt lat="43.33414" lon="6.55255">
        <ele>46.8</ele>
        <time>2022-09-28T12:55:00.001Z</time>
      </trkpt>
      <trkpt lat="43.3341" lon="6.55256">
        <ele>46.8</ele>
        <time>2022-09-28T12:55:01.001Z</time>
      </trkpt>
      <trkpt lat="43.33405" lon="6.55259">
        <ele>46.7</ele>
        <time>2022-09-28T12:55:02.001Z</time>
      </trkpt>
      <trkpt lat="43.33401" lon="6.55261">
        <ele>46.6</ele>
        <time>2022-09-28T12:55:03.002Z</time>
      </trkpt>
      <trkpt lat="43.33396" lon="6.55265">
        <ele>46.5</ele>
        <time>2022-09-28T12:55:04.000Z</time>
      </trkpt>
      <trkpt lat="43.33392" lon="6.55269">
        <ele>46.3</ele>
        <time>2022-09-28T12:55:05.000Z</time>
      </trkpt>
      <trkpt lat="43.33388" lon="6.55274">
        <ele>46.3</ele>
        <time>2022-09-28T12:55:06.000Z</time>
      </trkpt>
      <trkpt lat="43.33384" lon="6.55279">
        <ele>46.5</ele>
        <time>2022-09-28T12:55:07.001Z</time>
      </trkpt>
      <trkpt lat="43.33381" lon="6.55286">
        <ele>46.7</ele>
        <time>2022-09-28T12:55:08.000Z</time>
      </trkpt>
      <trkpt lat="43.33379" lon="6.55294">
        <ele>46.8</ele>
        <time>2022-09-28T12:55:09.001Z</time>
      </trkpt>
      <trkpt lat="43.33379" lon="6.55301">
        <ele>46.7</ele>
        <time>2022-09-28T12:55:10.001Z</time>
      </trkpt>
      <trkpt lat="43.33379" lon="6.55308">
        <ele>46.5</ele>
        <time>2022-09-28T12:55:11.001Z</time>
      </trkpt>
      <trkpt lat="43.33378" lon="6.55315">
        <ele>46.1</ele>
        <time>2022-09-28T12:55:12.001Z</time>
      </trkpt>
      <trkpt lat="43.33376" lon="6.5532">
        <ele>45.9</ele>
        <time>2022-09-28T12:55:13.001Z</time>
      </trkpt>
      <trkpt lat="43.33374" lon="6.55324">
        <ele>45.7</ele>
        <time>2022-09-28T12:55:14.001Z</time>
      </trkpt>
      <trkpt lat="43.33372" lon="6.55328">
        <ele>45.6</ele>
        <time>2022-09-28T12:55:15.001Z</time>
      </trkpt>
      <trkpt lat="43.3337" lon="6.55331">
        <ele>45.5</ele>
        <time>2022-09-28T12:55:16.000Z</time>
      </trkpt>
      <trkpt lat="43.33368" lon="6.55336">
        <ele>45.5</ele>
        <time>2022-09-28T12:55:17.001Z</time>
      </trkpt>
      <trkpt lat="43.33365" lon="6.55341">
        <ele>45.5</ele>
        <time>2022-09-28T12:55:18.001Z</time>
      </trkpt>
      <trkpt lat="43.33362" lon="6.55346">
        <ele>45.5</ele>
        <time>2022-09-28T12:55:19.001Z</time>
      </trkpt>
      <trkpt lat="43.33361" lon="6.55346">
        <ele>45.5</ele>
        <time>2022-09-28T12:55:20.000Z</time>
      </trkpt>
      <trkpt lat="43.33358" lon="6.5535">
        <ele>45.5</ele>
        <time>2022-09-28T12:55:21.001Z</time>
      </trkpt>
      <trkpt lat="43.33356" lon="6.55354">
        <ele>45.3</ele>
        <time>2022-09-28T12:55:22.001Z</time>
      </trkpt>
      <trkpt lat="43.33355" lon="6.55358">
        <ele>45.2</ele>
        <time>2022-09-28T12:55:23.000Z</time>
      </trkpt>
      <trkpt lat="43.33356" lon="6.55371">
        <ele>44.6</ele>
        <time>2022-09-28T12:55:25.001Z</time>
      </trkpt>
      <trkpt lat="43.33357" lon="6.55379">
        <ele>44.3</ele>
        <time>2022-09-28T12:55:27.000Z</time>
      </trkpt>
      <trkpt lat="43.33356" lon="6.55385">
        <ele>44</ele>
        <time>2022-09-28T12:55:28.000Z</time>
      </trkpt>
      <trkpt lat="43.33354" lon="6.5539">
        <ele>43.6</ele>
        <time>2022-09-28T12:55:29.001Z</time>
      </trkpt>
      <trkpt lat="43.33351" lon="6.55394">
        <ele>43.3</ele>
        <time>2022-09-28T12:55:30.001Z</time>
      </trkpt>
      <trkpt lat="43.33347" lon="6.55397">
        <ele>42.9</ele>
        <time>2022-09-28T12:55:31.000Z</time>
      </trkpt>
      <trkpt lat="43.33342" lon="6.554">
        <ele>42.5</ele>
        <time>2022-09-28T12:55:32.000Z</time>
      </trkpt>
      <trkpt lat="43.33334" lon="6.55396">
        <ele>42.5</ele>
        <time>2022-09-28T12:55:34.001Z</time>
      </trkpt>
      <trkpt lat="43.3333" lon="6.55387">
        <ele>42.9</ele>
        <time>2022-09-28T12:55:35.001Z</time>
      </trkpt>
      <trkpt lat="43.33327" lon="6.5538">
        <ele>43.1</ele>
        <time>2022-09-28T12:55:36.001Z</time>
      </trkpt>
      <trkpt lat="43.33325" lon="6.55374">
        <ele>43.3</ele>
        <time>2022-09-28T12:55:37.001Z</time>
      </trkpt>
      <trkpt lat="43.33321" lon="6.5537">
        <ele>43.1</ele>
        <time>2022-09-28T12:55:38.000Z</time>
      </trkpt>
      <trkpt lat="43.33317" lon="6.55368">
        <ele>42.9</ele>
        <time>2022-09-28T12:55:39.001Z</time>
      </trkpt>
      <trkpt lat="43.33312" lon="6.55368">
        <ele>42.5</ele>
        <time>2022-09-28T12:55:40.001Z</time>
      </trkpt>
      <trkpt lat="43.33307" lon="6.55368">
        <ele>41.9</ele>
        <time>2022-09-28T12:55:41.001Z</time>
      </trkpt>
      <trkpt lat="43.33305" lon="6.55368">
        <ele>41.7</ele>
        <time>2022-09-28T12:55:42.001Z</time>
      </trkpt>
      <trkpt lat="43.33301" lon="6.55369">
        <ele>41.4</ele>
        <time>2022-09-28T12:55:43.000Z</time>
      </trkpt>
      <trkpt lat="43.33296" lon="6.5537">
        <ele>41</ele>
        <time>2022-09-28T12:55:44.001Z</time>
      </trkpt>
      <trkpt lat="43.33291" lon="6.55372">
        <ele>40.6</ele>
        <time>2022-09-28T12:55:45.000Z</time>
      </trkpt>
      <trkpt lat="43.33287" lon="6.55373">
        <ele>40.2</ele>
        <time>2022-09-28T12:55:46.001Z</time>
      </trkpt>
      <trkpt lat="43.33282" lon="6.55375">
        <ele>39.8</ele>
        <time>2022-09-28T12:55:47.000Z</time>
      </trkpt>
      <trkpt lat="43.33277" lon="6.55378">
        <ele>39.4</ele>
        <time>2022-09-28T12:55:49.000Z</time>
      </trkpt>
      <trkpt lat="43.33273" lon="6.55381">
        <ele>39.7</ele>
        <time>2022-09-28T12:55:50.000Z</time>
      </trkpt>
      <trkpt lat="43.33269" lon="6.55384">
        <ele>40</ele>
        <time>2022-09-28T12:55:52.001Z</time>
      </trkpt>
      <trkpt lat="43.33265" lon="6.55389">
        <ele>40.4</ele>
        <time>2022-09-28T12:55:53.001Z</time>
      </trkpt>
      <trkpt lat="43.33262" lon="6.55393">
        <ele>41.1</ele>
        <time>2022-09-28T12:55:54.001Z</time>
      </trkpt>
      <trkpt lat="43.33261" lon="6.55393">
        <ele>41.2</ele>
        <time>2022-09-28T12:55:55.001Z</time>
      </trkpt>
      <trkpt lat="43.33259" lon="6.55395">
        <ele>41.7</ele>
        <time>2022-09-28T12:55:56.001Z</time>
      </trkpt>
      <trkpt lat="43.33257" lon="6.55396">
        <ele>42.1</ele>
        <time>2022-09-28T12:55:58.001Z</time>
      </trkpt>
      <trkpt lat="43.33256" lon="6.55398">
        <ele>42.4</ele>
        <time>2022-09-28T12:55:59.000Z</time>
      </trkpt>
      <trkpt lat="43.33255" lon="6.55399">
        <ele>42.7</ele>
        <time>2022-09-28T12:56:00.000Z</time>
      </trkpt>
      <trkpt lat="43.33254" lon="6.55402">
        <ele>43.2</ele>
        <time>2022-09-28T12:56:01.000Z</time>
      </trkpt>
      <trkpt lat="43.33255" lon="6.55404">
        <ele>43.4</ele>
        <time>2022-09-28T12:56:02.000Z</time>
      </trkpt>
      <trkpt lat="43.33254" lon="6.55407">
        <ele>43.9</ele>
        <time>2022-09-28T12:56:03.000Z</time>
      </trkpt>
      <trkpt lat="43.33254" lon="6.55409">
        <ele>44.1</ele>
        <time>2022-09-28T12:56:04.000Z</time>
      </trkpt>
      <trkpt lat="43.33253" lon="6.55412">
        <ele>44.8</ele>
        <time>2022-09-28T12:56:05.002Z</time>
      </trkpt>
      <trkpt lat="43.3325" lon="6.55414">
        <ele>45.6</ele>
        <time>2022-09-28T12:56:06.000Z</time>
      </trkpt>
      <trkpt lat="43.33247" lon="6.55415">
        <ele>45.9</ele>
        <time>2022-09-28T12:56:08.001Z</time>
      </trkpt>
      <trkpt lat="43.33244" lon="6.55415">
        <ele>46</ele>
        <time>2022-09-28T12:56:09.000Z</time>
      </trkpt>
      <trkpt lat="43.33241" lon="6.55415">
        <ele>46.1</ele>
        <time>2022-09-28T12:56:10.000Z</time>
      </trkpt>
      <trkpt lat="43.33238" lon="6.55414">
        <ele>46.1</ele>
        <time>2022-09-28T12:56:11.000Z</time>
      </trkpt>
      <trkpt lat="43.33235" lon="6.55413">
        <ele>46</ele>
        <time>2022-09-28T12:56:12.001Z</time>
      </trkpt>
      <trkpt lat="43.33232" lon="6.55412">
        <ele>46</ele>
        <time>2022-09-28T12:56:13.000Z</time>
      </trkpt>
      <trkpt lat="43.33229" lon="6.55411">
        <ele>46</ele>
        <time>2022-09-28T12:56:15.001Z</time>
      </trkpt>
      <trkpt lat="43.33227" lon="6.55411">
        <ele>46.1</ele>
        <time>2022-09-28T12:56:16.000Z</time>
      </trkpt>
      <trkpt lat="43.33226" lon="6.55411">
        <ele>46.2</ele>
        <time>2022-09-28T12:56:17.000Z</time>
      </trkpt>
      <trkpt lat="43.33224" lon="6.55411">
        <ele>46.3</ele>
        <time>2022-09-28T12:56:18.001Z</time>
      </trkpt>
      <trkpt lat="43.33222" lon="6.55412">
        <ele>46.5</ele>
        <time>2022-09-28T12:56:19.004Z</time>
      </trkpt>
      <trkpt lat="43.3322" lon="6.55414">
        <ele>46.9</ele>
        <time>2022-09-28T12:56:20.003Z</time>
      </trkpt>
      <trkpt lat="43.33218" lon="6.55416">
        <ele>47.2</ele>
        <time>2022-09-28T12:56:22.001Z</time>
      </trkpt>
      <trkpt lat="43.33216" lon="6.55417">
        <ele>47.5</ele>
        <time>2022-09-28T12:56:23.002Z</time>
      </trkpt>
      <trkpt lat="43.33215" lon="6.55418">
        <ele>47.6</ele>
        <time>2022-09-28T12:56:24.006Z</time>
      </trkpt>
      <trkpt lat="43.33214" lon="6.55419">
        <ele>47.7</ele>
        <time>2022-09-28T12:56:25.000Z</time>
      </trkpt>
      <trkpt lat="43.33212" lon="6.55421">
        <ele>47.8</ele>
        <time>2022-09-28T12:56:26.001Z</time>
      </trkpt>
      <trkpt lat="43.3321" lon="6.55423">
        <ele>47.9</ele>
        <time>2022-09-28T12:56:28.002Z</time>
      </trkpt>
      <trkpt lat="43.33208" lon="6.55425">
        <ele>48</ele>
        <time>2022-09-28T12:56:29.001Z</time>
      </trkpt>
      <trkpt lat="43.33207" lon="6.55426">
        <ele>48</ele>
        <time>2022-09-28T12:56:30.001Z</time>
      </trkpt>
      <trkpt lat="43.33205" lon="6.55427">
        <ele>48.1</ele>
        <time>2022-09-28T12:56:31.000Z</time>
      </trkpt>
      <trkpt lat="43.33204" lon="6.55428">
        <ele>48.1</ele>
        <time>2022-09-28T12:56:32.001Z</time>
      </trkpt>
      <trkpt lat="43.33202" lon="6.55428">
        <ele>48.1</ele>
        <time>2022-09-28T12:56:33.002Z</time>
      </trkpt>
      <trkpt lat="43.332" lon="6.55428">
        <ele>48.1</ele>
        <time>2022-09-28T12:56:34.004Z</time>
      </trkpt>
      <trkpt lat="43.33198" lon="6.5543">
        <ele>48</ele>
        <time>2022-09-28T12:56:35.000Z</time>
      </trkpt>
      <trkpt lat="43.33195" lon="6.55431">
        <ele>48</ele>
        <time>2022-09-28T12:56:36.000Z</time>
      </trkpt>
      <trkpt lat="43.33193" lon="6.55432">
        <ele>47.8</ele>
        <time>2022-09-28T12:56:37.001Z</time>
      </trkpt>
      <trkpt lat="43.3319" lon="6.55435">
        <ele>47.5</ele>
        <time>2022-09-28T12:56:38.001Z</time>
      </trkpt>
      <trkpt lat="43.33186" lon="6.55437">
        <ele>47.2</ele>
        <time>2022-09-28T12:56:40.001Z</time>
      </trkpt>
      <trkpt lat="43.33182" lon="6.55437">
        <ele>47</ele>
        <time>2022-09-28T12:56:41.000Z</time>
      </trkpt>
      <trkpt lat="43.33179" lon="6.55439">
        <ele>46.7</ele>
        <time>2022-09-28T12:56:42.001Z</time>
      </trkpt>
      <trkpt lat="43.33176" lon="6.55441">
        <ele>46.5</ele>
        <time>2022-09-28T12:56:43.000Z</time>
      </trkpt>
      <trkpt lat="43.33173" lon="6.55441">
        <ele>46.4</ele>
        <time>2022-09-28T12:56:44.001Z</time>
      </trkpt>
      <trkpt lat="43.3317" lon="6.55443">
        <ele>46.2</ele>
        <time>2022-09-28T12:56:46.001Z</time>
      </trkpt>
      <trkpt lat="43.33166" lon="6.55444">
        <ele>46</ele>
        <time>2022-09-28T12:56:47.001Z</time>
      </trkpt>
      <trkpt lat="43.3316" lon="6.55445">
        <ele>46.2</ele>
        <time>2022-09-28T12:56:48.000Z</time>
      </trkpt>
      <trkpt lat="43.33153" lon="6.55447">
        <ele>46.5</ele>
        <time>2022-09-28T12:56:49.001Z</time>
      </trkpt>
      <trkpt lat="43.33147" lon="6.55451">
        <ele>46.7</ele>
        <time>2022-09-28T12:56:50.001Z</time>
      </trkpt>
      <trkpt lat="43.33142" lon="6.55455">
        <ele>46.9</ele>
        <time>2022-09-28T12:56:51.001Z</time>
      </trkpt>
      <trkpt lat="43.33137" lon="6.55459">
        <ele>47.1</ele>
        <time>2022-09-28T12:56:52.001Z</time>
      </trkpt>
      <trkpt lat="43.33131" lon="6.55463">
        <ele>47.4</ele>
        <time>2022-09-28T12:56:53.002Z</time>
      </trkpt>
      <trkpt lat="43.33126" lon="6.55467">
        <ele>47.6</ele>
        <time>2022-09-28T12:56:54.000Z</time>
      </trkpt>
      <trkpt lat="43.33121" lon="6.55471">
        <ele>47.7</ele>
        <time>2022-09-28T12:56:55.000Z</time>
      </trkpt>
      <trkpt lat="43.33116" lon="6.55475">
        <ele>47.9</ele>
        <time>2022-09-28T12:56:56.000Z</time>
      </trkpt>
      <trkpt lat="43.33111" lon="6.55478">
        <ele>48.3</ele>
        <time>2022-09-28T12:56:57.001Z</time>
      </trkpt>
      <trkpt lat="43.33104" lon="6.5548">
        <ele>49</ele>
        <time>2022-09-28T12:56:58.000Z</time>
      </trkpt>
      <trkpt lat="43.33098" lon="6.55483">
        <ele>49.5</ele>
        <time>2022-09-28T12:56:59.001Z</time>
      </trkpt>
      <trkpt lat="43.33093" lon="6.55485">
        <ele>49.9</ele>
        <time>2022-09-28T12:57:00.000Z</time>
      </trkpt>
      <trkpt lat="43.33088" lon="6.55488">
        <ele>50</ele>
        <time>2022-09-28T12:57:01.000Z</time>
      </trkpt>
      <trkpt lat="43.33083" lon="6.55492">
        <ele>49.9</ele>
        <time>2022-09-28T12:57:02.001Z</time>
      </trkpt>
      <trkpt lat="43.33079" lon="6.55496">
        <ele>49.8</ele>
        <time>2022-09-28T12:57:03.000Z</time>
      </trkpt>
      <trkpt lat="43.33077" lon="6.55498">
        <ele>49.7</ele>
        <time>2022-09-28T12:57:04.001Z</time>
      </trkpt>
      <trkpt lat="43.3307" lon="6.55502">
        <ele>49.9</ele>
        <time>2022-09-28T12:57:05.000Z</time>
      </trkpt>
      <trkpt lat="43.33064" lon="6.55506">
        <ele>50.3</ele>
        <time>2022-09-28T12:57:06.001Z</time>
      </trkpt>
      <trkpt lat="43.33058" lon="6.55509">
        <ele>50.8</ele>
        <time>2022-09-28T12:57:07.001Z</time>
      </trkpt>
      <trkpt lat="43.33053" lon="6.55513">
        <ele>51</ele>
        <time>2022-09-28T12:57:08.002Z</time>
      </trkpt>
      <trkpt lat="43.33047" lon="6.55517">
        <ele>50.8</ele>
        <time>2022-09-28T12:57:09.001Z</time>
      </trkpt>
      <trkpt lat="43.33041" lon="6.55521">
        <ele>50.6</ele>
        <time>2022-09-28T12:57:10.001Z</time>
      </trkpt>
      <trkpt lat="43.33035" lon="6.55524">
        <ele>50.4</ele>
        <time>2022-09-28T12:57:11.001Z</time>
      </trkpt>
      <trkpt lat="43.3303" lon="6.55526">
        <ele>50.1</ele>
        <time>2022-09-28T12:57:12.001Z</time>
      </trkpt>
      <trkpt lat="43.33024" lon="6.5553">
        <ele>50.1</ele>
        <time>2022-09-28T12:57:13.001Z</time>
      </trkpt>
      <trkpt lat="43.33019" lon="6.55535">
        <ele>50.1</ele>
        <time>2022-09-28T12:57:14.001Z</time>
      </trkpt>
      <trkpt lat="43.33013" lon="6.55539">
        <ele>50.1</ele>
        <time>2022-09-28T12:57:15.001Z</time>
      </trkpt>
      <trkpt lat="43.33008" lon="6.55543">
        <ele>50.2</ele>
        <time>2022-09-28T12:57:16.001Z</time>
      </trkpt>
      <trkpt lat="43.33001" lon="6.55545">
        <ele>50.3</ele>
        <time>2022-09-28T12:57:17.000Z</time>
      </trkpt>
      <trkpt lat="43.32995" lon="6.55544">
        <ele>50.6</ele>
        <time>2022-09-28T12:57:18.002Z</time>
      </trkpt>
      <trkpt lat="43.32989" lon="6.55543">
        <ele>50.8</ele>
        <time>2022-09-28T12:57:19.001Z</time>
      </trkpt>
      <trkpt lat="43.32983" lon="6.55543">
        <ele>51.1</ele>
        <time>2022-09-28T12:57:20.001Z</time>
      </trkpt>
      <trkpt lat="43.32977" lon="6.55542">
        <ele>51.3</ele>
        <time>2022-09-28T12:57:21.000Z</time>
      </trkpt>
      <trkpt lat="43.32971" lon="6.55542">
        <ele>51.5</ele>
        <time>2022-09-28T12:57:22.000Z</time>
      </trkpt>
      <trkpt lat="43.32965" lon="6.55541">
        <ele>51.7</ele>
        <time>2022-09-28T12:57:23.001Z</time>
      </trkpt>
      <trkpt lat="43.32958" lon="6.55541">
        <ele>51.8</ele>
        <time>2022-09-28T12:57:24.002Z</time>
      </trkpt>
      <trkpt lat="43.32952" lon="6.5554">
        <ele>52</ele>
        <time>2022-09-28T12:57:25.001Z</time>
      </trkpt>
      <trkpt lat="43.32947" lon="6.5554">
        <ele>52.1</ele>
        <time>2022-09-28T12:57:26.001Z</time>
      </trkpt>
      <trkpt lat="43.32941" lon="6.55538">
        <ele>52.3</ele>
        <time>2022-09-28T12:57:27.002Z</time>
      </trkpt>
      <trkpt lat="43.32935" lon="6.55538">
        <ele>52.4</ele>
        <time>2022-09-28T12:57:28.000Z</time>
      </trkpt>
      <trkpt lat="43.3293" lon="6.55537">
        <ele>52.5</ele>
        <time>2022-09-28T12:57:29.001Z</time>
      </trkpt>
      <trkpt lat="43.32926" lon="6.55536">
        <ele>52.6</ele>
        <time>2022-09-28T12:57:30.002Z</time>
      </trkpt>
      <trkpt lat="43.32922" lon="6.55535">
        <ele>52.7</ele>
        <time>2022-09-28T12:57:31.001Z</time>
      </trkpt>
      <trkpt lat="43.32919" lon="6.55533">
        <ele>52.8</ele>
        <time>2022-09-28T12:57:32.001Z</time>
      </trkpt>
      <trkpt lat="43.32916" lon="6.55532">
        <ele>52.9</ele>
        <time>2022-09-28T12:57:33.000Z</time>
      </trkpt>
      <trkpt lat="43.32911" lon="6.55528">
        <ele>53</ele>
        <time>2022-09-28T12:57:34.001Z</time>
      </trkpt>
      <trkpt lat="43.32909" lon="6.55526">
        <ele>53.1</ele>
        <time>2022-09-28T12:57:35.000Z</time>
      </trkpt>
      <trkpt lat="43.32905" lon="6.55523">
        <ele>53.1</ele>
        <time>2022-09-28T12:57:36.002Z</time>
      </trkpt>
      <trkpt lat="43.32902" lon="6.55521">
        <ele>53.1</ele>
        <time>2022-09-28T12:57:37.001Z</time>
      </trkpt>
      <trkpt lat="43.329" lon="6.5552">
        <ele>53.1</ele>
        <time>2022-09-28T12:57:38.001Z</time>
      </trkpt>
      <trkpt lat="43.32898" lon="6.55518">
        <ele>53.1</ele>
        <time>2022-09-28T12:57:39.001Z</time>
      </trkpt>
      <trkpt lat="43.32893" lon="6.55516">
        <ele>53.1</ele>
        <time>2022-09-28T12:57:41.000Z</time>
      </trkpt>
      <trkpt lat="43.3289" lon="6.55514">
        <ele>53</ele>
        <time>2022-09-28T12:57:42.000Z</time>
      </trkpt>
      <trkpt lat="43.32889" lon="6.55513">
        <ele>53</ele>
        <time>2022-09-28T12:57:43.001Z</time>
      </trkpt>
      <trkpt lat="43.32887" lon="6.55513">
        <ele>53.1</ele>
        <time>2022-09-28T12:57:44.002Z</time>
      </trkpt>
      <trkpt lat="43.32886" lon="6.55513">
        <ele>53.2</ele>
        <time>2022-09-28T12:57:45.002Z</time>
      </trkpt>
      <trkpt lat="43.32885" lon="6.55513">
        <ele>53.2</ele>
        <time>2022-09-28T12:57:46.000Z</time>
      </trkpt>
      <trkpt lat="43.32885" lon="6.55515">
        <ele>53.2</ele>
        <time>2022-09-28T12:57:48.000Z</time>
      </trkpt>
      <trkpt lat="43.32886" lon="6.55515">
        <ele>53.2</ele>
        <time>2022-09-28T12:57:56.000Z</time>
      </trkpt>
      <trkpt lat="43.32887" lon="6.55515">
        <ele>53.1</ele>
        <time>2022-09-28T12:58:05.000Z</time>
      </trkpt>
      <trkpt lat="43.32886" lon="6.55517">
        <ele>53.1</ele>
        <time>2022-09-28T12:58:58.001Z</time>
      </trkpt>
      <trkpt lat="43.32885" lon="6.5552">
        <ele>53.2</ele>
        <time>2022-09-28T12:58:59.001Z</time>
      </trkpt>
      <trkpt lat="43.32884" lon="6.55523">
        <ele>53.2</ele>
        <time>2022-09-28T12:59:00.001Z</time>
      </trkpt>
      <trkpt lat="43.32882" lon="6.55527">
        <ele>53.3</ele>
        <time>2022-09-28T12:59:01.001Z</time>
      </trkpt>
      <trkpt lat="43.3288" lon="6.5553">
        <ele>53.4</ele>
        <time>2022-09-28T12:59:02.001Z</time>
      </trkpt>
      <trkpt lat="43.32879" lon="6.55531">
        <ele>53.4</ele>
        <time>2022-09-28T12:59:03.000Z</time>
      </trkpt>
      <trkpt lat="43.32878" lon="6.55533">
        <ele>53.5</ele>
        <time>2022-09-28T12:59:04.002Z</time>
      </trkpt>
      <trkpt lat="43.32877" lon="6.55533">
        <ele>53.5</ele>
        <time>2022-09-28T12:59:05.000Z</time>
      </trkpt>
      <trkpt lat="43.32876" lon="6.55536">
        <ele>53.6</ele>
        <time>2022-09-28T12:59:06.002Z</time>
      </trkpt>
      <trkpt lat="43.32875" lon="6.55539">
        <ele>53.7</ele>
        <time>2022-09-28T12:59:07.000Z</time>
      </trkpt>
      <trkpt lat="43.32875" lon="6.55542">
        <ele>53.8</ele>
        <time>2022-09-28T12:59:08.000Z</time>
      </trkpt>
      <trkpt lat="43.32873" lon="6.55544">
        <ele>53.9</ele>
        <time>2022-09-28T12:59:10.001Z</time>
      </trkpt>
      <trkpt lat="43.32865" lon="6.55544">
        <ele>54.3</ele>
        <time>2022-09-28T12:59:12.001Z</time>
      </trkpt>
      <trkpt lat="43.32863" lon="6.55546">
        <ele>54.5</ele>
        <time>2022-09-28T12:59:13.001Z</time>
      </trkpt>
      <trkpt lat="43.32862" lon="6.55548">
        <ele>54.7</ele>
        <time>2022-09-28T12:59:14.001Z</time>
      </trkpt>
      <trkpt lat="43.32861" lon="6.55552">
        <ele>54.9</ele>
        <time>2022-09-28T12:59:15.001Z</time>
      </trkpt>
      <trkpt lat="43.32858" lon="6.55554">
        <ele>55.5</ele>
        <time>2022-09-28T12:59:16.000Z</time>
      </trkpt>
      <trkpt lat="43.32855" lon="6.55553">
        <ele>55.9</ele>
        <time>2022-09-28T12:59:18.000Z</time>
      </trkpt>
      <trkpt lat="43.32854" lon="6.55552">
        <ele>56.2</ele>
        <time>2022-09-28T12:59:19.001Z</time>
      </trkpt>
      <trkpt lat="43.32851" lon="6.55553">
        <ele>56.7</ele>
        <time>2022-09-28T12:59:20.001Z</time>
      </trkpt>
      <trkpt lat="43.32846" lon="6.55555">
        <ele>57.6</ele>
        <time>2022-09-28T12:59:22.000Z</time>
      </trkpt>
      <trkpt lat="43.32842" lon="6.55557">
        <ele>58.4</ele>
        <time>2022-09-28T12:59:23.001Z</time>
      </trkpt>
      <trkpt lat="43.3284" lon="6.55557">
        <ele>58.9</ele>
        <time>2022-09-28T12:59:24.001Z</time>
      </trkpt>
      <trkpt lat="43.32837" lon="6.55558">
        <ele>59.4</ele>
        <time>2022-09-28T12:59:25.001Z</time>
      </trkpt>
      <trkpt lat="43.32835" lon="6.55559">
        <ele>59.6</ele>
        <time>2022-09-28T12:59:26.001Z</time>
      </trkpt>
      <trkpt lat="43.32834" lon="6.5556">
        <ele>59.9</ele>
        <time>2022-09-28T12:59:27.001Z</time>
      </trkpt>
      <trkpt lat="43.32831" lon="6.55561">
        <ele>60.2</ele>
        <time>2022-09-28T12:59:29.000Z</time>
      </trkpt>
      <trkpt lat="43.3283" lon="6.55561">
        <ele>60.4</ele>
        <time>2022-09-28T12:59:30.001Z</time>
      </trkpt>
      <trkpt lat="43.32829" lon="6.55561">
        <ele>60.5</ele>
        <time>2022-09-28T12:59:31.001Z</time>
      </trkpt>
      <trkpt lat="43.32827" lon="6.55561">
        <ele>60.6</ele>
        <time>2022-09-28T12:59:32.002Z</time>
      </trkpt>
      <trkpt lat="43.32826" lon="6.5556">
        <ele>60.8</ele>
        <time>2022-09-28T12:59:33.001Z</time>
      </trkpt>
      <trkpt lat="43.32825" lon="6.55559">
        <ele>60.9</ele>
        <time>2022-09-28T12:59:34.003Z</time>
      </trkpt>
      <trkpt lat="43.32823" lon="6.55559">
        <ele>61.1</ele>
        <time>2022-09-28T12:59:35.000Z</time>
      </trkpt>
      <trkpt lat="43.32821" lon="6.55559">
        <ele>61.4</ele>
        <time>2022-09-28T12:59:36.001Z</time>
      </trkpt>
      <trkpt lat="43.32818" lon="6.55558">
        <ele>61.6</ele>
        <time>2022-09-28T12:59:37.000Z</time>
      </trkpt>
      <trkpt lat="43.32817" lon="6.55557">
        <ele>61.8</ele>
        <time>2022-09-28T12:59:38.000Z</time>
      </trkpt>
      <trkpt lat="43.32815" lon="6.55557">
        <ele>62</ele>
        <time>2022-09-28T12:59:39.000Z</time>
      </trkpt>
      <trkpt lat="43.32813" lon="6.55557">
        <ele>62.2</ele>
        <time>2022-09-28T12:59:40.001Z</time>
      </trkpt>
      <trkpt lat="43.32809" lon="6.55558">
        <ele>62.6</ele>
        <time>2022-09-28T12:59:41.001Z</time>
      </trkpt>
      <trkpt lat="43.32805" lon="6.55559">
        <ele>63</ele>
        <time>2022-09-28T12:59:43.000Z</time>
      </trkpt>
      <trkpt lat="43.32804" lon="6.5556">
        <ele>62.8</ele>
        <time>2022-09-28T12:59:44.001Z</time>
      </trkpt>
      <trkpt lat="43.32801" lon="6.55559">
        <ele>62.7</ele>
        <time>2022-09-28T12:59:45.001Z</time>
      </trkpt>
      <trkpt lat="43.32798" lon="6.55559">
        <ele>62.4</ele>
        <time>2022-09-28T12:59:46.001Z</time>
      </trkpt>
      <trkpt lat="43.32793" lon="6.55561">
        <ele>62</ele>
        <time>2022-09-28T12:59:48.002Z</time>
      </trkpt>
      <trkpt lat="43.3279" lon="6.5556">
        <ele>61.8</ele>
        <time>2022-09-28T12:59:49.001Z</time>
      </trkpt>
      <trkpt lat="43.32785" lon="6.55557">
        <ele>61.5</ele>
        <time>2022-09-28T12:59:51.000Z</time>
      </trkpt>
      <trkpt lat="43.32781" lon="6.55554">
        <ele>61.3</ele>
        <time>2022-09-28T12:59:52.000Z</time>
      </trkpt>
      <trkpt lat="43.32776" lon="6.55552">
        <ele>61</ele>
        <time>2022-09-28T12:59:53.000Z</time>
      </trkpt>
      <trkpt lat="43.32772" lon="6.5555">
        <ele>60.8</ele>
        <time>2022-09-28T12:59:54.001Z</time>
      </trkpt>
      <trkpt lat="43.32769" lon="6.55547">
        <ele>60.8</ele>
        <time>2022-09-28T12:59:55.001Z</time>
      </trkpt>
      <trkpt lat="43.32764" lon="6.55544">
        <ele>60.6</ele>
        <time>2022-09-28T12:59:56.001Z</time>
      </trkpt>
      <trkpt lat="43.32759" lon="6.55546">
        <ele>60.2</ele>
        <time>2022-09-28T12:59:57.000Z</time>
      </trkpt>
      <trkpt lat="43.32757" lon="6.55544">
        <ele>60.2</ele>
        <time>2022-09-28T12:59:58.002Z</time>
      </trkpt>
      <trkpt lat="43.32757" lon="6.55539">
        <ele>60.5</ele>
        <time>2022-09-28T13:00:00.000Z</time>
      </trkpt>
      <trkpt lat="43.32756" lon="6.55537">
        <ele>60.6</ele>
        <time>2022-09-28T13:00:01.000Z</time>
      </trkpt>
      <trkpt lat="43.32754" lon="6.55535">
        <ele>60.7</ele>
        <time>2022-09-28T13:00:02.001Z</time>
      </trkpt>
      <trkpt lat="43.32753" lon="6.55535">
        <ele>60.6</ele>
        <time>2022-09-28T13:00:03.003Z</time>
      </trkpt>
      <trkpt lat="43.32752" lon="6.55536">
        <ele>60.5</ele>
        <time>2022-09-28T13:00:05.000Z</time>
      </trkpt>
      <trkpt lat="43.32753" lon="6.55536">
        <ele>60.6</ele>
        <time>2022-09-28T13:00:22.001Z</time>
      </trkpt>
      <trkpt lat="43.32753" lon="6.55538">
        <ele>60.4</ele>
        <time>2022-09-28T13:01:00.001Z</time>
      </trkpt>
      <trkpt lat="43.32752" lon="6.55539">
        <ele>60.3</ele>
        <time>2022-09-28T13:01:01.002Z</time>
      </trkpt>
      <trkpt lat="43.3275" lon="6.55539">
        <ele>60.2</ele>
        <time>2022-09-28T13:01:02.001Z</time>
      </trkpt>
      <trkpt lat="43.32748" lon="6.5554">
        <ele>60.2</ele>
        <time>2022-09-28T13:01:03.001Z</time>
      </trkpt>
      <trkpt lat="43.32747" lon="6.55539">
        <ele>60.3</ele>
        <time>2022-09-28T13:01:04.001Z</time>
      </trkpt>
      <trkpt lat="43.32745" lon="6.55539">
        <ele>60.4</ele>
        <time>2022-09-28T13:01:05.001Z</time>
      </trkpt>
      <trkpt lat="43.32742" lon="6.55539">
        <ele>60.5</ele>
        <time>2022-09-28T13:01:06.000Z</time>
      </trkpt>
      <trkpt lat="43.32741" lon="6.5554">
        <ele>60.5</ele>
        <time>2022-09-28T13:01:07.001Z</time>
      </trkpt>
      <trkpt lat="43.32737" lon="6.55538">
        <ele>60.7</ele>
        <time>2022-09-28T13:01:08.001Z</time>
      </trkpt>
      <trkpt lat="43.32732" lon="6.55538">
        <ele>60.9</ele>
        <time>2022-09-28T13:01:09.000Z</time>
      </trkpt>
      <trkpt lat="43.32728" lon="6.55538">
        <ele>61.1</ele>
        <time>2022-09-28T13:01:11.001Z</time>
      </trkpt>
      <trkpt lat="43.32725" lon="6.55538">
        <ele>61.2</ele>
        <time>2022-09-28T13:01:12.001Z</time>
      </trkpt>
      <trkpt lat="43.32722" lon="6.55539">
        <ele>61.2</ele>
        <time>2022-09-28T13:01:13.001Z</time>
      </trkpt>
      <trkpt lat="43.32718" lon="6.55539">
        <ele>61.4</ele>
        <time>2022-09-28T13:01:14.043Z</time>
      </trkpt>
      <trkpt lat="43.32715" lon="6.55539">
        <ele>61.4</ele>
        <time>2022-09-28T13:01:15.001Z</time>
      </trkpt>
      <trkpt lat="43.32712" lon="6.55539">
        <ele>61.5</ele>
        <time>2022-09-28T13:01:16.001Z</time>
      </trkpt>
      <trkpt lat="43.32708" lon="6.55539">
        <ele>61.7</ele>
        <time>2022-09-28T13:01:17.000Z</time>
      </trkpt>
      <trkpt lat="43.32706" lon="6.55538">
        <ele>61.8</ele>
        <time>2022-09-28T13:01:19.001Z</time>
      </trkpt>
      <trkpt lat="43.32704" lon="6.55538">
        <ele>61.9</ele>
        <time>2022-09-28T13:01:20.000Z</time>
      </trkpt>
      <trkpt lat="43.32702" lon="6.55538">
        <ele>62</ele>
        <time>2022-09-28T13:01:21.001Z</time>
      </trkpt>
      <trkpt lat="43.32699" lon="6.55538">
        <ele>62.1</ele>
        <time>2022-09-28T13:01:22.001Z</time>
      </trkpt>
      <trkpt lat="43.32696" lon="6.55537">
        <ele>62.2</ele>
        <time>2022-09-28T13:01:23.001Z</time>
      </trkpt>
      <trkpt lat="43.32694" lon="6.55537">
        <ele>62.3</ele>
        <time>2022-09-28T13:01:24.001Z</time>
      </trkpt>
      <trkpt lat="43.32692" lon="6.55537">
        <ele>62.3</ele>
        <time>2022-09-28T13:01:26.000Z</time>
      </trkpt>
      <trkpt lat="43.3269" lon="6.55537">
        <ele>62.3</ele>
        <time>2022-09-28T13:01:27.001Z</time>
      </trkpt>
      <trkpt lat="43.32688" lon="6.55536">
        <ele>62.4</ele>
        <time>2022-09-28T13:01:29.000Z</time>
      </trkpt>
      <trkpt lat="43.32685" lon="6.55536">
        <ele>62.3</ele>
        <time>2022-09-28T13:01:30.002Z</time>
      </trkpt>
      <trkpt lat="43.32683" lon="6.55536">
        <ele>62.3</ele>
        <time>2022-09-28T13:01:31.000Z</time>
      </trkpt>
      <trkpt lat="43.3268" lon="6.55535">
        <ele>62.3</ele>
        <time>2022-09-28T13:01:32.001Z</time>
      </trkpt>
      <trkpt lat="43.32676" lon="6.55535">
        <ele>62.3</ele>
        <time>2022-09-28T13:01:34.001Z</time>
      </trkpt>
      <trkpt lat="43.32673" lon="6.55534">
        <ele>62.3</ele>
        <time>2022-09-28T13:01:35.001Z</time>
      </trkpt>
      <trkpt lat="43.32668" lon="6.55533">
        <ele>62.4</ele>
        <time>2022-09-28T13:01:36.003Z</time>
      </trkpt>
      <trkpt lat="43.32664" lon="6.55533">
        <ele>62.3</ele>
        <time>2022-09-28T13:01:37.000Z</time>
      </trkpt>
      <trkpt lat="43.32661" lon="6.55532">
        <ele>62.3</ele>
        <time>2022-09-28T13:01:38.000Z</time>
      </trkpt>
      <trkpt lat="43.32656" lon="6.55531">
        <ele>62.3</ele>
        <time>2022-09-28T13:01:40.001Z</time>
      </trkpt>
      <trkpt lat="43.32653" lon="6.55529">
        <ele>62.4</ele>
        <time>2022-09-28T13:01:41.000Z</time>
      </trkpt>
      <trkpt lat="43.3265" lon="6.55527">
        <ele>62.5</ele>
        <time>2022-09-28T13:01:42.000Z</time>
      </trkpt>
      <trkpt lat="43.32644" lon="6.55522">
        <ele>62.5</ele>
        <time>2022-09-28T13:01:44.001Z</time>
      </trkpt>
      <trkpt lat="43.32641" lon="6.5552">
        <ele>62.6</ele>
        <time>2022-09-28T13:01:45.001Z</time>
      </trkpt>
      <trkpt lat="43.32637" lon="6.55518">
        <ele>62.6</ele>
        <time>2022-09-28T13:01:46.001Z</time>
      </trkpt>
      <trkpt lat="43.32634" lon="6.55515">
        <ele>62.6</ele>
        <time>2022-09-28T13:01:47.001Z</time>
      </trkpt>
      <trkpt lat="43.32631" lon="6.55512">
        <ele>62.7</ele>
        <time>2022-09-28T13:01:48.001Z</time>
      </trkpt>
      <trkpt lat="43.32628" lon="6.5551">
        <ele>62.8</ele>
        <time>2022-09-28T13:01:49.001Z</time>
      </trkpt>
      <trkpt lat="43.32626" lon="6.55506">
        <ele>63</ele>
        <time>2022-09-28T13:01:51.001Z</time>
      </trkpt>
      <trkpt lat="43.32626" lon="6.55503">
        <ele>63.3</ele>
        <time>2022-09-28T13:01:52.001Z</time>
      </trkpt>
      <trkpt lat="43.32626" lon="6.55499">
        <ele>63.6</ele>
        <time>2022-09-28T13:01:53.001Z</time>
      </trkpt>
      <trkpt lat="43.32626" lon="6.55496">
        <ele>63.7</ele>
        <time>2022-09-28T13:01:54.001Z</time>
      </trkpt>
      <trkpt lat="43.32626" lon="6.55494">
        <ele>63.8</ele>
        <time>2022-09-28T13:01:55.001Z</time>
      </trkpt>
      <trkpt lat="43.32627" lon="6.55491">
        <ele>63.9</ele>
        <time>2022-09-28T13:01:56.000Z</time>
      </trkpt>
      <trkpt lat="43.32627" lon="6.55488">
        <ele>64</ele>
        <time>2022-09-28T13:01:57.001Z</time>
      </trkpt>
      <trkpt lat="43.32627" lon="6.55485">
        <ele>64.1</ele>
        <time>2022-09-28T13:01:58.001Z</time>
      </trkpt>
      <trkpt lat="43.32626" lon="6.55478">
        <ele>64.3</ele>
        <time>2022-09-28T13:01:59.001Z</time>
      </trkpt>
      <trkpt lat="43.32625" lon="6.55472">
        <ele>64.5</ele>
        <time>2022-09-28T13:02:01.000Z</time>
      </trkpt>
      <trkpt lat="43.32625" lon="6.55467">
        <ele>64.2</ele>
        <time>2022-09-28T13:02:02.000Z</time>
      </trkpt>
      <trkpt lat="43.32626" lon="6.5546">
        <ele>63.9</ele>
        <time>2022-09-28T13:02:04.001Z</time>
      </trkpt>
      <trkpt lat="43.32627" lon="6.55455">
        <ele>63.8</ele>
        <time>2022-09-28T13:02:05.000Z</time>
      </trkpt>
      <trkpt lat="43.32627" lon="6.55451">
        <ele>63.6</ele>
        <time>2022-09-28T13:02:06.000Z</time>
      </trkpt>
      <trkpt lat="43.32628" lon="6.55446">
        <ele>63.5</ele>
        <time>2022-09-28T13:02:07.001Z</time>
      </trkpt>
      <trkpt lat="43.32629" lon="6.55441">
        <ele>63.6</ele>
        <time>2022-09-28T13:02:08.001Z</time>
      </trkpt>
      <trkpt lat="43.3263" lon="6.55436">
        <ele>63.7</ele>
        <time>2022-09-28T13:02:09.001Z</time>
      </trkpt>
      <trkpt lat="43.32631" lon="6.55431">
        <ele>63.8</ele>
        <time>2022-09-28T13:02:10.000Z</time>
      </trkpt>
      <trkpt lat="43.32632" lon="6.55421">
        <ele>64</ele>
        <time>2022-09-28T13:02:12.000Z</time>
      </trkpt>
      <trkpt lat="43.32632" lon="6.55416">
        <ele>64.1</ele>
        <time>2022-09-28T13:02:13.000Z</time>
      </trkpt>
      <trkpt lat="43.32633" lon="6.55411">
        <ele>64.2</ele>
        <time>2022-09-28T13:02:14.016Z</time>
      </trkpt>
      <trkpt lat="43.32634" lon="6.55406">
        <ele>64.3</ele>
        <time>2022-09-28T13:02:15.000Z</time>
      </trkpt>
      <trkpt lat="43.32635" lon="6.55401">
        <ele>64.5</ele>
        <time>2022-09-28T13:02:16.001Z</time>
      </trkpt>
      <trkpt lat="43.32637" lon="6.55391">
        <ele>64.7</ele>
        <time>2022-09-28T13:02:18.000Z</time>
      </trkpt>
      <trkpt lat="43.32638" lon="6.55386">
        <ele>65</ele>
        <time>2022-09-28T13:02:19.001Z</time>
      </trkpt>
      <trkpt lat="43.32639" lon="6.55378">
        <ele>65.8</ele>
        <time>2022-09-28T13:02:21.001Z</time>
      </trkpt>
      <trkpt lat="43.32639" lon="6.55372">
        <ele>66.2</ele>
        <time>2022-09-28T13:02:22.001Z</time>
      </trkpt>
      <trkpt lat="43.3264" lon="6.55368">
        <ele>66.6</ele>
        <time>2022-09-28T13:02:23.001Z</time>
      </trkpt>
      <trkpt lat="43.32641" lon="6.55364">
        <ele>66.9</ele>
        <time>2022-09-28T13:02:24.001Z</time>
      </trkpt>
      <trkpt lat="43.32641" lon="6.55359">
        <ele>67.2</ele>
        <time>2022-09-28T13:02:25.000Z</time>
      </trkpt>
      <trkpt lat="43.32642" lon="6.55354">
        <ele>67.4</ele>
        <time>2022-09-28T13:02:26.000Z</time>
      </trkpt>
      <trkpt lat="43.32643" lon="6.55349">
        <ele>67.6</ele>
        <time>2022-09-28T13:02:27.000Z</time>
      </trkpt>
      <trkpt lat="43.32643" lon="6.55345">
        <ele>67.8</ele>
        <time>2022-09-28T13:02:28.002Z</time>
      </trkpt>
      <trkpt lat="43.32644" lon="6.5534">
        <ele>68.1</ele>
        <time>2022-09-28T13:02:29.000Z</time>
      </trkpt>
      <trkpt lat="43.32645" lon="6.55335">
        <ele>68.3</ele>
        <time>2022-09-28T13:02:30.001Z</time>
      </trkpt>
      <trkpt lat="43.32645" lon="6.55331">
        <ele>68.6</ele>
        <time>2022-09-28T13:02:31.002Z</time>
      </trkpt>
      <trkpt lat="43.32646" lon="6.55327">
        <ele>68.8</ele>
        <time>2022-09-28T13:02:32.001Z</time>
      </trkpt>
      <trkpt lat="43.32647" lon="6.55322">
        <ele>69.1</ele>
        <time>2022-09-28T13:02:33.000Z</time>
      </trkpt>
      <trkpt lat="43.32647" lon="6.55318">
        <ele>69.3</ele>
        <time>2022-09-28T13:02:34.001Z</time>
      </trkpt>
      <trkpt lat="43.32647" lon="6.55314">
        <ele>69.5</ele>
        <time>2022-09-28T13:02:35.001Z</time>
      </trkpt>
      <trkpt lat="43.32648" lon="6.55307">
        <ele>69.9</ele>
        <time>2022-09-28T13:02:36.001Z</time>
      </trkpt>
      <trkpt lat="43.32648" lon="6.55301">
        <ele>70.1</ele>
        <time>2022-09-28T13:02:37.000Z</time>
      </trkpt>
      <trkpt lat="43.32648" lon="6.55297">
        <ele>70.4</ele>
        <time>2022-09-28T13:02:38.000Z</time>
      </trkpt>
      <trkpt lat="43.32648" lon="6.55293">
        <ele>70.6</ele>
        <time>2022-09-28T13:02:40.000Z</time>
      </trkpt>
      <trkpt lat="43.32648" lon="6.5529">
        <ele>70.8</ele>
        <time>2022-09-28T13:02:41.000Z</time>
      </trkpt>
      <trkpt lat="43.32648" lon="6.55286">
        <ele>70.9</ele>
        <time>2022-09-28T13:02:42.002Z</time>
      </trkpt>
      <trkpt lat="43.32648" lon="6.55279">
        <ele>71.2</ele>
        <time>2022-09-28T13:02:44.001Z</time>
      </trkpt>
      <trkpt lat="43.32648" lon="6.55275">
        <ele>71.5</ele>
        <time>2022-09-28T13:02:45.001Z</time>
      </trkpt>
      <trkpt lat="43.32647" lon="6.55272">
        <ele>71.7</ele>
        <time>2022-09-28T13:02:46.000Z</time>
      </trkpt>
      <trkpt lat="43.32647" lon="6.55269">
        <ele>72</ele>
        <time>2022-09-28T13:02:47.001Z</time>
      </trkpt>
      <trkpt lat="43.32648" lon="6.55265">
        <ele>72.3</ele>
        <time>2022-09-28T13:02:48.000Z</time>
      </trkpt>
      <trkpt lat="43.32647" lon="6.55263">
        <ele>72.5</ele>
        <time>2022-09-28T13:02:49.001Z</time>
      </trkpt>
      <trkpt lat="43.32648" lon="6.5526">
        <ele>72.8</ele>
        <time>2022-09-28T13:02:50.001Z</time>
      </trkpt>
      <trkpt lat="43.32648" lon="6.55257">
        <ele>73.1</ele>
        <time>2022-09-28T13:02:51.001Z</time>
      </trkpt>
      <trkpt lat="43.32648" lon="6.55254">
        <ele>73.3</ele>
        <time>2022-09-28T13:02:52.002Z</time>
      </trkpt>
      <trkpt lat="43.32648" lon="6.55252">
        <ele>73.5</ele>
        <time>2022-09-28T13:02:53.003Z</time>
      </trkpt>
      <trkpt lat="43.32649" lon="6.55249">
        <ele>73.7</ele>
        <time>2022-09-28T13:02:54.001Z</time>
      </trkpt>
      <trkpt lat="43.32649" lon="6.55246">
        <ele>73.9</ele>
        <time>2022-09-28T13:02:55.001Z</time>
      </trkpt>
      <trkpt lat="43.32649" lon="6.55243">
        <ele>74</ele>
        <time>2022-09-28T13:02:56.002Z</time>
      </trkpt>
      <trkpt lat="43.32649" lon="6.55241">
        <ele>74.1</ele>
        <time>2022-09-28T13:02:57.000Z</time>
      </trkpt>
      <trkpt lat="43.3265" lon="6.55238">
        <ele>74.2</ele>
        <time>2022-09-28T13:02:58.001Z</time>
      </trkpt>
      <trkpt lat="43.32651" lon="6.55236">
        <ele>74.4</ele>
        <time>2022-09-28T13:02:59.001Z</time>
      </trkpt>
      <trkpt lat="43.32651" lon="6.55233">
        <ele>74.5</ele>
        <time>2022-09-28T13:03:00.000Z</time>
      </trkpt>
      <trkpt lat="43.32652" lon="6.55232">
        <ele>74.6</ele>
        <time>2022-09-28T13:03:01.003Z</time>
      </trkpt>
      <trkpt lat="43.32653" lon="6.55229">
        <ele>74.7</ele>
        <time>2022-09-28T13:03:02.000Z</time>
      </trkpt>
      <trkpt lat="43.32654" lon="6.55227">
        <ele>74.9</ele>
        <time>2022-09-28T13:03:03.000Z</time>
      </trkpt>
      <trkpt lat="43.32655" lon="6.55225">
        <ele>75.1</ele>
        <time>2022-09-28T13:03:04.000Z</time>
      </trkpt>
      <trkpt lat="43.32657" lon="6.5522">
        <ele>75.2</ele>
        <time>2022-09-28T13:03:06.000Z</time>
      </trkpt>
      <trkpt lat="43.32658" lon="6.55218">
        <ele>75.2</ele>
        <time>2022-09-28T13:03:07.001Z</time>
      </trkpt>
      <trkpt lat="43.32659" lon="6.55217">
        <ele>75.3</ele>
        <time>2022-09-28T13:03:08.000Z</time>
      </trkpt>
      <trkpt lat="43.32661" lon="6.55215">
        <ele>75.3</ele>
        <time>2022-09-28T13:03:09.000Z</time>
      </trkpt>
      <trkpt lat="43.32662" lon="6.55213">
        <ele>75.3</ele>
        <time>2022-09-28T13:03:10.000Z</time>
      </trkpt>
      <trkpt lat="43.32663" lon="6.55212">
        <ele>75.4</ele>
        <time>2022-09-28T13:03:11.000Z</time>
      </trkpt>
      <trkpt lat="43.32664" lon="6.55209">
        <ele>75.4</ele>
        <time>2022-09-28T13:03:12.001Z</time>
      </trkpt>
      <trkpt lat="43.32666" lon="6.55207">
        <ele>75.4</ele>
        <time>2022-09-28T13:03:13.000Z</time>
      </trkpt>
      <trkpt lat="43.32667" lon="6.55205">
        <ele>75.4</ele>
        <time>2022-09-28T13:03:14.001Z</time>
      </trkpt>
      <trkpt lat="43.32669" lon="6.55203">
        <ele>75.4</ele>
        <time>2022-09-28T13:03:15.001Z</time>
      </trkpt>
      <trkpt lat="43.3267" lon="6.552">
        <ele>75.5</ele>
        <time>2022-09-28T13:03:17.001Z</time>
      </trkpt>
      <trkpt lat="43.32672" lon="6.55198">
        <ele>75.5</ele>
        <time>2022-09-28T13:03:18.002Z</time>
      </trkpt>
      <trkpt lat="43.32673" lon="6.55195">
        <ele>75.5</ele>
        <time>2022-09-28T13:03:19.001Z</time>
      </trkpt>
      <trkpt lat="43.32674" lon="6.55192">
        <ele>75.5</ele>
        <time>2022-09-28T13:03:20.001Z</time>
      </trkpt>
      <trkpt lat="43.32675" lon="6.55189">
        <ele>75.5</ele>
        <time>2022-09-28T13:03:21.000Z</time>
      </trkpt>
      <trkpt lat="43.32677" lon="6.55184">
        <ele>75.6</ele>
        <time>2022-09-28T13:03:23.001Z</time>
      </trkpt>
      <trkpt lat="43.32677" lon="6.55181">
        <ele>75.6</ele>
        <time>2022-09-28T13:03:24.000Z</time>
      </trkpt>
      <trkpt lat="43.32678" lon="6.55178">
        <ele>75.6</ele>
        <time>2022-09-28T13:03:25.000Z</time>
      </trkpt>
      <trkpt lat="43.32679" lon="6.55174">
        <ele>75.6</ele>
        <time>2022-09-28T13:03:26.001Z</time>
      </trkpt>
      <trkpt lat="43.3268" lon="6.55169">
        <ele>75.5</ele>
        <time>2022-09-28T13:03:28.000Z</time>
      </trkpt>
      <trkpt lat="43.32681" lon="6.55165">
        <ele>75.6</ele>
        <time>2022-09-28T13:03:29.000Z</time>
      </trkpt>
      <trkpt lat="43.32682" lon="6.55161">
        <ele>75.8</ele>
        <time>2022-09-28T13:03:31.002Z</time>
      </trkpt>
      <trkpt lat="43.32683" lon="6.55158">
        <ele>75.9</ele>
        <time>2022-09-28T13:03:32.001Z</time>
      </trkpt>
      <trkpt lat="43.32684" lon="6.55156">
        <ele>76</ele>
        <time>2022-09-28T13:03:33.000Z</time>
      </trkpt>
      <trkpt lat="43.32684" lon="6.55154">
        <ele>76.1</ele>
        <time>2022-09-28T13:03:34.001Z</time>
      </trkpt>
      <trkpt lat="43.32685" lon="6.5515">
        <ele>76.3</ele>
        <time>2022-09-28T13:03:36.000Z</time>
      </trkpt>
      <trkpt lat="43.32686" lon="6.55148">
        <ele>76.4</ele>
        <time>2022-09-28T13:03:37.000Z</time>
      </trkpt>
      <trkpt lat="43.32687" lon="6.55143">
        <ele>76.6</ele>
        <time>2022-09-28T13:03:38.000Z</time>
      </trkpt>
      <trkpt lat="43.32688" lon="6.55139">
        <ele>76.8</ele>
        <time>2022-09-28T13:03:39.000Z</time>
      </trkpt>
      <trkpt lat="43.32688" lon="6.55134">
        <ele>76.9</ele>
        <time>2022-09-28T13:03:41.001Z</time>
      </trkpt>
      <trkpt lat="43.32689" lon="6.5513">
        <ele>76.9</ele>
        <time>2022-09-28T13:03:42.001Z</time>
      </trkpt>
      <trkpt lat="43.3269" lon="6.55127">
        <ele>77</ele>
        <time>2022-09-28T13:03:43.001Z</time>
      </trkpt>
      <trkpt lat="43.32691" lon="6.55124">
        <ele>77</ele>
        <time>2022-09-28T13:03:44.001Z</time>
      </trkpt>
      <trkpt lat="43.32691" lon="6.55121">
        <ele>77</ele>
        <time>2022-09-28T13:03:45.000Z</time>
      </trkpt>
      <trkpt lat="43.32692" lon="6.55118">
        <ele>77.1</ele>
        <time>2022-09-28T13:03:46.003Z</time>
      </trkpt>
      <trkpt lat="43.32692" lon="6.55115">
        <ele>77.1</ele>
        <time>2022-09-28T13:03:47.000Z</time>
      </trkpt>
      <trkpt lat="43.32693" lon="6.55111">
        <ele>77.1</ele>
        <time>2022-09-28T13:03:48.000Z</time>
      </trkpt>
      <trkpt lat="43.32694" lon="6.55107">
        <ele>77</ele>
        <time>2022-09-28T13:03:49.001Z</time>
      </trkpt>
      <trkpt lat="43.32694" lon="6.55104">
        <ele>77</ele>
        <time>2022-09-28T13:03:50.001Z</time>
      </trkpt>
      <trkpt lat="43.32695" lon="6.55101">
        <ele>76.9</ele>
        <time>2022-09-28T13:03:51.000Z</time>
      </trkpt>
      <trkpt lat="43.32696" lon="6.55097">
        <ele>76.9</ele>
        <time>2022-09-28T13:03:52.001Z</time>
      </trkpt>
      <trkpt lat="43.32697" lon="6.55093">
        <ele>76.8</ele>
        <time>2022-09-28T13:03:53.000Z</time>
      </trkpt>
      <trkpt lat="43.32697" lon="6.5509">
        <ele>76.8</ele>
        <time>2022-09-28T13:03:54.003Z</time>
      </trkpt>
      <trkpt lat="43.32698" lon="6.55086">
        <ele>76.7</ele>
        <time>2022-09-28T13:03:55.000Z</time>
      </trkpt>
      <trkpt lat="43.327" lon="6.55081">
        <ele>76.5</ele>
        <time>2022-09-28T13:03:56.000Z</time>
      </trkpt>
      <trkpt lat="43.32701" lon="6.55075">
        <ele>76.1</ele>
        <time>2022-09-28T13:03:57.002Z</time>
      </trkpt>
      <trkpt lat="43.32702" lon="6.55068">
        <ele>75.6</ele>
        <time>2022-09-28T13:03:59.001Z</time>
      </trkpt>
      <trkpt lat="43.32702" lon="6.55063">
        <ele>75.4</ele>
        <time>2022-09-28T13:04:00.002Z</time>
      </trkpt>
      <trkpt lat="43.32701" lon="6.55059">
        <ele>75.2</ele>
        <time>2022-09-28T13:04:01.001Z</time>
      </trkpt>
      <trkpt lat="43.32701" lon="6.55055">
        <ele>75.1</ele>
        <time>2022-09-28T13:04:02.002Z</time>
      </trkpt>
      <trkpt lat="43.32699" lon="6.55051">
        <ele>75.4</ele>
        <time>2022-09-28T13:04:03.002Z</time>
      </trkpt>
      <trkpt lat="43.32698" lon="6.55049">
        <ele>75.5</ele>
        <time>2022-09-28T13:04:04.004Z</time>
      </trkpt>
      <trkpt lat="43.32696" lon="6.55047">
        <ele>75.8</ele>
        <time>2022-09-28T13:04:05.001Z</time>
      </trkpt>
      <trkpt lat="43.32692" lon="6.55045">
        <ele>76.2</ele>
        <time>2022-09-28T13:04:06.001Z</time>
      </trkpt>
      <trkpt lat="43.3269" lon="6.55044">
        <ele>76.4</ele>
        <time>2022-09-28T13:04:07.001Z</time>
      </trkpt>
      <trkpt lat="43.32688" lon="6.5504">
        <ele>76.6</ele>
        <time>2022-09-28T13:04:09.002Z</time>
      </trkpt>
      <trkpt lat="43.32686" lon="6.55038">
        <ele>76.8</ele>
        <time>2022-09-28T13:04:10.000Z</time>
      </trkpt>
      <trkpt lat="43.32686" lon="6.55034">
        <ele>76.9</ele>
        <time>2022-09-28T13:04:11.001Z</time>
      </trkpt>
      <trkpt lat="43.32685" lon="6.55031">
        <ele>77</ele>
        <time>2022-09-28T13:04:12.001Z</time>
      </trkpt>
      <trkpt lat="43.32685" lon="6.55027">
        <ele>77</ele>
        <time>2022-09-28T13:04:13.000Z</time>
      </trkpt>
      <trkpt lat="43.32685" lon="6.55023">
        <ele>76.9</ele>
        <time>2022-09-28T13:04:15.000Z</time>
      </trkpt>
      <trkpt lat="43.32684" lon="6.55021">
        <ele>76.8</ele>
        <time>2022-09-28T13:04:16.001Z</time>
      </trkpt>
      <trkpt lat="43.32683" lon="6.55016">
        <ele>76.8</ele>
        <time>2022-09-28T13:04:17.003Z</time>
      </trkpt>
      <trkpt lat="43.32682" lon="6.5501">
        <ele>76.7</ele>
        <time>2022-09-28T13:04:19.001Z</time>
      </trkpt>
      <trkpt lat="43.32681" lon="6.55008">
        <ele>76.7</ele>
        <time>2022-09-28T13:04:20.001Z</time>
      </trkpt>
      <trkpt lat="43.32678" lon="6.55004">
        <ele>76.9</ele>
        <time>2022-09-28T13:04:21.002Z</time>
      </trkpt>
      <trkpt lat="43.32676" lon="6.55001">
        <ele>77</ele>
        <time>2022-09-28T13:04:23.001Z</time>
      </trkpt>
      <trkpt lat="43.32674" lon="6.55">
        <ele>77.2</ele>
        <time>2022-09-28T13:04:24.001Z</time>
      </trkpt>
      <trkpt lat="43.32672" lon="6.54999">
        <ele>77.4</ele>
        <time>2022-09-28T13:04:25.000Z</time>
      </trkpt>
      <trkpt lat="43.3267" lon="6.54998">
        <ele>77.5</ele>
        <time>2022-09-28T13:04:26.001Z</time>
      </trkpt>
      <trkpt lat="43.32668" lon="6.54997">
        <ele>77.7</ele>
        <time>2022-09-28T13:04:27.000Z</time>
      </trkpt>
      <trkpt lat="43.32666" lon="6.54997">
        <ele>77.8</ele>
        <time>2022-09-28T13:04:28.000Z</time>
      </trkpt>
      <trkpt lat="43.32664" lon="6.54996">
        <ele>77.7</ele>
        <time>2022-09-28T13:04:30.001Z</time>
      </trkpt>
      <trkpt lat="43.32663" lon="6.54996">
        <ele>77.7</ele>
        <time>2022-09-28T13:04:31.000Z</time>
      </trkpt>
      <trkpt lat="43.32664" lon="6.54997">
        <ele>77.8</ele>
        <time>2022-09-28T13:04:50.001Z</time>
      </trkpt>
      <trkpt lat="43.32663" lon="6.54999">
        <ele>77.9</ele>
        <time>2022-09-28T13:07:11.000Z</time>
      </trkpt>
      <trkpt lat="43.32662" lon="6.54999">
        <ele>78</ele>
        <time>2022-09-28T13:07:12.001Z</time>
      </trkpt>
      <trkpt lat="43.3266" lon="6.55">
        <ele>78</ele>
        <time>2022-09-28T13:07:13.001Z</time>
      </trkpt>
      <trkpt lat="43.32658" lon="6.55">
        <ele>78</ele>
        <time>2022-09-28T13:07:14.025Z</time>
      </trkpt>
      <trkpt lat="43.32655" lon="6.54999">
        <ele>78</ele>
        <time>2022-09-28T13:07:15.001Z</time>
      </trkpt>
      <trkpt lat="43.32654" lon="6.54999">
        <ele>77.9</ele>
        <time>2022-09-28T13:07:16.003Z</time>
      </trkpt>
      <trkpt lat="43.32653" lon="6.55">
        <ele>78</ele>
        <time>2022-09-28T13:07:18.001Z</time>
      </trkpt>
      <trkpt lat="43.32648" lon="6.55">
        <ele>78</ele>
        <time>2022-09-28T13:07:19.001Z</time>
      </trkpt>
      <trkpt lat="43.32642" lon="6.55">
        <ele>78</ele>
        <time>2022-09-28T13:07:20.000Z</time>
      </trkpt>
      <trkpt lat="43.32639" lon="6.55">
        <ele>78</ele>
        <time>2022-09-28T13:07:22.000Z</time>
      </trkpt>
      <trkpt lat="43.32635" lon="6.55">
        <ele>78.1</ele>
        <time>2022-09-28T13:07:23.000Z</time>
      </trkpt>
      <trkpt lat="43.32632" lon="6.55">
        <ele>78.3</ele>
        <time>2022-09-28T13:07:24.001Z</time>
      </trkpt>
      <trkpt lat="43.32626" lon="6.55001">
        <ele>78.5</ele>
        <time>2022-09-28T13:07:26.000Z</time>
      </trkpt>
      <trkpt lat="43.32623" lon="6.55003">
        <ele>78.5</ele>
        <time>2022-09-28T13:07:27.002Z</time>
      </trkpt>
      <trkpt lat="43.32621" lon="6.55004">
        <ele>78.6</ele>
        <time>2022-09-28T13:07:28.002Z</time>
      </trkpt>
      <trkpt lat="43.32618" lon="6.55005">
        <ele>78.6</ele>
        <time>2022-09-28T13:07:29.002Z</time>
      </trkpt>
      <trkpt lat="43.32616" lon="6.55007">
        <ele>78.6</ele>
        <time>2022-09-28T13:07:31.001Z</time>
      </trkpt>
      <trkpt lat="43.32614" lon="6.5501">
        <ele>78.6</ele>
        <time>2022-09-28T13:07:32.002Z</time>
      </trkpt>
      <trkpt lat="43.3261" lon="6.55012">
        <ele>78.7</ele>
        <time>2022-09-28T13:07:34.001Z</time>
      </trkpt>
      <trkpt lat="43.32608" lon="6.55013">
        <ele>78.8</ele>
        <time>2022-09-28T13:07:35.000Z</time>
      </trkpt>
      <trkpt lat="43.32605" lon="6.55015">
        <ele>78.9</ele>
        <time>2022-09-28T13:07:36.001Z</time>
      </trkpt>
      <trkpt lat="43.32603" lon="6.55016">
        <ele>79</ele>
        <time>2022-09-28T13:07:37.001Z</time>
      </trkpt>
      <trkpt lat="43.32602" lon="6.55017">
        <ele>79.1</ele>
        <time>2022-09-28T13:07:38.000Z</time>
      </trkpt>
      <trkpt lat="43.32601" lon="6.55018">
        <ele>79.1</ele>
        <time>2022-09-28T13:07:39.000Z</time>
      </trkpt>
      <trkpt lat="43.326" lon="6.55019">
        <ele>79.1</ele>
        <time>2022-09-28T13:07:40.000Z</time>
      </trkpt>
      <trkpt lat="43.32598" lon="6.5502">
        <ele>79.2</ele>
        <time>2022-09-28T13:07:41.000Z</time>
      </trkpt>
      <trkpt lat="43.32596" lon="6.55021">
        <ele>79.3</ele>
        <time>2022-09-28T13:07:42.001Z</time>
      </trkpt>
      <trkpt lat="43.32594" lon="6.55022">
        <ele>79.4</ele>
        <time>2022-09-28T13:07:44.005Z</time>
      </trkpt>
      <trkpt lat="43.32593" lon="6.55023">
        <ele>79.5</ele>
        <time>2022-09-28T13:07:45.001Z</time>
      </trkpt>
      <trkpt lat="43.32592" lon="6.55023">
        <ele>79.5</ele>
        <time>2022-09-28T13:07:47.002Z</time>
      </trkpt>
      <trkpt lat="43.32593" lon="6.55024">
        <ele>79.5</ele>
        <time>2022-09-28T13:07:51.000Z</time>
      </trkpt>
      <trkpt lat="43.32592" lon="6.55025">
        <ele>79.5</ele>
        <time>2022-09-28T13:07:54.002Z</time>
      </trkpt>
      <trkpt lat="43.3259" lon="6.55026">
        <ele>79.6</ele>
        <time>2022-09-28T13:07:55.001Z</time>
      </trkpt>
      <trkpt lat="43.32588" lon="6.55027">
        <ele>79.7</ele>
        <time>2022-09-28T13:07:57.001Z</time>
      </trkpt>
      <trkpt lat="43.32586" lon="6.55028">
        <ele>79.8</ele>
        <time>2022-09-28T13:07:58.001Z</time>
      </trkpt>
      <trkpt lat="43.32583" lon="6.55028">
        <ele>80</ele>
        <time>2022-09-28T13:07:59.007Z</time>
      </trkpt>
      <trkpt lat="43.32581" lon="6.55028">
        <ele>80.1</ele>
        <time>2022-09-28T13:08:00.001Z</time>
      </trkpt>
      <trkpt lat="43.32577" lon="6.55027">
        <ele>80.3</ele>
        <time>2022-09-28T13:08:01.002Z</time>
      </trkpt>
      <trkpt lat="43.32574" lon="6.55026">
        <ele>80.4</ele>
        <time>2022-09-28T13:08:02.001Z</time>
      </trkpt>
      <trkpt lat="43.32572" lon="6.55028">
        <ele>80.4</ele>
        <time>2022-09-28T13:08:03.001Z</time>
      </trkpt>
      <trkpt lat="43.32569" lon="6.55028">
        <ele>80.5</ele>
        <time>2022-09-28T13:08:05.001Z</time>
      </trkpt>
      <trkpt lat="43.32568" lon="6.55026">
        <ele>80.7</ele>
        <time>2022-09-28T13:08:06.001Z</time>
      </trkpt>
      <trkpt lat="43.32566" lon="6.55025">
        <ele>80.8</ele>
        <time>2022-09-28T13:08:07.003Z</time>
      </trkpt>
      <trkpt lat="43.32562" lon="6.55025">
        <ele>81</ele>
        <time>2022-09-28T13:08:08.000Z</time>
      </trkpt>
      <trkpt lat="43.3256" lon="6.55025">
        <ele>81.1</ele>
        <time>2022-09-28T13:08:10.000Z</time>
      </trkpt>
      <trkpt lat="43.32557" lon="6.55024">
        <ele>81.4</ele>
        <time>2022-09-28T13:08:11.000Z</time>
      </trkpt>
      <trkpt lat="43.32554" lon="6.55023">
        <ele>81.5</ele>
        <time>2022-09-28T13:08:12.001Z</time>
      </trkpt>
      <trkpt lat="43.32549" lon="6.55023">
        <ele>81.7</ele>
        <time>2022-09-28T13:08:13.000Z</time>
      </trkpt>
      <trkpt lat="43.32546" lon="6.55022">
        <ele>81.9</ele>
        <time>2022-09-28T13:08:14.001Z</time>
      </trkpt>
      <trkpt lat="43.32543" lon="6.55022">
        <ele>82</ele>
        <time>2022-09-28T13:08:16.001Z</time>
      </trkpt>
      <trkpt lat="43.3254" lon="6.55021">
        <ele>82.1</ele>
        <time>2022-09-28T13:08:17.001Z</time>
      </trkpt>
      <trkpt lat="43.32538" lon="6.5502">
        <ele>82.3</ele>
        <time>2022-09-28T13:08:18.000Z</time>
      </trkpt>
      <trkpt lat="43.32535" lon="6.55019">
        <ele>82.5</ele>
        <time>2022-09-28T13:08:19.001Z</time>
      </trkpt>
      <trkpt lat="43.32531" lon="6.55018">
        <ele>82.6</ele>
        <time>2022-09-28T13:08:20.001Z</time>
      </trkpt>
      <trkpt lat="43.32528" lon="6.55016">
        <ele>82.8</ele>
        <time>2022-09-28T13:08:21.001Z</time>
      </trkpt>
      <trkpt lat="43.32525" lon="6.55015">
        <ele>82.7</ele>
        <time>2022-09-28T13:08:22.001Z</time>
      </trkpt>
      <trkpt lat="43.32523" lon="6.55013">
        <ele>82.7</ele>
        <time>2022-09-28T13:08:23.000Z</time>
      </trkpt>
      <trkpt lat="43.32521" lon="6.55012">
        <ele>82.7</ele>
        <time>2022-09-28T13:08:25.001Z</time>
      </trkpt>
      <trkpt lat="43.32517" lon="6.55009">
        <ele>82.7</ele>
        <time>2022-09-28T13:08:26.001Z</time>
      </trkpt>
      <trkpt lat="43.32514" lon="6.55008">
        <ele>82.6</ele>
        <time>2022-09-28T13:08:27.002Z</time>
      </trkpt>
      <trkpt lat="43.3251" lon="6.55007">
        <ele>82.5</ele>
        <time>2022-09-28T13:08:28.000Z</time>
      </trkpt>
      <trkpt lat="43.32506" lon="6.55006">
        <ele>82.5</ele>
        <time>2022-09-28T13:08:29.001Z</time>
      </trkpt>
      <trkpt lat="43.32502" lon="6.55004">
        <ele>82.5</ele>
        <time>2022-09-28T13:08:30.001Z</time>
      </trkpt>
      <trkpt lat="43.32496" lon="6.55002">
        <ele>82.5</ele>
        <time>2022-09-28T13:08:31.001Z</time>
      </trkpt>
      <trkpt lat="43.3249" lon="6.55001">
        <ele>82.5</ele>
        <time>2022-09-28T13:08:32.000Z</time>
      </trkpt>
      <trkpt lat="43.32485" lon="6.55">
        <ele>82.5</ele>
        <time>2022-09-28T13:08:33.001Z</time>
      </trkpt>
      <trkpt lat="43.32479" lon="6.54999">
        <ele>82.3</ele>
        <time>2022-09-28T13:08:34.001Z</time>
      </trkpt>
      <trkpt lat="43.32474" lon="6.54999">
        <ele>82.1</ele>
        <time>2022-09-28T13:08:35.001Z</time>
      </trkpt>
      <trkpt lat="43.32468" lon="6.54999">
        <ele>81.7</ele>
        <time>2022-09-28T13:08:36.001Z</time>
      </trkpt>
      <trkpt lat="43.32462" lon="6.54997">
        <ele>81.3</ele>
        <time>2022-09-28T13:08:37.001Z</time>
      </trkpt>
      <trkpt lat="43.32456" lon="6.54995">
        <ele>80.9</ele>
        <time>2022-09-28T13:08:38.001Z</time>
      </trkpt>
      <trkpt lat="43.3245" lon="6.54993">
        <ele>80.6</ele>
        <time>2022-09-28T13:08:39.001Z</time>
      </trkpt>
      <trkpt lat="43.32444" lon="6.5499">
        <ele>80.4</ele>
        <time>2022-09-28T13:08:40.001Z</time>
      </trkpt>
      <trkpt lat="43.32437" lon="6.54987">
        <ele>79.9</ele>
        <time>2022-09-28T13:08:41.000Z</time>
      </trkpt>
      <trkpt lat="43.32431" lon="6.54985">
        <ele>79.3</ele>
        <time>2022-09-28T13:08:42.001Z</time>
      </trkpt>
      <trkpt lat="43.32425" lon="6.54984">
        <ele>78.8</ele>
        <time>2022-09-28T13:08:43.001Z</time>
      </trkpt>
      <trkpt lat="43.3242" lon="6.54981">
        <ele>78.5</ele>
        <time>2022-09-28T13:08:44.001Z</time>
      </trkpt>
      <trkpt lat="43.32416" lon="6.54977">
        <ele>78.5</ele>
        <time>2022-09-28T13:08:45.001Z</time>
      </trkpt>
      <trkpt lat="43.32412" lon="6.54973">
        <ele>78.8</ele>
        <time>2022-09-28T13:08:46.001Z</time>
      </trkpt>
      <trkpt lat="43.32408" lon="6.54969">
        <ele>78.9</ele>
        <time>2022-09-28T13:08:47.001Z</time>
      </trkpt>
      <trkpt lat="43.32405" lon="6.54966">
        <ele>78.9</ele>
        <time>2022-09-28T13:08:48.001Z</time>
      </trkpt>
      <trkpt lat="43.32401" lon="6.54963">
        <ele>78.8</ele>
        <time>2022-09-28T13:08:49.001Z</time>
      </trkpt>
      <trkpt lat="43.32397" lon="6.5496">
        <ele>78.6</ele>
        <time>2022-09-28T13:08:50.000Z</time>
      </trkpt>
      <trkpt lat="43.32392" lon="6.54958">
        <ele>78.3</ele>
        <time>2022-09-28T13:08:51.001Z</time>
      </trkpt>
      <trkpt lat="43.32386" lon="6.54955">
        <ele>77.5</ele>
        <time>2022-09-28T13:08:52.000Z</time>
      </trkpt>
      <trkpt lat="43.32381" lon="6.54951">
        <ele>76.5</ele>
        <time>2022-09-28T13:08:53.001Z</time>
      </trkpt>
      <trkpt lat="43.32376" lon="6.54946">
        <ele>75.6</ele>
        <time>2022-09-28T13:08:54.001Z</time>
      </trkpt>
      <trkpt lat="43.32371" lon="6.5494">
        <ele>75.2</ele>
        <time>2022-09-28T13:08:55.001Z</time>
      </trkpt>
      <trkpt lat="43.32366" lon="6.54935">
        <ele>75</ele>
        <time>2022-09-28T13:08:56.000Z</time>
      </trkpt>
      <trkpt lat="43.32362" lon="6.54928">
        <ele>74.8</ele>
        <time>2022-09-28T13:08:57.001Z</time>
      </trkpt>
      <trkpt lat="43.32357" lon="6.54922">
        <ele>75.1</ele>
        <time>2022-09-28T13:08:58.000Z</time>
      </trkpt>
      <trkpt lat="43.32353" lon="6.54915">
        <ele>75.1</ele>
        <time>2022-09-28T13:08:59.002Z</time>
      </trkpt>
      <trkpt lat="43.32349" lon="6.54909">
        <ele>74.9</ele>
        <time>2022-09-28T13:09:00.001Z</time>
      </trkpt>
      <trkpt lat="43.32344" lon="6.54903">
        <ele>74.6</ele>
        <time>2022-09-28T13:09:01.000Z</time>
      </trkpt>
      <trkpt lat="43.32339" lon="6.54898">
        <ele>74.3</ele>
        <time>2022-09-28T13:09:02.000Z</time>
      </trkpt>
      <trkpt lat="43.32334" lon="6.54893">
        <ele>73.9</ele>
        <time>2022-09-28T13:09:03.001Z</time>
      </trkpt>
      <trkpt lat="43.3233" lon="6.54888">
        <ele>73.9</ele>
        <time>2022-09-28T13:09:04.001Z</time>
      </trkpt>
      <trkpt lat="43.32326" lon="6.54883">
        <ele>74</ele>
        <time>2022-09-28T13:09:05.001Z</time>
      </trkpt>
      <trkpt lat="43.32323" lon="6.54879">
        <ele>74.1</ele>
        <time>2022-09-28T13:09:06.001Z</time>
      </trkpt>
      <trkpt lat="43.32319" lon="6.54874">
        <ele>74</ele>
        <time>2022-09-28T13:09:07.002Z</time>
      </trkpt>
      <trkpt lat="43.32315" lon="6.54869">
        <ele>73.9</ele>
        <time>2022-09-28T13:09:08.001Z</time>
      </trkpt>
      <trkpt lat="43.32312" lon="6.54864">
        <ele>73.7</ele>
        <time>2022-09-28T13:09:09.001Z</time>
      </trkpt>
      <trkpt lat="43.3231" lon="6.54861">
        <ele>73.5</ele>
        <time>2022-09-28T13:09:10.000Z</time>
      </trkpt>
      <trkpt lat="43.32308" lon="6.54857">
        <ele>73.4</ele>
        <time>2022-09-28T13:09:11.001Z</time>
      </trkpt>
      <trkpt lat="43.32305" lon="6.54852">
        <ele>73.3</ele>
        <time>2022-09-28T13:09:12.001Z</time>
      </trkpt>
      <trkpt lat="43.32303" lon="6.54848">
        <ele>73.3</ele>
        <time>2022-09-28T13:09:13.001Z</time>
      </trkpt>
      <trkpt lat="43.32299" lon="6.54843">
        <ele>73.3</ele>
        <time>2022-09-28T13:09:14.017Z</time>
      </trkpt>
      <trkpt lat="43.32298" lon="6.54841">
        <ele>73.2</ele>
        <time>2022-09-28T13:09:15.001Z</time>
      </trkpt>
      <trkpt lat="43.32296" lon="6.54841">
        <ele>73.1</ele>
        <time>2022-09-28T13:09:16.001Z</time>
      </trkpt>
      <trkpt lat="43.32292" lon="6.54835">
        <ele>73</ele>
        <time>2022-09-28T13:09:17.001Z</time>
      </trkpt>
      <trkpt lat="43.32289" lon="6.54829">
        <ele>72.8</ele>
        <time>2022-09-28T13:09:18.001Z</time>
      </trkpt>
      <trkpt lat="43.32285" lon="6.54822">
        <ele>72.5</ele>
        <time>2022-09-28T13:09:19.001Z</time>
      </trkpt>
      <trkpt lat="43.32281" lon="6.54817">
        <ele>72.2</ele>
        <time>2022-09-28T13:09:20.005Z</time>
      </trkpt>
      <trkpt lat="43.32277" lon="6.54814">
        <ele>72</ele>
        <time>2022-09-28T13:09:21.001Z</time>
      </trkpt>
      <trkpt lat="43.32273" lon="6.54809">
        <ele>72.3</ele>
        <time>2022-09-28T13:09:23.005Z</time>
      </trkpt>
      <trkpt lat="43.3227" lon="6.54805">
        <ele>72.6</ele>
        <time>2022-09-28T13:09:24.001Z</time>
      </trkpt>
      <trkpt lat="43.32268" lon="6.54803">
        <ele>72.8</ele>
        <time>2022-09-28T13:09:25.002Z</time>
      </trkpt>
      <trkpt lat="43.32265" lon="6.54801">
        <ele>73</ele>
        <time>2022-09-28T13:09:26.001Z</time>
      </trkpt>
      <trkpt lat="43.32263" lon="6.54796">
        <ele>73.2</ele>
        <time>2022-09-28T13:09:27.001Z</time>
      </trkpt>
      <trkpt lat="43.32261" lon="6.54792">
        <ele>73.4</ele>
        <time>2022-09-28T13:09:28.000Z</time>
      </trkpt>
      <trkpt lat="43.32259" lon="6.54788">
        <ele>73.6</ele>
        <time>2022-09-28T13:09:29.002Z</time>
      </trkpt>
      <trkpt lat="43.32256" lon="6.54783">
        <ele>73.7</ele>
        <time>2022-09-28T13:09:30.000Z</time>
      </trkpt>
      <trkpt lat="43.32255" lon="6.5478">
        <ele>73.8</ele>
        <time>2022-09-28T13:09:31.001Z</time>
      </trkpt>
      <trkpt lat="43.32254" lon="6.54777">
        <ele>73.9</ele>
        <time>2022-09-28T13:09:32.000Z</time>
      </trkpt>
      <trkpt lat="43.32251" lon="6.54772">
        <ele>74</ele>
        <time>2022-09-28T13:09:33.001Z</time>
      </trkpt>
      <trkpt lat="43.3225" lon="6.54769">
        <ele>74</ele>
        <time>2022-09-28T13:09:34.004Z</time>
      </trkpt>
      <trkpt lat="43.32247" lon="6.54768">
        <ele>74.2</ele>
        <time>2022-09-28T13:09:36.000Z</time>
      </trkpt>
      <trkpt lat="43.32244" lon="6.54766">
        <ele>74.4</ele>
        <time>2022-09-28T13:09:37.001Z</time>
      </trkpt>
      <trkpt lat="43.32242" lon="6.54764">
        <ele>74.6</ele>
        <time>2022-09-28T13:09:38.000Z</time>
      </trkpt>
      <trkpt lat="43.32241" lon="6.54761">
        <ele>74.7</ele>
        <time>2022-09-28T13:09:39.000Z</time>
      </trkpt>
      <trkpt lat="43.3224" lon="6.54759">
        <ele>74.7</ele>
        <time>2022-09-28T13:09:40.003Z</time>
      </trkpt>
      <trkpt lat="43.32238" lon="6.54756">
        <ele>74.8</ele>
        <time>2022-09-28T13:09:42.001Z</time>
      </trkpt>
      <trkpt lat="43.32237" lon="6.54755">
        <ele>74.9</ele>
        <time>2022-09-28T13:09:43.003Z</time>
      </trkpt>
      <trkpt lat="43.32236" lon="6.54754">
        <ele>75</ele>
        <time>2022-09-28T13:09:44.001Z</time>
      </trkpt>
      <trkpt lat="43.32235" lon="6.54753">
        <ele>75.1</ele>
        <time>2022-09-28T13:09:45.001Z</time>
      </trkpt>
      <trkpt lat="43.32233" lon="6.5475">
        <ele>75.2</ele>
        <time>2022-09-28T13:09:47.000Z</time>
      </trkpt>
      <trkpt lat="43.32231" lon="6.5475">
        <ele>75.3</ele>
        <time>2022-09-28T13:09:48.001Z</time>
      </trkpt>
      <trkpt lat="43.3223" lon="6.5475">
        <ele>75.4</ele>
        <time>2022-09-28T13:09:50.000Z</time>
      </trkpt>
      <trkpt lat="43.32229" lon="6.54751">
        <ele>75.5</ele>
        <time>2022-09-28T13:10:28.005Z</time>
      </trkpt>
      <trkpt lat="43.32228" lon="6.54752">
        <ele>75.6</ele>
        <time>2022-09-28T13:10:30.001Z</time>
      </trkpt>
      <trkpt lat="43.32228" lon="6.54753">
        <ele>75.6</ele>
        <time>2022-09-28T13:10:31.001Z</time>
      </trkpt>
      <trkpt lat="43.32227" lon="6.54754">
        <ele>75.7</ele>
        <time>2022-09-28T13:10:32.001Z</time>
      </trkpt>
      <trkpt lat="43.32226" lon="6.54754">
        <ele>75.7</ele>
        <time>2022-09-28T13:10:33.001Z</time>
      </trkpt>
      <trkpt lat="43.32224" lon="6.54755">
        <ele>75.8</ele>
        <time>2022-09-28T13:10:34.001Z</time>
      </trkpt>
      <trkpt lat="43.32224" lon="6.54756">
        <ele>75.9</ele>
        <time>2022-09-28T13:10:36.000Z</time>
      </trkpt>
      <trkpt lat="43.32221" lon="6.54757">
        <ele>76.1</ele>
        <time>2022-09-28T13:10:37.000Z</time>
      </trkpt>
      <trkpt lat="43.32217" lon="6.54758">
        <ele>76.3</ele>
        <time>2022-09-28T13:10:39.001Z</time>
      </trkpt>
      <trkpt lat="43.32215" lon="6.54758">
        <ele>76.4</ele>
        <time>2022-09-28T13:10:40.001Z</time>
      </trkpt>
      <trkpt lat="43.32213" lon="6.54759">
        <ele>76.4</ele>
        <time>2022-09-28T13:10:41.001Z</time>
      </trkpt>
      <trkpt lat="43.32211" lon="6.5476">
        <ele>76.6</ele>
        <time>2022-09-28T13:10:42.001Z</time>
      </trkpt>
      <trkpt lat="43.32208" lon="6.5476">
        <ele>76.7</ele>
        <time>2022-09-28T13:10:43.000Z</time>
      </trkpt>
      <trkpt lat="43.32206" lon="6.54761">
        <ele>76.8</ele>
        <time>2022-09-28T13:10:44.001Z</time>
      </trkpt>
      <trkpt lat="43.32204" lon="6.5476">
        <ele>76.9</ele>
        <time>2022-09-28T13:10:46.000Z</time>
      </trkpt>
      <trkpt lat="43.32202" lon="6.5476">
        <ele>77</ele>
        <time>2022-09-28T13:10:47.000Z</time>
      </trkpt>
      <trkpt lat="43.32199" lon="6.54761">
        <ele>77.2</ele>
        <time>2022-09-28T13:10:48.001Z</time>
      </trkpt>
      <trkpt lat="43.32195" lon="6.54762">
        <ele>77.4</ele>
        <time>2022-09-28T13:10:50.000Z</time>
      </trkpt>
      <trkpt lat="43.32192" lon="6.54762">
        <ele>77.7</ele>
        <time>2022-09-28T13:10:51.000Z</time>
      </trkpt>
      <trkpt lat="43.32189" lon="6.54762">
        <ele>78</ele>
        <time>2022-09-28T13:10:52.002Z</time>
      </trkpt>
      <trkpt lat="43.32187" lon="6.54762">
        <ele>78.2</ele>
        <time>2022-09-28T13:10:53.001Z</time>
      </trkpt>
      <trkpt lat="43.32184" lon="6.54761">
        <ele>78.5</ele>
        <time>2022-09-28T13:10:55.002Z</time>
      </trkpt>
      <trkpt lat="43.32182" lon="6.54761">
        <ele>78.7</ele>
        <time>2022-09-28T13:10:56.001Z</time>
      </trkpt>
      <trkpt lat="43.3218" lon="6.5476">
        <ele>79</ele>
        <time>2022-09-28T13:10:57.000Z</time>
      </trkpt>
      <trkpt lat="43.32178" lon="6.54759">
        <ele>79.1</ele>
        <time>2022-09-28T13:10:58.000Z</time>
      </trkpt>
      <trkpt lat="43.32175" lon="6.54759">
        <ele>79.4</ele>
        <time>2022-09-28T13:10:59.000Z</time>
      </trkpt>
      <trkpt lat="43.32172" lon="6.54758">
        <ele>79.7</ele>
        <time>2022-09-28T13:11:01.000Z</time>
      </trkpt>
      <trkpt lat="43.3217" lon="6.54758">
        <ele>80</ele>
        <time>2022-09-28T13:11:02.000Z</time>
      </trkpt>
      <trkpt lat="43.32167" lon="6.54758">
        <ele>80.2</ele>
        <time>2022-09-28T13:11:03.000Z</time>
      </trkpt>
      <trkpt lat="43.32164" lon="6.54759">
        <ele>80.7</ele>
        <time>2022-09-28T13:11:04.000Z</time>
      </trkpt>
      <trkpt lat="43.3216" lon="6.54759">
        <ele>81.3</ele>
        <time>2022-09-28T13:11:05.001Z</time>
      </trkpt>
      <trkpt lat="43.32157" lon="6.5476">
        <ele>81.8</ele>
        <time>2022-09-28T13:11:06.001Z</time>
      </trkpt>
      <trkpt lat="43.32154" lon="6.54761">
        <ele>82.1</ele>
        <time>2022-09-28T13:11:07.001Z</time>
      </trkpt>
      <trkpt lat="43.32153" lon="6.54761">
        <ele>82.3</ele>
        <time>2022-09-28T13:11:08.001Z</time>
      </trkpt>
      <trkpt lat="43.32151" lon="6.54761">
        <ele>82.6</ele>
        <time>2022-09-28T13:11:09.001Z</time>
      </trkpt>
      <trkpt lat="43.3215" lon="6.54761">
        <ele>82.8</ele>
        <time>2022-09-28T13:11:11.001Z</time>
      </trkpt>
      <trkpt lat="43.32149" lon="6.54762">
        <ele>83</ele>
        <time>2022-09-28T13:11:12.000Z</time>
      </trkpt>
      <trkpt lat="43.32147" lon="6.54763">
        <ele>83.3</ele>
        <time>2022-09-28T13:11:13.000Z</time>
      </trkpt>
      <trkpt lat="43.32145" lon="6.54763">
        <ele>83.5</ele>
        <time>2022-09-28T13:11:14.001Z</time>
      </trkpt>
      <trkpt lat="43.32144" lon="6.54763">
        <ele>83.7</ele>
        <time>2022-09-28T13:11:15.000Z</time>
      </trkpt>
      <trkpt lat="43.32142" lon="6.54763">
        <ele>84</ele>
        <time>2022-09-28T13:11:17.002Z</time>
      </trkpt>
      <trkpt lat="43.32141" lon="6.54764">
        <ele>84.2</ele>
        <time>2022-09-28T13:11:18.000Z</time>
      </trkpt>
      <trkpt lat="43.32139" lon="6.54764">
        <ele>84.5</ele>
        <time>2022-09-28T13:11:19.000Z</time>
      </trkpt>
      <trkpt lat="43.32137" lon="6.54764">
        <ele>84.7</ele>
        <time>2022-09-28T13:11:21.000Z</time>
      </trkpt>
      <trkpt lat="43.32136" lon="6.54765">
        <ele>84.8</ele>
        <time>2022-09-28T13:11:22.003Z</time>
      </trkpt>
      <trkpt lat="43.32134" lon="6.54765">
        <ele>85.1</ele>
        <time>2022-09-28T13:11:23.001Z</time>
      </trkpt>
      <trkpt lat="43.32133" lon="6.54765">
        <ele>85.3</ele>
        <time>2022-09-28T13:11:24.001Z</time>
      </trkpt>
      <trkpt lat="43.3213" lon="6.54766">
        <ele>85.6</ele>
        <time>2022-09-28T13:11:26.000Z</time>
      </trkpt>
      <trkpt lat="43.32128" lon="6.54767">
        <ele>85.8</ele>
        <time>2022-09-28T13:11:27.000Z</time>
      </trkpt>
      <trkpt lat="43.32127" lon="6.54767">
        <ele>85.9</ele>
        <time>2022-09-28T13:11:29.000Z</time>
      </trkpt>
      <trkpt lat="43.32125" lon="6.54766">
        <ele>86.1</ele>
        <time>2022-09-28T13:11:30.001Z</time>
      </trkpt>
      <trkpt lat="43.32123" lon="6.54766">
        <ele>86.3</ele>
        <time>2022-09-28T13:11:32.000Z</time>
      </trkpt>
      <trkpt lat="43.32123" lon="6.54765">
        <ele>86.5</ele>
        <time>2022-09-28T13:11:33.000Z</time>
      </trkpt>
      <trkpt lat="43.3212" lon="6.54765">
        <ele>86.7</ele>
        <time>2022-09-28T13:11:36.000Z</time>
      </trkpt>
      <trkpt lat="43.32119" lon="6.54766">
        <ele>86.8</ele>
        <time>2022-09-28T13:11:37.001Z</time>
      </trkpt>
      <trkpt lat="43.32118" lon="6.54766">
        <ele>86.9</ele>
        <time>2022-09-28T13:11:38.002Z</time>
      </trkpt>
      <trkpt lat="43.32117" lon="6.54767">
        <ele>86.9</ele>
        <time>2022-09-28T13:11:39.000Z</time>
      </trkpt>
      <trkpt lat="43.32116" lon="6.54767">
        <ele>87</ele>
        <time>2022-09-28T13:11:40.001Z</time>
      </trkpt>
      <trkpt lat="43.32115" lon="6.54768">
        <ele>87.1</ele>
        <time>2022-09-28T13:11:42.001Z</time>
      </trkpt>
      <trkpt lat="43.32113" lon="6.54769">
        <ele>87.1</ele>
        <time>2022-09-28T13:11:43.000Z</time>
      </trkpt>
      <trkpt lat="43.32111" lon="6.5477">
        <ele>87.2</ele>
        <time>2022-09-28T13:11:45.001Z</time>
      </trkpt>
      <trkpt lat="43.3211" lon="6.5477">
        <ele>87.4</ele>
        <time>2022-09-28T13:11:46.001Z</time>
      </trkpt>
      <trkpt lat="43.32109" lon="6.5477">
        <ele>87.5</ele>
        <time>2022-09-28T13:11:47.001Z</time>
      </trkpt>
      <trkpt lat="43.32108" lon="6.5477">
        <ele>87.7</ele>
        <time>2022-09-28T13:11:48.001Z</time>
      </trkpt>
      <trkpt lat="43.32107" lon="6.5477">
        <ele>87.8</ele>
        <time>2022-09-28T13:11:49.002Z</time>
      </trkpt>
      <trkpt lat="43.32106" lon="6.54771">
        <ele>87.8</ele>
        <time>2022-09-28T13:11:50.000Z</time>
      </trkpt>
      <trkpt lat="43.32105" lon="6.54772">
        <ele>87.9</ele>
        <time>2022-09-28T13:11:51.000Z</time>
      </trkpt>
      <trkpt lat="43.32103" lon="6.54771">
        <ele>88.1</ele>
        <time>2022-09-28T13:11:52.000Z</time>
      </trkpt>
      <trkpt lat="43.32101" lon="6.54771">
        <ele>88.5</ele>
        <time>2022-09-28T13:11:53.001Z</time>
      </trkpt>
      <trkpt lat="43.32098" lon="6.54772">
        <ele>88.8</ele>
        <time>2022-09-28T13:11:54.001Z</time>
      </trkpt>
      <trkpt lat="43.32096" lon="6.54773">
        <ele>89.2</ele>
        <time>2022-09-28T13:11:55.000Z</time>
      </trkpt>
      <trkpt lat="43.32092" lon="6.54774">
        <ele>89.7</ele>
        <time>2022-09-28T13:11:57.000Z</time>
      </trkpt>
      <trkpt lat="43.32089" lon="6.54774">
        <ele>90.2</ele>
        <time>2022-09-28T13:11:58.000Z</time>
      </trkpt>
      <trkpt lat="43.32087" lon="6.54773">
        <ele>90.6</ele>
        <time>2022-09-28T13:11:59.001Z</time>
      </trkpt>
      <trkpt lat="43.32084" lon="6.54772">
        <ele>91.1</ele>
        <time>2022-09-28T13:12:01.001Z</time>
      </trkpt>
      <trkpt lat="43.32082" lon="6.54771">
        <ele>91.5</ele>
        <time>2022-09-28T13:12:02.000Z</time>
      </trkpt>
      <trkpt lat="43.32079" lon="6.54773">
        <ele>91.8</ele>
        <time>2022-09-28T13:12:03.001Z</time>
      </trkpt>
      <trkpt lat="43.32076" lon="6.54774">
        <ele>92.2</ele>
        <time>2022-09-28T13:12:04.001Z</time>
      </trkpt>
      <trkpt lat="43.32072" lon="6.54776">
        <ele>92.6</ele>
        <time>2022-09-28T13:12:05.000Z</time>
      </trkpt>
      <trkpt lat="43.3207" lon="6.54777">
        <ele>92.9</ele>
        <time>2022-09-28T13:12:06.000Z</time>
      </trkpt>
      <trkpt lat="43.32069" lon="6.54779">
        <ele>93</ele>
        <time>2022-09-28T13:12:07.002Z</time>
      </trkpt>
      <trkpt lat="43.32067" lon="6.54782">
        <ele>93.1</ele>
        <time>2022-09-28T13:12:08.000Z</time>
      </trkpt>
      <trkpt lat="43.32064" lon="6.54783">
        <ele>93.3</ele>
        <time>2022-09-28T13:12:09.000Z</time>
      </trkpt>
      <trkpt lat="43.32062" lon="6.54785">
        <ele>93.4</ele>
        <time>2022-09-28T13:12:10.001Z</time>
      </trkpt>
      <trkpt lat="43.32061" lon="6.54786">
        <ele>93.5</ele>
        <time>2022-09-28T13:12:11.000Z</time>
      </trkpt>
      <trkpt lat="43.32059" lon="6.54787">
        <ele>93.6</ele>
        <time>2022-09-28T13:12:12.000Z</time>
      </trkpt>
      <trkpt lat="43.32057" lon="6.54789">
        <ele>93.7</ele>
        <time>2022-09-28T13:12:13.000Z</time>
      </trkpt>
      <trkpt lat="43.32055" lon="6.5479">
        <ele>93.7</ele>
        <time>2022-09-28T13:12:14.022Z</time>
      </trkpt>
      <trkpt lat="43.32052" lon="6.54791">
        <ele>93.8</ele>
        <time>2022-09-28T13:12:15.000Z</time>
      </trkpt>
      <trkpt lat="43.3205" lon="6.54792">
        <ele>94</ele>
        <time>2022-09-28T13:12:16.001Z</time>
      </trkpt>
      <trkpt lat="43.32046" lon="6.54793">
        <ele>94.2</ele>
        <time>2022-09-28T13:12:18.001Z</time>
      </trkpt>
      <trkpt lat="43.32044" lon="6.54793">
        <ele>94.4</ele>
        <time>2022-09-28T13:12:19.003Z</time>
      </trkpt>
      <trkpt lat="43.32041" lon="6.54794">
        <ele>94.6</ele>
        <time>2022-09-28T13:12:20.001Z</time>
      </trkpt>
      <trkpt lat="43.3204" lon="6.54795">
        <ele>94.7</ele>
        <time>2022-09-28T13:12:21.001Z</time>
      </trkpt>
      <trkpt lat="43.32036" lon="6.54795">
        <ele>95</ele>
        <time>2022-09-28T13:12:22.001Z</time>
      </trkpt>
      <trkpt lat="43.32032" lon="6.54796">
        <ele>95.3</ele>
        <time>2022-09-28T13:12:24.003Z</time>
      </trkpt>
      <trkpt lat="43.3203" lon="6.54795">
        <ele>95.5</ele>
        <time>2022-09-28T13:12:25.000Z</time>
      </trkpt>
      <trkpt lat="43.32026" lon="6.54796">
        <ele>96.1</ele>
        <time>2022-09-28T13:12:27.001Z</time>
      </trkpt>
      <trkpt lat="43.32024" lon="6.54797">
        <ele>96.4</ele>
        <time>2022-09-28T13:12:28.000Z</time>
      </trkpt>
      <trkpt lat="43.32021" lon="6.54797">
        <ele>96.8</ele>
        <time>2022-09-28T13:12:29.001Z</time>
      </trkpt>
      <trkpt lat="43.32019" lon="6.54798">
        <ele>97.3</ele>
        <time>2022-09-28T13:12:30.000Z</time>
      </trkpt>
      <trkpt lat="43.32016" lon="6.54799">
        <ele>97.7</ele>
        <time>2022-09-28T13:12:31.001Z</time>
      </trkpt>
      <trkpt lat="43.32013" lon="6.54801">
        <ele>98.3</ele>
        <time>2022-09-28T13:12:32.001Z</time>
      </trkpt>
      <trkpt lat="43.3201" lon="6.54803">
        <ele>98.9</ele>
        <time>2022-09-28T13:12:34.001Z</time>
      </trkpt>
      <trkpt lat="43.32008" lon="6.54804">
        <ele>99.4</ele>
        <time>2022-09-28T13:12:35.001Z</time>
      </trkpt>
      <trkpt lat="43.32004" lon="6.54804">
        <ele>100.1</ele>
        <time>2022-09-28T13:12:36.000Z</time>
      </trkpt>
      <trkpt lat="43.32002" lon="6.54805">
        <ele>100.7</ele>
        <time>2022-09-28T13:12:38.001Z</time>
      </trkpt>
      <trkpt lat="43.32" lon="6.54805">
        <ele>101</ele>
        <time>2022-09-28T13:12:39.000Z</time>
      </trkpt>
      <trkpt lat="43.31996" lon="6.54806">
        <ele>101.3</ele>
        <time>2022-09-28T13:12:41.001Z</time>
      </trkpt>
      <trkpt lat="43.31993" lon="6.54805">
        <ele>101.7</ele>
        <time>2022-09-28T13:12:42.001Z</time>
      </trkpt>
      <trkpt lat="43.31991" lon="6.54805">
        <ele>102</ele>
        <time>2022-09-28T13:12:43.001Z</time>
      </trkpt>
      <trkpt lat="43.31989" lon="6.54806">
        <ele>102.2</ele>
        <time>2022-09-28T13:12:44.001Z</time>
      </trkpt>
      <trkpt lat="43.31986" lon="6.54806">
        <ele>102.4</ele>
        <time>2022-09-28T13:12:45.001Z</time>
      </trkpt>
      <trkpt lat="43.31984" lon="6.54807">
        <ele>102.6</ele>
        <time>2022-09-28T13:12:46.001Z</time>
      </trkpt>
      <trkpt lat="43.31982" lon="6.54807">
        <ele>102.7</ele>
        <time>2022-09-28T13:12:47.000Z</time>
      </trkpt>
      <trkpt lat="43.3198" lon="6.54807">
        <ele>102.9</ele>
        <time>2022-09-28T13:12:48.001Z</time>
      </trkpt>
      <trkpt lat="43.31978" lon="6.54808">
        <ele>103.1</ele>
        <time>2022-09-28T13:12:50.001Z</time>
      </trkpt>
      <trkpt lat="43.31977" lon="6.54808">
        <ele>103.3</ele>
        <time>2022-09-28T13:12:51.000Z</time>
      </trkpt>
      <trkpt lat="43.31975" lon="6.54809">
        <ele>103.4</ele>
        <time>2022-09-28T13:12:52.001Z</time>
      </trkpt>
      <trkpt lat="43.31973" lon="6.5481">
        <ele>103.6</ele>
        <time>2022-09-28T13:12:53.001Z</time>
      </trkpt>
      <trkpt lat="43.31971" lon="6.54809">
        <ele>103.9</ele>
        <time>2022-09-28T13:12:54.003Z</time>
      </trkpt>
      <trkpt lat="43.31969" lon="6.54809">
        <ele>104</ele>
        <time>2022-09-28T13:12:55.000Z</time>
      </trkpt>
      <trkpt lat="43.31967" lon="6.54811">
        <ele>104.1</ele>
        <time>2022-09-28T13:12:56.001Z</time>
      </trkpt>
      <trkpt lat="43.31966" lon="6.54812">
        <ele>104.2</ele>
        <time>2022-09-28T13:12:57.001Z</time>
      </trkpt>
      <trkpt lat="43.31962" lon="6.54814">
        <ele>104.5</ele>
        <time>2022-09-28T13:12:58.001Z</time>
      </trkpt>
      <trkpt lat="43.3196" lon="6.54815">
        <ele>104.8</ele>
        <time>2022-09-28T13:12:59.001Z</time>
      </trkpt>
      <trkpt lat="43.31957" lon="6.54816">
        <ele>105.1</ele>
        <time>2022-09-28T13:13:01.000Z</time>
      </trkpt>
      <trkpt lat="43.31955" lon="6.54817">
        <ele>105.5</ele>
        <time>2022-09-28T13:13:02.001Z</time>
      </trkpt>
      <trkpt lat="43.31953" lon="6.54818">
        <ele>105.7</ele>
        <time>2022-09-28T13:13:03.001Z</time>
      </trkpt>
      <trkpt lat="43.31951" lon="6.54819">
        <ele>106.1</ele>
        <time>2022-09-28T13:13:05.000Z</time>
      </trkpt>
      <trkpt lat="43.31948" lon="6.5482">
        <ele>106.5</ele>
        <time>2022-09-28T13:13:06.000Z</time>
      </trkpt>
      <trkpt lat="43.31945" lon="6.54821">
        <ele>107</ele>
        <time>2022-09-28T13:13:07.003Z</time>
      </trkpt>
      <trkpt lat="43.31943" lon="6.54822">
        <ele>107.3</ele>
        <time>2022-09-28T13:13:08.000Z</time>
      </trkpt>
      <trkpt lat="43.31941" lon="6.54823">
        <ele>107.8</ele>
        <time>2022-09-28T13:13:09.001Z</time>
      </trkpt>
      <trkpt lat="43.31937" lon="6.54823">
        <ele>108.4</ele>
        <time>2022-09-28T13:13:11.000Z</time>
      </trkpt>
      <trkpt lat="43.31935" lon="6.54824">
        <ele>108.7</ele>
        <time>2022-09-28T13:13:12.000Z</time>
      </trkpt>
      <trkpt lat="43.31932" lon="6.54826">
        <ele>109.1</ele>
        <time>2022-09-28T13:13:13.001Z</time>
      </trkpt>
      <trkpt lat="43.31929" lon="6.54826">
        <ele>109.7</ele>
        <time>2022-09-28T13:13:15.000Z</time>
      </trkpt>
      <trkpt lat="43.31927" lon="6.54826">
        <ele>109.9</ele>
        <time>2022-09-28T13:13:16.000Z</time>
      </trkpt>
      <trkpt lat="43.31924" lon="6.54827">
        <ele>110.3</ele>
        <time>2022-09-28T13:13:17.000Z</time>
      </trkpt>
      <trkpt lat="43.31921" lon="6.54827">
        <ele>110.7</ele>
        <time>2022-09-28T13:13:18.000Z</time>
      </trkpt>
      <trkpt lat="43.31919" lon="6.54828">
        <ele>111</ele>
        <time>2022-09-28T13:13:19.000Z</time>
      </trkpt>
      <trkpt lat="43.31917" lon="6.54827">
        <ele>111.2</ele>
        <time>2022-09-28T13:13:20.000Z</time>
      </trkpt>
      <trkpt lat="43.31913" lon="6.54827">
        <ele>111.7</ele>
        <time>2022-09-28T13:13:22.001Z</time>
      </trkpt>
      <trkpt lat="43.31911" lon="6.54828">
        <ele>112</ele>
        <time>2022-09-28T13:13:23.000Z</time>
      </trkpt>
      <trkpt lat="43.31908" lon="6.54829">
        <ele>112.3</ele>
        <time>2022-09-28T13:13:24.001Z</time>
      </trkpt>
      <trkpt lat="43.31906" lon="6.54828">
        <ele>112.5</ele>
        <time>2022-09-28T13:13:25.000Z</time>
      </trkpt>
      <trkpt lat="43.31903" lon="6.54828">
        <ele>112.9</ele>
        <time>2022-09-28T13:13:26.001Z</time>
      </trkpt>
      <trkpt lat="43.31901" lon="6.54828">
        <ele>113.3</ele>
        <time>2022-09-28T13:13:28.000Z</time>
      </trkpt>
      <trkpt lat="43.31898" lon="6.54827">
        <ele>113.6</ele>
        <time>2022-09-28T13:13:29.001Z</time>
      </trkpt>
      <trkpt lat="43.31895" lon="6.54827">
        <ele>114</ele>
        <time>2022-09-28T13:13:30.002Z</time>
      </trkpt>
      <trkpt lat="43.31893" lon="6.54828">
        <ele>114.3</ele>
        <time>2022-09-28T13:13:31.001Z</time>
      </trkpt>
      <trkpt lat="43.31891" lon="6.54829">
        <ele>114.6</ele>
        <time>2022-09-28T13:13:32.001Z</time>
      </trkpt>
      <trkpt lat="43.31889" lon="6.54829">
        <ele>114.9</ele>
        <time>2022-09-28T13:13:33.001Z</time>
      </trkpt>
      <trkpt lat="43.31885" lon="6.54829">
        <ele>115.1</ele>
        <time>2022-09-28T13:13:34.001Z</time>
      </trkpt>
      <trkpt lat="43.31882" lon="6.5483">
        <ele>115.4</ele>
        <time>2022-09-28T13:13:36.001Z</time>
      </trkpt>
      <trkpt lat="43.31879" lon="6.54831">
        <ele>115.6</ele>
        <time>2022-09-28T13:13:37.002Z</time>
      </trkpt>
      <trkpt lat="43.31876" lon="6.54831">
        <ele>115.8</ele>
        <time>2022-09-28T13:13:38.001Z</time>
      </trkpt>
      <trkpt lat="43.31874" lon="6.5483">
        <ele>115.9</ele>
        <time>2022-09-28T13:13:39.001Z</time>
      </trkpt>
      <trkpt lat="43.31872" lon="6.54828">
        <ele>115.9</ele>
        <time>2022-09-28T13:13:40.001Z</time>
      </trkpt>
      <trkpt lat="43.31868" lon="6.54827">
        <ele>116.1</ele>
        <time>2022-09-28T13:13:42.001Z</time>
      </trkpt>
      <trkpt lat="43.31866" lon="6.54828">
        <ele>116.3</ele>
        <time>2022-09-28T13:13:43.000Z</time>
      </trkpt>
      <trkpt lat="43.31864" lon="6.54829">
        <ele>116.5</ele>
        <time>2022-09-28T13:13:44.001Z</time>
      </trkpt>
      <trkpt lat="43.31861" lon="6.5483">
        <ele>116.8</ele>
        <time>2022-09-28T13:13:45.001Z</time>
      </trkpt>
      <trkpt lat="43.3186" lon="6.54831">
        <ele>116.9</ele>
        <time>2022-09-28T13:13:46.001Z</time>
      </trkpt>
      <trkpt lat="43.31858" lon="6.54832">
        <ele>117</ele>
        <time>2022-09-28T13:13:47.001Z</time>
      </trkpt>
      <trkpt lat="43.31856" lon="6.54833">
        <ele>117.2</ele>
        <time>2022-09-28T13:13:48.001Z</time>
      </trkpt>
      <trkpt lat="43.31854" lon="6.54835">
        <ele>117.2</ele>
        <time>2022-09-28T13:13:49.003Z</time>
      </trkpt>
      <trkpt lat="43.31852" lon="6.54836">
        <ele>117.3</ele>
        <time>2022-09-28T13:13:50.000Z</time>
      </trkpt>
      <trkpt lat="43.3185" lon="6.54837">
        <ele>117.4</ele>
        <time>2022-09-28T13:13:51.000Z</time>
      </trkpt>
      <trkpt lat="43.31847" lon="6.54839">
        <ele>117.5</ele>
        <time>2022-09-28T13:13:52.001Z</time>
      </trkpt>
      <trkpt lat="43.31844" lon="6.5484">
        <ele>117.7</ele>
        <time>2022-09-28T13:13:53.001Z</time>
      </trkpt>
      <trkpt lat="43.3184" lon="6.54842">
        <ele>117.9</ele>
        <time>2022-09-28T13:13:54.001Z</time>
      </trkpt>
      <trkpt lat="43.31837" lon="6.54843">
        <ele>118.2</ele>
        <time>2022-09-28T13:13:56.001Z</time>
      </trkpt>
      <trkpt lat="43.31834" lon="6.54844">
        <ele>118.3</ele>
        <time>2022-09-28T13:13:57.001Z</time>
      </trkpt>
      <trkpt lat="43.31831" lon="6.54845">
        <ele>118.6</ele>
        <time>2022-09-28T13:13:58.000Z</time>
      </trkpt>
      <trkpt lat="43.31828" lon="6.54845">
        <ele>118.8</ele>
        <time>2022-09-28T13:13:59.000Z</time>
      </trkpt>
      <trkpt lat="43.31825" lon="6.54845">
        <ele>119</ele>
        <time>2022-09-28T13:14:00.000Z</time>
      </trkpt>
      <trkpt lat="43.31822" lon="6.54846">
        <ele>119.2</ele>
        <time>2022-09-28T13:14:02.000Z</time>
      </trkpt>
      <trkpt lat="43.31819" lon="6.54847">
        <ele>119.5</ele>
        <time>2022-09-28T13:14:03.001Z</time>
      </trkpt>
      <trkpt lat="43.31817" lon="6.54847">
        <ele>119.7</ele>
        <time>2022-09-28T13:14:04.004Z</time>
      </trkpt>
      <trkpt lat="43.31814" lon="6.54849">
        <ele>119.9</ele>
        <time>2022-09-28T13:14:05.000Z</time>
      </trkpt>
      <trkpt lat="43.31813" lon="6.5485">
        <ele>120.1</ele>
        <time>2022-09-28T13:14:06.001Z</time>
      </trkpt>
      <trkpt lat="43.3181" lon="6.54851">
        <ele>120.3</ele>
        <time>2022-09-28T13:14:07.001Z</time>
      </trkpt>
      <trkpt lat="43.31809" lon="6.54852">
        <ele>120.5</ele>
        <time>2022-09-28T13:14:09.001Z</time>
      </trkpt>
      <trkpt lat="43.31808" lon="6.54854">
        <ele>120.6</ele>
        <time>2022-09-28T13:14:10.000Z</time>
      </trkpt>
      <trkpt lat="43.31807" lon="6.54856">
        <ele>120.7</ele>
        <time>2022-09-28T13:14:11.001Z</time>
      </trkpt>
      <trkpt lat="43.31805" lon="6.54858">
        <ele>120.9</ele>
        <time>2022-09-28T13:14:12.001Z</time>
      </trkpt>
      <trkpt lat="43.31804" lon="6.54859">
        <ele>121.1</ele>
        <time>2022-09-28T13:14:13.001Z</time>
      </trkpt>
      <trkpt lat="43.31802" lon="6.54858">
        <ele>121.2</ele>
        <time>2022-09-28T13:14:14.001Z</time>
      </trkpt>
      <trkpt lat="43.317" lon="6.54864">
        <ele>134.2</ele>
        <time>2022-09-28T13:18:48.000Z</time>
      </trkpt>
      <trkpt lat="43.31698" lon="6.54856">
        <ele>135.2</ele>
        <time>2022-09-28T13:18:49.000Z</time>
      </trkpt>
      <trkpt lat="43.31697" lon="6.54851">
        <ele>136</ele>
        <time>2022-09-28T13:18:50.000Z</time>
      </trkpt>
      <trkpt lat="43.31698" lon="6.54848">
        <ele>136.3</ele>
        <time>2022-09-28T13:18:51.001Z</time>
      </trkpt>
      <trkpt lat="43.31699" lon="6.54845">
        <ele>136.4</ele>
        <time>2022-09-28T13:18:52.000Z</time>
      </trkpt>
      <trkpt lat="43.31701" lon="6.54842">
        <ele>136.4</ele>
        <time>2022-09-28T13:18:53.000Z</time>
      </trkpt>
      <trkpt lat="43.31702" lon="6.54839">
        <ele>136.3</ele>
        <time>2022-09-28T13:18:54.000Z</time>
      </trkpt>
      <trkpt lat="43.31704" lon="6.54837">
        <ele>136.2</ele>
        <time>2022-09-28T13:18:55.001Z</time>
      </trkpt>
      <trkpt lat="43.31706" lon="6.54834">
        <ele>136.1</ele>
        <time>2022-09-28T13:18:56.001Z</time>
      </trkpt>
      <trkpt lat="43.31707" lon="6.54831">
        <ele>136.3</ele>
        <time>2022-09-28T13:18:57.002Z</time>
      </trkpt>
      <trkpt lat="43.31709" lon="6.54827">
        <ele>136.4</ele>
        <time>2022-09-28T13:18:58.000Z</time>
      </trkpt>
      <trkpt lat="43.3171" lon="6.54824">
        <ele>136.6</ele>
        <time>2022-09-28T13:18:59.000Z</time>
      </trkpt>
      <trkpt lat="43.31712" lon="6.54821">
        <ele>136.7</ele>
        <time>2022-09-28T13:19:00.000Z</time>
      </trkpt>
      <trkpt lat="43.31714" lon="6.54818">
        <ele>136.7</ele>
        <time>2022-09-28T13:19:01.001Z</time>
      </trkpt>
      <trkpt lat="43.31715" lon="6.54815">
        <ele>136.9</ele>
        <time>2022-09-28T13:19:02.000Z</time>
      </trkpt>
      <trkpt lat="43.31716" lon="6.54812">
        <ele>137.2</ele>
        <time>2022-09-28T13:19:03.001Z</time>
      </trkpt>
      <trkpt lat="43.31717" lon="6.54809">
        <ele>137.5</ele>
        <time>2022-09-28T13:19:04.000Z</time>
      </trkpt>
      <trkpt lat="43.31718" lon="6.54805">
        <ele>137.9</ele>
        <time>2022-09-28T13:19:05.000Z</time>
      </trkpt>
      <trkpt lat="43.31718" lon="6.54801">
        <ele>137.8</ele>
        <time>2022-09-28T13:19:06.001Z</time>
      </trkpt>
      <trkpt lat="43.31718" lon="6.54797">
        <ele>137.9</ele>
        <time>2022-09-28T13:19:07.001Z</time>
      </trkpt>
      <trkpt lat="43.31717" lon="6.54794">
        <ele>137.9</ele>
        <time>2022-09-28T13:19:08.001Z</time>
      </trkpt>
      <trkpt lat="43.31717" lon="6.54789">
        <ele>138</ele>
        <time>2022-09-28T13:19:09.003Z</time>
      </trkpt>
      <trkpt lat="43.31716" lon="6.54785">
        <ele>138</ele>
        <time>2022-09-28T13:19:10.002Z</time>
      </trkpt>
      <trkpt lat="43.31716" lon="6.54781">
        <ele>138</ele>
        <time>2022-09-28T13:19:11.000Z</time>
      </trkpt>
      <trkpt lat="43.31715" lon="6.54777">
        <ele>138</ele>
        <time>2022-09-28T13:19:12.000Z</time>
      </trkpt>
      <trkpt lat="43.31714" lon="6.54772">
        <ele>137.7</ele>
        <time>2022-09-28T13:19:13.002Z</time>
      </trkpt>
      <trkpt lat="43.31714" lon="6.54767">
        <ele>137.5</ele>
        <time>2022-09-28T13:19:14.001Z</time>
      </trkpt>
      <trkpt lat="43.31713" lon="6.54763">
        <ele>137.3</ele>
        <time>2022-09-28T13:19:15.001Z</time>
      </trkpt>
      <trkpt lat="43.31711" lon="6.54758">
        <ele>137.2</ele>
        <time>2022-09-28T13:19:16.002Z</time>
      </trkpt>
      <trkpt lat="43.31707" lon="6.54752">
        <ele>137.3</ele>
        <time>2022-09-28T13:19:17.001Z</time>
      </trkpt>
      <trkpt lat="43.31702" lon="6.54748">
        <ele>137.6</ele>
        <time>2022-09-28T13:19:19.001Z</time>
      </trkpt>
      <trkpt lat="43.31698" lon="6.54747">
        <ele>137.9</ele>
        <time>2022-09-28T13:19:20.001Z</time>
      </trkpt>
      <trkpt lat="43.31694" lon="6.54746">
        <ele>138.3</ele>
        <time>2022-09-28T13:19:21.001Z</time>
      </trkpt>
      <trkpt lat="43.31689" lon="6.54744">
        <ele>138.4</ele>
        <time>2022-09-28T13:19:22.000Z</time>
      </trkpt>
      <trkpt lat="43.31685" lon="6.54741">
        <ele>138.2</ele>
        <time>2022-09-28T13:19:23.001Z</time>
      </trkpt>
      <trkpt lat="43.3168" lon="6.54738">
        <ele>138.1</ele>
        <time>2022-09-28T13:19:24.001Z</time>
      </trkpt>
      <trkpt lat="43.31675" lon="6.54736">
        <ele>138.3</ele>
        <time>2022-09-28T13:19:25.001Z</time>
      </trkpt>
      <trkpt lat="43.3167" lon="6.54735">
        <ele>138.5</ele>
        <time>2022-09-28T13:19:26.000Z</time>
      </trkpt>
      <trkpt lat="43.31666" lon="6.54734">
        <ele>138.8</ele>
        <time>2022-09-28T13:19:27.000Z</time>
      </trkpt>
      <trkpt lat="43.31665" lon="6.54733">
        <ele>138.8</ele>
        <time>2022-09-28T13:19:28.001Z</time>
      </trkpt>
      <trkpt lat="43.31658" lon="6.54732">
        <ele>139.2</ele>
        <time>2022-09-28T13:19:29.001Z</time>
      </trkpt>
      <trkpt lat="43.31652" lon="6.54731">
        <ele>139.7</ele>
        <time>2022-09-28T13:19:31.002Z</time>
      </trkpt>
      <trkpt lat="43.31647" lon="6.54728">
        <ele>139.8</ele>
        <time>2022-09-28T13:19:32.001Z</time>
      </trkpt>
      <trkpt lat="43.31642" lon="6.54726">
        <ele>140</ele>
        <time>2022-09-28T13:19:33.001Z</time>
      </trkpt>
      <trkpt lat="43.31638" lon="6.54723">
        <ele>140.2</ele>
        <time>2022-09-28T13:19:34.000Z</time>
      </trkpt>
      <trkpt lat="43.31635" lon="6.54723">
        <ele>140.4</ele>
        <time>2022-09-28T13:19:35.001Z</time>
      </trkpt>
      <trkpt lat="43.31631" lon="6.54723">
        <ele>140.6</ele>
        <time>2022-09-28T13:19:36.001Z</time>
      </trkpt>
      <trkpt lat="43.31626" lon="6.54722">
        <ele>140.9</ele>
        <time>2022-09-28T13:19:37.002Z</time>
      </trkpt>
      <trkpt lat="43.31622" lon="6.54721">
        <ele>141</ele>
        <time>2022-09-28T13:19:38.000Z</time>
      </trkpt>
      <trkpt lat="43.31616" lon="6.5472">
        <ele>141.2</ele>
        <time>2022-09-28T13:19:39.002Z</time>
      </trkpt>
      <trkpt lat="43.3161" lon="6.54721">
        <ele>141.6</ele>
        <time>2022-09-28T13:19:41.005Z</time>
      </trkpt>
      <trkpt lat="43.31601" lon="6.54724">
        <ele>140.8</ele>
        <time>2022-09-28T13:19:43.000Z</time>
      </trkpt>
      <trkpt lat="43.31598" lon="6.54727">
        <ele>140.6</ele>
        <time>2022-09-28T13:19:44.002Z</time>
      </trkpt>
      <trkpt lat="43.31595" lon="6.5473">
        <ele>140.6</ele>
        <time>2022-09-28T13:19:45.001Z</time>
      </trkpt>
      <trkpt lat="43.31593" lon="6.54733">
        <ele>140.7</ele>
        <time>2022-09-28T13:19:46.000Z</time>
      </trkpt>
      <trkpt lat="43.31591" lon="6.54738">
        <ele>141</ele>
        <time>2022-09-28T13:19:47.000Z</time>
      </trkpt>
      <trkpt lat="43.31589" lon="6.54743">
        <ele>141.4</ele>
        <time>2022-09-28T13:19:48.000Z</time>
      </trkpt>
      <trkpt lat="43.31587" lon="6.54747">
        <ele>141.8</ele>
        <time>2022-09-28T13:19:49.000Z</time>
      </trkpt>
      <trkpt lat="43.31585" lon="6.54752">
        <ele>142.3</ele>
        <time>2022-09-28T13:19:50.000Z</time>
      </trkpt>
      <trkpt lat="43.31583" lon="6.54757">
        <ele>142.8</ele>
        <time>2022-09-28T13:19:51.001Z</time>
      </trkpt>
      <trkpt lat="43.31582" lon="6.54762">
        <ele>143.4</ele>
        <time>2022-09-28T13:19:52.001Z</time>
      </trkpt>
      <trkpt lat="43.31582" lon="6.54771">
        <ele>144.3</ele>
        <time>2022-09-28T13:19:53.000Z</time>
      </trkpt>
      <trkpt lat="43.31583" lon="6.54779">
        <ele>145.1</ele>
        <time>2022-09-28T13:19:55.000Z</time>
      </trkpt>
      <trkpt lat="43.31583" lon="6.54784">
        <ele>145.5</ele>
        <time>2022-09-28T13:19:56.001Z</time>
      </trkpt>
      <trkpt lat="43.31583" lon="6.54789">
        <ele>145.8</ele>
        <time>2022-09-28T13:19:57.001Z</time>
      </trkpt>
      <trkpt lat="43.31584" lon="6.54795">
        <ele>146.2</ele>
        <time>2022-09-28T13:19:58.001Z</time>
      </trkpt>
      <trkpt lat="43.31584" lon="6.54801">
        <ele>146.7</ele>
        <time>2022-09-28T13:19:59.003Z</time>
      </trkpt>
      <trkpt lat="43.31583" lon="6.54811">
        <ele>147.7</ele>
        <time>2022-09-28T13:20:01.001Z</time>
      </trkpt>
      <trkpt lat="43.31581" lon="6.54817">
        <ele>148.3</ele>
        <time>2022-09-28T13:20:02.002Z</time>
      </trkpt>
      <trkpt lat="43.31579" lon="6.54821">
        <ele>148.9</ele>
        <time>2022-09-28T13:20:03.001Z</time>
      </trkpt>
      <trkpt lat="43.31578" lon="6.54825">
        <ele>149.4</ele>
        <time>2022-09-28T13:20:04.001Z</time>
      </trkpt>
      <trkpt lat="43.31575" lon="6.54829">
        <ele>149.9</ele>
        <time>2022-09-28T13:20:05.001Z</time>
      </trkpt>
      <trkpt lat="43.31572" lon="6.54833">
        <ele>150.4</ele>
        <time>2022-09-28T13:20:06.000Z</time>
      </trkpt>
      <trkpt lat="43.31569" lon="6.54835">
        <ele>150.7</ele>
        <time>2022-09-28T13:20:07.001Z</time>
      </trkpt>
      <trkpt lat="43.31566" lon="6.54839">
        <ele>151.2</ele>
        <time>2022-09-28T13:20:08.002Z</time>
      </trkpt>
      <trkpt lat="43.31562" lon="6.54843">
        <ele>151.8</ele>
        <time>2022-09-28T13:20:09.001Z</time>
      </trkpt>
      <trkpt lat="43.3156" lon="6.54846">
        <ele>152.2</ele>
        <time>2022-09-28T13:20:10.001Z</time>
      </trkpt>
      <trkpt lat="43.31556" lon="6.54849">
        <ele>152.6</ele>
        <time>2022-09-28T13:20:11.001Z</time>
      </trkpt>
      <trkpt lat="43.31553" lon="6.54852">
        <ele>153.1</ele>
        <time>2022-09-28T13:20:12.001Z</time>
      </trkpt>
      <trkpt lat="43.31549" lon="6.54855">
        <ele>153.7</ele>
        <time>2022-09-28T13:20:13.001Z</time>
      </trkpt>
      <trkpt lat="43.31547" lon="6.54858">
        <ele>154</ele>
        <time>2022-09-28T13:20:14.001Z</time>
      </trkpt>
      <trkpt lat="43.31543" lon="6.54861">
        <ele>154.5</ele>
        <time>2022-09-28T13:20:15.001Z</time>
      </trkpt>
      <trkpt lat="43.31539" lon="6.54865">
        <ele>155</ele>
        <time>2022-09-28T13:20:16.001Z</time>
      </trkpt>
      <trkpt lat="43.31536" lon="6.54867">
        <ele>155.4</ele>
        <time>2022-09-28T13:20:17.001Z</time>
      </trkpt>
      <trkpt lat="43.31532" lon="6.5487">
        <ele>155.8</ele>
        <time>2022-09-28T13:20:18.001Z</time>
      </trkpt>
      <trkpt lat="43.31526" lon="6.54873">
        <ele>156.3</ele>
        <time>2022-09-28T13:20:20.001Z</time>
      </trkpt>
      <trkpt lat="43.31524" lon="6.54871">
        <ele>156.1</ele>
        <time>2022-09-28T13:20:21.001Z</time>
      </trkpt>
      <trkpt lat="43.3152" lon="6.54868">
        <ele>155.7</ele>
        <time>2022-09-28T13:20:23.001Z</time>
      </trkpt>
      <trkpt lat="43.31517" lon="6.54867">
        <ele>155.7</ele>
        <time>2022-09-28T13:20:24.001Z</time>
      </trkpt>
      <trkpt lat="43.31514" lon="6.54868">
        <ele>155.7</ele>
        <time>2022-09-28T13:20:25.001Z</time>
      </trkpt>
      <trkpt lat="43.31512" lon="6.5487">
        <ele>155.9</ele>
        <time>2022-09-28T13:20:26.000Z</time>
      </trkpt>
      <trkpt lat="43.31512" lon="6.54873">
        <ele>156.2</ele>
        <time>2022-09-28T13:20:27.001Z</time>
      </trkpt>
      <trkpt lat="43.31512" lon="6.54875">
        <ele>156.5</ele>
        <time>2022-09-28T13:20:28.001Z</time>
      </trkpt>
      <trkpt lat="43.31512" lon="6.54877">
        <ele>156.7</ele>
        <time>2022-09-28T13:20:29.000Z</time>
      </trkpt>
      <trkpt lat="43.31511" lon="6.5488">
        <ele>157</ele>
        <time>2022-09-28T13:20:30.002Z</time>
      </trkpt>
      <trkpt lat="43.31511" lon="6.54882">
        <ele>157.2</ele>
        <time>2022-09-28T13:20:31.000Z</time>
      </trkpt>
      <trkpt lat="43.31511" lon="6.54884">
        <ele>157.5</ele>
        <time>2022-09-28T13:20:33.004Z</time>
      </trkpt>
      <trkpt lat="43.3151" lon="6.54886">
        <ele>157.7</ele>
        <time>2022-09-28T13:20:34.001Z</time>
      </trkpt>
      <trkpt lat="43.31509" lon="6.54885">
        <ele>157.6</ele>
        <time>2022-09-28T13:20:35.003Z</time>
      </trkpt>
      <trkpt lat="43.31508" lon="6.54885">
        <ele>157.5</ele>
        <time>2022-09-28T13:20:36.003Z</time>
      </trkpt>
      <trkpt lat="43.31506" lon="6.54884">
        <ele>157.5</ele>
        <time>2022-09-28T13:20:37.001Z</time>
      </trkpt>
      <trkpt lat="43.31505" lon="6.54885">
        <ele>157.6</ele>
        <time>2022-09-28T13:20:38.001Z</time>
      </trkpt>
      <trkpt lat="43.31503" lon="6.54886">
        <ele>157.7</ele>
        <time>2022-09-28T13:20:40.001Z</time>
      </trkpt>
      <trkpt lat="43.31503" lon="6.54887">
        <ele>157.8</ele>
        <time>2022-09-28T13:20:52.000Z</time>
      </trkpt>
      <trkpt lat="43.31504" lon="6.54886">
        <ele>157.7</ele>
        <time>2022-09-28T13:20:57.000Z</time>
      </trkpt>
      <trkpt lat="43.31503" lon="6.54887">
        <ele>157.8</ele>
        <time>2022-09-28T13:22:02.002Z</time>
      </trkpt>
      <trkpt lat="43.31502" lon="6.54888">
        <ele>157.9</ele>
        <time>2022-09-28T13:22:54.001Z</time>
      </trkpt>
      <trkpt lat="43.31501" lon="6.54889">
        <ele>158</ele>
        <time>2022-09-28T13:22:55.000Z</time>
      </trkpt>
      <trkpt lat="43.31499" lon="6.5489">
        <ele>158.2</ele>
        <time>2022-09-28T13:22:57.002Z</time>
      </trkpt>
      <trkpt lat="43.31497" lon="6.5489">
        <ele>158.3</ele>
        <time>2022-09-28T13:22:58.000Z</time>
      </trkpt>
      <trkpt lat="43.31496" lon="6.5489">
        <ele>158.3</ele>
        <time>2022-09-28T13:22:59.000Z</time>
      </trkpt>
      <trkpt lat="43.31493" lon="6.5489">
        <ele>158.4</ele>
        <time>2022-09-28T13:23:00.001Z</time>
      </trkpt>
      <trkpt lat="43.3149" lon="6.5489">
        <ele>158.5</ele>
        <time>2022-09-28T13:23:01.000Z</time>
      </trkpt>
      <trkpt lat="43.31488" lon="6.5489">
        <ele>158.6</ele>
        <time>2022-09-28T13:23:02.001Z</time>
      </trkpt>
      <trkpt lat="43.31486" lon="6.5489">
        <ele>158.7</ele>
        <time>2022-09-28T13:23:03.001Z</time>
      </trkpt>
      <trkpt lat="43.31484" lon="6.5489">
        <ele>158.7</ele>
        <time>2022-09-28T13:23:04.001Z</time>
      </trkpt>
      <trkpt lat="43.31481" lon="6.54889">
        <ele>158.7</ele>
        <time>2022-09-28T13:23:05.003Z</time>
      </trkpt>
      <trkpt lat="43.3148" lon="6.54888">
        <ele>158.6</ele>
        <time>2022-09-28T13:23:06.001Z</time>
      </trkpt>
      <trkpt lat="43.31477" lon="6.54887">
        <ele>158.6</ele>
        <time>2022-09-28T13:23:07.001Z</time>
      </trkpt>
      <trkpt lat="43.31475" lon="6.54887">
        <ele>158.6</ele>
        <time>2022-09-28T13:23:08.001Z</time>
      </trkpt>
      <trkpt lat="43.31472" lon="6.54886">
        <ele>158.6</ele>
        <time>2022-09-28T13:23:09.001Z</time>
      </trkpt>
      <trkpt lat="43.31469" lon="6.54885">
        <ele>158.5</ele>
        <time>2022-09-28T13:23:10.001Z</time>
      </trkpt>
      <trkpt lat="43.31467" lon="6.54884">
        <ele>158.6</ele>
        <time>2022-09-28T13:23:11.000Z</time>
      </trkpt>
      <trkpt lat="43.31464" lon="6.54883">
        <ele>158.6</ele>
        <time>2022-09-28T13:23:12.001Z</time>
      </trkpt>
      <trkpt lat="43.31461" lon="6.54883">
        <ele>158.7</ele>
        <time>2022-09-28T13:23:13.000Z</time>
      </trkpt>
      <trkpt lat="43.31459" lon="6.54882">
        <ele>158.8</ele>
        <time>2022-09-28T13:23:14.002Z</time>
      </trkpt>
      <trkpt lat="43.31456" lon="6.54882">
        <ele>158.9</ele>
        <time>2022-09-28T13:23:15.001Z</time>
      </trkpt>
      <trkpt lat="43.31453" lon="6.54883">
        <ele>159.1</ele>
        <time>2022-09-28T13:23:16.001Z</time>
      </trkpt>
      <trkpt lat="43.31451" lon="6.54883">
        <ele>159.3</ele>
        <time>2022-09-28T13:23:17.000Z</time>
      </trkpt>
      <trkpt lat="43.31448" lon="6.54883">
        <ele>159.4</ele>
        <time>2022-09-28T13:23:18.001Z</time>
      </trkpt>
      <trkpt lat="43.31444" lon="6.54884">
        <ele>159.7</ele>
        <time>2022-09-28T13:23:19.000Z</time>
      </trkpt>
      <trkpt lat="43.31441" lon="6.54885">
        <ele>159.9</ele>
        <time>2022-09-28T13:23:20.001Z</time>
      </trkpt>
      <trkpt lat="43.31439" lon="6.54885">
        <ele>160.1</ele>
        <time>2022-09-28T13:23:21.002Z</time>
      </trkpt>
      <trkpt lat="43.31436" lon="6.54886">
        <ele>160.4</ele>
        <time>2022-09-28T13:23:22.000Z</time>
      </trkpt>
      <trkpt lat="43.31432" lon="6.54886">
        <ele>160.6</ele>
        <time>2022-09-28T13:23:23.000Z</time>
      </trkpt>
      <trkpt lat="43.31429" lon="6.54886">
        <ele>160.9</ele>
        <time>2022-09-28T13:23:24.001Z</time>
      </trkpt>
      <trkpt lat="43.31427" lon="6.54887">
        <ele>161.1</ele>
        <time>2022-09-28T13:23:25.000Z</time>
      </trkpt>
      <trkpt lat="43.3142" lon="6.54889">
        <ele>161.8</ele>
        <time>2022-09-28T13:23:27.001Z</time>
      </trkpt>
      <trkpt lat="43.31417" lon="6.5489">
        <ele>162.2</ele>
        <time>2022-09-28T13:23:28.000Z</time>
      </trkpt>
      <trkpt lat="43.31415" lon="6.54891">
        <ele>162.5</ele>
        <time>2022-09-28T13:23:29.000Z</time>
      </trkpt>
      <trkpt lat="43.31412" lon="6.54891">
        <ele>162.6</ele>
        <time>2022-09-28T13:23:30.004Z</time>
      </trkpt>
      <trkpt lat="43.31409" lon="6.54892">
        <ele>163</ele>
        <time>2022-09-28T13:23:31.001Z</time>
      </trkpt>
      <trkpt lat="43.31406" lon="6.54892">
        <ele>163.2</ele>
        <time>2022-09-28T13:23:32.000Z</time>
      </trkpt>
      <trkpt lat="43.31404" lon="6.54892">
        <ele>163.4</ele>
        <time>2022-09-28T13:23:33.002Z</time>
      </trkpt>
      <trkpt lat="43.31398" lon="6.54892">
        <ele>163.9</ele>
        <time>2022-09-28T13:23:35.000Z</time>
      </trkpt>
      <trkpt lat="43.31395" lon="6.54895">
        <ele>164.5</ele>
        <time>2022-09-28T13:23:36.000Z</time>
      </trkpt>
      <trkpt lat="43.31392" lon="6.54896">
        <ele>164.8</ele>
        <time>2022-09-28T13:23:37.000Z</time>
      </trkpt>
      <trkpt lat="43.31389" lon="6.54896">
        <ele>165</ele>
        <time>2022-09-28T13:23:38.001Z</time>
      </trkpt>
      <trkpt lat="43.31386" lon="6.54897">
        <ele>165.1</ele>
        <time>2022-09-28T13:23:39.001Z</time>
      </trkpt>
      <trkpt lat="43.31382" lon="6.54898">
        <ele>165.3</ele>
        <time>2022-09-28T13:23:40.000Z</time>
      </trkpt>
      <trkpt lat="43.31379" lon="6.549">
        <ele>165.5</ele>
        <time>2022-09-28T13:23:41.000Z</time>
      </trkpt>
      <trkpt lat="43.31377" lon="6.549">
        <ele>165.6</ele>
        <time>2022-09-28T13:23:42.000Z</time>
      </trkpt>
      <trkpt lat="43.3137" lon="6.54902">
        <ele>166</ele>
        <time>2022-09-28T13:23:44.001Z</time>
      </trkpt>
      <trkpt lat="43.31367" lon="6.54904">
        <ele>166.2</ele>
        <time>2022-09-28T13:23:45.000Z</time>
      </trkpt>
      <trkpt lat="43.31363" lon="6.54905">
        <ele>166.3</ele>
        <time>2022-09-28T13:23:46.001Z</time>
      </trkpt>
      <trkpt lat="43.31359" lon="6.54906">
        <ele>166.5</ele>
        <time>2022-09-28T13:23:48.000Z</time>
      </trkpt>
      <trkpt lat="43.31355" lon="6.54908">
        <ele>166.8</ele>
        <time>2022-09-28T13:23:49.001Z</time>
      </trkpt>
      <trkpt lat="43.3135" lon="6.54911">
        <ele>167</ele>
        <time>2022-09-28T13:23:50.000Z</time>
      </trkpt>
      <trkpt lat="43.31347" lon="6.54912">
        <ele>167.1</ele>
        <time>2022-09-28T13:23:51.000Z</time>
      </trkpt>
      <trkpt lat="43.31343" lon="6.54914">
        <ele>167.1</ele>
        <time>2022-09-28T13:23:53.001Z</time>
      </trkpt>
      <trkpt lat="43.31338" lon="6.54915">
        <ele>167.1</ele>
        <time>2022-09-28T13:23:54.001Z</time>
      </trkpt>
      <trkpt lat="43.31333" lon="6.54916">
        <ele>167</ele>
        <time>2022-09-28T13:23:56.000Z</time>
      </trkpt>
      <trkpt lat="43.3133" lon="6.54916">
        <ele>167</ele>
        <time>2022-09-28T13:23:57.001Z</time>
      </trkpt>
      <trkpt lat="43.31325" lon="6.54914">
        <ele>167</ele>
        <time>2022-09-28T13:23:58.000Z</time>
      </trkpt>
      <trkpt lat="43.31322" lon="6.54911">
        <ele>167</ele>
        <time>2022-09-28T13:24:00.001Z</time>
      </trkpt>
      <trkpt lat="43.3132" lon="6.54908">
        <ele>167.1</ele>
        <time>2022-09-28T13:24:01.001Z</time>
      </trkpt>
      <trkpt lat="43.31319" lon="6.54904">
        <ele>167.3</ele>
        <time>2022-09-28T13:24:02.001Z</time>
      </trkpt>
      <trkpt lat="43.31318" lon="6.549">
        <ele>167.4</ele>
        <time>2022-09-28T13:24:03.001Z</time>
      </trkpt>
      <trkpt lat="43.31317" lon="6.54896">
        <ele>167.6</ele>
        <time>2022-09-28T13:24:04.001Z</time>
      </trkpt>
      <trkpt lat="43.31318" lon="6.54888">
        <ele>167.7</ele>
        <time>2022-09-28T13:24:06.004Z</time>
      </trkpt>
      <trkpt lat="43.31318" lon="6.54885">
        <ele>168.1</ele>
        <time>2022-09-28T13:24:07.001Z</time>
      </trkpt>
      <trkpt lat="43.31318" lon="6.54881">
        <ele>168.5</ele>
        <time>2022-09-28T13:24:08.000Z</time>
      </trkpt>
      <trkpt lat="43.31319" lon="6.54879">
        <ele>168.6</ele>
        <time>2022-09-28T13:24:09.000Z</time>
      </trkpt>
      <trkpt lat="43.31319" lon="6.54876">
        <ele>168.9</ele>
        <time>2022-09-28T13:24:10.001Z</time>
      </trkpt>
      <trkpt lat="43.31319" lon="6.54873">
        <ele>169.3</ele>
        <time>2022-09-28T13:24:11.002Z</time>
      </trkpt>
      <trkpt lat="43.31318" lon="6.54871">
        <ele>169.6</ele>
        <time>2022-09-28T13:24:12.000Z</time>
      </trkpt>
      <trkpt lat="43.31319" lon="6.54869">
        <ele>169.7</ele>
        <time>2022-09-28T13:24:13.001Z</time>
      </trkpt>
      <trkpt lat="43.3132" lon="6.54868">
        <ele>169.6</ele>
        <time>2022-09-28T13:24:14.028Z</time>
      </trkpt>
      <trkpt lat="43.31321" lon="6.54867">
        <ele>169.6</ele>
        <time>2022-09-28T13:24:15.000Z</time>
      </trkpt>
      <trkpt lat="43.31322" lon="6.54866">
        <ele>169.6</ele>
        <time>2022-09-28T13:24:16.000Z</time>
      </trkpt>
      <trkpt lat="43.31322" lon="6.54864">
        <ele>169.7</ele>
        <time>2022-09-28T13:24:18.000Z</time>
      </trkpt>
      <trkpt lat="43.31321" lon="6.54865">
        <ele>169.8</ele>
        <time>2022-09-28T13:24:23.000Z</time>
      </trkpt>
      <trkpt lat="43.3132" lon="6.54865">
        <ele>170</ele>
        <time>2022-09-28T13:24:28.000Z</time>
      </trkpt>
      <trkpt lat="43.31319" lon="6.54866">
        <ele>170</ele>
        <time>2022-09-28T13:24:30.001Z</time>
      </trkpt>
      <trkpt lat="43.31319" lon="6.54865">
        <ele>170.2</ele>
        <time>2022-09-28T13:25:16.001Z</time>
      </trkpt>
      <trkpt lat="43.31319" lon="6.54863">
        <ele>170.4</ele>
        <time>2022-09-28T13:25:17.001Z</time>
      </trkpt>
      <trkpt lat="43.31319" lon="6.54861">
        <ele>170.7</ele>
        <time>2022-09-28T13:25:18.000Z</time>
      </trkpt>
      <trkpt lat="43.31318" lon="6.54858">
        <ele>171.1</ele>
        <time>2022-09-28T13:25:19.001Z</time>
      </trkpt>
      <trkpt lat="43.31317" lon="6.54856">
        <ele>171.6</ele>
        <time>2022-09-28T13:25:20.001Z</time>
      </trkpt>
      <trkpt lat="43.31313" lon="6.54856">
        <ele>172.4</ele>
        <time>2022-09-28T13:25:21.001Z</time>
      </trkpt>
      <trkpt lat="43.31312" lon="6.54857">
        <ele>172.5</ele>
        <time>2022-09-28T13:25:22.002Z</time>
      </trkpt>
      <trkpt lat="43.31309" lon="6.54861">
        <ele>172.4</ele>
        <time>2022-09-28T13:25:24.001Z</time>
      </trkpt>
      <trkpt lat="43.31306" lon="6.54865">
        <ele>172.5</ele>
        <time>2022-09-28T13:25:25.003Z</time>
      </trkpt>
      <trkpt lat="43.31302" lon="6.54868">
        <ele>172.5</ele>
        <time>2022-09-28T13:25:26.003Z</time>
      </trkpt>
      <trkpt lat="43.31299" lon="6.54871">
        <ele>172.5</ele>
        <time>2022-09-28T13:25:27.002Z</time>
      </trkpt>
      <trkpt lat="43.31295" lon="6.54873">
        <ele>172.7</ele>
        <time>2022-09-28T13:25:28.001Z</time>
      </trkpt>
      <trkpt lat="43.31293" lon="6.54875">
        <ele>172.8</ele>
        <time>2022-09-28T13:25:29.001Z</time>
      </trkpt>
      <trkpt lat="43.3129" lon="6.54878">
        <ele>172.9</ele>
        <time>2022-09-28T13:25:30.001Z</time>
      </trkpt>
      <trkpt lat="43.31286" lon="6.54881">
        <ele>173.3</ele>
        <time>2022-09-28T13:25:31.000Z</time>
      </trkpt>
      <trkpt lat="43.31282" lon="6.54884">
        <ele>173.6</ele>
        <time>2022-09-28T13:25:32.000Z</time>
      </trkpt>
      <trkpt lat="43.31273" lon="6.54891">
        <ele>174.1</ele>
        <time>2022-09-28T13:25:34.001Z</time>
      </trkpt>
      <trkpt lat="43.3127" lon="6.54893">
        <ele>174.1</ele>
        <time>2022-09-28T13:25:35.000Z</time>
      </trkpt>
      <trkpt lat="43.31267" lon="6.54897">
        <ele>174.2</ele>
        <time>2022-09-28T13:25:37.001Z</time>
      </trkpt>
      <trkpt lat="43.31263" lon="6.54899">
        <ele>174.4</ele>
        <time>2022-09-28T13:25:38.001Z</time>
      </trkpt>
      <trkpt lat="43.3126" lon="6.54903">
        <ele>174.6</ele>
        <time>2022-09-28T13:25:39.001Z</time>
      </trkpt>
      <trkpt lat="43.31258" lon="6.54905">
        <ele>174.8</ele>
        <time>2022-09-28T13:25:40.001Z</time>
      </trkpt>
      <trkpt lat="43.31255" lon="6.54908">
        <ele>175.2</ele>
        <time>2022-09-28T13:25:41.005Z</time>
      </trkpt>
      <trkpt lat="43.31251" lon="6.5491">
        <ele>175.7</ele>
        <time>2022-09-28T13:25:42.001Z</time>
      </trkpt>
      <trkpt lat="43.31249" lon="6.54913">
        <ele>176.2</ele>
        <time>2022-09-28T13:25:43.001Z</time>
      </trkpt>
      <trkpt lat="43.31244" lon="6.54917">
        <ele>176.8</ele>
        <time>2022-09-28T13:25:45.001Z</time>
      </trkpt>
      <trkpt lat="43.3124" lon="6.54921">
        <ele>176.8</ele>
        <time>2022-09-28T13:25:46.000Z</time>
      </trkpt>
      <trkpt lat="43.31237" lon="6.54922">
        <ele>177.2</ele>
        <time>2022-09-28T13:25:47.001Z</time>
      </trkpt>
      <trkpt lat="43.31234" lon="6.54925">
        <ele>177.3</ele>
        <time>2022-09-28T13:25:48.001Z</time>
      </trkpt>
      <trkpt lat="43.3123" lon="6.54928">
        <ele>177.4</ele>
        <time>2022-09-28T13:25:49.002Z</time>
      </trkpt>
      <trkpt lat="43.31225" lon="6.54932">
        <ele>177.8</ele>
        <time>2022-09-28T13:25:51.000Z</time>
      </trkpt>
      <trkpt lat="43.31223" lon="6.54934">
        <ele>178</ele>
        <time>2022-09-28T13:25:52.000Z</time>
      </trkpt>
      <trkpt lat="43.31215" lon="6.54941">
        <ele>178.8</ele>
        <time>2022-09-28T13:25:54.000Z</time>
      </trkpt>
      <trkpt lat="43.31212" lon="6.54944">
        <ele>179.2</ele>
        <time>2022-09-28T13:25:55.001Z</time>
      </trkpt>
      <trkpt lat="43.31209" lon="6.54947">
        <ele>179.6</ele>
        <time>2022-09-28T13:25:56.001Z</time>
      </trkpt>
      <trkpt lat="43.31206" lon="6.54949">
        <ele>179.9</ele>
        <time>2022-09-28T13:25:57.001Z</time>
      </trkpt>
      <trkpt lat="43.31203" lon="6.54952">
        <ele>180.4</ele>
        <time>2022-09-28T13:25:58.001Z</time>
      </trkpt>
      <trkpt lat="43.31199" lon="6.54955">
        <ele>180.6</ele>
        <time>2022-09-28T13:25:59.003Z</time>
      </trkpt>
      <trkpt lat="43.31196" lon="6.54957">
        <ele>180.9</ele>
        <time>2022-09-28T13:26:00.001Z</time>
      </trkpt>
      <trkpt lat="43.31193" lon="6.54959">
        <ele>181</ele>
        <time>2022-09-28T13:26:01.002Z</time>
      </trkpt>
      <trkpt lat="43.3119" lon="6.54962">
        <ele>180.9</ele>
        <time>2022-09-28T13:26:02.001Z</time>
      </trkpt>
      <trkpt lat="43.31186" lon="6.54965">
        <ele>180.8</ele>
        <time>2022-09-28T13:26:03.001Z</time>
      </trkpt>
      <trkpt lat="43.31182" lon="6.54967">
        <ele>180.7</ele>
        <time>2022-09-28T13:26:04.002Z</time>
      </trkpt>
      <trkpt lat="43.31179" lon="6.54969">
        <ele>180.6</ele>
        <time>2022-09-28T13:26:05.001Z</time>
      </trkpt>
      <trkpt lat="43.31175" lon="6.54973">
        <ele>180.4</ele>
        <time>2022-09-28T13:26:06.000Z</time>
      </trkpt>
      <trkpt lat="43.31171" lon="6.54976">
        <ele>180.8</ele>
        <time>2022-09-28T13:26:07.000Z</time>
      </trkpt>
      <trkpt lat="43.31166" lon="6.54979">
        <ele>181</ele>
        <time>2022-09-28T13:26:08.001Z</time>
      </trkpt>
      <trkpt lat="43.31163" lon="6.54982">
        <ele>181.3</ele>
        <time>2022-09-28T13:26:09.000Z</time>
      </trkpt>
      <trkpt lat="43.31159" lon="6.54984">
        <ele>181.6</ele>
        <time>2022-09-28T13:26:11.001Z</time>
      </trkpt>
      <trkpt lat="43.31155" lon="6.54987">
        <ele>181.8</ele>
        <time>2022-09-28T13:26:12.001Z</time>
      </trkpt>
      <trkpt lat="43.31152" lon="6.54989">
        <ele>181.9</ele>
        <time>2022-09-28T13:26:13.000Z</time>
      </trkpt>
      <trkpt lat="43.31149" lon="6.54991">
        <ele>182</ele>
        <time>2022-09-28T13:26:14.001Z</time>
      </trkpt>
      <trkpt lat="43.31145" lon="6.54994">
        <ele>182.1</ele>
        <time>2022-09-28T13:26:15.001Z</time>
      </trkpt>
      <trkpt lat="43.31138" lon="6.54999">
        <ele>182.1</ele>
        <time>2022-09-28T13:26:17.000Z</time>
      </trkpt>
      <trkpt lat="43.31136" lon="6.55001">
        <ele>182.3</ele>
        <time>2022-09-28T13:26:19.001Z</time>
      </trkpt>
      <trkpt lat="43.31132" lon="6.55003">
        <ele>182.5</ele>
        <time>2022-09-28T13:26:20.000Z</time>
      </trkpt>
      <trkpt lat="43.3113" lon="6.55005">
        <ele>182.7</ele>
        <time>2022-09-28T13:26:21.000Z</time>
      </trkpt>
      <trkpt lat="43.31125" lon="6.55008">
        <ele>183.1</ele>
        <time>2022-09-28T13:26:23.000Z</time>
      </trkpt>
      <trkpt lat="43.31123" lon="6.5501">
        <ele>183.3</ele>
        <time>2022-09-28T13:26:24.001Z</time>
      </trkpt>
      <trkpt lat="43.3112" lon="6.55012">
        <ele>183.5</ele>
        <time>2022-09-28T13:26:25.002Z</time>
      </trkpt>
      <trkpt lat="43.31118" lon="6.55014">
        <ele>183.6</ele>
        <time>2022-09-28T13:26:26.000Z</time>
      </trkpt>
      <trkpt lat="43.31115" lon="6.55016">
        <ele>183.8</ele>
        <time>2022-09-28T13:26:27.001Z</time>
      </trkpt>
      <trkpt lat="43.31112" lon="6.55019">
        <ele>184</ele>
        <time>2022-09-28T13:26:28.001Z</time>
      </trkpt>
      <trkpt lat="43.31109" lon="6.55021">
        <ele>184</ele>
        <time>2022-09-28T13:26:29.000Z</time>
      </trkpt>
      <trkpt lat="43.31107" lon="6.55022">
        <ele>183.9</ele>
        <time>2022-09-28T13:26:30.002Z</time>
      </trkpt>
      <trkpt lat="43.31104" lon="6.55025">
        <ele>183.8</ele>
        <time>2022-09-28T13:26:31.000Z</time>
      </trkpt>
      <trkpt lat="43.31101" lon="6.55027">
        <ele>183.6</ele>
        <time>2022-09-28T13:26:32.001Z</time>
      </trkpt>
      <trkpt lat="43.31097" lon="6.5503">
        <ele>183.5</ele>
        <time>2022-09-28T13:26:33.001Z</time>
      </trkpt>
      <trkpt lat="43.31095" lon="6.55031">
        <ele>183.5</ele>
        <time>2022-09-28T13:26:34.001Z</time>
      </trkpt>
      <trkpt lat="43.31087" lon="6.55037">
        <ele>183.2</ele>
        <time>2022-09-28T13:26:36.001Z</time>
      </trkpt>
      <trkpt lat="43.31082" lon="6.55041">
        <ele>182.9</ele>
        <time>2022-09-28T13:26:37.001Z</time>
      </trkpt>
      <trkpt lat="43.31078" lon="6.55045">
        <ele>182.6</ele>
        <time>2022-09-28T13:26:38.001Z</time>
      </trkpt>
      <trkpt lat="43.31075" lon="6.5505">
        <ele>182.4</ele>
        <time>2022-09-28T13:26:39.001Z</time>
      </trkpt>
      <trkpt lat="43.31074" lon="6.55052">
        <ele>182.4</ele>
        <time>2022-09-28T13:26:40.000Z</time>
      </trkpt>
      <trkpt lat="43.31072" lon="6.55057">
        <ele>182.3</ele>
        <time>2022-09-28T13:26:41.001Z</time>
      </trkpt>
      <trkpt lat="43.31068" lon="6.55061">
        <ele>182.4</ele>
        <time>2022-09-28T13:26:42.001Z</time>
      </trkpt>
      <trkpt lat="43.31066" lon="6.55064">
        <ele>182.6</ele>
        <time>2022-09-28T13:26:43.001Z</time>
      </trkpt>
      <trkpt lat="43.31063" lon="6.55068">
        <ele>182.8</ele>
        <time>2022-09-28T13:26:44.001Z</time>
      </trkpt>
      <trkpt lat="43.31061" lon="6.55072">
        <ele>183</ele>
        <time>2022-09-28T13:26:45.000Z</time>
      </trkpt>
      <trkpt lat="43.31058" lon="6.55076">
        <ele>183.3</ele>
        <time>2022-09-28T13:26:47.000Z</time>
      </trkpt>
      <trkpt lat="43.31053" lon="6.5508">
        <ele>183.5</ele>
        <time>2022-09-28T13:26:48.001Z</time>
      </trkpt>
      <trkpt lat="43.31049" lon="6.55085">
        <ele>183.6</ele>
        <time>2022-09-28T13:26:50.000Z</time>
      </trkpt>
      <trkpt lat="43.31044" lon="6.55088">
        <ele>183.3</ele>
        <time>2022-09-28T13:26:51.001Z</time>
      </trkpt>
      <trkpt lat="43.31039" lon="6.55093">
        <ele>183.2</ele>
        <time>2022-09-28T13:26:52.001Z</time>
      </trkpt>
      <trkpt lat="43.31036" lon="6.55097">
        <ele>183.1</ele>
        <time>2022-09-28T13:26:54.001Z</time>
      </trkpt>
      <trkpt lat="43.31034" lon="6.551">
        <ele>183</ele>
        <time>2022-09-28T13:26:55.000Z</time>
      </trkpt>
      <trkpt lat="43.31032" lon="6.55102">
        <ele>183</ele>
        <time>2022-09-28T13:26:56.001Z</time>
      </trkpt>
      <trkpt lat="43.3103" lon="6.55104">
        <ele>182.9</ele>
        <time>2022-09-28T13:26:57.001Z</time>
      </trkpt>
      <trkpt lat="43.31029" lon="6.55107">
        <ele>182.9</ele>
        <time>2022-09-28T13:26:58.000Z</time>
      </trkpt>
      <trkpt lat="43.31028" lon="6.55109">
        <ele>182.9</ele>
        <time>2022-09-28T13:26:59.001Z</time>
      </trkpt>
      <trkpt lat="43.31027" lon="6.5511">
        <ele>182.9</ele>
        <time>2022-09-28T13:27:00.001Z</time>
      </trkpt>
      <trkpt lat="43.31026" lon="6.55112">
        <ele>182.7</ele>
        <time>2022-09-28T13:27:01.000Z</time>
      </trkpt>
      <trkpt lat="43.31023" lon="6.55117">
        <ele>182.5</ele>
        <time>2022-09-28T13:27:03.001Z</time>
      </trkpt>
      <trkpt lat="43.31021" lon="6.55122">
        <ele>182.4</ele>
        <time>2022-09-28T13:27:04.002Z</time>
      </trkpt>
      <trkpt lat="43.3102" lon="6.55128">
        <ele>182.3</ele>
        <time>2022-09-28T13:27:05.000Z</time>
      </trkpt>
      <trkpt lat="43.31018" lon="6.55135">
        <ele>182.1</ele>
        <time>2022-09-28T13:27:06.000Z</time>
      </trkpt>
      <trkpt lat="43.31012" lon="6.55149">
        <ele>181.2</ele>
        <time>2022-09-28T13:27:08.001Z</time>
      </trkpt>
      <trkpt lat="43.31009" lon="6.55157">
        <ele>180.6</ele>
        <time>2022-09-28T13:27:09.001Z</time>
      </trkpt>
      <trkpt lat="43.31007" lon="6.55165">
        <ele>180.3</ele>
        <time>2022-09-28T13:27:10.002Z</time>
      </trkpt>
      <trkpt lat="43.31004" lon="6.55172">
        <ele>179.7</ele>
        <time>2022-09-28T13:27:11.001Z</time>
      </trkpt>
      <trkpt lat="43.31" lon="6.5518">
        <ele>179.1</ele>
        <time>2022-09-28T13:27:12.001Z</time>
      </trkpt>
      <trkpt lat="43.30997" lon="6.55189">
        <ele>178.6</ele>
        <time>2022-09-28T13:27:13.000Z</time>
      </trkpt>
      <trkpt lat="43.30994" lon="6.55197">
        <ele>178.2</ele>
        <time>2022-09-28T13:27:14.001Z</time>
      </trkpt>
      <trkpt lat="43.30991" lon="6.55206">
        <ele>177.7</ele>
        <time>2022-09-28T13:27:15.000Z</time>
      </trkpt>
      <trkpt lat="43.30988" lon="6.55215">
        <ele>177.2</ele>
        <time>2022-09-28T13:27:16.000Z</time>
      </trkpt>
      <trkpt lat="43.30985" lon="6.55225">
        <ele>176.8</ele>
        <time>2022-09-28T13:27:17.001Z</time>
      </trkpt>
      <trkpt lat="43.30983" lon="6.55235">
        <ele>176.3</ele>
        <time>2022-09-28T13:27:18.001Z</time>
      </trkpt>
      <trkpt lat="43.30981" lon="6.55245">
        <ele>176</ele>
        <time>2022-09-28T13:27:19.001Z</time>
      </trkpt>
      <trkpt lat="43.30977" lon="6.55255">
        <ele>175.7</ele>
        <time>2022-09-28T13:27:20.001Z</time>
      </trkpt>
      <trkpt lat="43.30973" lon="6.55263">
        <ele>175.6</ele>
        <time>2022-09-28T13:27:21.001Z</time>
      </trkpt>
      <trkpt lat="43.3097" lon="6.55272">
        <ele>175.5</ele>
        <time>2022-09-28T13:27:22.001Z</time>
      </trkpt>
      <trkpt lat="43.30967" lon="6.55282">
        <ele>175.4</ele>
        <time>2022-09-28T13:27:23.000Z</time>
      </trkpt>
      <trkpt lat="43.30964" lon="6.55292">
        <ele>175.1</ele>
        <time>2022-09-28T13:27:24.000Z</time>
      </trkpt>
      <trkpt lat="43.30963" lon="6.55301">
        <ele>175.2</ele>
        <time>2022-09-28T13:27:25.001Z</time>
      </trkpt>
      <trkpt lat="43.30963" lon="6.5531">
        <ele>175.4</ele>
        <time>2022-09-28T13:27:26.000Z</time>
      </trkpt>
      <trkpt lat="43.30963" lon="6.55319">
        <ele>175.6</ele>
        <time>2022-09-28T13:27:27.000Z</time>
      </trkpt>
      <trkpt lat="43.30962" lon="6.55327">
        <ele>175.8</ele>
        <time>2022-09-28T13:27:28.001Z</time>
      </trkpt>
      <trkpt lat="43.30961" lon="6.55335">
        <ele>176.1</ele>
        <time>2022-09-28T13:27:29.001Z</time>
      </trkpt>
      <trkpt lat="43.30957" lon="6.55342">
        <ele>176.6</ele>
        <time>2022-09-28T13:27:30.001Z</time>
      </trkpt>
      <trkpt lat="43.30952" lon="6.55347">
        <ele>176.8</ele>
        <time>2022-09-28T13:27:31.002Z</time>
      </trkpt>
      <trkpt lat="43.30949" lon="6.55353">
        <ele>177.3</ele>
        <time>2022-09-28T13:27:32.000Z</time>
      </trkpt>
      <trkpt lat="43.30946" lon="6.5536">
        <ele>177.9</ele>
        <time>2022-09-28T13:27:33.000Z</time>
      </trkpt>
      <trkpt lat="43.30943" lon="6.55366">
        <ele>178.2</ele>
        <time>2022-09-28T13:27:34.002Z</time>
      </trkpt>
      <trkpt lat="43.30941" lon="6.55373">
        <ele>178.4</ele>
        <time>2022-09-28T13:27:35.001Z</time>
      </trkpt>
      <trkpt lat="43.30941" lon="6.55381">
        <ele>178.8</ele>
        <time>2022-09-28T13:27:36.001Z</time>
      </trkpt>
      <trkpt lat="43.30939" lon="6.55387">
        <ele>178.9</ele>
        <time>2022-09-28T13:27:37.000Z</time>
      </trkpt>
      <trkpt lat="43.30936" lon="6.55392">
        <ele>178.7</ele>
        <time>2022-09-28T13:27:38.001Z</time>
      </trkpt>
      <trkpt lat="43.30934" lon="6.55396">
        <ele>178.6</ele>
        <time>2022-09-28T13:27:39.001Z</time>
      </trkpt>
      <trkpt lat="43.30932" lon="6.55399">
        <ele>178.7</ele>
        <time>2022-09-28T13:27:40.001Z</time>
      </trkpt>
      <trkpt lat="43.3093" lon="6.55405">
        <ele>178.8</ele>
        <time>2022-09-28T13:27:41.001Z</time>
      </trkpt>
      <trkpt lat="43.30927" lon="6.55409">
        <ele>178.8</ele>
        <time>2022-09-28T13:27:42.001Z</time>
      </trkpt>
      <trkpt lat="43.30925" lon="6.55413">
        <ele>178.8</ele>
        <time>2022-09-28T13:27:43.003Z</time>
      </trkpt>
      <trkpt lat="43.30922" lon="6.55418">
        <ele>179.1</ele>
        <time>2022-09-28T13:27:44.000Z</time>
      </trkpt>
      <trkpt lat="43.3092" lon="6.55423">
        <ele>179.4</ele>
        <time>2022-09-28T13:27:45.001Z</time>
      </trkpt>
      <trkpt lat="43.30917" lon="6.55428">
        <ele>179.7</ele>
        <time>2022-09-28T13:27:46.001Z</time>
      </trkpt>
      <trkpt lat="43.30914" lon="6.55431">
        <ele>179.9</ele>
        <time>2022-09-28T13:27:47.006Z</time>
      </trkpt>
      <trkpt lat="43.30911" lon="6.55435">
        <ele>180.1</ele>
        <time>2022-09-28T13:27:48.001Z</time>
      </trkpt>
      <trkpt lat="43.30908" lon="6.5544">
        <ele>180.6</ele>
        <time>2022-09-28T13:27:49.001Z</time>
      </trkpt>
      <trkpt lat="43.30904" lon="6.55444">
        <ele>181.1</ele>
        <time>2022-09-28T13:27:51.001Z</time>
      </trkpt>
      <trkpt lat="43.309" lon="6.55447">
        <ele>181.2</ele>
        <time>2022-09-28T13:27:52.001Z</time>
      </trkpt>
      <trkpt lat="43.30894" lon="6.55451">
        <ele>181.3</ele>
        <time>2022-09-28T13:27:53.001Z</time>
      </trkpt>
      <trkpt lat="43.30889" lon="6.55454">
        <ele>181.4</ele>
        <time>2022-09-28T13:27:54.000Z</time>
      </trkpt>
      <trkpt lat="43.30884" lon="6.55458">
        <ele>181.2</ele>
        <time>2022-09-28T13:27:55.000Z</time>
      </trkpt>
      <trkpt lat="43.30879" lon="6.5546">
        <ele>181</ele>
        <time>2022-09-28T13:27:56.000Z</time>
      </trkpt>
      <trkpt lat="43.30877" lon="6.5546">
        <ele>180.7</ele>
        <time>2022-09-28T13:27:57.000Z</time>
      </trkpt>
      <trkpt lat="43.3087" lon="6.55466">
        <ele>180.8</ele>
        <time>2022-09-28T13:27:58.001Z</time>
      </trkpt>
      <trkpt lat="43.30865" lon="6.55467">
        <ele>180.6</ele>
        <time>2022-09-28T13:27:59.002Z</time>
      </trkpt>
      <trkpt lat="43.30861" lon="6.55471">
        <ele>180.7</ele>
        <time>2022-09-28T13:28:00.001Z</time>
      </trkpt>
      <trkpt lat="43.30856" lon="6.55474">
        <ele>180.4</ele>
        <time>2022-09-28T13:28:01.001Z</time>
      </trkpt>
      <trkpt lat="43.30851" lon="6.55478">
        <ele>180.1</ele>
        <time>2022-09-28T13:28:02.001Z</time>
      </trkpt>
      <trkpt lat="43.30847" lon="6.55483">
        <ele>179.7</ele>
        <time>2022-09-28T13:28:03.001Z</time>
      </trkpt>
      <trkpt lat="43.30841" lon="6.55489">
        <ele>179.2</ele>
        <time>2022-09-28T13:28:04.002Z</time>
      </trkpt>
      <trkpt lat="43.30836" lon="6.55496">
        <ele>178.4</ele>
        <time>2022-09-28T13:28:05.001Z</time>
      </trkpt>
      <trkpt lat="43.3083" lon="6.55502">
        <ele>177.9</ele>
        <time>2022-09-28T13:28:06.001Z</time>
      </trkpt>
      <trkpt lat="43.30824" lon="6.55508">
        <ele>177.9</ele>
        <time>2022-09-28T13:28:07.001Z</time>
      </trkpt>
      <trkpt lat="43.30819" lon="6.55516">
        <ele>178.2</ele>
        <time>2022-09-28T13:28:08.001Z</time>
      </trkpt>
      <trkpt lat="43.30813" lon="6.55521">
        <ele>178.2</ele>
        <time>2022-09-28T13:28:09.001Z</time>
      </trkpt>
      <trkpt lat="43.30807" lon="6.55525">
        <ele>177.8</ele>
        <time>2022-09-28T13:28:10.000Z</time>
      </trkpt>
      <trkpt lat="43.30801" lon="6.5553">
        <ele>177.9</ele>
        <time>2022-09-28T13:28:11.001Z</time>
      </trkpt>
      <trkpt lat="43.30796" lon="6.55533">
        <ele>178</ele>
        <time>2022-09-28T13:28:12.000Z</time>
      </trkpt>
      <trkpt lat="43.30793" lon="6.55535">
        <ele>178</ele>
        <time>2022-09-28T13:28:13.001Z</time>
      </trkpt>
      <trkpt lat="43.30786" lon="6.55539">
        <ele>177.8</ele>
        <time>2022-09-28T13:28:14.001Z</time>
      </trkpt>
      <trkpt lat="43.30781" lon="6.55543">
        <ele>177.8</ele>
        <time>2022-09-28T13:28:15.001Z</time>
      </trkpt>
      <trkpt lat="43.30776" lon="6.55547">
        <ele>177.8</ele>
        <time>2022-09-28T13:28:16.001Z</time>
      </trkpt>
      <trkpt lat="43.30772" lon="6.55549">
        <ele>177.3</ele>
        <time>2022-09-28T13:28:17.003Z</time>
      </trkpt>
      <trkpt lat="43.30767" lon="6.55552">
        <ele>177.2</ele>
        <time>2022-09-28T13:28:18.001Z</time>
      </trkpt>
      <trkpt lat="43.30762" lon="6.55556">
        <ele>177.3</ele>
        <time>2022-09-28T13:28:19.001Z</time>
      </trkpt>
      <trkpt lat="43.30758" lon="6.5556">
        <ele>177.4</ele>
        <time>2022-09-28T13:28:20.003Z</time>
      </trkpt>
      <trkpt lat="43.30756" lon="6.55562">
        <ele>177.4</ele>
        <time>2022-09-28T13:28:21.000Z</time>
      </trkpt>
      <trkpt lat="43.30754" lon="6.55563">
        <ele>177.4</ele>
        <time>2022-09-28T13:28:22.000Z</time>
      </trkpt>
      <trkpt lat="43.3075" lon="6.55566">
        <ele>177.3</ele>
        <time>2022-09-28T13:28:23.000Z</time>
      </trkpt>
      <trkpt lat="43.30748" lon="6.55567">
        <ele>177</ele>
        <time>2022-09-28T13:28:24.001Z</time>
      </trkpt>
      <trkpt lat="43.30745" lon="6.55569">
        <ele>176.1</ele>
        <time>2022-09-28T13:28:25.001Z</time>
      </trkpt>
      <trkpt lat="43.30741" lon="6.55574">
        <ele>175.9</ele>
        <time>2022-09-28T13:28:26.001Z</time>
      </trkpt>
      <trkpt lat="43.30737" lon="6.55575">
        <ele>175.1</ele>
        <time>2022-09-28T13:28:27.003Z</time>
      </trkpt>
      <trkpt lat="43.30731" lon="6.55583">
        <ele>174.6</ele>
        <time>2022-09-28T13:28:29.001Z</time>
      </trkpt>
      <trkpt lat="43.30727" lon="6.55588">
        <ele>174.7</ele>
        <time>2022-09-28T13:28:30.001Z</time>
      </trkpt>
      <trkpt lat="43.30724" lon="6.55593">
        <ele>174.6</ele>
        <time>2022-09-28T13:28:31.001Z</time>
      </trkpt>
      <trkpt lat="43.30719" lon="6.55598">
        <ele>174</ele>
        <time>2022-09-28T13:28:32.000Z</time>
      </trkpt>
      <trkpt lat="43.30715" lon="6.55602">
        <ele>173.2</ele>
        <time>2022-09-28T13:28:33.000Z</time>
      </trkpt>
      <trkpt lat="43.30711" lon="6.55608">
        <ele>172.9</ele>
        <time>2022-09-28T13:28:34.001Z</time>
      </trkpt>
      <trkpt lat="43.30708" lon="6.55614">
        <ele>172.9</ele>
        <time>2022-09-28T13:28:35.001Z</time>
      </trkpt>
      <trkpt lat="43.30704" lon="6.55622">
        <ele>172.7</ele>
        <time>2022-09-28T13:28:36.001Z</time>
      </trkpt>
      <trkpt lat="43.30699" lon="6.55628">
        <ele>172</ele>
        <time>2022-09-28T13:28:37.001Z</time>
      </trkpt>
      <trkpt lat="43.30695" lon="6.55635">
        <ele>171.4</ele>
        <time>2022-09-28T13:28:38.001Z</time>
      </trkpt>
      <trkpt lat="43.3069" lon="6.55641">
        <ele>171.2</ele>
        <time>2022-09-28T13:28:39.001Z</time>
      </trkpt>
      <trkpt lat="43.30686" lon="6.55648">
        <ele>171.1</ele>
        <time>2022-09-28T13:28:40.000Z</time>
      </trkpt>
      <trkpt lat="43.30683" lon="6.55653">
        <ele>171</ele>
        <time>2022-09-28T13:28:41.002Z</time>
      </trkpt>
      <trkpt lat="43.30679" lon="6.55658">
        <ele>170.7</ele>
        <time>2022-09-28T13:28:42.001Z</time>
      </trkpt>
      <trkpt lat="43.30676" lon="6.55665">
        <ele>170.8</ele>
        <time>2022-09-28T13:28:43.000Z</time>
      </trkpt>
      <trkpt lat="43.30672" lon="6.55671">
        <ele>171</ele>
        <time>2022-09-28T13:28:44.005Z</time>
      </trkpt>
      <trkpt lat="43.30668" lon="6.55677">
        <ele>170.9</ele>
        <time>2022-09-28T13:28:45.001Z</time>
      </trkpt>
      <trkpt lat="43.30664" lon="6.55682">
        <ele>171.2</ele>
        <time>2022-09-28T13:28:46.001Z</time>
      </trkpt>
      <trkpt lat="43.3066" lon="6.55687">
        <ele>171.4</ele>
        <time>2022-09-28T13:28:47.001Z</time>
      </trkpt>
      <trkpt lat="43.30655" lon="6.55693">
        <ele>171.7</ele>
        <time>2022-09-28T13:28:48.001Z</time>
      </trkpt>
      <trkpt lat="43.3065" lon="6.55698">
        <ele>171.9</ele>
        <time>2022-09-28T13:28:49.001Z</time>
      </trkpt>
      <trkpt lat="43.30645" lon="6.55702">
        <ele>171.8</ele>
        <time>2022-09-28T13:28:50.001Z</time>
      </trkpt>
      <trkpt lat="43.30639" lon="6.55706">
        <ele>171.6</ele>
        <time>2022-09-28T13:28:51.001Z</time>
      </trkpt>
      <trkpt lat="43.30634" lon="6.55711">
        <ele>171.4</ele>
        <time>2022-09-28T13:28:52.001Z</time>
      </trkpt>
      <trkpt lat="43.30629" lon="6.55716">
        <ele>171</ele>
        <time>2022-09-28T13:28:53.000Z</time>
      </trkpt>
      <trkpt lat="43.30624" lon="6.5572">
        <ele>170.6</ele>
        <time>2022-09-28T13:28:54.001Z</time>
      </trkpt>
      <trkpt lat="43.30619" lon="6.55725">
        <ele>170.3</ele>
        <time>2022-09-28T13:28:55.001Z</time>
      </trkpt>
      <trkpt lat="43.30614" lon="6.55731">
        <ele>169.8</ele>
        <time>2022-09-28T13:28:56.001Z</time>
      </trkpt>
      <trkpt lat="43.30609" lon="6.55736">
        <ele>169.2</ele>
        <time>2022-09-28T13:28:57.001Z</time>
      </trkpt>
      <trkpt lat="43.30603" lon="6.55742">
        <ele>168.5</ele>
        <time>2022-09-28T13:28:58.000Z</time>
      </trkpt>
      <trkpt lat="43.30599" lon="6.55748">
        <ele>168.3</ele>
        <time>2022-09-28T13:28:59.001Z</time>
      </trkpt>
      <trkpt lat="43.30596" lon="6.55755">
        <ele>168.4</ele>
        <time>2022-09-28T13:29:00.001Z</time>
      </trkpt>
      <trkpt lat="43.30592" lon="6.55762">
        <ele>168</ele>
        <time>2022-09-28T13:29:01.001Z</time>
      </trkpt>
      <trkpt lat="43.30589" lon="6.55769">
        <ele>167.3</ele>
        <time>2022-09-28T13:29:02.000Z</time>
      </trkpt>
      <trkpt lat="43.30585" lon="6.55777">
        <ele>166.6</ele>
        <time>2022-09-28T13:29:03.000Z</time>
      </trkpt>
      <trkpt lat="43.30582" lon="6.55786">
        <ele>165.1</ele>
        <time>2022-09-28T13:29:04.001Z</time>
      </trkpt>
      <trkpt lat="43.30581" lon="6.55793">
        <ele>164.5</ele>
        <time>2022-09-28T13:29:05.001Z</time>
      </trkpt>
      <trkpt lat="43.30581" lon="6.55801">
        <ele>164.4</ele>
        <time>2022-09-28T13:29:06.001Z</time>
      </trkpt>
      <trkpt lat="43.30582" lon="6.55808">
        <ele>165.1</ele>
        <time>2022-09-28T13:29:07.000Z</time>
      </trkpt>
      <trkpt lat="43.30582" lon="6.55816">
        <ele>166.4</ele>
        <time>2022-09-28T13:29:08.001Z</time>
      </trkpt>
      <trkpt lat="43.3058" lon="6.55823">
        <ele>167.3</ele>
        <time>2022-09-28T13:29:09.000Z</time>
      </trkpt>
      <trkpt lat="43.30576" lon="6.5583">
        <ele>167.9</ele>
        <time>2022-09-28T13:29:10.001Z</time>
      </trkpt>
      <trkpt lat="43.30572" lon="6.55835">
        <ele>168.5</ele>
        <time>2022-09-28T13:29:11.001Z</time>
      </trkpt>
      <trkpt lat="43.30567" lon="6.5584">
        <ele>169.2</ele>
        <time>2022-09-28T13:29:12.000Z</time>
      </trkpt>
      <trkpt lat="43.30565" lon="6.55843">
        <ele>169.8</ele>
        <time>2022-09-28T13:29:13.001Z</time>
      </trkpt>
      <trkpt lat="43.30563" lon="6.55847">
        <ele>170.5</ele>
        <time>2022-09-28T13:29:14.001Z</time>
      </trkpt>
      <trkpt lat="43.30561" lon="6.55849">
        <ele>171.1</ele>
        <time>2022-09-28T13:29:15.000Z</time>
      </trkpt>
      <trkpt lat="43.3056" lon="6.55851">
        <ele>171.5</ele>
        <time>2022-09-28T13:29:16.001Z</time>
      </trkpt>
      <trkpt lat="43.30557" lon="6.55854">
        <ele>172.1</ele>
        <time>2022-09-28T13:29:17.000Z</time>
      </trkpt>
      <trkpt lat="43.30554" lon="6.55857">
        <ele>172.6</ele>
        <time>2022-09-28T13:29:18.002Z</time>
      </trkpt>
      <trkpt lat="43.30551" lon="6.5586">
        <ele>173.3</ele>
        <time>2022-09-28T13:29:19.003Z</time>
      </trkpt>
      <trkpt lat="43.3055" lon="6.55861">
        <ele>173.7</ele>
        <time>2022-09-28T13:29:20.000Z</time>
      </trkpt>
      <trkpt lat="43.30543" lon="6.55864">
        <ele>174.9</ele>
        <time>2022-09-28T13:29:22.003Z</time>
      </trkpt>
      <trkpt lat="43.30541" lon="6.55866">
        <ele>175.7</ele>
        <time>2022-09-28T13:29:23.000Z</time>
      </trkpt>
      <trkpt lat="43.30537" lon="6.55869">
        <ele>176.6</ele>
        <time>2022-09-28T13:29:24.000Z</time>
      </trkpt>
      <trkpt lat="43.30533" lon="6.55872">
        <ele>177.6</ele>
        <time>2022-09-28T13:29:26.001Z</time>
      </trkpt>
      <trkpt lat="43.3053" lon="6.55874">
        <ele>178.2</ele>
        <time>2022-09-28T13:29:27.001Z</time>
      </trkpt>
      <trkpt lat="43.30527" lon="6.55875">
        <ele>178.5</ele>
        <time>2022-09-28T13:29:28.001Z</time>
      </trkpt>
      <trkpt lat="43.30524" lon="6.55877">
        <ele>178.8</ele>
        <time>2022-09-28T13:29:29.000Z</time>
      </trkpt>
      <trkpt lat="43.3052" lon="6.55879">
        <ele>179.5</ele>
        <time>2022-09-28T13:29:30.001Z</time>
      </trkpt>
      <trkpt lat="43.30517" lon="6.55881">
        <ele>179.8</ele>
        <time>2022-09-28T13:29:31.001Z</time>
      </trkpt>
      <trkpt lat="43.30513" lon="6.55882">
        <ele>180.1</ele>
        <time>2022-09-28T13:29:32.000Z</time>
      </trkpt>
      <trkpt lat="43.3051" lon="6.55884">
        <ele>180.3</ele>
        <time>2022-09-28T13:29:34.001Z</time>
      </trkpt>
      <trkpt lat="43.30506" lon="6.55886">
        <ele>180.5</ele>
        <time>2022-09-28T13:29:36.001Z</time>
      </trkpt>
      <trkpt lat="43.30501" lon="6.55887">
        <ele>180.6</ele>
        <time>2022-09-28T13:29:37.001Z</time>
      </trkpt>
      <trkpt lat="43.30499" lon="6.55888">
        <ele>180.8</ele>
        <time>2022-09-28T13:29:38.000Z</time>
      </trkpt>
      <trkpt lat="43.30495" lon="6.5589">
        <ele>181.2</ele>
        <time>2022-09-28T13:29:39.001Z</time>
      </trkpt>
      <trkpt lat="43.30492" lon="6.5589">
        <ele>181.3</ele>
        <time>2022-09-28T13:29:40.001Z</time>
      </trkpt>
      <trkpt lat="43.30489" lon="6.55891">
        <ele>181.6</ele>
        <time>2022-09-28T13:29:41.001Z</time>
      </trkpt>
      <trkpt lat="43.30484" lon="6.55893">
        <ele>182.4</ele>
        <time>2022-09-28T13:29:43.001Z</time>
      </trkpt>
      <trkpt lat="43.3048" lon="6.55894">
        <ele>182.8</ele>
        <time>2022-09-28T13:29:44.001Z</time>
      </trkpt>
      <trkpt lat="43.30477" lon="6.55895">
        <ele>183</ele>
        <time>2022-09-28T13:29:45.002Z</time>
      </trkpt>
      <trkpt lat="43.30472" lon="6.55897">
        <ele>183.5</ele>
        <time>2022-09-28T13:29:46.001Z</time>
      </trkpt>
      <trkpt lat="43.30469" lon="6.55898">
        <ele>183.8</ele>
        <time>2022-09-28T13:29:47.001Z</time>
      </trkpt>
      <trkpt lat="43.30463" lon="6.55901">
        <ele>184.5</ele>
        <time>2022-09-28T13:29:49.000Z</time>
      </trkpt>
      <trkpt lat="43.30459" lon="6.55903">
        <ele>184.9</ele>
        <time>2022-09-28T13:29:50.000Z</time>
      </trkpt>
      <trkpt lat="43.30455" lon="6.55905">
        <ele>185.6</ele>
        <time>2022-09-28T13:29:51.001Z</time>
      </trkpt>
      <trkpt lat="43.30451" lon="6.55906">
        <ele>186</ele>
        <time>2022-09-28T13:29:53.001Z</time>
      </trkpt>
      <trkpt lat="43.30448" lon="6.55908">
        <ele>186.5</ele>
        <time>2022-09-28T13:29:54.002Z</time>
      </trkpt>
      <trkpt lat="43.30444" lon="6.5591">
        <ele>187.3</ele>
        <time>2022-09-28T13:29:55.001Z</time>
      </trkpt>
      <trkpt lat="43.30441" lon="6.55911">
        <ele>187.3</ele>
        <time>2022-09-28T13:29:56.001Z</time>
      </trkpt>
      <trkpt lat="43.30438" lon="6.55912">
        <ele>187.3</ele>
        <time>2022-09-28T13:29:57.001Z</time>
      </trkpt>
      <trkpt lat="43.30436" lon="6.55914">
        <ele>187.6</ele>
        <time>2022-09-28T13:29:58.001Z</time>
      </trkpt>
      <trkpt lat="43.30434" lon="6.55915">
        <ele>187.9</ele>
        <time>2022-09-28T13:29:59.001Z</time>
      </trkpt>
      <trkpt lat="43.3043" lon="6.55917">
        <ele>188</ele>
        <time>2022-09-28T13:30:00.000Z</time>
      </trkpt>
      <trkpt lat="43.30427" lon="6.55919">
        <ele>188.3</ele>
        <time>2022-09-28T13:30:01.000Z</time>
      </trkpt>
      <trkpt lat="43.30424" lon="6.55921">
        <ele>188.4</ele>
        <time>2022-09-28T13:30:02.001Z</time>
      </trkpt>
      <trkpt lat="43.3042" lon="6.55923">
        <ele>188.5</ele>
        <time>2022-09-28T13:30:03.001Z</time>
      </trkpt>
      <trkpt lat="43.30417" lon="6.55925">
        <ele>188.7</ele>
        <time>2022-09-28T13:30:04.000Z</time>
      </trkpt>
      <trkpt lat="43.30415" lon="6.55928">
        <ele>188.9</ele>
        <time>2022-09-28T13:30:06.001Z</time>
      </trkpt>
      <trkpt lat="43.30412" lon="6.5593">
        <ele>188.8</ele>
        <time>2022-09-28T13:30:07.001Z</time>
      </trkpt>
      <trkpt lat="43.30409" lon="6.55933">
        <ele>188.8</ele>
        <time>2022-09-28T13:30:08.000Z</time>
      </trkpt>
      <trkpt lat="43.30406" lon="6.55935">
        <ele>188.9</ele>
        <time>2022-09-28T13:30:09.000Z</time>
      </trkpt>
      <trkpt lat="43.30404" lon="6.55937">
        <ele>188.9</ele>
        <time>2022-09-28T13:30:10.000Z</time>
      </trkpt>
      <trkpt lat="43.304" lon="6.55942">
        <ele>189.3</ele>
        <time>2022-09-28T13:30:11.000Z</time>
      </trkpt>
      <trkpt lat="43.30398" lon="6.55945">
        <ele>189.7</ele>
        <time>2022-09-28T13:30:12.003Z</time>
      </trkpt>
      <trkpt lat="43.30395" lon="6.5595">
        <ele>190.5</ele>
        <time>2022-09-28T13:30:14.000Z</time>
      </trkpt>
      <trkpt lat="43.30393" lon="6.55953">
        <ele>190.8</ele>
        <time>2022-09-28T13:30:15.001Z</time>
      </trkpt>
      <trkpt lat="43.3039" lon="6.55958">
        <ele>191.6</ele>
        <time>2022-09-28T13:30:16.001Z</time>
      </trkpt>
      <trkpt lat="43.30387" lon="6.55964">
        <ele>192.8</ele>
        <time>2022-09-28T13:30:18.000Z</time>
      </trkpt>
      <trkpt lat="43.30384" lon="6.55968">
        <ele>193.3</ele>
        <time>2022-09-28T13:30:19.000Z</time>
      </trkpt>
      <trkpt lat="43.30381" lon="6.55971">
        <ele>193.6</ele>
        <time>2022-09-28T13:30:20.001Z</time>
      </trkpt>
      <trkpt lat="43.30379" lon="6.55975">
        <ele>193.9</ele>
        <time>2022-09-28T13:30:22.001Z</time>
      </trkpt>
      <trkpt lat="43.30377" lon="6.55979">
        <ele>194.1</ele>
        <time>2022-09-28T13:30:23.001Z</time>
      </trkpt>
      <trkpt lat="43.30374" lon="6.55982">
        <ele>194.1</ele>
        <time>2022-09-28T13:30:24.002Z</time>
      </trkpt>
      <trkpt lat="43.30372" lon="6.55986">
        <ele>194.2</ele>
        <time>2022-09-28T13:30:25.000Z</time>
      </trkpt>
      <trkpt lat="43.30368" lon="6.55992">
        <ele>194.6</ele>
        <time>2022-09-28T13:30:27.000Z</time>
      </trkpt>
      <trkpt lat="43.30366" lon="6.55997">
        <ele>194.9</ele>
        <time>2022-09-28T13:30:28.001Z</time>
      </trkpt>
      <trkpt lat="43.30365" lon="6.56001">
        <ele>195.5</ele>
        <time>2022-09-28T13:30:29.001Z</time>
      </trkpt>
      <trkpt lat="43.30363" lon="6.56007">
        <ele>195.8</ele>
        <time>2022-09-28T13:30:31.003Z</time>
      </trkpt>
      <trkpt lat="43.30361" lon="6.56011">
        <ele>196</ele>
        <time>2022-09-28T13:30:32.000Z</time>
      </trkpt>
      <trkpt lat="43.30359" lon="6.56017">
        <ele>196.4</ele>
        <time>2022-09-28T13:30:33.000Z</time>
      </trkpt>
      <trkpt lat="43.30358" lon="6.56023">
        <ele>196.8</ele>
        <time>2022-09-28T13:30:35.000Z</time>
      </trkpt>
      <trkpt lat="43.30357" lon="6.56027">
        <ele>197.2</ele>
        <time>2022-09-28T13:30:36.001Z</time>
      </trkpt>
      <trkpt lat="43.30356" lon="6.56031">
        <ele>197.5</ele>
        <time>2022-09-28T13:30:38.001Z</time>
      </trkpt>
      <trkpt lat="43.30353" lon="6.56037">
        <ele>197.6</ele>
        <time>2022-09-28T13:30:39.000Z</time>
      </trkpt>
      <trkpt lat="43.30351" lon="6.56044">
        <ele>198.2</ele>
        <time>2022-09-28T13:30:41.002Z</time>
      </trkpt>
      <trkpt lat="43.3035" lon="6.56049">
        <ele>198.6</ele>
        <time>2022-09-28T13:30:42.002Z</time>
      </trkpt>
      <trkpt lat="43.30348" lon="6.56054">
        <ele>199.1</ele>
        <time>2022-09-28T13:30:43.000Z</time>
      </trkpt>
      <trkpt lat="43.30347" lon="6.56057">
        <ele>199.2</ele>
        <time>2022-09-28T13:30:44.001Z</time>
      </trkpt>
      <trkpt lat="43.30345" lon="6.56062">
        <ele>199.6</ele>
        <time>2022-09-28T13:30:45.001Z</time>
      </trkpt>
      <trkpt lat="43.30344" lon="6.56067">
        <ele>199.9</ele>
        <time>2022-09-28T13:30:47.001Z</time>
      </trkpt>
      <trkpt lat="43.30343" lon="6.5607">
        <ele>200.1</ele>
        <time>2022-09-28T13:30:48.001Z</time>
      </trkpt>
      <trkpt lat="43.30341" lon="6.56074">
        <ele>200.3</ele>
        <time>2022-09-28T13:30:49.002Z</time>
      </trkpt>
      <trkpt lat="43.3034" lon="6.56077">
        <ele>200.4</ele>
        <time>2022-09-28T13:30:50.000Z</time>
      </trkpt>
      <trkpt lat="43.30339" lon="6.5608">
        <ele>200.5</ele>
        <time>2022-09-28T13:30:51.000Z</time>
      </trkpt>
      <trkpt lat="43.30337" lon="6.56085">
        <ele>200.6</ele>
        <time>2022-09-28T13:30:52.000Z</time>
      </trkpt>
      <trkpt lat="43.30335" lon="6.56089">
        <ele>200.6</ele>
        <time>2022-09-28T13:30:53.000Z</time>
      </trkpt>
      <trkpt lat="43.30333" lon="6.56094">
        <ele>200.7</ele>
        <time>2022-09-28T13:30:54.001Z</time>
      </trkpt>
      <trkpt lat="43.30331" lon="6.56099">
        <ele>201.1</ele>
        <time>2022-09-28T13:30:56.000Z</time>
      </trkpt>
      <trkpt lat="43.30328" lon="6.56105">
        <ele>201.2</ele>
        <time>2022-09-28T13:30:57.001Z</time>
      </trkpt>
      <trkpt lat="43.30325" lon="6.56111">
        <ele>201.4</ele>
        <time>2022-09-28T13:30:59.000Z</time>
      </trkpt>
      <trkpt lat="43.30324" lon="6.56115">
        <ele>201.5</ele>
        <time>2022-09-28T13:31:00.000Z</time>
      </trkpt>
      <trkpt lat="43.30322" lon="6.56119">
        <ele>201.7</ele>
        <time>2022-09-28T13:31:01.001Z</time>
      </trkpt>
      <trkpt lat="43.3032" lon="6.56124">
        <ele>202</ele>
        <time>2022-09-28T13:31:02.000Z</time>
      </trkpt>
      <trkpt lat="43.30319" lon="6.56128">
        <ele>202.4</ele>
        <time>2022-09-28T13:31:03.000Z</time>
      </trkpt>
      <trkpt lat="43.30317" lon="6.56133">
        <ele>202.8</ele>
        <time>2022-09-28T13:31:04.001Z</time>
      </trkpt>
      <trkpt lat="43.30315" lon="6.56138">
        <ele>203.1</ele>
        <time>2022-09-28T13:31:05.001Z</time>
      </trkpt>
      <trkpt lat="43.30313" lon="6.56144">
        <ele>203.3</ele>
        <time>2022-09-28T13:31:07.001Z</time>
      </trkpt>
      <trkpt lat="43.30312" lon="6.5615">
        <ele>203.5</ele>
        <time>2022-09-28T13:31:09.001Z</time>
      </trkpt>
      <trkpt lat="43.3031" lon="6.56156">
        <ele>203.8</ele>
        <time>2022-09-28T13:31:10.000Z</time>
      </trkpt>
      <trkpt lat="43.30309" lon="6.56161">
        <ele>204.2</ele>
        <time>2022-09-28T13:31:11.001Z</time>
      </trkpt>
      <trkpt lat="43.30306" lon="6.56168">
        <ele>204.2</ele>
        <time>2022-09-28T13:31:13.001Z</time>
      </trkpt>
      <trkpt lat="43.30304" lon="6.56172">
        <ele>204.4</ele>
        <time>2022-09-28T13:31:14.001Z</time>
      </trkpt>
      <trkpt lat="43.30303" lon="6.56177">
        <ele>204.6</ele>
        <time>2022-09-28T13:31:15.001Z</time>
      </trkpt>
      <trkpt lat="43.30301" lon="6.56181">
        <ele>204.6</ele>
        <time>2022-09-28T13:31:16.000Z</time>
      </trkpt>
      <trkpt lat="43.30299" lon="6.56185">
        <ele>204.6</ele>
        <time>2022-09-28T13:31:17.001Z</time>
      </trkpt>
      <trkpt lat="43.30297" lon="6.5619">
        <ele>204.6</ele>
        <time>2022-09-28T13:31:19.000Z</time>
      </trkpt>
      <trkpt lat="43.30296" lon="6.56194">
        <ele>204.5</ele>
        <time>2022-09-28T13:31:20.001Z</time>
      </trkpt>
      <trkpt lat="43.30294" lon="6.56199">
        <ele>204.2</ele>
        <time>2022-09-28T13:31:21.001Z</time>
      </trkpt>
      <trkpt lat="43.30293" lon="6.56204">
        <ele>203.9</ele>
        <time>2022-09-28T13:31:22.000Z</time>
      </trkpt>
      <trkpt lat="43.30291" lon="6.5621">
        <ele>203.5</ele>
        <time>2022-09-28T13:31:24.001Z</time>
      </trkpt>
      <trkpt lat="43.30289" lon="6.56215">
        <ele>203.2</ele>
        <time>2022-09-28T13:31:25.002Z</time>
      </trkpt>
      <trkpt lat="43.30288" lon="6.56221">
        <ele>202.9</ele>
        <time>2022-09-28T13:31:26.000Z</time>
      </trkpt>
      <trkpt lat="43.30287" lon="6.56229">
        <ele>202.9</ele>
        <time>2022-09-28T13:31:28.001Z</time>
      </trkpt>
      <trkpt lat="43.30286" lon="6.56235">
        <ele>203.1</ele>
        <time>2022-09-28T13:31:29.002Z</time>
      </trkpt>
      <trkpt lat="43.30284" lon="6.56241">
        <ele>202.7</ele>
        <time>2022-09-28T13:31:30.001Z</time>
      </trkpt>
      <trkpt lat="43.30283" lon="6.56247">
        <ele>202.6</ele>
        <time>2022-09-28T13:31:31.000Z</time>
      </trkpt>
      <trkpt lat="43.30282" lon="6.56254">
        <ele>202.8</ele>
        <time>2022-09-28T13:31:32.002Z</time>
      </trkpt>
      <trkpt lat="43.3028" lon="6.5626">
        <ele>203.2</ele>
        <time>2022-09-28T13:31:33.001Z</time>
      </trkpt>
      <trkpt lat="43.30279" lon="6.56266">
        <ele>203.6</ele>
        <time>2022-09-28T13:31:34.002Z</time>
      </trkpt>
      <trkpt lat="43.30277" lon="6.56272">
        <ele>203.9</ele>
        <time>2022-09-28T13:31:35.000Z</time>
      </trkpt>
      <trkpt lat="43.30275" lon="6.56278">
        <ele>204.2</ele>
        <time>2022-09-28T13:31:36.000Z</time>
      </trkpt>
      <trkpt lat="43.30273" lon="6.56285">
        <ele>204</ele>
        <time>2022-09-28T13:31:37.001Z</time>
      </trkpt>
      <trkpt lat="43.30271" lon="6.56291">
        <ele>204</ele>
        <time>2022-09-28T13:31:38.001Z</time>
      </trkpt>
      <trkpt lat="43.30269" lon="6.56297">
        <ele>204.1</ele>
        <time>2022-09-28T13:31:39.000Z</time>
      </trkpt>
      <trkpt lat="43.30267" lon="6.56303">
        <ele>204.1</ele>
        <time>2022-09-28T13:31:40.001Z</time>
      </trkpt>
      <trkpt lat="43.30265" lon="6.56309">
        <ele>204.3</ele>
        <time>2022-09-28T13:31:41.001Z</time>
      </trkpt>
      <trkpt lat="43.30264" lon="6.56316">
        <ele>204.5</ele>
        <time>2022-09-28T13:31:42.003Z</time>
      </trkpt>
      <trkpt lat="43.30262" lon="6.56322">
        <ele>204.9</ele>
        <time>2022-09-28T13:31:43.001Z</time>
      </trkpt>
      <trkpt lat="43.30261" lon="6.56328">
        <ele>205.2</ele>
        <time>2022-09-28T13:31:44.001Z</time>
      </trkpt>
      <trkpt lat="43.3026" lon="6.56334">
        <ele>205.5</ele>
        <time>2022-09-28T13:31:45.000Z</time>
      </trkpt>
      <trkpt lat="43.30258" lon="6.56339">
        <ele>205.7</ele>
        <time>2022-09-28T13:31:46.001Z</time>
      </trkpt>
      <trkpt lat="43.30257" lon="6.56344">
        <ele>206</ele>
        <time>2022-09-28T13:31:47.001Z</time>
      </trkpt>
      <trkpt lat="43.30255" lon="6.56349">
        <ele>206.3</ele>
        <time>2022-09-28T13:31:48.000Z</time>
      </trkpt>
      <trkpt lat="43.30254" lon="6.56354">
        <ele>206.6</ele>
        <time>2022-09-28T13:31:49.000Z</time>
      </trkpt>
      <trkpt lat="43.30252" lon="6.56359">
        <ele>207</ele>
        <time>2022-09-28T13:31:50.000Z</time>
      </trkpt>
      <trkpt lat="43.3025" lon="6.56363">
        <ele>207.2</ele>
        <time>2022-09-28T13:31:51.001Z</time>
      </trkpt>
      <trkpt lat="43.30248" lon="6.56367">
        <ele>207.5</ele>
        <time>2022-09-28T13:31:52.001Z</time>
      </trkpt>
      <trkpt lat="43.30248" lon="6.5637">
        <ele>207.8</ele>
        <time>2022-09-28T13:31:53.001Z</time>
      </trkpt>
      <trkpt lat="43.30247" lon="6.56374">
        <ele>208.1</ele>
        <time>2022-09-28T13:31:54.002Z</time>
      </trkpt>
      <trkpt lat="43.30244" lon="6.56378">
        <ele>208.3</ele>
        <time>2022-09-28T13:31:55.003Z</time>
      </trkpt>
      <trkpt lat="43.30243" lon="6.56381">
        <ele>208.5</ele>
        <time>2022-09-28T13:31:56.001Z</time>
      </trkpt>
      <trkpt lat="43.30243" lon="6.56383">
        <ele>208.7</ele>
        <time>2022-09-28T13:31:57.001Z</time>
      </trkpt>
      <trkpt lat="43.30241" lon="6.56386">
        <ele>208.8</ele>
        <time>2022-09-28T13:31:58.001Z</time>
      </trkpt>
      <trkpt lat="43.3024" lon="6.5639">
        <ele>208.9</ele>
        <time>2022-09-28T13:31:59.001Z</time>
      </trkpt>
      <trkpt lat="43.30239" lon="6.56393">
        <ele>208.8</ele>
        <time>2022-09-28T13:32:00.000Z</time>
      </trkpt>
      <trkpt lat="43.30239" lon="6.56397">
        <ele>208.6</ele>
        <time>2022-09-28T13:32:01.000Z</time>
      </trkpt>
      <trkpt lat="43.30239" lon="6.564">
        <ele>208.6</ele>
        <time>2022-09-28T13:32:02.004Z</time>
      </trkpt>
      <trkpt lat="43.30239" lon="6.56404">
        <ele>208.6</ele>
        <time>2022-09-28T13:32:04.002Z</time>
      </trkpt>
      <trkpt lat="43.30239" lon="6.56407">
        <ele>208.5</ele>
        <time>2022-09-28T13:32:05.000Z</time>
      </trkpt>
      <trkpt lat="43.30239" lon="6.56409">
        <ele>208.5</ele>
        <time>2022-09-28T13:32:06.001Z</time>
      </trkpt>
      <trkpt lat="43.30239" lon="6.56412">
        <ele>208.5</ele>
        <time>2022-09-28T13:32:07.001Z</time>
      </trkpt>
      <trkpt lat="43.30239" lon="6.56416">
        <ele>208.4</ele>
        <time>2022-09-28T13:32:08.000Z</time>
      </trkpt>
      <trkpt lat="43.30236" lon="6.56422">
        <ele>207.3</ele>
        <time>2022-09-28T13:32:10.000Z</time>
      </trkpt>
      <trkpt lat="43.30234" lon="6.56425">
        <ele>206.6</ele>
        <time>2022-09-28T13:32:11.001Z</time>
      </trkpt>
      <trkpt lat="43.30233" lon="6.56428">
        <ele>206</ele>
        <time>2022-09-28T13:32:13.001Z</time>
      </trkpt>
      <trkpt lat="43.30233" lon="6.56427">
        <ele>206.3</ele>
        <time>2022-09-28T13:32:16.000Z</time>
      </trkpt>
      <trkpt lat="43.30234" lon="6.56426">
        <ele>206.4</ele>
        <time>2022-09-28T13:32:25.001Z</time>
      </trkpt>
      <trkpt lat="43.30232" lon="6.56432">
        <ele>205.3</ele>
        <time>2022-09-28T13:36:55.000Z</time>
      </trkpt>
      <trkpt lat="43.3024" lon="6.56427">
        <ele>206.9</ele>
        <time>2022-09-28T13:36:56.000Z</time>
      </trkpt>
      <trkpt lat="43.30243" lon="6.56428">
        <ele>207.2</ele>
        <time>2022-09-28T13:36:57.000Z</time>
      </trkpt>
      <trkpt lat="43.30245" lon="6.56431">
        <ele>206.9</ele>
        <time>2022-09-28T13:36:58.001Z</time>
      </trkpt>
      <trkpt lat="43.30248" lon="6.56435">
        <ele>206.5</ele>
        <time>2022-09-28T13:36:59.001Z</time>
      </trkpt>
      <trkpt lat="43.30252" lon="6.5644">
        <ele>205.8</ele>
        <time>2022-09-28T13:37:00.001Z</time>
      </trkpt>
      <trkpt lat="43.30256" lon="6.56444">
        <ele>204.9</ele>
        <time>2022-09-28T13:37:01.000Z</time>
      </trkpt>
      <trkpt lat="43.30261" lon="6.56446">
        <ele>204.2</ele>
        <time>2022-09-28T13:37:02.000Z</time>
      </trkpt>
      <trkpt lat="43.30267" lon="6.56447">
        <ele>203.7</ele>
        <time>2022-09-28T13:37:03.001Z</time>
      </trkpt>
      <trkpt lat="43.30274" lon="6.56447">
        <ele>203.4</ele>
        <time>2022-09-28T13:37:04.001Z</time>
      </trkpt>
      <trkpt lat="43.30281" lon="6.56446">
        <ele>203</ele>
        <time>2022-09-28T13:37:05.001Z</time>
      </trkpt>
      <trkpt lat="43.30287" lon="6.56443">
        <ele>202.4</ele>
        <time>2022-09-28T13:37:06.001Z</time>
      </trkpt>
      <trkpt lat="43.30294" lon="6.56438">
        <ele>202.4</ele>
        <time>2022-09-28T13:37:07.001Z</time>
      </trkpt>
      <trkpt lat="43.30301" lon="6.56433">
        <ele>202.4</ele>
        <time>2022-09-28T13:37:08.001Z</time>
      </trkpt>
      <trkpt lat="43.30307" lon="6.56428">
        <ele>202.6</ele>
        <time>2022-09-28T13:37:09.000Z</time>
      </trkpt>
      <trkpt lat="43.30313" lon="6.56422">
        <ele>203.1</ele>
        <time>2022-09-28T13:37:10.000Z</time>
      </trkpt>
      <trkpt lat="43.30318" lon="6.56417">
        <ele>203.6</ele>
        <time>2022-09-28T13:37:11.001Z</time>
      </trkpt>
      <trkpt lat="43.30323" lon="6.56412">
        <ele>203.9</ele>
        <time>2022-09-28T13:37:12.000Z</time>
      </trkpt>
      <trkpt lat="43.30328" lon="6.56407">
        <ele>204.3</ele>
        <time>2022-09-28T13:37:13.000Z</time>
      </trkpt>
      <trkpt lat="43.30332" lon="6.56402">
        <ele>204.7</ele>
        <time>2022-09-28T13:37:14.038Z</time>
      </trkpt>
      <trkpt lat="43.30337" lon="6.56398">
        <ele>205.5</ele>
        <time>2022-09-28T13:37:15.001Z</time>
      </trkpt>
      <trkpt lat="43.30342" lon="6.56394">
        <ele>206.4</ele>
        <time>2022-09-28T13:37:16.001Z</time>
      </trkpt>
      <trkpt lat="43.30347" lon="6.56391">
        <ele>207</ele>
        <time>2022-09-28T13:37:17.000Z</time>
      </trkpt>
      <trkpt lat="43.30351" lon="6.56389">
        <ele>207.3</ele>
        <time>2022-09-28T13:37:18.001Z</time>
      </trkpt>
      <trkpt lat="43.30356" lon="6.56388">
        <ele>207.3</ele>
        <time>2022-09-28T13:37:19.001Z</time>
      </trkpt>
      <trkpt lat="43.30361" lon="6.56387">
        <ele>207.3</ele>
        <time>2022-09-28T13:37:20.001Z</time>
      </trkpt>
      <trkpt lat="43.30365" lon="6.56387">
        <ele>208.3</ele>
        <time>2022-09-28T13:37:21.000Z</time>
      </trkpt>
      <trkpt lat="43.3037" lon="6.56388">
        <ele>209.2</ele>
        <time>2022-09-28T13:37:22.001Z</time>
      </trkpt>
      <trkpt lat="43.30374" lon="6.56389">
        <ele>209.8</ele>
        <time>2022-09-28T13:37:23.002Z</time>
      </trkpt>
      <trkpt lat="43.30378" lon="6.56391">
        <ele>210.3</ele>
        <time>2022-09-28T13:37:24.000Z</time>
      </trkpt>
      <trkpt lat="43.30381" lon="6.56392">
        <ele>210.7</ele>
        <time>2022-09-28T13:37:25.000Z</time>
      </trkpt>
      <trkpt lat="43.30384" lon="6.56393">
        <ele>211.1</ele>
        <time>2022-09-28T13:37:26.001Z</time>
      </trkpt>
      <trkpt lat="43.30389" lon="6.56395">
        <ele>211.8</ele>
        <time>2022-09-28T13:37:27.001Z</time>
      </trkpt>
      <trkpt lat="43.30392" lon="6.56395">
        <ele>212.1</ele>
        <time>2022-09-28T13:37:28.001Z</time>
      </trkpt>
      <trkpt lat="43.30397" lon="6.56397">
        <ele>212.5</ele>
        <time>2022-09-28T13:37:29.001Z</time>
      </trkpt>
      <trkpt lat="43.30401" lon="6.56398">
        <ele>212.8</ele>
        <time>2022-09-28T13:37:30.003Z</time>
      </trkpt>
      <trkpt lat="43.30406" lon="6.56399">
        <ele>213.1</ele>
        <time>2022-09-28T13:37:31.001Z</time>
      </trkpt>
      <trkpt lat="43.3041" lon="6.56399">
        <ele>213.8</ele>
        <time>2022-09-28T13:37:32.000Z</time>
      </trkpt>
      <trkpt lat="43.30415" lon="6.564">
        <ele>214.2</ele>
        <time>2022-09-28T13:37:33.001Z</time>
      </trkpt>
      <trkpt lat="43.30419" lon="6.56401">
        <ele>214.5</ele>
        <time>2022-09-28T13:37:34.001Z</time>
      </trkpt>
      <trkpt lat="43.30424" lon="6.56402">
        <ele>215.3</ele>
        <time>2022-09-28T13:37:35.000Z</time>
      </trkpt>
      <trkpt lat="43.30429" lon="6.56402">
        <ele>215.9</ele>
        <time>2022-09-28T13:37:36.000Z</time>
      </trkpt>
      <trkpt lat="43.30434" lon="6.56403">
        <ele>216.4</ele>
        <time>2022-09-28T13:37:37.001Z</time>
      </trkpt>
      <trkpt lat="43.30438" lon="6.56404">
        <ele>216.9</ele>
        <time>2022-09-28T13:37:38.003Z</time>
      </trkpt>
      <trkpt lat="43.30443" lon="6.56407">
        <ele>216.9</ele>
        <time>2022-09-28T13:37:40.000Z</time>
      </trkpt>
      <trkpt lat="43.30448" lon="6.56406">
        <ele>218</ele>
        <time>2022-09-28T13:37:41.000Z</time>
      </trkpt>
      <trkpt lat="43.3045" lon="6.56406">
        <ele>218.5</ele>
        <time>2022-09-28T13:37:42.000Z</time>
      </trkpt>
      <trkpt lat="43.30454" lon="6.56408">
        <ele>218.7</ele>
        <time>2022-09-28T13:37:43.000Z</time>
      </trkpt>
      <trkpt lat="43.30458" lon="6.56409">
        <ele>218.8</ele>
        <time>2022-09-28T13:37:44.004Z</time>
      </trkpt>
      <trkpt lat="43.3046" lon="6.5641">
        <ele>219.1</ele>
        <time>2022-09-28T13:37:45.001Z</time>
      </trkpt>
      <trkpt lat="43.30463" lon="6.5641">
        <ele>219.4</ele>
        <time>2022-09-28T13:37:46.001Z</time>
      </trkpt>
      <trkpt lat="43.30469" lon="6.56411">
        <ele>220.3</ele>
        <time>2022-09-28T13:37:47.000Z</time>
      </trkpt>
      <trkpt lat="43.30474" lon="6.56412">
        <ele>220.7</ele>
        <time>2022-09-28T13:37:48.000Z</time>
      </trkpt>
      <trkpt lat="43.30477" lon="6.56412">
        <ele>220.8</ele>
        <time>2022-09-28T13:37:49.001Z</time>
      </trkpt>
      <trkpt lat="43.30481" lon="6.56412">
        <ele>220.9</ele>
        <time>2022-09-28T13:37:51.000Z</time>
      </trkpt>
      <trkpt lat="43.30486" lon="6.56412">
        <ele>221.2</ele>
        <time>2022-09-28T13:37:52.000Z</time>
      </trkpt>
      <trkpt lat="43.3049" lon="6.56412">
        <ele>221.4</ele>
        <time>2022-09-28T13:37:53.001Z</time>
      </trkpt>
      <trkpt lat="43.30493" lon="6.56411">
        <ele>222</ele>
        <time>2022-09-28T13:37:55.000Z</time>
      </trkpt>
      <trkpt lat="43.30497" lon="6.5641">
        <ele>222.6</ele>
        <time>2022-09-28T13:37:56.001Z</time>
      </trkpt>
      <trkpt lat="43.30501" lon="6.5641">
        <ele>222.7</ele>
        <time>2022-09-28T13:37:57.000Z</time>
      </trkpt>
      <trkpt lat="43.30505" lon="6.5641">
        <ele>222.9</ele>
        <time>2022-09-28T13:37:58.007Z</time>
      </trkpt>
      <trkpt lat="43.30509" lon="6.56409">
        <ele>223.4</ele>
        <time>2022-09-28T13:37:59.000Z</time>
      </trkpt>
      <trkpt lat="43.30513" lon="6.56408">
        <ele>223.7</ele>
        <time>2022-09-28T13:38:00.000Z</time>
      </trkpt>
      <trkpt lat="43.30519" lon="6.56407">
        <ele>224.2</ele>
        <time>2022-09-28T13:38:02.001Z</time>
      </trkpt>
      <trkpt lat="43.30522" lon="6.56406">
        <ele>224.6</ele>
        <time>2022-09-28T13:38:03.000Z</time>
      </trkpt>
      <trkpt lat="43.30526" lon="6.56405">
        <ele>225</ele>
        <time>2022-09-28T13:38:04.002Z</time>
      </trkpt>
      <trkpt lat="43.30529" lon="6.56405">
        <ele>225.1</ele>
        <time>2022-09-28T13:38:05.001Z</time>
      </trkpt>
      <trkpt lat="43.30532" lon="6.56405">
        <ele>225.2</ele>
        <time>2022-09-28T13:38:06.001Z</time>
      </trkpt>
      <trkpt lat="43.30537" lon="6.56405">
        <ele>225.2</ele>
        <time>2022-09-28T13:38:07.001Z</time>
      </trkpt>
      <trkpt lat="43.30541" lon="6.56403">
        <ele>225.6</ele>
        <time>2022-09-28T13:38:09.001Z</time>
      </trkpt>
      <trkpt lat="43.30544" lon="6.56402">
        <ele>225.9</ele>
        <time>2022-09-28T13:38:10.001Z</time>
      </trkpt>
      <trkpt lat="43.30548" lon="6.56402">
        <ele>225.8</ele>
        <time>2022-09-28T13:38:11.001Z</time>
      </trkpt>
      <trkpt lat="43.30552" lon="6.56404">
        <ele>225.3</ele>
        <time>2022-09-28T13:38:12.000Z</time>
      </trkpt>
      <trkpt lat="43.30555" lon="6.56403">
        <ele>225.2</ele>
        <time>2022-09-28T13:38:13.001Z</time>
      </trkpt>
      <trkpt lat="43.30558" lon="6.56403">
        <ele>225.9</ele>
        <time>2022-09-28T13:38:14.024Z</time>
      </trkpt>
      <trkpt lat="43.30561" lon="6.56403">
        <ele>226.3</ele>
        <time>2022-09-28T13:38:15.000Z</time>
      </trkpt>
      <trkpt lat="43.30564" lon="6.56405">
        <ele>226.7</ele>
        <time>2022-09-28T13:38:16.001Z</time>
      </trkpt>
      <trkpt lat="43.30568" lon="6.56407">
        <ele>226.9</ele>
        <time>2022-09-28T13:38:17.001Z</time>
      </trkpt>
      <trkpt lat="43.30574" lon="6.56411">
        <ele>226.9</ele>
        <time>2022-09-28T13:38:18.001Z</time>
      </trkpt>
      <trkpt lat="43.30577" lon="6.56415">
        <ele>226.8</ele>
        <time>2022-09-28T13:38:19.000Z</time>
      </trkpt>
      <trkpt lat="43.30581" lon="6.56419">
        <ele>226.8</ele>
        <time>2022-09-28T13:38:21.001Z</time>
      </trkpt>
      <trkpt lat="43.30584" lon="6.56423">
        <ele>226.7</ele>
        <time>2022-09-28T13:38:22.001Z</time>
      </trkpt>
      <trkpt lat="43.30588" lon="6.56427">
        <ele>226.7</ele>
        <time>2022-09-28T13:38:23.000Z</time>
      </trkpt>
      <trkpt lat="43.30591" lon="6.56431">
        <ele>226.6</ele>
        <time>2022-09-28T13:38:24.001Z</time>
      </trkpt>
      <trkpt lat="43.30594" lon="6.56435">
        <ele>226.3</ele>
        <time>2022-09-28T13:38:25.000Z</time>
      </trkpt>
      <trkpt lat="43.30598" lon="6.5644">
        <ele>226.4</ele>
        <time>2022-09-28T13:38:27.001Z</time>
      </trkpt>
      <trkpt lat="43.306" lon="6.56443">
        <ele>226.3</ele>
        <time>2022-09-28T13:38:28.000Z</time>
      </trkpt>
      <trkpt lat="43.30603" lon="6.56446">
        <ele>226.4</ele>
        <time>2022-09-28T13:38:29.001Z</time>
      </trkpt>
      <trkpt lat="43.30607" lon="6.56448">
        <ele>226.8</ele>
        <time>2022-09-28T13:38:30.001Z</time>
      </trkpt>
      <trkpt lat="43.3061" lon="6.5645">
        <ele>227.1</ele>
        <time>2022-09-28T13:38:31.000Z</time>
      </trkpt>
      <trkpt lat="43.30614" lon="6.56452">
        <ele>226.9</ele>
        <time>2022-09-28T13:38:32.000Z</time>
      </trkpt>
      <trkpt lat="43.3062" lon="6.56454">
        <ele>226.6</ele>
        <time>2022-09-28T13:38:33.000Z</time>
      </trkpt>
      <trkpt lat="43.30624" lon="6.56454">
        <ele>226.7</ele>
        <time>2022-09-28T13:38:34.005Z</time>
      </trkpt>
      <trkpt lat="43.30629" lon="6.56453">
        <ele>227.1</ele>
        <time>2022-09-28T13:38:36.002Z</time>
      </trkpt>
      <trkpt lat="43.30633" lon="6.56452">
        <ele>227.6</ele>
        <time>2022-09-28T13:38:37.000Z</time>
      </trkpt>
      <trkpt lat="43.30637" lon="6.56452">
        <ele>228.1</ele>
        <time>2022-09-28T13:38:38.000Z</time>
      </trkpt>
      <trkpt lat="43.30642" lon="6.5645">
        <ele>228.6</ele>
        <time>2022-09-28T13:38:39.003Z</time>
      </trkpt>
      <trkpt lat="43.30647" lon="6.56448">
        <ele>228.7</ele>
        <time>2022-09-28T13:38:40.001Z</time>
      </trkpt>
      <trkpt lat="43.30651" lon="6.56446">
        <ele>229.1</ele>
        <time>2022-09-28T13:38:41.001Z</time>
      </trkpt>
      <trkpt lat="43.30655" lon="6.56444">
        <ele>229.4</ele>
        <time>2022-09-28T13:38:42.004Z</time>
      </trkpt>
      <trkpt lat="43.30658" lon="6.56443">
        <ele>229.5</ele>
        <time>2022-09-28T13:38:43.001Z</time>
      </trkpt>
      <trkpt lat="43.30664" lon="6.56441">
        <ele>230.1</ele>
        <time>2022-09-28T13:38:45.001Z</time>
      </trkpt>
      <trkpt lat="43.30668" lon="6.56439">
        <ele>230.6</ele>
        <time>2022-09-28T13:38:46.000Z</time>
      </trkpt>
      <trkpt lat="43.30673" lon="6.56437">
        <ele>231.2</ele>
        <time>2022-09-28T13:38:47.001Z</time>
      </trkpt>
      <trkpt lat="43.30677" lon="6.56436">
        <ele>231.5</ele>
        <time>2022-09-28T13:38:48.001Z</time>
      </trkpt>
      <trkpt lat="43.30682" lon="6.56436">
        <ele>231.7</ele>
        <time>2022-09-28T13:38:50.000Z</time>
      </trkpt>
      <trkpt lat="43.30688" lon="6.56435">
        <ele>231.8</ele>
        <time>2022-09-28T13:38:51.001Z</time>
      </trkpt>
      <trkpt lat="43.30693" lon="6.56435">
        <ele>231.7</ele>
        <time>2022-09-28T13:38:52.001Z</time>
      </trkpt>
      <trkpt lat="43.30699" lon="6.56435">
        <ele>232.2</ele>
        <time>2022-09-28T13:38:54.001Z</time>
      </trkpt>
      <trkpt lat="43.30702" lon="6.56435">
        <ele>232.6</ele>
        <time>2022-09-28T13:38:55.001Z</time>
      </trkpt>
      <trkpt lat="43.30707" lon="6.56436">
        <ele>232.9</ele>
        <time>2022-09-28T13:38:56.001Z</time>
      </trkpt>
      <trkpt lat="43.30711" lon="6.56437">
        <ele>233</ele>
        <time>2022-09-28T13:38:57.001Z</time>
      </trkpt>
      <trkpt lat="43.30715" lon="6.56438">
        <ele>232.9</ele>
        <time>2022-09-28T13:38:58.001Z</time>
      </trkpt>
      <trkpt lat="43.30719" lon="6.56439">
        <ele>233</ele>
        <time>2022-09-28T13:38:59.001Z</time>
      </trkpt>
      <trkpt lat="43.30723" lon="6.5644">
        <ele>232.9</ele>
        <time>2022-09-28T13:39:00.000Z</time>
      </trkpt>
      <trkpt lat="43.3073" lon="6.56442">
        <ele>232.9</ele>
        <time>2022-09-28T13:39:01.000Z</time>
      </trkpt>
      <trkpt lat="43.30735" lon="6.56443">
        <ele>233</ele>
        <time>2022-09-28T13:39:03.000Z</time>
      </trkpt>
      <trkpt lat="43.3074" lon="6.56443">
        <ele>233.4</ele>
        <time>2022-09-28T13:39:04.002Z</time>
      </trkpt>
      <trkpt lat="43.30744" lon="6.56444">
        <ele>233.7</ele>
        <time>2022-09-28T13:39:05.000Z</time>
      </trkpt>
      <trkpt lat="43.3075" lon="6.56445">
        <ele>233.8</ele>
        <time>2022-09-28T13:39:07.000Z</time>
      </trkpt>
      <trkpt lat="43.30757" lon="6.56444">
        <ele>233</ele>
        <time>2022-09-28T13:39:08.001Z</time>
      </trkpt>
      <trkpt lat="43.30762" lon="6.56444">
        <ele>232.8</ele>
        <time>2022-09-28T13:39:09.001Z</time>
      </trkpt>
      <trkpt lat="43.30768" lon="6.56442">
        <ele>232.7</ele>
        <time>2022-09-28T13:39:11.000Z</time>
      </trkpt>
      <trkpt lat="43.30772" lon="6.56441">
        <ele>232.7</ele>
        <time>2022-09-28T13:39:12.001Z</time>
      </trkpt>
      <trkpt lat="43.30777" lon="6.5644">
        <ele>232.9</ele>
        <time>2022-09-28T13:39:13.003Z</time>
      </trkpt>
      <trkpt lat="43.30781" lon="6.56439">
        <ele>233.6</ele>
        <time>2022-09-28T13:39:14.002Z</time>
      </trkpt>
      <trkpt lat="43.30786" lon="6.56437">
        <ele>234.2</ele>
        <time>2022-09-28T13:39:16.001Z</time>
      </trkpt>
      <trkpt lat="43.30791" lon="6.56437">
        <ele>234.5</ele>
        <time>2022-09-28T13:39:17.001Z</time>
      </trkpt>
      <trkpt lat="43.30795" lon="6.56436">
        <ele>234.9</ele>
        <time>2022-09-28T13:39:18.001Z</time>
      </trkpt>
      <trkpt lat="43.30799" lon="6.56435">
        <ele>235.3</ele>
        <time>2022-09-28T13:39:19.001Z</time>
      </trkpt>
      <trkpt lat="43.30805" lon="6.56434">
        <ele>235.5</ele>
        <time>2022-09-28T13:39:20.002Z</time>
      </trkpt>
      <trkpt lat="43.30809" lon="6.56433">
        <ele>235.8</ele>
        <time>2022-09-28T13:39:21.000Z</time>
      </trkpt>
      <trkpt lat="43.30813" lon="6.56434">
        <ele>235.8</ele>
        <time>2022-09-28T13:39:22.001Z</time>
      </trkpt>
      <trkpt lat="43.30818" lon="6.56435">
        <ele>235.7</ele>
        <time>2022-09-28T13:39:24.001Z</time>
      </trkpt>
      <trkpt lat="43.30822" lon="6.56435">
        <ele>235.5</ele>
        <time>2022-09-28T13:39:25.000Z</time>
      </trkpt>
      <trkpt lat="43.30827" lon="6.56436">
        <ele>235.5</ele>
        <time>2022-09-28T13:39:26.001Z</time>
      </trkpt>
      <trkpt lat="43.30833" lon="6.56437">
        <ele>235.6</ele>
        <time>2022-09-28T13:39:27.001Z</time>
      </trkpt>
      <trkpt lat="43.30838" lon="6.56437">
        <ele>235</ele>
        <time>2022-09-28T13:39:28.000Z</time>
      </trkpt>
      <trkpt lat="43.30844" lon="6.56436">
        <ele>234.8</ele>
        <time>2022-09-28T13:39:30.001Z</time>
      </trkpt>
      <trkpt lat="43.3085" lon="6.56435">
        <ele>234.6</ele>
        <time>2022-09-28T13:39:31.001Z</time>
      </trkpt>
      <trkpt lat="43.30855" lon="6.56433">
        <ele>234.7</ele>
        <time>2022-09-28T13:39:32.000Z</time>
      </trkpt>
      <trkpt lat="43.30861" lon="6.5643">
        <ele>235.4</ele>
        <time>2022-09-28T13:39:34.001Z</time>
      </trkpt>
      <trkpt lat="43.30867" lon="6.56427">
        <ele>237.3</ele>
        <time>2022-09-28T13:39:35.001Z</time>
      </trkpt>
      <trkpt lat="43.30872" lon="6.56426">
        <ele>238.2</ele>
        <time>2022-09-28T13:39:37.000Z</time>
      </trkpt>
      <trkpt lat="43.30877" lon="6.56432">
        <ele>237.6</ele>
        <time>2022-09-28T13:39:38.001Z</time>
      </trkpt>
      <trkpt lat="43.30879" lon="6.56436">
        <ele>237.3</ele>
        <time>2022-09-28T13:39:39.005Z</time>
      </trkpt>
      <trkpt lat="43.30881" lon="6.56442">
        <ele>236.7</ele>
        <time>2022-09-28T13:39:41.001Z</time>
      </trkpt>
      <trkpt lat="43.30883" lon="6.56451">
        <ele>236.6</ele>
        <time>2022-09-28T13:39:42.000Z</time>
      </trkpt>
      <trkpt lat="43.30885" lon="6.56457">
        <ele>236.8</ele>
        <time>2022-09-28T13:39:43.001Z</time>
      </trkpt>
      <trkpt lat="43.30887" lon="6.56462">
        <ele>236.9</ele>
        <time>2022-09-28T13:39:44.001Z</time>
      </trkpt>
      <trkpt lat="43.30889" lon="6.56469">
        <ele>237.3</ele>
        <time>2022-09-28T13:39:45.001Z</time>
      </trkpt>
      <trkpt lat="43.30892" lon="6.56477">
        <ele>237.2</ele>
        <time>2022-09-28T13:39:47.001Z</time>
      </trkpt>
      <trkpt lat="43.30894" lon="6.56481">
        <ele>237.1</ele>
        <time>2022-09-28T13:39:48.001Z</time>
      </trkpt>
      <trkpt lat="43.30897" lon="6.56485">
        <ele>237.2</ele>
        <time>2022-09-28T13:39:49.000Z</time>
      </trkpt>
      <trkpt lat="43.309" lon="6.56489">
        <ele>237.6</ele>
        <time>2022-09-28T13:39:50.001Z</time>
      </trkpt>
      <trkpt lat="43.30905" lon="6.56493">
        <ele>238.1</ele>
        <time>2022-09-28T13:39:51.001Z</time>
      </trkpt>
      <trkpt lat="43.30909" lon="6.56497">
        <ele>238.4</ele>
        <time>2022-09-28T13:39:52.001Z</time>
      </trkpt>
      <trkpt lat="43.30913" lon="6.56503">
        <ele>238.5</ele>
        <time>2022-09-28T13:39:54.001Z</time>
      </trkpt>
      <trkpt lat="43.30919" lon="6.56509">
        <ele>238.7</ele>
        <time>2022-09-28T13:39:56.001Z</time>
      </trkpt>
      <trkpt lat="43.30923" lon="6.56512">
        <ele>238.9</ele>
        <time>2022-09-28T13:39:57.000Z</time>
      </trkpt>
      <trkpt lat="43.30927" lon="6.56515">
        <ele>239</ele>
        <time>2022-09-28T13:39:58.001Z</time>
      </trkpt>
      <trkpt lat="43.30931" lon="6.56518">
        <ele>239.3</ele>
        <time>2022-09-28T13:39:59.000Z</time>
      </trkpt>
      <trkpt lat="43.30936" lon="6.56521">
        <ele>239.6</ele>
        <time>2022-09-28T13:40:00.003Z</time>
      </trkpt>
      <trkpt lat="43.30941" lon="6.56523">
        <ele>239.7</ele>
        <time>2022-09-28T13:40:01.001Z</time>
      </trkpt>
      <trkpt lat="43.30945" lon="6.56526">
        <ele>239.6</ele>
        <time>2022-09-28T13:40:03.004Z</time>
      </trkpt>
      <trkpt lat="43.30949" lon="6.56529">
        <ele>239.9</ele>
        <time>2022-09-28T13:40:04.005Z</time>
      </trkpt>
      <trkpt lat="43.30952" lon="6.56532">
        <ele>240</ele>
        <time>2022-09-28T13:40:05.003Z</time>
      </trkpt>
      <trkpt lat="43.30956" lon="6.56536">
        <ele>240.1</ele>
        <time>2022-09-28T13:40:06.000Z</time>
      </trkpt>
      <trkpt lat="43.3096" lon="6.56539">
        <ele>240.3</ele>
        <time>2022-09-28T13:40:07.000Z</time>
      </trkpt>
      <trkpt lat="43.30966" lon="6.56545">
        <ele>240.4</ele>
        <time>2022-09-28T13:40:09.000Z</time>
      </trkpt>
      <trkpt lat="43.30971" lon="6.56549">
        <ele>240.5</ele>
        <time>2022-09-28T13:40:10.001Z</time>
      </trkpt>
      <trkpt lat="43.30974" lon="6.56552">
        <ele>240.5</ele>
        <time>2022-09-28T13:40:11.003Z</time>
      </trkpt>
      <trkpt lat="43.30977" lon="6.56555">
        <ele>240.5</ele>
        <time>2022-09-28T13:40:12.001Z</time>
      </trkpt>
      <trkpt lat="43.30981" lon="6.56557">
        <ele>240.8</ele>
        <time>2022-09-28T13:40:13.001Z</time>
      </trkpt>
      <trkpt lat="43.30985" lon="6.5656">
        <ele>240.8</ele>
        <time>2022-09-28T13:40:14.001Z</time>
      </trkpt>
      <trkpt lat="43.30989" lon="6.56563">
        <ele>240.9</ele>
        <time>2022-09-28T13:40:15.001Z</time>
      </trkpt>
      <trkpt lat="43.30993" lon="6.56567">
        <ele>240.9</ele>
        <time>2022-09-28T13:40:16.004Z</time>
      </trkpt>
      <trkpt lat="43.30995" lon="6.56568">
        <ele>241</ele>
        <time>2022-09-28T13:40:17.001Z</time>
      </trkpt>
      <trkpt lat="43.31" lon="6.56574">
        <ele>240.5</ele>
        <time>2022-09-28T13:40:18.001Z</time>
      </trkpt>
      <trkpt lat="43.31003" lon="6.56579">
        <ele>240.3</ele>
        <time>2022-09-28T13:40:19.001Z</time>
      </trkpt>
      <trkpt lat="43.31007" lon="6.56583">
        <ele>240.3</ele>
        <time>2022-09-28T13:40:20.000Z</time>
      </trkpt>
      <trkpt lat="43.31011" lon="6.56587">
        <ele>240.3</ele>
        <time>2022-09-28T13:40:21.000Z</time>
      </trkpt>
      <trkpt lat="43.31015" lon="6.56591">
        <ele>240.2</ele>
        <time>2022-09-28T13:40:22.001Z</time>
      </trkpt>
      <trkpt lat="43.3102" lon="6.56596">
        <ele>240.1</ele>
        <time>2022-09-28T13:40:23.000Z</time>
      </trkpt>
      <trkpt lat="43.31024" lon="6.56601">
        <ele>239.9</ele>
        <time>2022-09-28T13:40:24.001Z</time>
      </trkpt>
      <trkpt lat="43.31028" lon="6.56606">
        <ele>239.5</ele>
        <time>2022-09-28T13:40:25.001Z</time>
      </trkpt>
      <trkpt lat="43.31031" lon="6.56612">
        <ele>239.1</ele>
        <time>2022-09-28T13:40:26.001Z</time>
      </trkpt>
      <trkpt lat="43.31034" lon="6.56618">
        <ele>238.9</ele>
        <time>2022-09-28T13:40:27.001Z</time>
      </trkpt>
      <trkpt lat="43.31037" lon="6.56625">
        <ele>238.4</ele>
        <time>2022-09-28T13:40:28.001Z</time>
      </trkpt>
      <trkpt lat="43.3104" lon="6.56631">
        <ele>238</ele>
        <time>2022-09-28T13:40:29.001Z</time>
      </trkpt>
      <trkpt lat="43.31044" lon="6.56637">
        <ele>237.9</ele>
        <time>2022-09-28T13:40:30.000Z</time>
      </trkpt>
      <trkpt lat="43.31048" lon="6.56642">
        <ele>238</ele>
        <time>2022-09-28T13:40:31.000Z</time>
      </trkpt>
      <trkpt lat="43.31052" lon="6.56648">
        <ele>238.1</ele>
        <time>2022-09-28T13:40:32.001Z</time>
      </trkpt>
      <trkpt lat="43.31055" lon="6.56654">
        <ele>238.1</ele>
        <time>2022-09-28T13:40:33.003Z</time>
      </trkpt>
      <trkpt lat="43.31059" lon="6.56659">
        <ele>237.6</ele>
        <time>2022-09-28T13:40:34.000Z</time>
      </trkpt>
      <trkpt lat="43.31063" lon="6.56664">
        <ele>237.1</ele>
        <time>2022-09-28T13:40:35.001Z</time>
      </trkpt>
      <trkpt lat="43.31069" lon="6.56669">
        <ele>236.4</ele>
        <time>2022-09-28T13:40:36.002Z</time>
      </trkpt>
      <trkpt lat="43.31074" lon="6.56674">
        <ele>235.9</ele>
        <time>2022-09-28T13:40:37.000Z</time>
      </trkpt>
      <trkpt lat="43.31081" lon="6.56678">
        <ele>235.5</ele>
        <time>2022-09-28T13:40:38.000Z</time>
      </trkpt>
      <trkpt lat="43.31087" lon="6.56682">
        <ele>234.8</ele>
        <time>2022-09-28T13:40:39.001Z</time>
      </trkpt>
      <trkpt lat="43.31094" lon="6.56686">
        <ele>234.3</ele>
        <time>2022-09-28T13:40:40.001Z</time>
      </trkpt>
      <trkpt lat="43.311" lon="6.5669">
        <ele>233.7</ele>
        <time>2022-09-28T13:40:41.001Z</time>
      </trkpt>
      <trkpt lat="43.31106" lon="6.56696">
        <ele>233.1</ele>
        <time>2022-09-28T13:40:42.001Z</time>
      </trkpt>
      <trkpt lat="43.31111" lon="6.56702">
        <ele>233.4</ele>
        <time>2022-09-28T13:40:43.001Z</time>
      </trkpt>
      <trkpt lat="43.31115" lon="6.56709">
        <ele>233</ele>
        <time>2022-09-28T13:40:44.001Z</time>
      </trkpt>
      <trkpt lat="43.31117" lon="6.56716">
        <ele>232.5</ele>
        <time>2022-09-28T13:40:45.001Z</time>
      </trkpt>
      <trkpt lat="43.31118" lon="6.56722">
        <ele>232</ele>
        <time>2022-09-28T13:40:46.000Z</time>
      </trkpt>
      <trkpt lat="43.31118" lon="6.56726">
        <ele>232</ele>
        <time>2022-09-28T13:40:47.000Z</time>
      </trkpt>
      <trkpt lat="43.3112" lon="6.56732">
        <ele>232.1</ele>
        <time>2022-09-28T13:40:48.001Z</time>
      </trkpt>
      <trkpt lat="43.3112" lon="6.56736">
        <ele>232.2</ele>
        <time>2022-09-28T13:40:49.000Z</time>
      </trkpt>
      <trkpt lat="43.3112" lon="6.5674">
        <ele>232.2</ele>
        <time>2022-09-28T13:40:50.004Z</time>
      </trkpt>
      <trkpt lat="43.3112" lon="6.56741">
        <ele>232.2</ele>
        <time>2022-09-28T13:40:51.003Z</time>
      </trkpt>
      <trkpt lat="43.3112" lon="6.56742">
        <ele>232.2</ele>
        <time>2022-09-28T13:40:55.001Z</time>
      </trkpt>
      <trkpt lat="43.31118" lon="6.56742">
        <ele>232.2</ele>
        <time>2022-09-28T13:41:07.000Z</time>
      </trkpt>
      <trkpt lat="43.31005" lon="6.56954">
        <ele>250.2</ele>
        <time>2022-09-28T13:44:46.001Z</time>
      </trkpt>
      <trkpt lat="43.31004" lon="6.56958">
        <ele>251.1</ele>
        <time>2022-09-28T13:44:47.003Z</time>
      </trkpt>
      <trkpt lat="43.31002" lon="6.5696">
        <ele>251.5</ele>
        <time>2022-09-28T13:44:48.001Z</time>
      </trkpt>
      <trkpt lat="43.30999" lon="6.56963">
        <ele>251.9</ele>
        <time>2022-09-28T13:44:49.002Z</time>
      </trkpt>
      <trkpt lat="43.30994" lon="6.56966">
        <ele>252.5</ele>
        <time>2022-09-28T13:44:50.001Z</time>
      </trkpt>
      <trkpt lat="43.30989" lon="6.56968">
        <ele>252.9</ele>
        <time>2022-09-28T13:44:51.000Z</time>
      </trkpt>
      <trkpt lat="43.30985" lon="6.56971">
        <ele>253.4</ele>
        <time>2022-09-28T13:44:52.000Z</time>
      </trkpt>
      <trkpt lat="43.30982" lon="6.56972">
        <ele>253.7</ele>
        <time>2022-09-28T13:44:53.000Z</time>
      </trkpt>
      <trkpt lat="43.30979" lon="6.56974">
        <ele>254</ele>
        <time>2022-09-28T13:44:54.001Z</time>
      </trkpt>
      <trkpt lat="43.30974" lon="6.56977">
        <ele>254.5</ele>
        <time>2022-09-28T13:44:55.001Z</time>
      </trkpt>
      <trkpt lat="43.30971" lon="6.56978">
        <ele>254.6</ele>
        <time>2022-09-28T13:44:56.001Z</time>
      </trkpt>
      <trkpt lat="43.30965" lon="6.56981">
        <ele>254.7</ele>
        <time>2022-09-28T13:44:57.001Z</time>
      </trkpt>
      <trkpt lat="43.30957" lon="6.56986">
        <ele>254.9</ele>
        <time>2022-09-28T13:44:59.000Z</time>
      </trkpt>
      <trkpt lat="43.30953" lon="6.5699">
        <ele>255.2</ele>
        <time>2022-09-28T13:45:00.000Z</time>
      </trkpt>
      <trkpt lat="43.30949" lon="6.56994">
        <ele>255.4</ele>
        <time>2022-09-28T13:45:01.000Z</time>
      </trkpt>
      <trkpt lat="43.30946" lon="6.56997">
        <ele>255.7</ele>
        <time>2022-09-28T13:45:02.000Z</time>
      </trkpt>
      <trkpt lat="43.30942" lon="6.57002">
        <ele>256.4</ele>
        <time>2022-09-28T13:45:03.001Z</time>
      </trkpt>
      <trkpt lat="43.30939" lon="6.57007">
        <ele>257</ele>
        <time>2022-09-28T13:45:04.000Z</time>
      </trkpt>
      <trkpt lat="43.30936" lon="6.57012">
        <ele>257.7</ele>
        <time>2022-09-28T13:45:05.000Z</time>
      </trkpt>
      <trkpt lat="43.30932" lon="6.57018">
        <ele>258.2</ele>
        <time>2022-09-28T13:45:06.000Z</time>
      </trkpt>
      <trkpt lat="43.30929" lon="6.57023">
        <ele>258.7</ele>
        <time>2022-09-28T13:45:07.000Z</time>
      </trkpt>
      <trkpt lat="43.30926" lon="6.57029">
        <ele>259.1</ele>
        <time>2022-09-28T13:45:08.000Z</time>
      </trkpt>
      <trkpt lat="43.30922" lon="6.57034">
        <ele>259.3</ele>
        <time>2022-09-28T13:45:09.000Z</time>
      </trkpt>
      <trkpt lat="43.30918" lon="6.57039">
        <ele>259.4</ele>
        <time>2022-09-28T13:45:10.001Z</time>
      </trkpt>
      <trkpt lat="43.30915" lon="6.57044">
        <ele>259.7</ele>
        <time>2022-09-28T13:45:11.001Z</time>
      </trkpt>
      <trkpt lat="43.30914" lon="6.57046">
        <ele>259.8</ele>
        <time>2022-09-28T13:45:12.001Z</time>
      </trkpt>
      <trkpt lat="43.30912" lon="6.57048">
        <ele>259.9</ele>
        <time>2022-09-28T13:45:13.001Z</time>
      </trkpt>
      <trkpt lat="43.30908" lon="6.57054">
        <ele>260.3</ele>
        <time>2022-09-28T13:45:14.001Z</time>
      </trkpt>
      <trkpt lat="43.30906" lon="6.57059">
        <ele>260.3</ele>
        <time>2022-09-28T13:45:15.001Z</time>
      </trkpt>
      <trkpt lat="43.30904" lon="6.57063">
        <ele>260.2</ele>
        <time>2022-09-28T13:45:16.001Z</time>
      </trkpt>
      <trkpt lat="43.30902" lon="6.57066">
        <ele>260.1</ele>
        <time>2022-09-28T13:45:17.000Z</time>
      </trkpt>
      <trkpt lat="43.30901" lon="6.5707">
        <ele>260</ele>
        <time>2022-09-28T13:45:19.001Z</time>
      </trkpt>
      <trkpt lat="43.309" lon="6.57071">
        <ele>259.9</ele>
        <time>2022-09-28T13:45:20.001Z</time>
      </trkpt>
      <trkpt lat="43.30899" lon="6.57074">
        <ele>259.8</ele>
        <time>2022-09-28T13:45:21.003Z</time>
      </trkpt>
      <trkpt lat="43.30898" lon="6.57075">
        <ele>259.6</ele>
        <time>2022-09-28T13:45:22.001Z</time>
      </trkpt>
      <trkpt lat="43.30896" lon="6.57076">
        <ele>259.4</ele>
        <time>2022-09-28T13:45:23.001Z</time>
      </trkpt>
      <trkpt lat="43.30893" lon="6.57078">
        <ele>258.9</ele>
        <time>2022-09-28T13:45:24.001Z</time>
      </trkpt>
      <trkpt lat="43.30892" lon="6.57081">
        <ele>258.6</ele>
        <time>2022-09-28T13:45:25.001Z</time>
      </trkpt>
      <trkpt lat="43.30895" lon="6.57073">
        <ele>259.3</ele>
        <time>2022-09-28T13:46:12.000Z</time>
      </trkpt>
      <trkpt lat="43.30894" lon="6.57074">
        <ele>259.1</ele>
        <time>2022-09-28T13:46:13.000Z</time>
      </trkpt>
      <trkpt lat="43.30893" lon="6.57076">
        <ele>258.9</ele>
        <time>2022-09-28T13:46:14.034Z</time>
      </trkpt>
      <trkpt lat="43.30893" lon="6.57077">
        <ele>258.9</ele>
        <time>2022-09-28T13:46:15.000Z</time>
      </trkpt>
      <trkpt lat="43.30894" lon="6.57079">
        <ele>259</ele>
        <time>2022-09-28T13:46:17.000Z</time>
      </trkpt>
      <trkpt lat="43.30894" lon="6.5708">
        <ele>258.9</ele>
        <time>2022-09-28T13:46:25.000Z</time>
      </trkpt>
      <trkpt lat="43.30894" lon="6.57081">
        <ele>259</ele>
        <time>2022-09-28T13:46:34.001Z</time>
      </trkpt>
      <trkpt lat="43.309" lon="6.57086">
        <ele>259.8</ele>
        <time>2022-09-28T13:47:15.000Z</time>
      </trkpt>
      <trkpt lat="43.30898" lon="6.57082">
        <ele>259.6</ele>
        <time>2022-09-28T13:47:16.001Z</time>
      </trkpt>
      <trkpt lat="43.30896" lon="6.57079">
        <ele>259.3</ele>
        <time>2022-09-28T13:47:17.000Z</time>
      </trkpt>
      <trkpt lat="43.30895" lon="6.57078">
        <ele>259.2</ele>
        <time>2022-09-28T13:47:18.000Z</time>
      </trkpt>
      <trkpt lat="43.30896" lon="6.57079">
        <ele>259.3</ele>
        <time>2022-09-28T13:48:47.001Z</time>
      </trkpt>
      <trkpt lat="43.30896" lon="6.5708">
        <ele>259.4</ele>
        <time>2022-09-28T13:48:49.000Z</time>
      </trkpt>
      <trkpt lat="43.30897" lon="6.57081">
        <ele>259.6</ele>
        <time>2022-09-28T13:48:50.001Z</time>
      </trkpt>
      <trkpt lat="43.30898" lon="6.57081">
        <ele>259.7</ele>
        <time>2022-09-28T13:48:52.000Z</time>
      </trkpt>
      <trkpt lat="43.30901" lon="6.57083">
        <ele>260.2</ele>
        <time>2022-09-28T13:49:04.001Z</time>
      </trkpt>
      <trkpt lat="43.30903" lon="6.57085">
        <ele>260.5</ele>
        <time>2022-09-28T13:49:06.000Z</time>
      </trkpt>
      <trkpt lat="43.30904" lon="6.5709">
        <ele>260.6</ele>
        <time>2022-09-28T13:49:07.000Z</time>
      </trkpt>
      <trkpt lat="43.30906" lon="6.57096">
        <ele>260.7</ele>
        <time>2022-09-28T13:49:09.000Z</time>
      </trkpt>
      <trkpt lat="43.30907" lon="6.57103">
        <ele>260.9</ele>
        <time>2022-09-28T13:49:10.001Z</time>
      </trkpt>
      <trkpt lat="43.30907" lon="6.57107">
        <ele>260.9</ele>
        <time>2022-09-28T13:49:11.001Z</time>
      </trkpt>
      <trkpt lat="43.30908" lon="6.57112">
        <ele>261</ele>
        <time>2022-09-28T13:49:12.000Z</time>
      </trkpt>
      <trkpt lat="43.30908" lon="6.5712">
        <ele>260.4</ele>
        <time>2022-09-28T13:49:14.035Z</time>
      </trkpt>
      <trkpt lat="43.30909" lon="6.57126">
        <ele>260.3</ele>
        <time>2022-09-28T13:49:15.000Z</time>
      </trkpt>
      <trkpt lat="43.3091" lon="6.57131">
        <ele>260.3</ele>
        <time>2022-09-28T13:49:16.002Z</time>
      </trkpt>
      <trkpt lat="43.30912" lon="6.57136">
        <ele>260.4</ele>
        <time>2022-09-28T13:49:17.001Z</time>
      </trkpt>
      <trkpt lat="43.30913" lon="6.57143">
        <ele>260.3</ele>
        <time>2022-09-28T13:49:18.002Z</time>
      </trkpt>
      <trkpt lat="43.30914" lon="6.57149">
        <ele>260.4</ele>
        <time>2022-09-28T13:49:19.000Z</time>
      </trkpt>
      <trkpt lat="43.30916" lon="6.57155">
        <ele>260.5</ele>
        <time>2022-09-28T13:49:20.000Z</time>
      </trkpt>
      <trkpt lat="43.30917" lon="6.57164">
        <ele>260.4</ele>
        <time>2022-09-28T13:49:22.000Z</time>
      </trkpt>
      <trkpt lat="43.30918" lon="6.57171">
        <ele>260.5</ele>
        <time>2022-09-28T13:49:23.001Z</time>
      </trkpt>
      <trkpt lat="43.30918" lon="6.57177">
        <ele>260.5</ele>
        <time>2022-09-28T13:49:24.001Z</time>
      </trkpt>
      <trkpt lat="43.30916" lon="6.57185">
        <ele>259.9</ele>
        <time>2022-09-28T13:49:25.000Z</time>
      </trkpt>
      <trkpt lat="43.30914" lon="6.57192">
        <ele>259.4</ele>
        <time>2022-09-28T13:49:26.000Z</time>
      </trkpt>
      <trkpt lat="43.30912" lon="6.572">
        <ele>259</ele>
        <time>2022-09-28T13:49:27.000Z</time>
      </trkpt>
      <trkpt lat="43.30909" lon="6.57207">
        <ele>258.7</ele>
        <time>2022-09-28T13:49:28.001Z</time>
      </trkpt>
      <trkpt lat="43.30906" lon="6.57215">
        <ele>258.3</ele>
        <time>2022-09-28T13:49:29.001Z</time>
      </trkpt>
      <trkpt lat="43.30904" lon="6.57223">
        <ele>258</ele>
        <time>2022-09-28T13:49:30.000Z</time>
      </trkpt>
      <trkpt lat="43.30902" lon="6.57231">
        <ele>258</ele>
        <time>2022-09-28T13:49:31.000Z</time>
      </trkpt>
      <trkpt lat="43.309" lon="6.5724">
        <ele>257.9</ele>
        <time>2022-09-28T13:49:32.000Z</time>
      </trkpt>
      <trkpt lat="43.30898" lon="6.57248">
        <ele>257.8</ele>
        <time>2022-09-28T13:49:33.000Z</time>
      </trkpt>
      <trkpt lat="43.30895" lon="6.57257">
        <ele>257.1</ele>
        <time>2022-09-28T13:49:34.001Z</time>
      </trkpt>
      <trkpt lat="43.30892" lon="6.57265">
        <ele>256.5</ele>
        <time>2022-09-28T13:49:35.002Z</time>
      </trkpt>
      <trkpt lat="43.3089" lon="6.57274">
        <ele>256.3</ele>
        <time>2022-09-28T13:49:36.000Z</time>
      </trkpt>
      <trkpt lat="43.30889" lon="6.57284">
        <ele>255.7</ele>
        <time>2022-09-28T13:49:37.000Z</time>
      </trkpt>
      <trkpt lat="43.3089" lon="6.57296">
        <ele>255</ele>
        <time>2022-09-28T13:49:38.000Z</time>
      </trkpt>
      <trkpt lat="43.30892" lon="6.57307">
        <ele>254.6</ele>
        <time>2022-09-28T13:49:39.001Z</time>
      </trkpt>
      <trkpt lat="43.30894" lon="6.57317">
        <ele>253.6</ele>
        <time>2022-09-28T13:49:40.001Z</time>
      </trkpt>
      <trkpt lat="43.30897" lon="6.57327">
        <ele>252.9</ele>
        <time>2022-09-28T13:49:41.000Z</time>
      </trkpt>
      <trkpt lat="43.30899" lon="6.57336">
        <ele>252.2</ele>
        <time>2022-09-28T13:49:42.002Z</time>
      </trkpt>
      <trkpt lat="43.30899" lon="6.57346">
        <ele>251.5</ele>
        <time>2022-09-28T13:49:43.001Z</time>
      </trkpt>
      <trkpt lat="43.30897" lon="6.57356">
        <ele>250.3</ele>
        <time>2022-09-28T13:49:44.001Z</time>
      </trkpt>
      <trkpt lat="43.30896" lon="6.57367">
        <ele>249</ele>
        <time>2022-09-28T13:49:45.000Z</time>
      </trkpt>
      <trkpt lat="43.30899" lon="6.57377">
        <ele>248.4</ele>
        <time>2022-09-28T13:49:46.002Z</time>
      </trkpt>
      <trkpt lat="43.30905" lon="6.57385">
        <ele>248.4</ele>
        <time>2022-09-28T13:49:47.001Z</time>
      </trkpt>
      <trkpt lat="43.30912" lon="6.57392">
        <ele>248.3</ele>
        <time>2022-09-28T13:49:48.001Z</time>
      </trkpt>
      <trkpt lat="43.30919" lon="6.57398">
        <ele>247.8</ele>
        <time>2022-09-28T13:49:49.000Z</time>
      </trkpt>
      <trkpt lat="43.30926" lon="6.57406">
        <ele>247</ele>
        <time>2022-09-28T13:49:50.001Z</time>
      </trkpt>
      <trkpt lat="43.30932" lon="6.57414">
        <ele>246</ele>
        <time>2022-09-28T13:49:51.002Z</time>
      </trkpt>
      <trkpt lat="43.30938" lon="6.57423">
        <ele>245.3</ele>
        <time>2022-09-28T13:49:52.001Z</time>
      </trkpt>
      <trkpt lat="43.30944" lon="6.57433">
        <ele>244.4</ele>
        <time>2022-09-28T13:49:53.000Z</time>
      </trkpt>
      <trkpt lat="43.30948" lon="6.57443">
        <ele>243.2</ele>
        <time>2022-09-28T13:49:54.001Z</time>
      </trkpt>
      <trkpt lat="43.3095" lon="6.57454">
        <ele>242.5</ele>
        <time>2022-09-28T13:49:55.000Z</time>
      </trkpt>
      <trkpt lat="43.30951" lon="6.57465">
        <ele>241.4</ele>
        <time>2022-09-28T13:49:56.000Z</time>
      </trkpt>
      <trkpt lat="43.3095" lon="6.57478">
        <ele>240</ele>
        <time>2022-09-28T13:49:57.001Z</time>
      </trkpt>
      <trkpt lat="43.30947" lon="6.57491">
        <ele>238.8</ele>
        <time>2022-09-28T13:49:58.001Z</time>
      </trkpt>
      <trkpt lat="43.30945" lon="6.57504">
        <ele>238</ele>
        <time>2022-09-28T13:49:59.001Z</time>
      </trkpt>
      <trkpt lat="43.30945" lon="6.57517">
        <ele>237.4</ele>
        <time>2022-09-28T13:50:00.001Z</time>
      </trkpt>
      <trkpt lat="43.30946" lon="6.57529">
        <ele>236.9</ele>
        <time>2022-09-28T13:50:01.001Z</time>
      </trkpt>
      <trkpt lat="43.30948" lon="6.5754">
        <ele>235.5</ele>
        <time>2022-09-28T13:50:02.001Z</time>
      </trkpt>
      <trkpt lat="43.30952" lon="6.57548">
        <ele>234.7</ele>
        <time>2022-09-28T13:50:03.001Z</time>
      </trkpt>
      <trkpt lat="43.30957" lon="6.57554">
        <ele>234.5</ele>
        <time>2022-09-28T13:50:04.001Z</time>
      </trkpt>
      <trkpt lat="43.30964" lon="6.57559">
        <ele>234.5</ele>
        <time>2022-09-28T13:50:05.001Z</time>
      </trkpt>
      <trkpt lat="43.3097" lon="6.57564">
        <ele>234.3</ele>
        <time>2022-09-28T13:50:06.000Z</time>
      </trkpt>
      <trkpt lat="43.30976" lon="6.5757">
        <ele>233</ele>
        <time>2022-09-28T13:50:07.001Z</time>
      </trkpt>
      <trkpt lat="43.30982" lon="6.57575">
        <ele>232</ele>
        <time>2022-09-28T13:50:08.001Z</time>
      </trkpt>
      <trkpt lat="43.30987" lon="6.57579">
        <ele>231.5</ele>
        <time>2022-09-28T13:50:09.001Z</time>
      </trkpt>
      <trkpt lat="43.30991" lon="6.57585">
        <ele>230.9</ele>
        <time>2022-09-28T13:50:10.000Z</time>
      </trkpt>
      <trkpt lat="43.30993" lon="6.57593">
        <ele>230.6</ele>
        <time>2022-09-28T13:50:11.000Z</time>
      </trkpt>
      <trkpt lat="43.30993" lon="6.57603">
        <ele>230</ele>
        <time>2022-09-28T13:50:12.000Z</time>
      </trkpt>
      <trkpt lat="43.30991" lon="6.57613">
        <ele>228.9</ele>
        <time>2022-09-28T13:50:13.000Z</time>
      </trkpt>
      <trkpt lat="43.30988" lon="6.57623">
        <ele>227.6</ele>
        <time>2022-09-28T13:50:14.001Z</time>
      </trkpt>
      <trkpt lat="43.30987" lon="6.57633">
        <ele>226.6</ele>
        <time>2022-09-28T13:50:15.000Z</time>
      </trkpt>
      <trkpt lat="43.30986" lon="6.57645">
        <ele>225.8</ele>
        <time>2022-09-28T13:50:16.001Z</time>
      </trkpt>
      <trkpt lat="43.30984" lon="6.57656">
        <ele>225.2</ele>
        <time>2022-09-28T13:50:17.001Z</time>
      </trkpt>
      <trkpt lat="43.30981" lon="6.57668">
        <ele>224.6</ele>
        <time>2022-09-28T13:50:18.001Z</time>
      </trkpt>
      <trkpt lat="43.30979" lon="6.5768">
        <ele>224</ele>
        <time>2022-09-28T13:50:19.003Z</time>
      </trkpt>
      <trkpt lat="43.30977" lon="6.57692">
        <ele>223.5</ele>
        <time>2022-09-28T13:50:20.003Z</time>
      </trkpt>
      <trkpt lat="43.30975" lon="6.57705">
        <ele>222.8</ele>
        <time>2022-09-28T13:50:21.002Z</time>
      </trkpt>
      <trkpt lat="43.30973" lon="6.57718">
        <ele>222.2</ele>
        <time>2022-09-28T13:50:22.000Z</time>
      </trkpt>
      <trkpt lat="43.30972" lon="6.57731">
        <ele>221.7</ele>
        <time>2022-09-28T13:50:23.001Z</time>
      </trkpt>
      <trkpt lat="43.30974" lon="6.57745">
        <ele>221.2</ele>
        <time>2022-09-28T13:50:24.001Z</time>
      </trkpt>
      <trkpt lat="43.30979" lon="6.57757">
        <ele>220.7</ele>
        <time>2022-09-28T13:50:25.001Z</time>
      </trkpt>
      <trkpt lat="43.30985" lon="6.57768">
        <ele>220</ele>
        <time>2022-09-28T13:50:26.002Z</time>
      </trkpt>
      <trkpt lat="43.30993" lon="6.57779">
        <ele>219.2</ele>
        <time>2022-09-28T13:50:27.001Z</time>
      </trkpt>
      <trkpt lat="43.31001" lon="6.57788">
        <ele>218.6</ele>
        <time>2022-09-28T13:50:28.001Z</time>
      </trkpt>
      <trkpt lat="43.31009" lon="6.57797">
        <ele>218.1</ele>
        <time>2022-09-28T13:50:29.000Z</time>
      </trkpt>
      <trkpt lat="43.31017" lon="6.57807">
        <ele>217.3</ele>
        <time>2022-09-28T13:50:30.001Z</time>
      </trkpt>
      <trkpt lat="43.31024" lon="6.57817">
        <ele>216.7</ele>
        <time>2022-09-28T13:50:31.001Z</time>
      </trkpt>
      <trkpt lat="43.3103" lon="6.57828">
        <ele>216.1</ele>
        <time>2022-09-28T13:50:32.001Z</time>
      </trkpt>
      <trkpt lat="43.31036" lon="6.57841">
        <ele>215.6</ele>
        <time>2022-09-28T13:50:33.001Z</time>
      </trkpt>
      <trkpt lat="43.31041" lon="6.57854">
        <ele>215.2</ele>
        <time>2022-09-28T13:50:34.001Z</time>
      </trkpt>
      <trkpt lat="43.31044" lon="6.57867">
        <ele>214.8</ele>
        <time>2022-09-28T13:50:35.001Z</time>
      </trkpt>
      <trkpt lat="43.31047" lon="6.5788">
        <ele>214.6</ele>
        <time>2022-09-28T13:50:36.001Z</time>
      </trkpt>
      <trkpt lat="43.31049" lon="6.57892">
        <ele>214.7</ele>
        <time>2022-09-28T13:50:37.001Z</time>
      </trkpt>
      <trkpt lat="43.3105" lon="6.57904">
        <ele>215.1</ele>
        <time>2022-09-28T13:50:38.001Z</time>
      </trkpt>
      <trkpt lat="43.31051" lon="6.57916">
        <ele>215.5</ele>
        <time>2022-09-28T13:50:39.001Z</time>
      </trkpt>
      <trkpt lat="43.31051" lon="6.57927">
        <ele>215.8</ele>
        <time>2022-09-28T13:50:40.000Z</time>
      </trkpt>
      <trkpt lat="43.31051" lon="6.57937">
        <ele>216</ele>
        <time>2022-09-28T13:50:41.001Z</time>
      </trkpt>
      <trkpt lat="43.31051" lon="6.57944">
        <ele>216.1</ele>
        <time>2022-09-28T13:50:42.000Z</time>
      </trkpt>
      <trkpt lat="43.31052" lon="6.5795">
        <ele>216</ele>
        <time>2022-09-28T13:50:43.000Z</time>
      </trkpt>
      <trkpt lat="43.31052" lon="6.57952">
        <ele>215.9</ele>
        <time>2022-09-28T13:50:44.001Z</time>
      </trkpt>
      <trkpt lat="43.31052" lon="6.57955">
        <ele>215.8</ele>
        <time>2022-09-28T13:50:45.001Z</time>
      </trkpt>
      <trkpt lat="43.31051" lon="6.57957">
        <ele>215.8</ele>
        <time>2022-09-28T13:50:46.000Z</time>
      </trkpt>
      <trkpt lat="43.31051" lon="6.57958">
        <ele>215.8</ele>
        <time>2022-09-28T13:50:47.000Z</time>
      </trkpt>
      <trkpt lat="43.3105" lon="6.57959">
        <ele>215.8</ele>
        <time>2022-09-28T13:50:49.000Z</time>
      </trkpt>
      <trkpt lat="43.31049" lon="6.57959">
        <ele>215.8</ele>
        <time>2022-09-28T13:51:06.000Z</time>
      </trkpt>
      <trkpt lat="43.31048" lon="6.5796">
        <ele>215.9</ele>
        <time>2022-09-28T13:51:48.000Z</time>
      </trkpt>
      <trkpt lat="43.31049" lon="6.57959">
        <ele>215.8</ele>
        <time>2022-09-28T13:51:59.001Z</time>
      </trkpt>
      <trkpt lat="43.31049" lon="6.57962">
        <ele>215.8</ele>
        <time>2022-09-28T13:52:15.001Z</time>
      </trkpt>
      <trkpt lat="43.3105" lon="6.57965">
        <ele>215.6</ele>
        <time>2022-09-28T13:52:16.001Z</time>
      </trkpt>
      <trkpt lat="43.3105" lon="6.57967">
        <ele>215.5</ele>
        <time>2022-09-28T13:52:17.001Z</time>
      </trkpt>
      <trkpt lat="43.3105" lon="6.57969">
        <ele>215.5</ele>
        <time>2022-09-28T13:52:18.004Z</time>
      </trkpt>
      <trkpt lat="43.31051" lon="6.57973">
        <ele>215.3</ele>
        <time>2022-09-28T13:52:19.000Z</time>
      </trkpt>
      <trkpt lat="43.31051" lon="6.57976">
        <ele>215.2</ele>
        <time>2022-09-28T13:52:20.000Z</time>
      </trkpt>
      <trkpt lat="43.31051" lon="6.5798">
        <ele>215</ele>
        <time>2022-09-28T13:52:21.000Z</time>
      </trkpt>
      <trkpt lat="43.31051" lon="6.57983">
        <ele>214.9</ele>
        <time>2022-09-28T13:52:22.002Z</time>
      </trkpt>
      <trkpt lat="43.31052" lon="6.57988">
        <ele>214.7</ele>
        <time>2022-09-28T13:52:23.000Z</time>
      </trkpt>
      <trkpt lat="43.31053" lon="6.57996">
        <ele>214.3</ele>
        <time>2022-09-28T13:52:25.000Z</time>
      </trkpt>
      <trkpt lat="43.31054" lon="6.58003">
        <ele>213.9</ele>
        <time>2022-09-28T13:52:26.001Z</time>
      </trkpt>
      <trkpt lat="43.31053" lon="6.58011">
        <ele>213.4</ele>
        <time>2022-09-28T13:52:27.001Z</time>
      </trkpt>
      <trkpt lat="43.31054" lon="6.58019">
        <ele>212.7</ele>
        <time>2022-09-28T13:52:28.001Z</time>
      </trkpt>
      <trkpt lat="43.31055" lon="6.58027">
        <ele>212</ele>
        <time>2022-09-28T13:52:29.001Z</time>
      </trkpt>
      <trkpt lat="43.31055" lon="6.58035">
        <ele>211.8</ele>
        <time>2022-09-28T13:52:30.004Z</time>
      </trkpt>
      <trkpt lat="43.31054" lon="6.58041">
        <ele>211.5</ele>
        <time>2022-09-28T13:52:31.001Z</time>
      </trkpt>
      <trkpt lat="43.31053" lon="6.58047">
        <ele>211.3</ele>
        <time>2022-09-28T13:52:32.000Z</time>
      </trkpt>
      <trkpt lat="43.3105" lon="6.58055">
        <ele>210.8</ele>
        <time>2022-09-28T13:52:33.001Z</time>
      </trkpt>
      <trkpt lat="43.31048" lon="6.58063">
        <ele>209.9</ele>
        <time>2022-09-28T13:52:34.001Z</time>
      </trkpt>
      <trkpt lat="43.31046" lon="6.58071">
        <ele>209</ele>
        <time>2022-09-28T13:52:35.004Z</time>
      </trkpt>
      <trkpt lat="43.31044" lon="6.5808">
        <ele>207.9</ele>
        <time>2022-09-28T13:52:36.000Z</time>
      </trkpt>
      <trkpt lat="43.31041" lon="6.5809">
        <ele>207.2</ele>
        <time>2022-09-28T13:52:37.004Z</time>
      </trkpt>
      <trkpt lat="43.31039" lon="6.581">
        <ele>206.8</ele>
        <time>2022-09-28T13:52:38.001Z</time>
      </trkpt>
      <trkpt lat="43.31038" lon="6.5811">
        <ele>206.4</ele>
        <time>2022-09-28T13:52:39.000Z</time>
      </trkpt>
      <trkpt lat="43.31037" lon="6.5812">
        <ele>206.1</ele>
        <time>2022-09-28T13:52:40.001Z</time>
      </trkpt>
      <trkpt lat="43.31035" lon="6.58129">
        <ele>205.9</ele>
        <time>2022-09-28T13:52:41.000Z</time>
      </trkpt>
      <trkpt lat="43.31031" lon="6.58137">
        <ele>205.9</ele>
        <time>2022-09-28T13:52:42.001Z</time>
      </trkpt>
      <trkpt lat="43.31028" lon="6.58145">
        <ele>206</ele>
        <time>2022-09-28T13:52:43.003Z</time>
      </trkpt>
      <trkpt lat="43.31024" lon="6.58152">
        <ele>205.8</ele>
        <time>2022-09-28T13:52:44.001Z</time>
      </trkpt>
      <trkpt lat="43.3102" lon="6.58159">
        <ele>205.7</ele>
        <time>2022-09-28T13:52:45.001Z</time>
      </trkpt>
      <trkpt lat="43.31017" lon="6.58166">
        <ele>205.6</ele>
        <time>2022-09-28T13:52:46.001Z</time>
      </trkpt>
      <trkpt lat="43.31014" lon="6.58173">
        <ele>205.4</ele>
        <time>2022-09-28T13:52:47.000Z</time>
      </trkpt>
      <trkpt lat="43.31011" lon="6.58181">
        <ele>205.3</ele>
        <time>2022-09-28T13:52:48.001Z</time>
      </trkpt>
      <trkpt lat="43.31009" lon="6.58188">
        <ele>205.3</ele>
        <time>2022-09-28T13:52:49.000Z</time>
      </trkpt>
      <trkpt lat="43.31008" lon="6.58195">
        <ele>205.5</ele>
        <time>2022-09-28T13:52:50.000Z</time>
      </trkpt>
      <trkpt lat="43.31005" lon="6.58202">
        <ele>205.7</ele>
        <time>2022-09-28T13:52:51.001Z</time>
      </trkpt>
      <trkpt lat="43.31002" lon="6.58207">
        <ele>206.3</ele>
        <time>2022-09-28T13:52:52.000Z</time>
      </trkpt>
      <trkpt lat="43.30998" lon="6.58212">
        <ele>206.6</ele>
        <time>2022-09-28T13:52:53.001Z</time>
      </trkpt>
      <trkpt lat="43.30996" lon="6.58214">
        <ele>206.6</ele>
        <time>2022-09-28T13:52:54.001Z</time>
      </trkpt>
      <trkpt lat="43.30992" lon="6.58217">
        <ele>206.7</ele>
        <time>2022-09-28T13:52:55.001Z</time>
      </trkpt>
      <trkpt lat="43.3099" lon="6.58219">
        <ele>206.8</ele>
        <time>2022-09-28T13:52:56.001Z</time>
      </trkpt>
      <trkpt lat="43.30987" lon="6.58221">
        <ele>206.9</ele>
        <time>2022-09-28T13:52:57.000Z</time>
      </trkpt>
      <trkpt lat="43.30985" lon="6.58223">
        <ele>206.9</ele>
        <time>2022-09-28T13:52:58.002Z</time>
      </trkpt>
      <trkpt lat="43.30982" lon="6.58226">
        <ele>206.6</ele>
        <time>2022-09-28T13:52:59.001Z</time>
      </trkpt>
      <trkpt lat="43.30979" lon="6.5823">
        <ele>206.1</ele>
        <time>2022-09-28T13:53:00.001Z</time>
      </trkpt>
      <trkpt lat="43.30975" lon="6.58233">
        <ele>205.9</ele>
        <time>2022-09-28T13:53:01.001Z</time>
      </trkpt>
      <trkpt lat="43.3097" lon="6.58236">
        <ele>205.3</ele>
        <time>2022-09-28T13:53:02.001Z</time>
      </trkpt>
      <trkpt lat="43.30965" lon="6.58238">
        <ele>204.7</ele>
        <time>2022-09-28T13:53:03.000Z</time>
      </trkpt>
      <trkpt lat="43.30963" lon="6.5824">
        <ele>204.5</ele>
        <time>2022-09-28T13:53:04.002Z</time>
      </trkpt>
      <trkpt lat="43.3096" lon="6.58246">
        <ele>203.8</ele>
        <time>2022-09-28T13:53:05.001Z</time>
      </trkpt>
      <trkpt lat="43.3096" lon="6.5825">
        <ele>203.6</ele>
        <time>2022-09-28T13:53:06.000Z</time>
      </trkpt>
      <trkpt lat="43.30959" lon="6.58253">
        <ele>203</ele>
        <time>2022-09-28T13:53:08.001Z</time>
      </trkpt>
      <trkpt lat="43.3096" lon="6.58256">
        <ele>202.6</ele>
        <time>2022-09-28T13:53:09.000Z</time>
      </trkpt>
      <trkpt lat="43.3096" lon="6.58259">
        <ele>202</ele>
        <time>2022-09-28T13:53:10.001Z</time>
      </trkpt>
      <trkpt lat="43.30959" lon="6.58263">
        <ele>201.5</ele>
        <time>2022-09-28T13:53:11.001Z</time>
      </trkpt>
      <trkpt lat="43.30958" lon="6.58267">
        <ele>200.8</ele>
        <time>2022-09-28T13:53:12.000Z</time>
      </trkpt>
      <trkpt lat="43.30957" lon="6.58272">
        <ele>199.9</ele>
        <time>2022-09-28T13:53:13.000Z</time>
      </trkpt>
      <trkpt lat="43.30956" lon="6.58277">
        <ele>199.2</ele>
        <time>2022-09-28T13:53:14.000Z</time>
      </trkpt>
      <trkpt lat="43.30955" lon="6.58282">
        <ele>198.3</ele>
        <time>2022-09-28T13:53:15.001Z</time>
      </trkpt>
      <trkpt lat="43.30954" lon="6.58285">
        <ele>197.7</ele>
        <time>2022-09-28T13:53:16.001Z</time>
      </trkpt>
      <trkpt lat="43.30952" lon="6.58289">
        <ele>197.2</ele>
        <time>2022-09-28T13:53:18.004Z</time>
      </trkpt>
      <trkpt lat="43.30949" lon="6.58293">
        <ele>196.3</ele>
        <time>2022-09-28T13:53:19.001Z</time>
      </trkpt>
      <trkpt lat="43.30948" lon="6.58299">
        <ele>195.3</ele>
        <time>2022-09-28T13:53:20.000Z</time>
      </trkpt>
      <trkpt lat="43.30946" lon="6.58304">
        <ele>194.4</ele>
        <time>2022-09-28T13:53:21.000Z</time>
      </trkpt>
      <trkpt lat="43.30942" lon="6.58311">
        <ele>193.1</ele>
        <time>2022-09-28T13:53:23.001Z</time>
      </trkpt>
      <trkpt lat="43.30939" lon="6.58316">
        <ele>192.2</ele>
        <time>2022-09-28T13:53:24.001Z</time>
      </trkpt>
      <trkpt lat="43.30937" lon="6.58321">
        <ele>191.4</ele>
        <time>2022-09-28T13:53:25.001Z</time>
      </trkpt>
      <trkpt lat="43.30935" lon="6.58323">
        <ele>190.9</ele>
        <time>2022-09-28T13:53:26.001Z</time>
      </trkpt>
      <trkpt lat="43.3093" lon="6.5833">
        <ele>189.7</ele>
        <time>2022-09-28T13:53:27.001Z</time>
      </trkpt>
      <trkpt lat="43.30926" lon="6.58337">
        <ele>188.8</ele>
        <time>2022-09-28T13:53:28.001Z</time>
      </trkpt>
      <trkpt lat="43.30924" lon="6.58345">
        <ele>188.1</ele>
        <time>2022-09-28T13:53:29.001Z</time>
      </trkpt>
      <trkpt lat="43.30922" lon="6.58354">
        <ele>187.6</ele>
        <time>2022-09-28T13:53:30.001Z</time>
      </trkpt>
      <trkpt lat="43.3092" lon="6.58363">
        <ele>187.1</ele>
        <time>2022-09-28T13:53:31.001Z</time>
      </trkpt>
      <trkpt lat="43.30918" lon="6.58373">
        <ele>187</ele>
        <time>2022-09-28T13:53:32.001Z</time>
      </trkpt>
      <trkpt lat="43.30917" lon="6.58382">
        <ele>187</ele>
        <time>2022-09-28T13:53:33.000Z</time>
      </trkpt>
      <trkpt lat="43.30915" lon="6.58392">
        <ele>187</ele>
        <time>2022-09-28T13:53:34.000Z</time>
      </trkpt>
      <trkpt lat="43.30915" lon="6.58402">
        <ele>187.4</ele>
        <time>2022-09-28T13:53:35.001Z</time>
      </trkpt>
      <trkpt lat="43.30915" lon="6.5841">
        <ele>187.7</ele>
        <time>2022-09-28T13:53:36.001Z</time>
      </trkpt>
      <trkpt lat="43.30916" lon="6.58418">
        <ele>188</ele>
        <time>2022-09-28T13:53:37.000Z</time>
      </trkpt>
      <trkpt lat="43.30917" lon="6.58423">
        <ele>188.4</ele>
        <time>2022-09-28T13:53:38.001Z</time>
      </trkpt>
      <trkpt lat="43.30919" lon="6.58429">
        <ele>188.8</ele>
        <time>2022-09-28T13:53:39.003Z</time>
      </trkpt>
      <trkpt lat="43.3092" lon="6.58436">
        <ele>189.2</ele>
        <time>2022-09-28T13:53:40.001Z</time>
      </trkpt>
      <trkpt lat="43.30922" lon="6.58444">
        <ele>189.5</ele>
        <time>2022-09-28T13:53:41.001Z</time>
      </trkpt>
      <trkpt lat="43.30924" lon="6.58451">
        <ele>189.9</ele>
        <time>2022-09-28T13:53:42.001Z</time>
      </trkpt>
      <trkpt lat="43.30926" lon="6.58458">
        <ele>190.3</ele>
        <time>2022-09-28T13:53:43.000Z</time>
      </trkpt>
      <trkpt lat="43.30928" lon="6.58465">
        <ele>190.6</ele>
        <time>2022-09-28T13:53:44.001Z</time>
      </trkpt>
      <trkpt lat="43.30931" lon="6.5847">
        <ele>190.8</ele>
        <time>2022-09-28T13:53:45.001Z</time>
      </trkpt>
      <trkpt lat="43.30932" lon="6.58473">
        <ele>190.9</ele>
        <time>2022-09-28T13:53:46.001Z</time>
      </trkpt>
      <trkpt lat="43.30933" lon="6.58477">
        <ele>190.8</ele>
        <time>2022-09-28T13:53:47.001Z</time>
      </trkpt>
      <trkpt lat="43.30933" lon="6.5848">
        <ele>190.7</ele>
        <time>2022-09-28T13:53:48.001Z</time>
      </trkpt>
      <trkpt lat="43.30934" lon="6.58483">
        <ele>190.7</ele>
        <time>2022-09-28T13:53:49.001Z</time>
      </trkpt>
      <trkpt lat="43.30934" lon="6.58485">
        <ele>190.6</ele>
        <time>2022-09-28T13:53:50.001Z</time>
      </trkpt>
      <trkpt lat="43.30934" lon="6.58486">
        <ele>190.6</ele>
        <time>2022-09-28T13:53:51.001Z</time>
      </trkpt>
      <trkpt lat="43.30934" lon="6.58488">
        <ele>190.6</ele>
        <time>2022-09-28T13:53:53.001Z</time>
      </trkpt>
      <trkpt lat="43.30934" lon="6.58492">
        <ele>190.5</ele>
        <time>2022-09-28T13:53:54.001Z</time>
      </trkpt>
      <trkpt lat="43.30935" lon="6.58493">
        <ele>190.5</ele>
        <time>2022-09-28T13:53:55.001Z</time>
      </trkpt>
      <trkpt lat="43.30934" lon="6.58493">
        <ele>190.6</ele>
        <time>2022-09-28T13:54:01.000Z</time>
      </trkpt>
      <trkpt lat="43.30933" lon="6.58492">
        <ele>190.7</ele>
        <time>2022-09-28T13:54:12.001Z</time>
      </trkpt>
      <trkpt lat="43.30933" lon="6.58494">
        <ele>190.6</ele>
        <time>2022-09-28T13:54:32.001Z</time>
      </trkpt>
      <trkpt lat="43.30934" lon="6.58497">
        <ele>190.5</ele>
        <time>2022-09-28T13:54:33.001Z</time>
      </trkpt>
      <trkpt lat="43.30935" lon="6.58501">
        <ele>190.4</ele>
        <time>2022-09-28T13:54:34.002Z</time>
      </trkpt>
      <trkpt lat="43.30936" lon="6.58505">
        <ele>190.2</ele>
        <time>2022-09-28T13:54:35.000Z</time>
      </trkpt>
      <trkpt lat="43.30937" lon="6.5851">
        <ele>190.1</ele>
        <time>2022-09-28T13:54:36.000Z</time>
      </trkpt>
      <trkpt lat="43.30938" lon="6.58515">
        <ele>190</ele>
        <time>2022-09-28T13:54:37.001Z</time>
      </trkpt>
      <trkpt lat="43.30939" lon="6.58523">
        <ele>189.7</ele>
        <time>2022-09-28T13:54:38.001Z</time>
      </trkpt>
      <trkpt lat="43.30941" lon="6.58531">
        <ele>189.4</ele>
        <time>2022-09-28T13:54:39.001Z</time>
      </trkpt>
      <trkpt lat="43.30941" lon="6.5854">
        <ele>189</ele>
        <time>2022-09-28T13:54:40.001Z</time>
      </trkpt>
      <trkpt lat="43.30942" lon="6.58549">
        <ele>188.6</ele>
        <time>2022-09-28T13:54:41.001Z</time>
      </trkpt>
      <trkpt lat="43.30943" lon="6.58557">
        <ele>188.3</ele>
        <time>2022-09-28T13:54:42.001Z</time>
      </trkpt>
      <trkpt lat="43.30944" lon="6.58566">
        <ele>188.5</ele>
        <time>2022-09-28T13:54:43.001Z</time>
      </trkpt>
      <trkpt lat="43.30946" lon="6.58575">
        <ele>188.4</ele>
        <time>2022-09-28T13:54:44.000Z</time>
      </trkpt>
      <trkpt lat="43.30949" lon="6.58584">
        <ele>188.4</ele>
        <time>2022-09-28T13:54:45.000Z</time>
      </trkpt>
      <trkpt lat="43.3095" lon="6.58592">
        <ele>188.8</ele>
        <time>2022-09-28T13:54:46.002Z</time>
      </trkpt>
      <trkpt lat="43.30952" lon="6.58601">
        <ele>189.2</ele>
        <time>2022-09-28T13:54:47.000Z</time>
      </trkpt>
      <trkpt lat="43.30955" lon="6.58608">
        <ele>189.3</ele>
        <time>2022-09-28T13:54:48.000Z</time>
      </trkpt>
      <trkpt lat="43.30958" lon="6.58616">
        <ele>189.3</ele>
        <time>2022-09-28T13:54:49.001Z</time>
      </trkpt>
      <trkpt lat="43.3096" lon="6.58624">
        <ele>189.3</ele>
        <time>2022-09-28T13:54:50.001Z</time>
      </trkpt>
      <trkpt lat="43.30961" lon="6.58633">
        <ele>189.4</ele>
        <time>2022-09-28T13:54:51.001Z</time>
      </trkpt>
      <trkpt lat="43.30962" lon="6.58641">
        <ele>189.5</ele>
        <time>2022-09-28T13:54:52.002Z</time>
      </trkpt>
      <trkpt lat="43.30961" lon="6.58649">
        <ele>189.5</ele>
        <time>2022-09-28T13:54:53.000Z</time>
      </trkpt>
      <trkpt lat="43.30958" lon="6.58657">
        <ele>189.7</ele>
        <time>2022-09-28T13:54:54.001Z</time>
      </trkpt>
      <trkpt lat="43.30955" lon="6.58663">
        <ele>190</ele>
        <time>2022-09-28T13:54:55.000Z</time>
      </trkpt>
      <trkpt lat="43.3095" lon="6.58669">
        <ele>190.2</ele>
        <time>2022-09-28T13:54:56.000Z</time>
      </trkpt>
      <trkpt lat="43.30945" lon="6.58675">
        <ele>190.3</ele>
        <time>2022-09-28T13:54:57.001Z</time>
      </trkpt>
      <trkpt lat="43.30941" lon="6.5868">
        <ele>190.5</ele>
        <time>2022-09-28T13:54:58.001Z</time>
      </trkpt>
      <trkpt lat="43.30936" lon="6.58686">
        <ele>190.6</ele>
        <time>2022-09-28T13:54:59.001Z</time>
      </trkpt>
      <trkpt lat="43.30932" lon="6.58692">
        <ele>190.6</ele>
        <time>2022-09-28T13:55:00.001Z</time>
      </trkpt>
      <trkpt lat="43.30928" lon="6.58698">
        <ele>190.5</ele>
        <time>2022-09-28T13:55:01.001Z</time>
      </trkpt>
      <trkpt lat="43.30924" lon="6.58704">
        <ele>190.2</ele>
        <time>2022-09-28T13:55:02.001Z</time>
      </trkpt>
      <trkpt lat="43.3092" lon="6.58711">
        <ele>189.9</ele>
        <time>2022-09-28T13:55:03.001Z</time>
      </trkpt>
      <trkpt lat="43.30916" lon="6.58717">
        <ele>189.6</ele>
        <time>2022-09-28T13:55:04.001Z</time>
      </trkpt>
      <trkpt lat="43.30912" lon="6.58724">
        <ele>189.6</ele>
        <time>2022-09-28T13:55:05.001Z</time>
      </trkpt>
      <trkpt lat="43.30907" lon="6.5873">
        <ele>189.4</ele>
        <time>2022-09-28T13:55:06.000Z</time>
      </trkpt>
      <trkpt lat="43.30903" lon="6.58737">
        <ele>189.1</ele>
        <time>2022-09-28T13:55:07.001Z</time>
      </trkpt>
      <trkpt lat="43.309" lon="6.58744">
        <ele>188.6</ele>
        <time>2022-09-28T13:55:08.001Z</time>
      </trkpt>
      <trkpt lat="43.30897" lon="6.58751">
        <ele>188</ele>
        <time>2022-09-28T13:55:09.001Z</time>
      </trkpt>
      <trkpt lat="43.30894" lon="6.58759">
        <ele>187.5</ele>
        <time>2022-09-28T13:55:10.002Z</time>
      </trkpt>
      <trkpt lat="43.30891" lon="6.58768">
        <ele>186.9</ele>
        <time>2022-09-28T13:55:11.002Z</time>
      </trkpt>
      <trkpt lat="43.30887" lon="6.58777">
        <ele>186.3</ele>
        <time>2022-09-28T13:55:12.001Z</time>
      </trkpt>
      <trkpt lat="43.30884" lon="6.58786">
        <ele>186</ele>
        <time>2022-09-28T13:55:13.000Z</time>
      </trkpt>
      <trkpt lat="43.30881" lon="6.58797">
        <ele>185.6</ele>
        <time>2022-09-28T13:55:14.042Z</time>
      </trkpt>
      <trkpt lat="43.30877" lon="6.58808">
        <ele>185.1</ele>
        <time>2022-09-28T13:55:15.000Z</time>
      </trkpt>
      <trkpt lat="43.30873" lon="6.58819">
        <ele>184.5</ele>
        <time>2022-09-28T13:55:16.000Z</time>
      </trkpt>
      <trkpt lat="43.3087" lon="6.58829">
        <ele>183.7</ele>
        <time>2022-09-28T13:55:17.001Z</time>
      </trkpt>
      <trkpt lat="43.30866" lon="6.5884">
        <ele>182.9</ele>
        <time>2022-09-28T13:55:18.002Z</time>
      </trkpt>
      <trkpt lat="43.30863" lon="6.5885">
        <ele>182.1</ele>
        <time>2022-09-28T13:55:19.000Z</time>
      </trkpt>
      <trkpt lat="43.3086" lon="6.5886">
        <ele>181.3</ele>
        <time>2022-09-28T13:55:20.000Z</time>
      </trkpt>
      <trkpt lat="43.30858" lon="6.58868">
        <ele>180.9</ele>
        <time>2022-09-28T13:55:21.002Z</time>
      </trkpt>
      <trkpt lat="43.30858" lon="6.58877">
        <ele>180.5</ele>
        <time>2022-09-28T13:55:22.001Z</time>
      </trkpt>
      <trkpt lat="43.30858" lon="6.58885">
        <ele>180.1</ele>
        <time>2022-09-28T13:55:23.001Z</time>
      </trkpt>
      <trkpt lat="43.3086" lon="6.58892">
        <ele>179.7</ele>
        <time>2022-09-28T13:55:24.001Z</time>
      </trkpt>
      <trkpt lat="43.30862" lon="6.58898">
        <ele>179.3</ele>
        <time>2022-09-28T13:55:25.001Z</time>
      </trkpt>
      <trkpt lat="43.30865" lon="6.58902">
        <ele>178.9</ele>
        <time>2022-09-28T13:55:26.001Z</time>
      </trkpt>
      <trkpt lat="43.30867" lon="6.58904">
        <ele>178.7</ele>
        <time>2022-09-28T13:55:27.001Z</time>
      </trkpt>
      <trkpt lat="43.30869" lon="6.58905">
        <ele>178.6</ele>
        <time>2022-09-28T13:55:28.001Z</time>
      </trkpt>
      <trkpt lat="43.3087" lon="6.58905">
        <ele>178.6</ele>
        <time>2022-09-28T13:55:29.001Z</time>
      </trkpt>
      <trkpt lat="43.30871" lon="6.58905">
        <ele>178.6</ele>
        <time>2022-09-28T13:55:35.000Z</time>
      </trkpt>
      <trkpt lat="43.30872" lon="6.58904">
        <ele>178.6</ele>
        <time>2022-09-28T13:55:55.000Z</time>
      </trkpt>
      <trkpt lat="43.30871" lon="6.58906">
        <ele>178.6</ele>
        <time>2022-09-28T13:55:58.001Z</time>
      </trkpt>
      <trkpt lat="43.30871" lon="6.58905">
        <ele>178.6</ele>
        <time>2022-09-28T13:57:22.000Z</time>
      </trkpt>
      <trkpt lat="43.30872" lon="6.58905">
        <ele>178.6</ele>
        <time>2022-09-28T13:57:30.001Z</time>
      </trkpt>
      <trkpt lat="43.30875" lon="6.58905">
        <ele>178.5</ele>
        <time>2022-09-28T13:57:32.001Z</time>
      </trkpt>
      <trkpt lat="43.30878" lon="6.58904">
        <ele>178.4</ele>
        <time>2022-09-28T13:57:33.001Z</time>
      </trkpt>
      <trkpt lat="43.30883" lon="6.58904">
        <ele>178.2</ele>
        <time>2022-09-28T13:57:35.000Z</time>
      </trkpt>
      <trkpt lat="43.30886" lon="6.58902">
        <ele>178</ele>
        <time>2022-09-28T13:57:36.000Z</time>
      </trkpt>
      <trkpt lat="43.30894" lon="6.58897">
        <ele>177.3</ele>
        <time>2022-09-28T13:57:37.001Z</time>
      </trkpt>
      <trkpt lat="43.309" lon="6.58894">
        <ele>176.6</ele>
        <time>2022-09-28T13:57:38.001Z</time>
      </trkpt>
      <trkpt lat="43.30907" lon="6.58891">
        <ele>176</ele>
        <time>2022-09-28T13:57:39.001Z</time>
      </trkpt>
      <trkpt lat="43.30914" lon="6.58889">
        <ele>175.2</ele>
        <time>2022-09-28T13:57:40.000Z</time>
      </trkpt>
      <trkpt lat="43.30921" lon="6.58887">
        <ele>174.8</ele>
        <time>2022-09-28T13:57:41.000Z</time>
      </trkpt>
      <trkpt lat="43.30928" lon="6.58884">
        <ele>174.5</ele>
        <time>2022-09-28T13:57:42.000Z</time>
      </trkpt>
      <trkpt lat="43.30935" lon="6.58883">
        <ele>174</ele>
        <time>2022-09-28T13:57:43.003Z</time>
      </trkpt>
      <trkpt lat="43.30943" lon="6.58884">
        <ele>173.3</ele>
        <time>2022-09-28T13:57:44.001Z</time>
      </trkpt>
      <trkpt lat="43.3095" lon="6.58886">
        <ele>172.5</ele>
        <time>2022-09-28T13:57:45.000Z</time>
      </trkpt>
      <trkpt lat="43.30957" lon="6.58889">
        <ele>171.7</ele>
        <time>2022-09-28T13:57:46.001Z</time>
      </trkpt>
      <trkpt lat="43.30965" lon="6.58893">
        <ele>171.5</ele>
        <time>2022-09-28T13:57:47.001Z</time>
      </trkpt>
      <trkpt lat="43.30972" lon="6.58896">
        <ele>171.3</ele>
        <time>2022-09-28T13:57:48.001Z</time>
      </trkpt>
      <trkpt lat="43.30979" lon="6.58898">
        <ele>170.6</ele>
        <time>2022-09-28T13:57:49.001Z</time>
      </trkpt>
      <trkpt lat="43.30988" lon="6.58899">
        <ele>169.6</ele>
        <time>2022-09-28T13:57:50.003Z</time>
      </trkpt>
      <trkpt lat="43.30996" lon="6.58901">
        <ele>168.7</ele>
        <time>2022-09-28T13:57:51.001Z</time>
      </trkpt>
      <trkpt lat="43.31004" lon="6.58903">
        <ele>167.8</ele>
        <time>2022-09-28T13:57:52.004Z</time>
      </trkpt>
      <trkpt lat="43.31012" lon="6.58904">
        <ele>166.8</ele>
        <time>2022-09-28T13:57:53.000Z</time>
      </trkpt>
      <trkpt lat="43.3102" lon="6.58904">
        <ele>165.6</ele>
        <time>2022-09-28T13:57:54.001Z</time>
      </trkpt>
      <trkpt lat="43.31027" lon="6.58903">
        <ele>164.2</ele>
        <time>2022-09-28T13:57:55.001Z</time>
      </trkpt>
      <trkpt lat="43.31033" lon="6.58901">
        <ele>163.3</ele>
        <time>2022-09-28T13:57:56.001Z</time>
      </trkpt>
      <trkpt lat="43.31039" lon="6.58898">
        <ele>162.5</ele>
        <time>2022-09-28T13:57:57.001Z</time>
      </trkpt>
      <trkpt lat="43.31044" lon="6.58894">
        <ele>161.3</ele>
        <time>2022-09-28T13:57:58.001Z</time>
      </trkpt>
      <trkpt lat="43.3105" lon="6.58888">
        <ele>160</ele>
        <time>2022-09-28T13:57:59.001Z</time>
      </trkpt>
      <trkpt lat="43.31054" lon="6.58882">
        <ele>158.9</ele>
        <time>2022-09-28T13:58:00.001Z</time>
      </trkpt>
      <trkpt lat="43.31059" lon="6.58876">
        <ele>157.6</ele>
        <time>2022-09-28T13:58:01.001Z</time>
      </trkpt>
      <trkpt lat="43.31063" lon="6.58868">
        <ele>156.4</ele>
        <time>2022-09-28T13:58:02.001Z</time>
      </trkpt>
      <trkpt lat="43.31067" lon="6.58862">
        <ele>155.5</ele>
        <time>2022-09-28T13:58:03.001Z</time>
      </trkpt>
      <trkpt lat="43.31071" lon="6.58856">
        <ele>154.8</ele>
        <time>2022-09-28T13:58:04.001Z</time>
      </trkpt>
      <trkpt lat="43.31075" lon="6.58852">
        <ele>154</ele>
        <time>2022-09-28T13:58:05.000Z</time>
      </trkpt>
      <trkpt lat="43.31081" lon="6.58849">
        <ele>153.2</ele>
        <time>2022-09-28T13:58:06.001Z</time>
      </trkpt>
      <trkpt lat="43.31087" lon="6.58846">
        <ele>152</ele>
        <time>2022-09-28T13:58:07.001Z</time>
      </trkpt>
      <trkpt lat="43.31094" lon="6.58844">
        <ele>150.7</ele>
        <time>2022-09-28T13:58:08.000Z</time>
      </trkpt>
      <trkpt lat="43.31102" lon="6.5884">
        <ele>149.5</ele>
        <time>2022-09-28T13:58:09.000Z</time>
      </trkpt>
      <trkpt lat="43.31109" lon="6.58836">
        <ele>148.5</ele>
        <time>2022-09-28T13:58:10.000Z</time>
      </trkpt>
      <trkpt lat="43.31116" lon="6.58832">
        <ele>147.5</ele>
        <time>2022-09-28T13:58:11.000Z</time>
      </trkpt>
      <trkpt lat="43.31123" lon="6.58829">
        <ele>146.6</ele>
        <time>2022-09-28T13:58:12.001Z</time>
      </trkpt>
      <trkpt lat="43.31129" lon="6.58825">
        <ele>145.5</ele>
        <time>2022-09-28T13:58:13.001Z</time>
      </trkpt>
      <trkpt lat="43.31135" lon="6.58822">
        <ele>144.3</ele>
        <time>2022-09-28T13:58:14.040Z</time>
      </trkpt>
      <trkpt lat="43.31141" lon="6.58818">
        <ele>143.2</ele>
        <time>2022-09-28T13:58:15.001Z</time>
      </trkpt>
      <trkpt lat="43.31146" lon="6.58816">
        <ele>142.2</ele>
        <time>2022-09-28T13:58:16.000Z</time>
      </trkpt>
      <trkpt lat="43.31152" lon="6.58815">
        <ele>141.4</ele>
        <time>2022-09-28T13:58:17.000Z</time>
      </trkpt>
      <trkpt lat="43.31157" lon="6.58815">
        <ele>140.9</ele>
        <time>2022-09-28T13:58:18.000Z</time>
      </trkpt>
      <trkpt lat="43.31162" lon="6.58815">
        <ele>140.3</ele>
        <time>2022-09-28T13:58:19.000Z</time>
      </trkpt>
      <trkpt lat="43.31168" lon="6.58814">
        <ele>139.2</ele>
        <time>2022-09-28T13:58:20.000Z</time>
      </trkpt>
      <trkpt lat="43.31175" lon="6.58814">
        <ele>138.5</ele>
        <time>2022-09-28T13:58:21.001Z</time>
      </trkpt>
      <trkpt lat="43.31181" lon="6.58814">
        <ele>138</ele>
        <time>2022-09-28T13:58:22.001Z</time>
      </trkpt>
      <trkpt lat="43.31188" lon="6.58815">
        <ele>137.7</ele>
        <time>2022-09-28T13:58:23.001Z</time>
      </trkpt>
      <trkpt lat="43.31195" lon="6.58816">
        <ele>137.3</ele>
        <time>2022-09-28T13:58:24.001Z</time>
      </trkpt>
      <trkpt lat="43.31203" lon="6.58817">
        <ele>136.5</ele>
        <time>2022-09-28T13:58:25.001Z</time>
      </trkpt>
      <trkpt lat="43.31211" lon="6.58816">
        <ele>135.6</ele>
        <time>2022-09-28T13:58:26.002Z</time>
      </trkpt>
      <trkpt lat="43.31218" lon="6.58814">
        <ele>134.4</ele>
        <time>2022-09-28T13:58:27.000Z</time>
      </trkpt>
      <trkpt lat="43.31226" lon="6.58811">
        <ele>133</ele>
        <time>2022-09-28T13:58:28.000Z</time>
      </trkpt>
      <trkpt lat="43.31234" lon="6.58809">
        <ele>132</ele>
        <time>2022-09-28T13:58:29.000Z</time>
      </trkpt>
      <trkpt lat="43.31243" lon="6.58808">
        <ele>131.1</ele>
        <time>2022-09-28T13:58:30.000Z</time>
      </trkpt>
      <trkpt lat="43.31252" lon="6.58806">
        <ele>130.2</ele>
        <time>2022-09-28T13:58:31.000Z</time>
      </trkpt>
      <trkpt lat="43.31259" lon="6.58803">
        <ele>129.9</ele>
        <time>2022-09-28T13:58:32.000Z</time>
      </trkpt>
      <trkpt lat="43.31266" lon="6.58799">
        <ele>129.4</ele>
        <time>2022-09-28T13:58:33.000Z</time>
      </trkpt>
      <trkpt lat="43.31274" lon="6.58796">
        <ele>128.6</ele>
        <time>2022-09-28T13:58:34.001Z</time>
      </trkpt>
      <trkpt lat="43.31281" lon="6.58791">
        <ele>127.1</ele>
        <time>2022-09-28T13:58:35.001Z</time>
      </trkpt>
      <trkpt lat="43.31288" lon="6.58788">
        <ele>125.7</ele>
        <time>2022-09-28T13:58:36.001Z</time>
      </trkpt>
      <trkpt lat="43.31295" lon="6.58785">
        <ele>124.5</ele>
        <time>2022-09-28T13:58:37.000Z</time>
      </trkpt>
      <trkpt lat="43.31302" lon="6.58781">
        <ele>123</ele>
        <time>2022-09-28T13:58:38.000Z</time>
      </trkpt>
      <trkpt lat="43.3131" lon="6.58778">
        <ele>122.9</ele>
        <time>2022-09-28T13:58:39.000Z</time>
      </trkpt>
      <trkpt lat="43.31316" lon="6.58773">
        <ele>124</ele>
        <time>2022-09-28T13:58:40.000Z</time>
      </trkpt>
      <trkpt lat="43.3132" lon="6.58767">
        <ele>123.9</ele>
        <time>2022-09-28T13:58:41.000Z</time>
      </trkpt>
      <trkpt lat="43.31325" lon="6.5876">
        <ele>122.9</ele>
        <time>2022-09-28T13:58:42.001Z</time>
      </trkpt>
      <trkpt lat="43.3133" lon="6.58754">
        <ele>121.5</ele>
        <time>2022-09-28T13:58:43.001Z</time>
      </trkpt>
      <trkpt lat="43.31336" lon="6.58749">
        <ele>120.1</ele>
        <time>2022-09-28T13:58:44.000Z</time>
      </trkpt>
      <trkpt lat="43.31341" lon="6.58744">
        <ele>119.6</ele>
        <time>2022-09-28T13:58:45.000Z</time>
      </trkpt>
      <trkpt lat="43.31346" lon="6.58739">
        <ele>119</ele>
        <time>2022-09-28T13:58:46.000Z</time>
      </trkpt>
      <trkpt lat="43.31352" lon="6.58734">
        <ele>118.3</ele>
        <time>2022-09-28T13:58:47.000Z</time>
      </trkpt>
      <trkpt lat="43.31358" lon="6.58728">
        <ele>117.2</ele>
        <time>2022-09-28T13:58:48.000Z</time>
      </trkpt>
      <trkpt lat="43.31365" lon="6.58721">
        <ele>115.9</ele>
        <time>2022-09-28T13:58:49.000Z</time>
      </trkpt>
      <trkpt lat="43.31372" lon="6.58714">
        <ele>114.7</ele>
        <time>2022-09-28T13:58:50.000Z</time>
      </trkpt>
      <trkpt lat="43.31379" lon="6.58708">
        <ele>114.2</ele>
        <time>2022-09-28T13:58:51.001Z</time>
      </trkpt>
      <trkpt lat="43.31383" lon="6.58702">
        <ele>114</ele>
        <time>2022-09-28T13:58:52.003Z</time>
      </trkpt>
      <trkpt lat="43.31386" lon="6.58697">
        <ele>113.7</ele>
        <time>2022-09-28T13:58:53.001Z</time>
      </trkpt>
      <trkpt lat="43.31389" lon="6.5869">
        <ele>113.7</ele>
        <time>2022-09-28T13:58:54.001Z</time>
      </trkpt>
      <trkpt lat="43.31391" lon="6.58684">
        <ele>113.2</ele>
        <time>2022-09-28T13:58:55.002Z</time>
      </trkpt>
      <trkpt lat="43.31392" lon="6.58679">
        <ele>112.6</ele>
        <time>2022-09-28T13:58:56.000Z</time>
      </trkpt>
      <trkpt lat="43.31395" lon="6.58672">
        <ele>111.9</ele>
        <time>2022-09-28T13:58:57.001Z</time>
      </trkpt>
      <trkpt lat="43.31399" lon="6.58665">
        <ele>111.1</ele>
        <time>2022-09-28T13:58:58.001Z</time>
      </trkpt>
      <trkpt lat="43.31404" lon="6.58659">
        <ele>110.2</ele>
        <time>2022-09-28T13:58:59.000Z</time>
      </trkpt>
      <trkpt lat="43.31409" lon="6.58651">
        <ele>109.3</ele>
        <time>2022-09-28T13:59:00.001Z</time>
      </trkpt>
      <trkpt lat="43.31413" lon="6.58644">
        <ele>108.5</ele>
        <time>2022-09-28T13:59:01.000Z</time>
      </trkpt>
      <trkpt lat="43.31417" lon="6.58636">
        <ele>107.8</ele>
        <time>2022-09-28T13:59:02.001Z</time>
      </trkpt>
      <trkpt lat="43.3142" lon="6.58628">
        <ele>107.1</ele>
        <time>2022-09-28T13:59:03.001Z</time>
      </trkpt>
      <trkpt lat="43.31421" lon="6.58619">
        <ele>106.4</ele>
        <time>2022-09-28T13:59:04.001Z</time>
      </trkpt>
      <trkpt lat="43.31422" lon="6.58611">
        <ele>105.7</ele>
        <time>2022-09-28T13:59:05.001Z</time>
      </trkpt>
      <trkpt lat="43.31423" lon="6.58603">
        <ele>104.7</ele>
        <time>2022-09-28T13:59:06.001Z</time>
      </trkpt>
      <trkpt lat="43.31424" lon="6.58596">
        <ele>103.7</ele>
        <time>2022-09-28T13:59:07.001Z</time>
      </trkpt>
      <trkpt lat="43.31426" lon="6.58588">
        <ele>102.6</ele>
        <time>2022-09-28T13:59:08.001Z</time>
      </trkpt>
      <trkpt lat="43.31429" lon="6.5858">
        <ele>101.7</ele>
        <time>2022-09-28T13:59:09.000Z</time>
      </trkpt>
      <trkpt lat="43.31434" lon="6.58573">
        <ele>100.8</ele>
        <time>2022-09-28T13:59:10.001Z</time>
      </trkpt>
      <trkpt lat="43.31438" lon="6.58566">
        <ele>99.8</ele>
        <time>2022-09-28T13:59:11.002Z</time>
      </trkpt>
      <trkpt lat="43.31442" lon="6.5856">
        <ele>98.8</ele>
        <time>2022-09-28T13:59:12.001Z</time>
      </trkpt>
      <trkpt lat="43.31448" lon="6.58556">
        <ele>97.9</ele>
        <time>2022-09-28T13:59:13.001Z</time>
      </trkpt>
      <trkpt lat="43.31454" lon="6.58555">
        <ele>97.8</ele>
        <time>2022-09-28T13:59:14.001Z</time>
      </trkpt>
      <trkpt lat="43.31461" lon="6.58554">
        <ele>97.6</ele>
        <time>2022-09-28T13:59:15.001Z</time>
      </trkpt>
      <trkpt lat="43.31467" lon="6.58555">
        <ele>97.3</ele>
        <time>2022-09-28T13:59:16.000Z</time>
      </trkpt>
      <trkpt lat="43.31472" lon="6.58555">
        <ele>97.1</ele>
        <time>2022-09-28T13:59:17.000Z</time>
      </trkpt>
      <trkpt lat="43.31478" lon="6.58556">
        <ele>96.4</ele>
        <time>2022-09-28T13:59:18.001Z</time>
      </trkpt>
      <trkpt lat="43.31484" lon="6.58557">
        <ele>96</ele>
        <time>2022-09-28T13:59:19.000Z</time>
      </trkpt>
      <trkpt lat="43.31491" lon="6.58559">
        <ele>95.6</ele>
        <time>2022-09-28T13:59:20.000Z</time>
      </trkpt>
      <trkpt lat="43.31497" lon="6.58559">
        <ele>94.9</ele>
        <time>2022-09-28T13:59:21.000Z</time>
      </trkpt>
      <trkpt lat="43.31504" lon="6.58558">
        <ele>94.3</ele>
        <time>2022-09-28T13:59:22.001Z</time>
      </trkpt>
      <trkpt lat="43.3151" lon="6.58558">
        <ele>94</ele>
        <time>2022-09-28T13:59:23.001Z</time>
      </trkpt>
      <trkpt lat="43.31517" lon="6.58558">
        <ele>93.8</ele>
        <time>2022-09-28T13:59:24.001Z</time>
      </trkpt>
      <trkpt lat="43.31523" lon="6.58559">
        <ele>93.8</ele>
        <time>2022-09-28T13:59:25.001Z</time>
      </trkpt>
      <trkpt lat="43.31528" lon="6.5856">
        <ele>93.7</ele>
        <time>2022-09-28T13:59:26.001Z</time>
      </trkpt>
      <trkpt lat="43.31533" lon="6.58557">
        <ele>93.2</ele>
        <time>2022-09-28T13:59:27.000Z</time>
      </trkpt>
      <trkpt lat="43.31537" lon="6.58551">
        <ele>92.6</ele>
        <time>2022-09-28T13:59:28.001Z</time>
      </trkpt>
      <trkpt lat="43.31541" lon="6.58544">
        <ele>91.9</ele>
        <time>2022-09-28T13:59:29.001Z</time>
      </trkpt>
      <trkpt lat="43.31545" lon="6.58535">
        <ele>91.1</ele>
        <time>2022-09-28T13:59:30.000Z</time>
      </trkpt>
      <trkpt lat="43.3155" lon="6.58527">
        <ele>90.1</ele>
        <time>2022-09-28T13:59:31.000Z</time>
      </trkpt>
      <trkpt lat="43.31554" lon="6.58518">
        <ele>88.7</ele>
        <time>2022-09-28T13:59:32.001Z</time>
      </trkpt>
      <trkpt lat="43.31558" lon="6.58509">
        <ele>87.6</ele>
        <time>2022-09-28T13:59:33.001Z</time>
      </trkpt>
      <trkpt lat="43.31563" lon="6.585">
        <ele>86.8</ele>
        <time>2022-09-28T13:59:34.001Z</time>
      </trkpt>
      <trkpt lat="43.31568" lon="6.58491">
        <ele>87.4</ele>
        <time>2022-09-28T13:59:35.000Z</time>
      </trkpt>
      <trkpt lat="43.31574" lon="6.58482">
        <ele>87.4</ele>
        <time>2022-09-28T13:59:36.001Z</time>
      </trkpt>
      <trkpt lat="43.3158" lon="6.58475">
        <ele>86.5</ele>
        <time>2022-09-28T13:59:37.001Z</time>
      </trkpt>
      <trkpt lat="43.31587" lon="6.58468">
        <ele>86.3</ele>
        <time>2022-09-28T13:59:38.000Z</time>
      </trkpt>
      <trkpt lat="43.31594" lon="6.58461">
        <ele>86.6</ele>
        <time>2022-09-28T13:59:39.000Z</time>
      </trkpt>
      <trkpt lat="43.31602" lon="6.58456">
        <ele>86.5</ele>
        <time>2022-09-28T13:59:40.001Z</time>
      </trkpt>
      <trkpt lat="43.31609" lon="6.58451">
        <ele>86</ele>
        <time>2022-09-28T13:59:41.001Z</time>
      </trkpt>
      <trkpt lat="43.31616" lon="6.58446">
        <ele>85.9</ele>
        <time>2022-09-28T13:59:42.000Z</time>
      </trkpt>
      <trkpt lat="43.31623" lon="6.5844">
        <ele>86.3</ele>
        <time>2022-09-28T13:59:43.003Z</time>
      </trkpt>
      <trkpt lat="43.3163" lon="6.58434">
        <ele>86.3</ele>
        <time>2022-09-28T13:59:44.001Z</time>
      </trkpt>
      <trkpt lat="43.31635" lon="6.58428">
        <ele>85.8</ele>
        <time>2022-09-28T13:59:45.001Z</time>
      </trkpt>
      <trkpt lat="43.31642" lon="6.58422">
        <ele>85.1</ele>
        <time>2022-09-28T13:59:46.000Z</time>
      </trkpt>
      <trkpt lat="43.31648" lon="6.58416">
        <ele>84.6</ele>
        <time>2022-09-28T13:59:47.000Z</time>
      </trkpt>
      <trkpt lat="43.31655" lon="6.58412">
        <ele>84.3</ele>
        <time>2022-09-28T13:59:48.001Z</time>
      </trkpt>
      <trkpt lat="43.31662" lon="6.58407">
        <ele>83.8</ele>
        <time>2022-09-28T13:59:49.001Z</time>
      </trkpt>
      <trkpt lat="43.31669" lon="6.58402">
        <ele>82.9</ele>
        <time>2022-09-28T13:59:50.000Z</time>
      </trkpt>
      <trkpt lat="43.31676" lon="6.584">
        <ele>82.1</ele>
        <time>2022-09-28T13:59:51.001Z</time>
      </trkpt>
      <trkpt lat="43.31684" lon="6.58398">
        <ele>81.7</ele>
        <time>2022-09-28T13:59:52.001Z</time>
      </trkpt>
      <trkpt lat="43.31692" lon="6.58398">
        <ele>81.4</ele>
        <time>2022-09-28T13:59:53.000Z</time>
      </trkpt>
      <trkpt lat="43.317" lon="6.58398">
        <ele>81.1</ele>
        <time>2022-09-28T13:59:54.001Z</time>
      </trkpt>
      <trkpt lat="43.31709" lon="6.58397">
        <ele>80.5</ele>
        <time>2022-09-28T13:59:55.001Z</time>
      </trkpt>
      <trkpt lat="43.31717" lon="6.58395">
        <ele>79.6</ele>
        <time>2022-09-28T13:59:56.001Z</time>
      </trkpt>
      <trkpt lat="43.31724" lon="6.58391">
        <ele>78.6</ele>
        <time>2022-09-28T13:59:57.001Z</time>
      </trkpt>
      <trkpt lat="43.31732" lon="6.58388">
        <ele>77.9</ele>
        <time>2022-09-28T13:59:58.001Z</time>
      </trkpt>
      <trkpt lat="43.31739" lon="6.58384">
        <ele>77.6</ele>
        <time>2022-09-28T13:59:59.002Z</time>
      </trkpt>
      <trkpt lat="43.31747" lon="6.5838">
        <ele>77.1</ele>
        <time>2022-09-28T14:00:00.001Z</time>
      </trkpt>
      <trkpt lat="43.31755" lon="6.58376">
        <ele>76.4</ele>
        <time>2022-09-28T14:00:01.000Z</time>
      </trkpt>
      <trkpt lat="43.31762" lon="6.58372">
        <ele>75.7</ele>
        <time>2022-09-28T14:00:02.001Z</time>
      </trkpt>
      <trkpt lat="43.31769" lon="6.58367">
        <ele>75</ele>
        <time>2022-09-28T14:00:03.001Z</time>
      </trkpt>
      <trkpt lat="43.31774" lon="6.58364">
        <ele>74.4</ele>
        <time>2022-09-28T14:00:04.001Z</time>
      </trkpt>
      <trkpt lat="43.31779" lon="6.5836">
        <ele>74.1</ele>
        <time>2022-09-28T14:00:05.000Z</time>
      </trkpt>
      <trkpt lat="43.31783" lon="6.58357">
        <ele>74.2</ele>
        <time>2022-09-28T14:00:06.001Z</time>
      </trkpt>
      <trkpt lat="43.31785" lon="6.58355">
        <ele>74.2</ele>
        <time>2022-09-28T14:00:07.001Z</time>
      </trkpt>
      <trkpt lat="43.31786" lon="6.58353">
        <ele>74.2</ele>
        <time>2022-09-28T14:00:08.002Z</time>
      </trkpt>
      <trkpt lat="43.31787" lon="6.58352">
        <ele>74.1</ele>
        <time>2022-09-28T14:00:09.000Z</time>
      </trkpt>
      <trkpt lat="43.31788" lon="6.58353">
        <ele>74.2</ele>
        <time>2022-09-28T14:00:22.000Z</time>
      </trkpt>
      <trkpt lat="43.31789" lon="6.58352">
        <ele>74.2</ele>
        <time>2022-09-28T14:01:15.002Z</time>
      </trkpt>
      <trkpt lat="43.3179" lon="6.58352">
        <ele>74.1</ele>
        <time>2022-09-28T14:01:16.000Z</time>
      </trkpt>
      <trkpt lat="43.31793" lon="6.5835">
        <ele>74</ele>
        <time>2022-09-28T14:01:17.001Z</time>
      </trkpt>
      <trkpt lat="43.31794" lon="6.58349">
        <ele>73.9</ele>
        <time>2022-09-28T14:01:18.000Z</time>
      </trkpt>
      <trkpt lat="43.31798" lon="6.58347">
        <ele>73.6</ele>
        <time>2022-09-28T14:01:19.001Z</time>
      </trkpt>
      <trkpt lat="43.31803" lon="6.58343">
        <ele>72.8</ele>
        <time>2022-09-28T14:01:21.000Z</time>
      </trkpt>
      <trkpt lat="43.3181" lon="6.58337">
        <ele>71.5</ele>
        <time>2022-09-28T14:01:22.001Z</time>
      </trkpt>
      <trkpt lat="43.31815" lon="6.58335">
        <ele>71</ele>
        <time>2022-09-28T14:01:23.000Z</time>
      </trkpt>
      <trkpt lat="43.31821" lon="6.58334">
        <ele>70.6</ele>
        <time>2022-09-28T14:01:24.000Z</time>
      </trkpt>
      <trkpt lat="43.31826" lon="6.58334">
        <ele>70.4</ele>
        <time>2022-09-28T14:01:25.000Z</time>
      </trkpt>
      <trkpt lat="43.31832" lon="6.58332">
        <ele>70.1</ele>
        <time>2022-09-28T14:01:26.000Z</time>
      </trkpt>
      <trkpt lat="43.31836" lon="6.58326">
        <ele>70</ele>
        <time>2022-09-28T14:01:27.000Z</time>
      </trkpt>
      <trkpt lat="43.3184" lon="6.5832">
        <ele>69.9</ele>
        <time>2022-09-28T14:01:28.001Z</time>
      </trkpt>
      <trkpt lat="43.31843" lon="6.58314">
        <ele>69.6</ele>
        <time>2022-09-28T14:01:29.001Z</time>
      </trkpt>
      <trkpt lat="43.31847" lon="6.58308">
        <ele>69.1</ele>
        <time>2022-09-28T14:01:30.000Z</time>
      </trkpt>
      <trkpt lat="43.31852" lon="6.58303">
        <ele>69</ele>
        <time>2022-09-28T14:01:31.000Z</time>
      </trkpt>
      <trkpt lat="43.31856" lon="6.58299">
        <ele>69.2</ele>
        <time>2022-09-28T14:01:32.000Z</time>
      </trkpt>
      <trkpt lat="43.31861" lon="6.58296">
        <ele>69.3</ele>
        <time>2022-09-28T14:01:33.000Z</time>
      </trkpt>
      <trkpt lat="43.31865" lon="6.58294">
        <ele>69.2</ele>
        <time>2022-09-28T14:01:34.001Z</time>
      </trkpt>
      <trkpt lat="43.3187" lon="6.58292">
        <ele>68.9</ele>
        <time>2022-09-28T14:01:35.001Z</time>
      </trkpt>
      <trkpt lat="43.31876" lon="6.58288">
        <ele>68.3</ele>
        <time>2022-09-28T14:01:36.000Z</time>
      </trkpt>
      <trkpt lat="43.31881" lon="6.58284">
        <ele>67.6</ele>
        <time>2022-09-28T14:01:37.000Z</time>
      </trkpt>
      <trkpt lat="43.31886" lon="6.58278">
        <ele>66.6</ele>
        <time>2022-09-28T14:01:38.002Z</time>
      </trkpt>
      <trkpt lat="43.31891" lon="6.58273">
        <ele>66.1</ele>
        <time>2022-09-28T14:01:39.001Z</time>
      </trkpt>
      <trkpt lat="43.31896" lon="6.58267">
        <ele>65.8</ele>
        <time>2022-09-28T14:01:40.000Z</time>
      </trkpt>
      <trkpt lat="43.31901" lon="6.5826">
        <ele>65.4</ele>
        <time>2022-09-28T14:01:41.000Z</time>
      </trkpt>
      <trkpt lat="43.31905" lon="6.58253">
        <ele>64.7</ele>
        <time>2022-09-28T14:01:42.000Z</time>
      </trkpt>
      <trkpt lat="43.31909" lon="6.58245">
        <ele>64.5</ele>
        <time>2022-09-28T14:01:43.000Z</time>
      </trkpt>
      <trkpt lat="43.31913" lon="6.58237">
        <ele>64.6</ele>
        <time>2022-09-28T14:01:44.003Z</time>
      </trkpt>
      <trkpt lat="43.31916" lon="6.58229">
        <ele>64.6</ele>
        <time>2022-09-28T14:01:45.001Z</time>
      </trkpt>
      <trkpt lat="43.3192" lon="6.58222">
        <ele>64.6</ele>
        <time>2022-09-28T14:01:46.000Z</time>
      </trkpt>
      <trkpt lat="43.31926" lon="6.58218">
        <ele>64.9</ele>
        <time>2022-09-28T14:01:47.001Z</time>
      </trkpt>
      <trkpt lat="43.31932" lon="6.58215">
        <ele>64.7</ele>
        <time>2022-09-28T14:01:48.001Z</time>
      </trkpt>
      <trkpt lat="43.31937" lon="6.58214">
        <ele>64.3</ele>
        <time>2022-09-28T14:01:49.002Z</time>
      </trkpt>
      <trkpt lat="43.31943" lon="6.58213">
        <ele>63.8</ele>
        <time>2022-09-28T14:01:50.002Z</time>
      </trkpt>
      <trkpt lat="43.3195" lon="6.58213">
        <ele>63.6</ele>
        <time>2022-09-28T14:01:51.001Z</time>
      </trkpt>
      <trkpt lat="43.31957" lon="6.58214">
        <ele>63.5</ele>
        <time>2022-09-28T14:01:52.002Z</time>
      </trkpt>
      <trkpt lat="43.31963" lon="6.58215">
        <ele>63.2</ele>
        <time>2022-09-28T14:01:53.008Z</time>
      </trkpt>
      <trkpt lat="43.31969" lon="6.58217">
        <ele>63</ele>
        <time>2022-09-28T14:01:54.000Z</time>
      </trkpt>
      <trkpt lat="43.31975" lon="6.58219">
        <ele>62.8</ele>
        <time>2022-09-28T14:01:55.001Z</time>
      </trkpt>
      <trkpt lat="43.31981" lon="6.58221">
        <ele>62.8</ele>
        <time>2022-09-28T14:01:56.000Z</time>
      </trkpt>
      <trkpt lat="43.31986" lon="6.58224">
        <ele>62.8</ele>
        <time>2022-09-28T14:01:57.001Z</time>
      </trkpt>
      <trkpt lat="43.31991" lon="6.58226">
        <ele>62.9</ele>
        <time>2022-09-28T14:01:58.000Z</time>
      </trkpt>
      <trkpt lat="43.31996" lon="6.58228">
        <ele>63</ele>
        <time>2022-09-28T14:01:59.002Z</time>
      </trkpt>
      <trkpt lat="43.32001" lon="6.58229">
        <ele>63.2</ele>
        <time>2022-09-28T14:02:00.001Z</time>
      </trkpt>
      <trkpt lat="43.32006" lon="6.58229">
        <ele>63.3</ele>
        <time>2022-09-28T14:02:01.001Z</time>
      </trkpt>
      <trkpt lat="43.32011" lon="6.58228">
        <ele>63.4</ele>
        <time>2022-09-28T14:02:02.005Z</time>
      </trkpt>
      <trkpt lat="43.32016" lon="6.58226">
        <ele>63.6</ele>
        <time>2022-09-28T14:02:03.000Z</time>
      </trkpt>
      <trkpt lat="43.32021" lon="6.58225">
        <ele>63.7</ele>
        <time>2022-09-28T14:02:04.001Z</time>
      </trkpt>
      <trkpt lat="43.32026" lon="6.58224">
        <ele>63.8</ele>
        <time>2022-09-28T14:02:05.001Z</time>
      </trkpt>
      <trkpt lat="43.32031" lon="6.58224">
        <ele>63.8</ele>
        <time>2022-09-28T14:02:06.001Z</time>
      </trkpt>
      <trkpt lat="43.32036" lon="6.58226">
        <ele>63.7</ele>
        <time>2022-09-28T14:02:07.000Z</time>
      </trkpt>
      <trkpt lat="43.3204" lon="6.58232">
        <ele>63.4</ele>
        <time>2022-09-28T14:02:08.000Z</time>
      </trkpt>
      <trkpt lat="43.32043" lon="6.58239">
        <ele>63.2</ele>
        <time>2022-09-28T14:02:09.000Z</time>
      </trkpt>
      <trkpt lat="43.32044" lon="6.58246">
        <ele>62.9</ele>
        <time>2022-09-28T14:02:10.001Z</time>
      </trkpt>
      <trkpt lat="43.32043" lon="6.58253">
        <ele>62.5</ele>
        <time>2022-09-28T14:02:11.001Z</time>
      </trkpt>
      <trkpt lat="43.32041" lon="6.5826">
        <ele>62.1</ele>
        <time>2022-09-28T14:02:12.004Z</time>
      </trkpt>
      <trkpt lat="43.32039" lon="6.58268">
        <ele>61.6</ele>
        <time>2022-09-28T14:02:13.001Z</time>
      </trkpt>
      <trkpt lat="43.32037" lon="6.58275">
        <ele>61</ele>
        <time>2022-09-28T14:02:14.001Z</time>
      </trkpt>
      <trkpt lat="43.32034" lon="6.58283">
        <ele>60.5</ele>
        <time>2022-09-28T14:02:15.001Z</time>
      </trkpt>
      <trkpt lat="43.32032" lon="6.58291">
        <ele>60</ele>
        <time>2022-09-28T14:02:16.000Z</time>
      </trkpt>
      <trkpt lat="43.32031" lon="6.583">
        <ele>59.6</ele>
        <time>2022-09-28T14:02:17.000Z</time>
      </trkpt>
      <trkpt lat="43.32031" lon="6.58307">
        <ele>59.3</ele>
        <time>2022-09-28T14:02:18.001Z</time>
      </trkpt>
      <trkpt lat="43.32032" lon="6.58314">
        <ele>58.8</ele>
        <time>2022-09-28T14:02:19.001Z</time>
      </trkpt>
      <trkpt lat="43.32033" lon="6.5832">
        <ele>58.4</ele>
        <time>2022-09-28T14:02:20.001Z</time>
      </trkpt>
      <trkpt lat="43.32035" lon="6.58327">
        <ele>58</ele>
        <time>2022-09-28T14:02:21.000Z</time>
      </trkpt>
      <trkpt lat="43.32036" lon="6.58334">
        <ele>57.5</ele>
        <time>2022-09-28T14:02:22.001Z</time>
      </trkpt>
      <trkpt lat="43.32037" lon="6.5834">
        <ele>56.7</ele>
        <time>2022-09-28T14:02:23.002Z</time>
      </trkpt>
      <trkpt lat="43.32038" lon="6.58347">
        <ele>55.7</ele>
        <time>2022-09-28T14:02:24.000Z</time>
      </trkpt>
      <trkpt lat="43.32038" lon="6.58353">
        <ele>54.9</ele>
        <time>2022-09-28T14:02:25.001Z</time>
      </trkpt>
      <trkpt lat="43.32039" lon="6.58357">
        <ele>54.4</ele>
        <time>2022-09-28T14:02:26.000Z</time>
      </trkpt>
      <trkpt lat="43.32042" lon="6.58366">
        <ele>53.5</ele>
        <time>2022-09-28T14:02:27.000Z</time>
      </trkpt>
      <trkpt lat="43.32045" lon="6.58374">
        <ele>52.7</ele>
        <time>2022-09-28T14:02:28.001Z</time>
      </trkpt>
      <trkpt lat="43.32048" lon="6.58381">
        <ele>52</ele>
        <time>2022-09-28T14:02:29.001Z</time>
      </trkpt>
      <trkpt lat="43.32051" lon="6.58387">
        <ele>51.3</ele>
        <time>2022-09-28T14:02:30.001Z</time>
      </trkpt>
      <trkpt lat="43.32054" lon="6.58392">
        <ele>50.7</ele>
        <time>2022-09-28T14:02:31.001Z</time>
      </trkpt>
      <trkpt lat="43.32057" lon="6.58397">
        <ele>50.2</ele>
        <time>2022-09-28T14:02:32.001Z</time>
      </trkpt>
      <trkpt lat="43.3206" lon="6.58402">
        <ele>50</ele>
        <time>2022-09-28T14:02:33.001Z</time>
      </trkpt>
      <trkpt lat="43.32065" lon="6.58406">
        <ele>49.8</ele>
        <time>2022-09-28T14:02:34.001Z</time>
      </trkpt>
      <trkpt lat="43.32071" lon="6.5841">
        <ele>49.5</ele>
        <time>2022-09-28T14:02:35.001Z</time>
      </trkpt>
      <trkpt lat="43.32076" lon="6.58414">
        <ele>49.2</ele>
        <time>2022-09-28T14:02:36.000Z</time>
      </trkpt>
      <trkpt lat="43.32081" lon="6.58417">
        <ele>48.9</ele>
        <time>2022-09-28T14:02:37.000Z</time>
      </trkpt>
      <trkpt lat="43.32087" lon="6.5842">
        <ele>49.5</ele>
        <time>2022-09-28T14:02:38.001Z</time>
      </trkpt>
      <trkpt lat="43.32092" lon="6.58425">
        <ele>50.1</ele>
        <time>2022-09-28T14:02:39.001Z</time>
      </trkpt>
      <trkpt lat="43.32097" lon="6.58431">
        <ele>50.2</ele>
        <time>2022-09-28T14:02:40.001Z</time>
      </trkpt>
      <trkpt lat="43.32101" lon="6.58437">
        <ele>49.8</ele>
        <time>2022-09-28T14:02:41.004Z</time>
      </trkpt>
      <trkpt lat="43.32105" lon="6.58443">
        <ele>49.3</ele>
        <time>2022-09-28T14:02:42.000Z</time>
      </trkpt>
      <trkpt lat="43.32108" lon="6.58448">
        <ele>48.7</ele>
        <time>2022-09-28T14:02:43.001Z</time>
      </trkpt>
      <trkpt lat="43.3211" lon="6.58455">
        <ele>47.9</ele>
        <time>2022-09-28T14:02:44.002Z</time>
      </trkpt>
      <trkpt lat="43.32113" lon="6.58462">
        <ele>47.4</ele>
        <time>2022-09-28T14:02:45.001Z</time>
      </trkpt>
      <trkpt lat="43.32115" lon="6.58469">
        <ele>46.9</ele>
        <time>2022-09-28T14:02:46.001Z</time>
      </trkpt>
      <trkpt lat="43.32117" lon="6.58477">
        <ele>46.7</ele>
        <time>2022-09-28T14:02:47.001Z</time>
      </trkpt>
      <trkpt lat="43.3212" lon="6.58485">
        <ele>46.8</ele>
        <time>2022-09-28T14:02:48.000Z</time>
      </trkpt>
      <trkpt lat="43.32123" lon="6.58492">
        <ele>46.8</ele>
        <time>2022-09-28T14:02:49.001Z</time>
      </trkpt>
      <trkpt lat="43.32126" lon="6.58499">
        <ele>46.6</ele>
        <time>2022-09-28T14:02:50.001Z</time>
      </trkpt>
      <trkpt lat="43.32128" lon="6.58505">
        <ele>46.3</ele>
        <time>2022-09-28T14:02:51.000Z</time>
      </trkpt>
      <trkpt lat="43.32131" lon="6.58513">
        <ele>45.7</ele>
        <time>2022-09-28T14:02:52.001Z</time>
      </trkpt>
      <trkpt lat="43.32135" lon="6.5852">
        <ele>45</ele>
        <time>2022-09-28T14:02:53.001Z</time>
      </trkpt>
      <trkpt lat="43.32139" lon="6.58527">
        <ele>44.1</ele>
        <time>2022-09-28T14:02:54.002Z</time>
      </trkpt>
      <trkpt lat="43.32143" lon="6.58533">
        <ele>44.3</ele>
        <time>2022-09-28T14:02:55.002Z</time>
      </trkpt>
      <trkpt lat="43.32146" lon="6.58538">
        <ele>44.4</ele>
        <time>2022-09-28T14:02:56.000Z</time>
      </trkpt>
      <trkpt lat="43.3215" lon="6.58543">
        <ele>44.3</ele>
        <time>2022-09-28T14:02:57.000Z</time>
      </trkpt>
      <trkpt lat="43.32155" lon="6.58548">
        <ele>44.1</ele>
        <time>2022-09-28T14:02:58.000Z</time>
      </trkpt>
      <trkpt lat="43.32159" lon="6.58552">
        <ele>43.6</ele>
        <time>2022-09-28T14:02:59.001Z</time>
      </trkpt>
      <trkpt lat="43.32162" lon="6.58557">
        <ele>43.1</ele>
        <time>2022-09-28T14:03:00.000Z</time>
      </trkpt>
      <trkpt lat="43.32165" lon="6.58563">
        <ele>42.8</ele>
        <time>2022-09-28T14:03:01.000Z</time>
      </trkpt>
      <trkpt lat="43.32169" lon="6.58568">
        <ele>42.9</ele>
        <time>2022-09-28T14:03:02.001Z</time>
      </trkpt>
      <trkpt lat="43.32173" lon="6.58573">
        <ele>43.1</ele>
        <time>2022-09-28T14:03:03.001Z</time>
      </trkpt>
      <trkpt lat="43.32178" lon="6.58578">
        <ele>43.2</ele>
        <time>2022-09-28T14:03:04.001Z</time>
      </trkpt>
      <trkpt lat="43.32183" lon="6.58583">
        <ele>43.2</ele>
        <time>2022-09-28T14:03:05.001Z</time>
      </trkpt>
      <trkpt lat="43.32187" lon="6.58587">
        <ele>43.1</ele>
        <time>2022-09-28T14:03:06.001Z</time>
      </trkpt>
      <trkpt lat="43.32191" lon="6.5859">
        <ele>42.8</ele>
        <time>2022-09-28T14:03:07.000Z</time>
      </trkpt>
      <trkpt lat="43.32195" lon="6.58591">
        <ele>42.6</ele>
        <time>2022-09-28T14:03:08.004Z</time>
      </trkpt>
      <trkpt lat="43.32197" lon="6.58592">
        <ele>42.6</ele>
        <time>2022-09-28T14:03:09.000Z</time>
      </trkpt>
      <trkpt lat="43.322" lon="6.58593">
        <ele>42.7</ele>
        <time>2022-09-28T14:03:10.000Z</time>
      </trkpt>
      <trkpt lat="43.32202" lon="6.58593">
        <ele>42.8</ele>
        <time>2022-09-28T14:03:11.001Z</time>
      </trkpt>
      <trkpt lat="43.32203" lon="6.58593">
        <ele>42.9</ele>
        <time>2022-09-28T14:03:12.000Z</time>
      </trkpt>
      <trkpt lat="43.32204" lon="6.58592">
        <ele>43.1</ele>
        <time>2022-09-28T14:03:15.000Z</time>
      </trkpt>
      <trkpt lat="43.32204" lon="6.58591">
        <ele>43.4</ele>
        <time>2022-09-28T14:03:32.001Z</time>
      </trkpt>
      <trkpt lat="43.32206" lon="6.58591">
        <ele>43.4</ele>
        <time>2022-09-28T14:03:35.001Z</time>
      </trkpt>
      <trkpt lat="43.32207" lon="6.58591">
        <ele>43.5</ele>
        <time>2022-09-28T14:03:36.002Z</time>
      </trkpt>
      <trkpt lat="43.32211" lon="6.58591">
        <ele>43.8</ele>
        <time>2022-09-28T14:03:38.001Z</time>
      </trkpt>
      <trkpt lat="43.32215" lon="6.58592">
        <ele>43.9</ele>
        <time>2022-09-28T14:03:39.002Z</time>
      </trkpt>
      <trkpt lat="43.32219" lon="6.58592">
        <ele>44.3</ele>
        <time>2022-09-28T14:03:40.000Z</time>
      </trkpt>
      <trkpt lat="43.32224" lon="6.58592">
        <ele>44.5</ele>
        <time>2022-09-28T14:03:41.000Z</time>
      </trkpt>
      <trkpt lat="43.32229" lon="6.58594">
        <ele>44.4</ele>
        <time>2022-09-28T14:03:42.001Z</time>
      </trkpt>
      <trkpt lat="43.32233" lon="6.58598">
        <ele>43.7</ele>
        <time>2022-09-28T14:03:43.003Z</time>
      </trkpt>
      <trkpt lat="43.32237" lon="6.58605">
        <ele>42.7</ele>
        <time>2022-09-28T14:03:44.000Z</time>
      </trkpt>
      <trkpt lat="43.3224" lon="6.58612">
        <ele>41.5</ele>
        <time>2022-09-28T14:03:45.000Z</time>
      </trkpt>
      <trkpt lat="43.32243" lon="6.5862">
        <ele>40.8</ele>
        <time>2022-09-28T14:03:46.000Z</time>
      </trkpt>
      <trkpt lat="43.32246" lon="6.58626">
        <ele>39.9</ele>
        <time>2022-09-28T14:03:47.000Z</time>
      </trkpt>
      <trkpt lat="43.32249" lon="6.58633">
        <ele>38.9</ele>
        <time>2022-09-28T14:03:48.001Z</time>
      </trkpt>
      <trkpt lat="43.32252" lon="6.58641">
        <ele>38</ele>
        <time>2022-09-28T14:03:49.001Z</time>
      </trkpt>
      <trkpt lat="43.32255" lon="6.58649">
        <ele>37.5</ele>
        <time>2022-09-28T14:03:50.001Z</time>
      </trkpt>
      <trkpt lat="43.32258" lon="6.58657">
        <ele>36.9</ele>
        <time>2022-09-28T14:03:51.001Z</time>
      </trkpt>
      <trkpt lat="43.32263" lon="6.58665">
        <ele>36.1</ele>
        <time>2022-09-28T14:03:52.000Z</time>
      </trkpt>
      <trkpt lat="43.32267" lon="6.58673">
        <ele>35.8</ele>
        <time>2022-09-28T14:03:53.001Z</time>
      </trkpt>
      <trkpt lat="43.32273" lon="6.58681">
        <ele>35.5</ele>
        <time>2022-09-28T14:03:54.003Z</time>
      </trkpt>
      <trkpt lat="43.32279" lon="6.58689">
        <ele>35.3</ele>
        <time>2022-09-28T14:03:55.001Z</time>
      </trkpt>
      <trkpt lat="43.32285" lon="6.58696">
        <ele>35.4</ele>
        <time>2022-09-28T14:03:56.000Z</time>
      </trkpt>
      <trkpt lat="43.3229" lon="6.58704">
        <ele>35.4</ele>
        <time>2022-09-28T14:03:57.000Z</time>
      </trkpt>
      <trkpt lat="43.32295" lon="6.58712">
        <ele>35.2</ele>
        <time>2022-09-28T14:03:58.000Z</time>
      </trkpt>
      <trkpt lat="43.32299" lon="6.58719">
        <ele>35</ele>
        <time>2022-09-28T14:03:59.003Z</time>
      </trkpt>
      <trkpt lat="43.32304" lon="6.58725">
        <ele>34.8</ele>
        <time>2022-09-28T14:04:00.001Z</time>
      </trkpt>
      <trkpt lat="43.32309" lon="6.5873">
        <ele>34.9</ele>
        <time>2022-09-28T14:04:01.001Z</time>
      </trkpt>
      <trkpt lat="43.32314" lon="6.58735">
        <ele>34.9</ele>
        <time>2022-09-28T14:04:02.000Z</time>
      </trkpt>
      <trkpt lat="43.3232" lon="6.5874">
        <ele>34.7</ele>
        <time>2022-09-28T14:04:03.002Z</time>
      </trkpt>
      <trkpt lat="43.32325" lon="6.58745">
        <ele>34.4</ele>
        <time>2022-09-28T14:04:04.001Z</time>
      </trkpt>
      <trkpt lat="43.32331" lon="6.5875">
        <ele>34</ele>
        <time>2022-09-28T14:04:05.000Z</time>
      </trkpt>
      <trkpt lat="43.32337" lon="6.58754">
        <ele>34</ele>
        <time>2022-09-28T14:04:06.001Z</time>
      </trkpt>
      <trkpt lat="43.32343" lon="6.58758">
        <ele>34</ele>
        <time>2022-09-28T14:04:07.001Z</time>
      </trkpt>
      <trkpt lat="43.32348" lon="6.58762">
        <ele>34</ele>
        <time>2022-09-28T14:04:08.001Z</time>
      </trkpt>
      <trkpt lat="43.32353" lon="6.58767">
        <ele>33.7</ele>
        <time>2022-09-28T14:04:09.001Z</time>
      </trkpt>
      <trkpt lat="43.32357" lon="6.58772">
        <ele>33.4</ele>
        <time>2022-09-28T14:04:10.003Z</time>
      </trkpt>
      <trkpt lat="43.32361" lon="6.58777">
        <ele>33.1</ele>
        <time>2022-09-28T14:04:11.001Z</time>
      </trkpt>
      <trkpt lat="43.32365" lon="6.58782">
        <ele>32.7</ele>
        <time>2022-09-28T14:04:12.000Z</time>
      </trkpt>
      <trkpt lat="43.32371" lon="6.58786">
        <ele>32.6</ele>
        <time>2022-09-28T14:04:13.001Z</time>
      </trkpt>
      <trkpt lat="43.32376" lon="6.58789">
        <ele>32.6</ele>
        <time>2022-09-28T14:04:14.042Z</time>
      </trkpt>
      <trkpt lat="43.32382" lon="6.58791">
        <ele>32.7</ele>
        <time>2022-09-28T14:04:15.000Z</time>
      </trkpt>
      <trkpt lat="43.32388" lon="6.58793">
        <ele>32.8</ele>
        <time>2022-09-28T14:04:16.000Z</time>
      </trkpt>
      <trkpt lat="43.32394" lon="6.58796">
        <ele>32.8</ele>
        <time>2022-09-28T14:04:17.001Z</time>
      </trkpt>
      <trkpt lat="43.324" lon="6.58798">
        <ele>32.7</ele>
        <time>2022-09-28T14:04:18.001Z</time>
      </trkpt>
      <trkpt lat="43.32406" lon="6.588">
        <ele>32.6</ele>
        <time>2022-09-28T14:04:19.001Z</time>
      </trkpt>
      <trkpt lat="43.32412" lon="6.58802">
        <ele>32.5</ele>
        <time>2022-09-28T14:04:20.000Z</time>
      </trkpt>
      <trkpt lat="43.32418" lon="6.58803">
        <ele>32.2</ele>
        <time>2022-09-28T14:04:21.000Z</time>
      </trkpt>
      <trkpt lat="43.32425" lon="6.58805">
        <ele>31.5</ele>
        <time>2022-09-28T14:04:22.000Z</time>
      </trkpt>
      <trkpt lat="43.32431" lon="6.58807">
        <ele>30.8</ele>
        <time>2022-09-28T14:04:23.000Z</time>
      </trkpt>
      <trkpt lat="43.32438" lon="6.58808">
        <ele>30</ele>
        <time>2022-09-28T14:04:24.000Z</time>
      </trkpt>
      <trkpt lat="43.32444" lon="6.58811">
        <ele>29.2</ele>
        <time>2022-09-28T14:04:25.000Z</time>
      </trkpt>
      <trkpt lat="43.32452" lon="6.58814">
        <ele>28.9</ele>
        <time>2022-09-28T14:04:26.000Z</time>
      </trkpt>
      <trkpt lat="43.3246" lon="6.58817">
        <ele>28.7</ele>
        <time>2022-09-28T14:04:27.000Z</time>
      </trkpt>
      <trkpt lat="43.32468" lon="6.58821">
        <ele>28.2</ele>
        <time>2022-09-28T14:04:28.000Z</time>
      </trkpt>
      <trkpt lat="43.32476" lon="6.58824">
        <ele>27.9</ele>
        <time>2022-09-28T14:04:29.000Z</time>
      </trkpt>
      <trkpt lat="43.32482" lon="6.58826">
        <ele>27.8</ele>
        <time>2022-09-28T14:04:30.000Z</time>
      </trkpt>
      <trkpt lat="43.32487" lon="6.58829">
        <ele>27.5</ele>
        <time>2022-09-28T14:04:31.000Z</time>
      </trkpt>
      <trkpt lat="43.32493" lon="6.58833">
        <ele>26.8</ele>
        <time>2022-09-28T14:04:32.001Z</time>
      </trkpt>
      <trkpt lat="43.32501" lon="6.5884">
        <ele>26.5</ele>
        <time>2022-09-28T14:04:33.000Z</time>
      </trkpt>
      <trkpt lat="43.32508" lon="6.58846">
        <ele>25.7</ele>
        <time>2022-09-28T14:04:34.001Z</time>
      </trkpt>
      <trkpt lat="43.32515" lon="6.58851">
        <ele>24.9</ele>
        <time>2022-09-28T14:04:35.000Z</time>
      </trkpt>
      <trkpt lat="43.32522" lon="6.58855">
        <ele>24</ele>
        <time>2022-09-28T14:04:36.001Z</time>
      </trkpt>
      <trkpt lat="43.3253" lon="6.58858">
        <ele>23.4</ele>
        <time>2022-09-28T14:04:37.004Z</time>
      </trkpt>
      <trkpt lat="43.32538" lon="6.58861">
        <ele>23</ele>
        <time>2022-09-28T14:04:38.001Z</time>
      </trkpt>
      <trkpt lat="43.32545" lon="6.58864">
        <ele>23</ele>
        <time>2022-09-28T14:04:39.000Z</time>
      </trkpt>
      <trkpt lat="43.32552" lon="6.58868">
        <ele>22.7</ele>
        <time>2022-09-28T14:04:40.000Z</time>
      </trkpt>
      <trkpt lat="43.3256" lon="6.58871">
        <ele>22.4</ele>
        <time>2022-09-28T14:04:41.001Z</time>
      </trkpt>
      <trkpt lat="43.32568" lon="6.58873">
        <ele>22.2</ele>
        <time>2022-09-28T14:04:42.001Z</time>
      </trkpt>
      <trkpt lat="43.32577" lon="6.58874">
        <ele>22.1</ele>
        <time>2022-09-28T14:04:43.001Z</time>
      </trkpt>
      <trkpt lat="43.32585" lon="6.58877">
        <ele>21.9</ele>
        <time>2022-09-28T14:04:44.002Z</time>
      </trkpt>
      <trkpt lat="43.32592" lon="6.58882">
        <ele>22.2</ele>
        <time>2022-09-28T14:04:45.000Z</time>
      </trkpt>
      <trkpt lat="43.32599" lon="6.58888">
        <ele>22.5</ele>
        <time>2022-09-28T14:04:46.000Z</time>
      </trkpt>
      <trkpt lat="43.32606" lon="6.58893">
        <ele>23</ele>
        <time>2022-09-28T14:04:47.000Z</time>
      </trkpt>
      <trkpt lat="43.3261" lon="6.58899">
        <ele>22.5</ele>
        <time>2022-09-28T14:04:48.001Z</time>
      </trkpt>
      <trkpt lat="43.3261" lon="6.58905">
        <ele>21.7</ele>
        <time>2022-09-28T14:04:49.001Z</time>
      </trkpt>
      <trkpt lat="43.32611" lon="6.58908">
        <ele>21.2</ele>
        <time>2022-09-28T14:04:50.001Z</time>
      </trkpt>
      <trkpt lat="43.3261" lon="6.58915">
        <ele>20.4</ele>
        <time>2022-09-28T14:04:51.002Z</time>
      </trkpt>
      <trkpt lat="43.32608" lon="6.58919">
        <ele>20.6</ele>
        <time>2022-09-28T14:04:52.001Z</time>
      </trkpt>
      <trkpt lat="43.32605" lon="6.58921">
        <ele>21.2</ele>
        <time>2022-09-28T14:04:53.000Z</time>
      </trkpt>
      <trkpt lat="43.32601" lon="6.58923">
        <ele>21.8</ele>
        <time>2022-09-28T14:04:54.000Z</time>
      </trkpt>
      <trkpt lat="43.32598" lon="6.58926">
        <ele>22.6</ele>
        <time>2022-09-28T14:04:55.001Z</time>
      </trkpt>
      <trkpt lat="43.32597" lon="6.58931">
        <ele>22.8</ele>
        <time>2022-09-28T14:04:56.001Z</time>
      </trkpt>
      <trkpt lat="43.32597" lon="6.58938">
        <ele>22.8</ele>
        <time>2022-09-28T14:04:57.001Z</time>
      </trkpt>
      <trkpt lat="43.32599" lon="6.58937">
        <ele>22.6</ele>
        <time>2022-09-28T14:04:58.001Z</time>
      </trkpt>
      <trkpt lat="43.32602" lon="6.58944">
        <ele>22</ele>
        <time>2022-09-28T14:04:59.001Z</time>
      </trkpt>
      <trkpt lat="43.32603" lon="6.58951">
        <ele>22.7</ele>
        <time>2022-09-28T14:05:00.001Z</time>
      </trkpt>
      <trkpt lat="43.32605" lon="6.58954">
        <ele>22.8</ele>
        <time>2022-09-28T14:05:01.001Z</time>
      </trkpt>
      <trkpt lat="43.32607" lon="6.58957">
        <ele>22.8</ele>
        <time>2022-09-28T14:05:03.002Z</time>
      </trkpt>
      <trkpt lat="43.32608" lon="6.58958">
        <ele>22.7</ele>
        <time>2022-09-28T14:05:05.001Z</time>
      </trkpt>
      <trkpt lat="43.32607" lon="6.58959">
        <ele>23</ele>
        <time>2022-09-28T14:05:20.001Z</time>
      </trkpt>
      <trkpt lat="43.32606" lon="6.58958">
        <ele>23</ele>
        <time>2022-09-28T14:05:23.001Z</time>
      </trkpt>
      <trkpt lat="43.32607" lon="6.58959">
        <ele>23</ele>
        <time>2022-09-28T14:05:30.000Z</time>
      </trkpt>
      <trkpt lat="43.32607" lon="6.58961">
        <ele>23.1</ele>
        <time>2022-09-28T14:05:31.000Z</time>
      </trkpt>
      <trkpt lat="43.32608" lon="6.58963">
        <ele>23.3</ele>
        <time>2022-09-28T14:05:32.001Z</time>
      </trkpt>
      <trkpt lat="43.32609" lon="6.58965">
        <ele>23.3</ele>
        <time>2022-09-28T14:05:34.001Z</time>
      </trkpt>
      <trkpt lat="43.32611" lon="6.58967">
        <ele>23.3</ele>
        <time>2022-09-28T14:05:36.002Z</time>
      </trkpt>
      <trkpt lat="43.32612" lon="6.58968">
        <ele>23.3</ele>
        <time>2022-09-28T14:05:38.000Z</time>
      </trkpt>
      <trkpt lat="43.32612" lon="6.58969">
        <ele>23.3</ele>
        <time>2022-09-28T14:05:39.001Z</time>
      </trkpt>
      <trkpt lat="43.32613" lon="6.58972">
        <ele>23.7</ele>
        <time>2022-09-28T14:05:40.001Z</time>
      </trkpt>
      <trkpt lat="43.32615" lon="6.58976">
        <ele>23.5</ele>
        <time>2022-09-28T14:05:42.001Z</time>
      </trkpt>
      <trkpt lat="43.32618" lon="6.58984">
        <ele>22.9</ele>
        <time>2022-09-28T14:05:43.001Z</time>
      </trkpt>
      <trkpt lat="43.32623" lon="6.58997">
        <ele>21.9</ele>
        <time>2022-09-28T14:05:45.000Z</time>
      </trkpt>
      <trkpt lat="43.32625" lon="6.59003">
        <ele>21.6</ele>
        <time>2022-09-28T14:05:46.001Z</time>
      </trkpt>
      <trkpt lat="43.32628" lon="6.59009">
        <ele>21.3</ele>
        <time>2022-09-28T14:05:47.001Z</time>
      </trkpt>
      <trkpt lat="43.3263" lon="6.59015">
        <ele>21</ele>
        <time>2022-09-28T14:05:48.001Z</time>
      </trkpt>
      <trkpt lat="43.32632" lon="6.5902">
        <ele>20.7</ele>
        <time>2022-09-28T14:05:49.003Z</time>
      </trkpt>
      <trkpt lat="43.32634" lon="6.59026">
        <ele>20.3</ele>
        <time>2022-09-28T14:05:50.001Z</time>
      </trkpt>
      <trkpt lat="43.32636" lon="6.59032">
        <ele>20.3</ele>
        <time>2022-09-28T14:05:51.000Z</time>
      </trkpt>
      <trkpt lat="43.32639" lon="6.59039">
        <ele>20.6</ele>
        <time>2022-09-28T14:05:52.000Z</time>
      </trkpt>
      <trkpt lat="43.32641" lon="6.59045">
        <ele>21.2</ele>
        <time>2022-09-28T14:05:53.000Z</time>
      </trkpt>
      <trkpt lat="43.32645" lon="6.5905">
        <ele>21.6</ele>
        <time>2022-09-28T14:05:54.001Z</time>
      </trkpt>
      <trkpt lat="43.32647" lon="6.59057">
        <ele>21.8</ele>
        <time>2022-09-28T14:05:55.001Z</time>
      </trkpt>
      <trkpt lat="43.32649" lon="6.59064">
        <ele>21.6</ele>
        <time>2022-09-28T14:05:56.001Z</time>
      </trkpt>
      <trkpt lat="43.32648" lon="6.59072">
        <ele>21.6</ele>
        <time>2022-09-28T14:05:57.001Z</time>
      </trkpt>
      <trkpt lat="43.32647" lon="6.59079">
        <ele>21.8</ele>
        <time>2022-09-28T14:05:58.000Z</time>
      </trkpt>
      <trkpt lat="43.32647" lon="6.59086">
        <ele>21.7</ele>
        <time>2022-09-28T14:05:59.000Z</time>
      </trkpt>
      <trkpt lat="43.32646" lon="6.59093">
        <ele>21.4</ele>
        <time>2022-09-28T14:06:00.000Z</time>
      </trkpt>
      <trkpt lat="43.32645" lon="6.59101">
        <ele>21.2</ele>
        <time>2022-09-28T14:06:01.000Z</time>
      </trkpt>
      <trkpt lat="43.32644" lon="6.59109">
        <ele>20.8</ele>
        <time>2022-09-28T14:06:02.000Z</time>
      </trkpt>
      <trkpt lat="43.32643" lon="6.59117">
        <ele>20.4</ele>
        <time>2022-09-28T14:06:03.000Z</time>
      </trkpt>
      <trkpt lat="43.32641" lon="6.59125">
        <ele>19.9</ele>
        <time>2022-09-28T14:06:04.001Z</time>
      </trkpt>
      <trkpt lat="43.3264" lon="6.59133">
        <ele>19.4</ele>
        <time>2022-09-28T14:06:05.001Z</time>
      </trkpt>
      <trkpt lat="43.3264" lon="6.59141">
        <ele>19</ele>
        <time>2022-09-28T14:06:06.001Z</time>
      </trkpt>
      <trkpt lat="43.32639" lon="6.5915">
        <ele>19</ele>
        <time>2022-09-28T14:06:07.001Z</time>
      </trkpt>
      <trkpt lat="43.32639" lon="6.59158">
        <ele>19.1</ele>
        <time>2022-09-28T14:06:08.001Z</time>
      </trkpt>
      <trkpt lat="43.32637" lon="6.59166">
        <ele>19.3</ele>
        <time>2022-09-28T14:06:09.000Z</time>
      </trkpt>
      <trkpt lat="43.32635" lon="6.59174">
        <ele>19.7</ele>
        <time>2022-09-28T14:06:10.001Z</time>
      </trkpt>
      <trkpt lat="43.32633" lon="6.59181">
        <ele>20.2</ele>
        <time>2022-09-28T14:06:11.001Z</time>
      </trkpt>
      <trkpt lat="43.3263" lon="6.59189">
        <ele>20.7</ele>
        <time>2022-09-28T14:06:12.000Z</time>
      </trkpt>
      <trkpt lat="43.32627" lon="6.59196">
        <ele>21</ele>
        <time>2022-09-28T14:06:13.000Z</time>
      </trkpt>
      <trkpt lat="43.32624" lon="6.59204">
        <ele>20.8</ele>
        <time>2022-09-28T14:06:14.038Z</time>
      </trkpt>
      <trkpt lat="43.32621" lon="6.59211">
        <ele>20.5</ele>
        <time>2022-09-28T14:06:15.001Z</time>
      </trkpt>
      <trkpt lat="43.32618" lon="6.59218">
        <ele>20</ele>
        <time>2022-09-28T14:06:16.001Z</time>
      </trkpt>
      <trkpt lat="43.32615" lon="6.59225">
        <ele>19.6</ele>
        <time>2022-09-28T14:06:17.001Z</time>
      </trkpt>
      <trkpt lat="43.32611" lon="6.59231">
        <ele>19.4</ele>
        <time>2022-09-28T14:06:18.003Z</time>
      </trkpt>
      <trkpt lat="43.32607" lon="6.59236">
        <ele>19.5</ele>
        <time>2022-09-28T14:06:19.000Z</time>
      </trkpt>
      <trkpt lat="43.32602" lon="6.5924">
        <ele>19.6</ele>
        <time>2022-09-28T14:06:20.001Z</time>
      </trkpt>
      <trkpt lat="43.32598" lon="6.59245">
        <ele>19.4</ele>
        <time>2022-09-28T14:06:21.000Z</time>
      </trkpt>
      <trkpt lat="43.32595" lon="6.59251">
        <ele>19.2</ele>
        <time>2022-09-28T14:06:22.000Z</time>
      </trkpt>
      <trkpt lat="43.3259" lon="6.59256">
        <ele>19.3</ele>
        <time>2022-09-28T14:06:23.001Z</time>
      </trkpt>
      <trkpt lat="43.32586" lon="6.59262">
        <ele>19.4</ele>
        <time>2022-09-28T14:06:24.003Z</time>
      </trkpt>
      <trkpt lat="43.32582" lon="6.59268">
        <ele>19.5</ele>
        <time>2022-09-28T14:06:25.002Z</time>
      </trkpt>
      <trkpt lat="43.32579" lon="6.59273">
        <ele>19.7</ele>
        <time>2022-09-28T14:06:26.001Z</time>
      </trkpt>
      <trkpt lat="43.32576" lon="6.59279">
        <ele>19.7</ele>
        <time>2022-09-28T14:06:27.001Z</time>
      </trkpt>
      <trkpt lat="43.32575" lon="6.59286">
        <ele>19.8</ele>
        <time>2022-09-28T14:06:28.001Z</time>
      </trkpt>
      <trkpt lat="43.32573" lon="6.59293">
        <ele>19.9</ele>
        <time>2022-09-28T14:06:29.001Z</time>
      </trkpt>
      <trkpt lat="43.32571" lon="6.593">
        <ele>20</ele>
        <time>2022-09-28T14:06:30.000Z</time>
      </trkpt>
      <trkpt lat="43.32571" lon="6.59308">
        <ele>20</ele>
        <time>2022-09-28T14:06:31.000Z</time>
      </trkpt>
      <trkpt lat="43.32571" lon="6.59316">
        <ele>20.2</ele>
        <time>2022-09-28T14:06:32.000Z</time>
      </trkpt>
      <trkpt lat="43.32573" lon="6.59323">
        <ele>20.3</ele>
        <time>2022-09-28T14:06:33.000Z</time>
      </trkpt>
      <trkpt lat="43.32574" lon="6.5933">
        <ele>20.2</ele>
        <time>2022-09-28T14:06:34.004Z</time>
      </trkpt>
      <trkpt lat="43.32576" lon="6.59337">
        <ele>20.2</ele>
        <time>2022-09-28T14:06:35.001Z</time>
      </trkpt>
      <trkpt lat="43.3258" lon="6.59344">
        <ele>20</ele>
        <time>2022-09-28T14:06:36.001Z</time>
      </trkpt>
      <trkpt lat="43.32584" lon="6.5935">
        <ele>19.5</ele>
        <time>2022-09-28T14:06:37.001Z</time>
      </trkpt>
      <trkpt lat="43.3259" lon="6.59354">
        <ele>19.4</ele>
        <time>2022-09-28T14:06:38.001Z</time>
      </trkpt>
      <trkpt lat="43.32596" lon="6.59358">
        <ele>19.1</ele>
        <time>2022-09-28T14:06:39.001Z</time>
      </trkpt>
      <trkpt lat="43.32601" lon="6.59361">
        <ele>18.7</ele>
        <time>2022-09-28T14:06:40.001Z</time>
      </trkpt>
      <trkpt lat="43.32606" lon="6.59365">
        <ele>18.3</ele>
        <time>2022-09-28T14:06:41.001Z</time>
      </trkpt>
      <trkpt lat="43.3261" lon="6.59372">
        <ele>17.7</ele>
        <time>2022-09-28T14:06:42.001Z</time>
      </trkpt>
      <trkpt lat="43.32613" lon="6.59379">
        <ele>17.3</ele>
        <time>2022-09-28T14:06:43.001Z</time>
      </trkpt>
      <trkpt lat="43.32614" lon="6.59388">
        <ele>16.9</ele>
        <time>2022-09-28T14:06:44.003Z</time>
      </trkpt>
      <trkpt lat="43.32613" lon="6.59399">
        <ele>16.6</ele>
        <time>2022-09-28T14:06:45.001Z</time>
      </trkpt>
      <trkpt lat="43.32612" lon="6.59409">
        <ele>16.3</ele>
        <time>2022-09-28T14:06:46.001Z</time>
      </trkpt>
      <trkpt lat="43.3261" lon="6.59419">
        <ele>16</ele>
        <time>2022-09-28T14:06:47.001Z</time>
      </trkpt>
      <trkpt lat="43.32609" lon="6.59429">
        <ele>15.8</ele>
        <time>2022-09-28T14:06:48.000Z</time>
      </trkpt>
      <trkpt lat="43.32609" lon="6.59439">
        <ele>15.4</ele>
        <time>2022-09-28T14:06:49.001Z</time>
      </trkpt>
      <trkpt lat="43.3261" lon="6.59449">
        <ele>15.3</ele>
        <time>2022-09-28T14:06:50.000Z</time>
      </trkpt>
      <trkpt lat="43.3261" lon="6.59459">
        <ele>15.6</ele>
        <time>2022-09-28T14:06:51.000Z</time>
      </trkpt>
      <trkpt lat="43.32609" lon="6.59468">
        <ele>16</ele>
        <time>2022-09-28T14:06:52.000Z</time>
      </trkpt>
      <trkpt lat="43.32609" lon="6.59478">
        <ele>16.1</ele>
        <time>2022-09-28T14:06:53.001Z</time>
      </trkpt>
      <trkpt lat="43.32608" lon="6.59487">
        <ele>15.9</ele>
        <time>2022-09-28T14:06:54.001Z</time>
      </trkpt>
      <trkpt lat="43.32607" lon="6.59497">
        <ele>15.7</ele>
        <time>2022-09-28T14:06:55.000Z</time>
      </trkpt>
      <trkpt lat="43.32606" lon="6.59506">
        <ele>15.7</ele>
        <time>2022-09-28T14:06:56.000Z</time>
      </trkpt>
      <trkpt lat="43.32606" lon="6.59516">
        <ele>15.6</ele>
        <time>2022-09-28T14:06:57.001Z</time>
      </trkpt>
      <trkpt lat="43.32607" lon="6.59525">
        <ele>15.5</ele>
        <time>2022-09-28T14:06:58.000Z</time>
      </trkpt>
      <trkpt lat="43.32607" lon="6.59534">
        <ele>15.4</ele>
        <time>2022-09-28T14:06:59.000Z</time>
      </trkpt>
      <trkpt lat="43.32608" lon="6.59543">
        <ele>15.3</ele>
        <time>2022-09-28T14:07:00.000Z</time>
      </trkpt>
      <trkpt lat="43.32609" lon="6.59551">
        <ele>15.2</ele>
        <time>2022-09-28T14:07:01.000Z</time>
      </trkpt>
      <trkpt lat="43.32611" lon="6.5956">
        <ele>15.2</ele>
        <time>2022-09-28T14:07:02.001Z</time>
      </trkpt>
      <trkpt lat="43.32612" lon="6.59567">
        <ele>15.5</ele>
        <time>2022-09-28T14:07:03.001Z</time>
      </trkpt>
      <trkpt lat="43.32613" lon="6.59575">
        <ele>15.7</ele>
        <time>2022-09-28T14:07:04.001Z</time>
      </trkpt>
      <trkpt lat="43.32612" lon="6.59583">
        <ele>16</ele>
        <time>2022-09-28T14:07:05.000Z</time>
      </trkpt>
      <trkpt lat="43.3261" lon="6.59591">
        <ele>16.1</ele>
        <time>2022-09-28T14:07:06.001Z</time>
      </trkpt>
      <trkpt lat="43.32605" lon="6.59597">
        <ele>16.3</ele>
        <time>2022-09-28T14:07:07.001Z</time>
      </trkpt>
      <trkpt lat="43.32601" lon="6.59604">
        <ele>16.5</ele>
        <time>2022-09-28T14:07:08.000Z</time>
      </trkpt>
      <trkpt lat="43.32597" lon="6.59609">
        <ele>16.5</ele>
        <time>2022-09-28T14:07:09.001Z</time>
      </trkpt>
      <trkpt lat="43.32592" lon="6.59615">
        <ele>16.6</ele>
        <time>2022-09-28T14:07:10.001Z</time>
      </trkpt>
      <trkpt lat="43.32588" lon="6.5962">
        <ele>16.8</ele>
        <time>2022-09-28T14:07:11.001Z</time>
      </trkpt>
      <trkpt lat="43.32584" lon="6.59626">
        <ele>17</ele>
        <time>2022-09-28T14:07:12.001Z</time>
      </trkpt>
      <trkpt lat="43.32579" lon="6.59631">
        <ele>17.8</ele>
        <time>2022-09-28T14:07:13.002Z</time>
      </trkpt>
      <trkpt lat="43.32574" lon="6.59636">
        <ele>18.5</ele>
        <time>2022-09-28T14:07:14.000Z</time>
      </trkpt>
      <trkpt lat="43.3257" lon="6.59641">
        <ele>18.8</ele>
        <time>2022-09-28T14:07:15.001Z</time>
      </trkpt>
      <trkpt lat="43.32567" lon="6.59648">
        <ele>19</ele>
        <time>2022-09-28T14:07:16.000Z</time>
      </trkpt>
      <trkpt lat="43.32566" lon="6.59656">
        <ele>18.9</ele>
        <time>2022-09-28T14:07:17.001Z</time>
      </trkpt>
      <trkpt lat="43.32564" lon="6.59663">
        <ele>18.9</ele>
        <time>2022-09-28T14:07:18.000Z</time>
      </trkpt>
      <trkpt lat="43.32563" lon="6.59671">
        <ele>18.8</ele>
        <time>2022-09-28T14:07:19.000Z</time>
      </trkpt>
      <trkpt lat="43.32562" lon="6.59678">
        <ele>18.9</ele>
        <time>2022-09-28T14:07:20.001Z</time>
      </trkpt>
      <trkpt lat="43.32562" lon="6.59686">
        <ele>18.8</ele>
        <time>2022-09-28T14:07:21.001Z</time>
      </trkpt>
      <trkpt lat="43.32562" lon="6.59694">
        <ele>18.7</ele>
        <time>2022-09-28T14:07:22.001Z</time>
      </trkpt>
      <trkpt lat="43.32561" lon="6.59702">
        <ele>18.6</ele>
        <time>2022-09-28T14:07:23.000Z</time>
      </trkpt>
      <trkpt lat="43.32561" lon="6.5971">
        <ele>18.4</ele>
        <time>2022-09-28T14:07:24.001Z</time>
      </trkpt>
      <trkpt lat="43.3256" lon="6.59718">
        <ele>18.3</ele>
        <time>2022-09-28T14:07:25.003Z</time>
      </trkpt>
      <trkpt lat="43.32559" lon="6.59727">
        <ele>18.4</ele>
        <time>2022-09-28T14:07:26.001Z</time>
      </trkpt>
      <trkpt lat="43.32558" lon="6.59734">
        <ele>18.3</ele>
        <time>2022-09-28T14:07:27.001Z</time>
      </trkpt>
      <trkpt lat="43.32557" lon="6.59742">
        <ele>18.2</ele>
        <time>2022-09-28T14:07:28.001Z</time>
      </trkpt>
      <trkpt lat="43.32556" lon="6.5975">
        <ele>18</ele>
        <time>2022-09-28T14:07:29.001Z</time>
      </trkpt>
      <trkpt lat="43.32555" lon="6.59758">
        <ele>18</ele>
        <time>2022-09-28T14:07:30.001Z</time>
      </trkpt>
      <trkpt lat="43.32554" lon="6.59766">
        <ele>18.3</ele>
        <time>2022-09-28T14:07:31.005Z</time>
      </trkpt>
      <trkpt lat="43.32551" lon="6.59775">
        <ele>18.5</ele>
        <time>2022-09-28T14:07:32.002Z</time>
      </trkpt>
      <trkpt lat="43.32548" lon="6.59782">
        <ele>18.7</ele>
        <time>2022-09-28T14:07:33.001Z</time>
      </trkpt>
      <trkpt lat="43.32546" lon="6.5979">
        <ele>19.2</ele>
        <time>2022-09-28T14:07:34.001Z</time>
      </trkpt>
      <trkpt lat="43.32544" lon="6.59798">
        <ele>19.7</ele>
        <time>2022-09-28T14:07:35.001Z</time>
      </trkpt>
      <trkpt lat="43.32543" lon="6.59805">
        <ele>20.2</ele>
        <time>2022-09-28T14:07:36.001Z</time>
      </trkpt>
      <trkpt lat="43.32541" lon="6.59812">
        <ele>20.1</ele>
        <time>2022-09-28T14:07:37.000Z</time>
      </trkpt>
      <trkpt lat="43.32539" lon="6.59819">
        <ele>19.9</ele>
        <time>2022-09-28T14:07:38.000Z</time>
      </trkpt>
      <trkpt lat="43.32537" lon="6.59827">
        <ele>19.6</ele>
        <time>2022-09-28T14:07:39.000Z</time>
      </trkpt>
      <trkpt lat="43.32534" lon="6.59835">
        <ele>19.1</ele>
        <time>2022-09-28T14:07:40.001Z</time>
      </trkpt>
      <trkpt lat="43.32533" lon="6.59843">
        <ele>18.5</ele>
        <time>2022-09-28T14:07:41.000Z</time>
      </trkpt>
      <trkpt lat="43.32531" lon="6.59851">
        <ele>17.9</ele>
        <time>2022-09-28T14:07:42.000Z</time>
      </trkpt>
      <trkpt lat="43.3253" lon="6.5986">
        <ele>17.1</ele>
        <time>2022-09-28T14:07:43.000Z</time>
      </trkpt>
      <trkpt lat="43.3253" lon="6.59868">
        <ele>17.1</ele>
        <time>2022-09-28T14:07:44.001Z</time>
      </trkpt>
      <trkpt lat="43.32531" lon="6.59876">
        <ele>17.3</ele>
        <time>2022-09-28T14:07:45.000Z</time>
      </trkpt>
      <trkpt lat="43.32531" lon="6.59884">
        <ele>17.6</ele>
        <time>2022-09-28T14:07:46.000Z</time>
      </trkpt>
      <trkpt lat="43.32532" lon="6.59893">
        <ele>17.9</ele>
        <time>2022-09-28T14:07:47.001Z</time>
      </trkpt>
      <trkpt lat="43.32533" lon="6.59901">
        <ele>18.4</ele>
        <time>2022-09-28T14:07:48.000Z</time>
      </trkpt>
      <trkpt lat="43.32533" lon="6.5991">
        <ele>18.8</ele>
        <time>2022-09-28T14:07:49.001Z</time>
      </trkpt>
      <trkpt lat="43.32533" lon="6.59918">
        <ele>19.2</ele>
        <time>2022-09-28T14:07:50.004Z</time>
      </trkpt>
      <trkpt lat="43.32532" lon="6.59926">
        <ele>18.7</ele>
        <time>2022-09-28T14:07:51.000Z</time>
      </trkpt>
      <trkpt lat="43.32532" lon="6.59935">
        <ele>18.3</ele>
        <time>2022-09-28T14:07:52.000Z</time>
      </trkpt>
      <trkpt lat="43.3253" lon="6.59943">
        <ele>17.9</ele>
        <time>2022-09-28T14:07:53.001Z</time>
      </trkpt>
      <trkpt lat="43.32528" lon="6.59951">
        <ele>17.5</ele>
        <time>2022-09-28T14:07:54.001Z</time>
      </trkpt>
      <trkpt lat="43.32526" lon="6.59959">
        <ele>17.6</ele>
        <time>2022-09-28T14:07:55.001Z</time>
      </trkpt>
      <trkpt lat="43.32524" lon="6.59968">
        <ele>17.6</ele>
        <time>2022-09-28T14:07:56.001Z</time>
      </trkpt>
      <trkpt lat="43.32521" lon="6.59976">
        <ele>17.7</ele>
        <time>2022-09-28T14:07:57.001Z</time>
      </trkpt>
      <trkpt lat="43.32519" lon="6.59983">
        <ele>18.2</ele>
        <time>2022-09-28T14:07:58.001Z</time>
      </trkpt>
      <trkpt lat="43.32515" lon="6.5999">
        <ele>18.8</ele>
        <time>2022-09-28T14:07:59.003Z</time>
      </trkpt>
      <trkpt lat="43.32512" lon="6.59998">
        <ele>19</ele>
        <time>2022-09-28T14:08:00.000Z</time>
      </trkpt>
      <trkpt lat="43.32509" lon="6.60005">
        <ele>19.1</ele>
        <time>2022-09-28T14:08:01.001Z</time>
      </trkpt>
      <trkpt lat="43.32505" lon="6.60011">
        <ele>19.1</ele>
        <time>2022-09-28T14:08:02.000Z</time>
      </trkpt>
      <trkpt lat="43.32501" lon="6.60018">
        <ele>18.9</ele>
        <time>2022-09-28T14:08:03.001Z</time>
      </trkpt>
      <trkpt lat="43.32501" lon="6.60025">
        <ele>18.2</ele>
        <time>2022-09-28T14:08:04.000Z</time>
      </trkpt>
      <trkpt lat="43.32502" lon="6.60034">
        <ele>18.5</ele>
        <time>2022-09-28T14:08:05.000Z</time>
      </trkpt>
      <trkpt lat="43.32503" lon="6.60042">
        <ele>19.2</ele>
        <time>2022-09-28T14:08:06.001Z</time>
      </trkpt>
      <trkpt lat="43.32504" lon="6.6005">
        <ele>19.8</ele>
        <time>2022-09-28T14:08:07.000Z</time>
      </trkpt>
      <trkpt lat="43.32505" lon="6.60058">
        <ele>20.2</ele>
        <time>2022-09-28T14:08:08.004Z</time>
      </trkpt>
      <trkpt lat="43.32506" lon="6.60066">
        <ele>20.1</ele>
        <time>2022-09-28T14:08:09.001Z</time>
      </trkpt>
      <trkpt lat="43.32508" lon="6.60074">
        <ele>20.1</ele>
        <time>2022-09-28T14:08:10.000Z</time>
      </trkpt>
      <trkpt lat="43.32509" lon="6.60082">
        <ele>20</ele>
        <time>2022-09-28T14:08:11.001Z</time>
      </trkpt>
      <trkpt lat="43.3251" lon="6.6009">
        <ele>19.7</ele>
        <time>2022-09-28T14:08:12.001Z</time>
      </trkpt>
      <trkpt lat="43.32511" lon="6.60099">
        <ele>19.2</ele>
        <time>2022-09-28T14:08:13.001Z</time>
      </trkpt>
      <trkpt lat="43.32512" lon="6.60107">
        <ele>18.9</ele>
        <time>2022-09-28T14:08:14.000Z</time>
      </trkpt>
      <trkpt lat="43.32514" lon="6.60116">
        <ele>18.5</ele>
        <time>2022-09-28T14:08:15.000Z</time>
      </trkpt>
      <trkpt lat="43.32515" lon="6.60125">
        <ele>18.4</ele>
        <time>2022-09-28T14:08:16.000Z</time>
      </trkpt>
      <trkpt lat="43.32517" lon="6.60133">
        <ele>18.1</ele>
        <time>2022-09-28T14:08:17.001Z</time>
      </trkpt>
      <trkpt lat="43.32518" lon="6.60141">
        <ele>18</ele>
        <time>2022-09-28T14:08:18.001Z</time>
      </trkpt>
      <trkpt lat="43.32518" lon="6.60148">
        <ele>17.8</ele>
        <time>2022-09-28T14:08:19.001Z</time>
      </trkpt>
      <trkpt lat="43.32518" lon="6.60156">
        <ele>17.6</ele>
        <time>2022-09-28T14:08:20.001Z</time>
      </trkpt>
      <trkpt lat="43.32518" lon="6.60164">
        <ele>17.4</ele>
        <time>2022-09-28T14:08:21.001Z</time>
      </trkpt>
      <trkpt lat="43.32519" lon="6.60173">
        <ele>17.3</ele>
        <time>2022-09-28T14:08:22.001Z</time>
      </trkpt>
      <trkpt lat="43.32519" lon="6.60181">
        <ele>17.3</ele>
        <time>2022-09-28T14:08:23.001Z</time>
      </trkpt>
      <trkpt lat="43.32519" lon="6.6019">
        <ele>17.3</ele>
        <time>2022-09-28T14:08:24.002Z</time>
      </trkpt>
      <trkpt lat="43.3252" lon="6.60199">
        <ele>17.3</ele>
        <time>2022-09-28T14:08:25.000Z</time>
      </trkpt>
      <trkpt lat="43.32522" lon="6.60208">
        <ele>17.3</ele>
        <time>2022-09-28T14:08:26.000Z</time>
      </trkpt>
      <trkpt lat="43.32524" lon="6.60217">
        <ele>17.3</ele>
        <time>2022-09-28T14:08:27.000Z</time>
      </trkpt>
      <trkpt lat="43.32526" lon="6.60224">
        <ele>17.2</ele>
        <time>2022-09-28T14:08:28.001Z</time>
      </trkpt>
      <trkpt lat="43.32529" lon="6.6023">
        <ele>17.3</ele>
        <time>2022-09-28T14:08:29.002Z</time>
      </trkpt>
      <trkpt lat="43.32531" lon="6.60236">
        <ele>17.4</ele>
        <time>2022-09-28T14:08:30.000Z</time>
      </trkpt>
      <trkpt lat="43.32533" lon="6.60241">
        <ele>17.5</ele>
        <time>2022-09-28T14:08:31.000Z</time>
      </trkpt>
      <trkpt lat="43.32535" lon="6.60244">
        <ele>17.6</ele>
        <time>2022-09-28T14:08:32.001Z</time>
      </trkpt>
      <trkpt lat="43.32537" lon="6.60248">
        <ele>17.6</ele>
        <time>2022-09-28T14:08:33.001Z</time>
      </trkpt>
      <trkpt lat="43.32539" lon="6.60252">
        <ele>17.6</ele>
        <time>2022-09-28T14:08:34.001Z</time>
      </trkpt>
      <trkpt lat="43.3254" lon="6.60256">
        <ele>17.6</ele>
        <time>2022-09-28T14:08:35.000Z</time>
      </trkpt>
      <trkpt lat="43.32539" lon="6.60259">
        <ele>17.6</ele>
        <time>2022-09-28T14:08:36.001Z</time>
      </trkpt>
      <trkpt lat="43.32538" lon="6.6026">
        <ele>17.6</ele>
        <time>2022-09-28T14:08:37.001Z</time>
      </trkpt>
      <trkpt lat="43.32538" lon="6.60261">
        <ele>17.6</ele>
        <time>2022-09-28T14:08:38.000Z</time>
      </trkpt>
      <trkpt lat="43.32537" lon="6.60262">
        <ele>17.7</ele>
        <time>2022-09-28T14:08:46.000Z</time>
      </trkpt>
      <trkpt lat="43.32537" lon="6.60263">
        <ele>17.7</ele>
        <time>2022-09-28T14:09:42.001Z</time>
      </trkpt>
      <trkpt lat="43.32537" lon="6.60265">
        <ele>17.7</ele>
        <time>2022-09-28T14:09:43.000Z</time>
      </trkpt>
      <trkpt lat="43.32538" lon="6.60266">
        <ele>17.6</ele>
        <time>2022-09-28T14:09:44.001Z</time>
      </trkpt>
      <trkpt lat="43.32539" lon="6.60268">
        <ele>17.6</ele>
        <time>2022-09-28T14:09:45.001Z</time>
      </trkpt>
      <trkpt lat="43.3254" lon="6.6027">
        <ele>17.6</ele>
        <time>2022-09-28T14:09:46.001Z</time>
      </trkpt>
      <trkpt lat="43.32542" lon="6.60272">
        <ele>17.5</ele>
        <time>2022-09-28T14:09:47.001Z</time>
      </trkpt>
      <trkpt lat="43.32544" lon="6.60274">
        <ele>17.4</ele>
        <time>2022-09-28T14:09:48.001Z</time>
      </trkpt>
      <trkpt lat="43.32546" lon="6.60276">
        <ele>17.4</ele>
        <time>2022-09-28T14:09:49.002Z</time>
      </trkpt>
      <trkpt lat="43.32547" lon="6.60278">
        <ele>17.3</ele>
        <time>2022-09-28T14:09:50.000Z</time>
      </trkpt>
      <trkpt lat="43.3255" lon="6.6028">
        <ele>17.2</ele>
        <time>2022-09-28T14:09:51.000Z</time>
      </trkpt>
      <trkpt lat="43.32552" lon="6.60281">
        <ele>17.1</ele>
        <time>2022-09-28T14:09:52.001Z</time>
      </trkpt>
      <trkpt lat="43.32554" lon="6.60283">
        <ele>17.1</ele>
        <time>2022-09-28T14:09:53.000Z</time>
      </trkpt>
      <trkpt lat="43.32557" lon="6.60284">
        <ele>17</ele>
        <time>2022-09-28T14:09:54.001Z</time>
      </trkpt>
      <trkpt lat="43.32559" lon="6.60286">
        <ele>16.9</ele>
        <time>2022-09-28T14:09:55.001Z</time>
      </trkpt>
      <trkpt lat="43.32562" lon="6.60286">
        <ele>16.8</ele>
        <time>2022-09-28T14:09:56.001Z</time>
      </trkpt>
      <trkpt lat="43.32564" lon="6.60287">
        <ele>16.7</ele>
        <time>2022-09-28T14:09:57.005Z</time>
      </trkpt>
      <trkpt lat="43.32567" lon="6.60288">
        <ele>16.6</ele>
        <time>2022-09-28T14:09:58.001Z</time>
      </trkpt>
      <trkpt lat="43.3257" lon="6.60288">
        <ele>16.5</ele>
        <time>2022-09-28T14:09:59.001Z</time>
      </trkpt>
      <trkpt lat="43.32572" lon="6.60289">
        <ele>16.4</ele>
        <time>2022-09-28T14:10:00.001Z</time>
      </trkpt>
      <trkpt lat="43.32575" lon="6.60288">
        <ele>16.3</ele>
        <time>2022-09-28T14:10:01.000Z</time>
      </trkpt>
      <trkpt lat="43.32579" lon="6.60287">
        <ele>16.2</ele>
        <time>2022-09-28T14:10:02.001Z</time>
      </trkpt>
      <trkpt lat="43.32582" lon="6.60286">
        <ele>16.1</ele>
        <time>2022-09-28T14:10:03.005Z</time>
      </trkpt>
      <trkpt lat="43.32585" lon="6.60284">
        <ele>16</ele>
        <time>2022-09-28T14:10:04.002Z</time>
      </trkpt>
      <trkpt lat="43.32589" lon="6.60282">
        <ele>16</ele>
        <time>2022-09-28T14:10:05.001Z</time>
      </trkpt>
      <trkpt lat="43.32592" lon="6.60281">
        <ele>16</ele>
        <time>2022-09-28T14:10:06.001Z</time>
      </trkpt>
      <trkpt lat="43.32594" lon="6.60278">
        <ele>16</ele>
        <time>2022-09-28T14:10:07.001Z</time>
      </trkpt>
      <trkpt lat="43.32597" lon="6.60275">
        <ele>16.1</ele>
        <time>2022-09-28T14:10:08.000Z</time>
      </trkpt>
      <trkpt lat="43.32599" lon="6.60272">
        <ele>16.1</ele>
        <time>2022-09-28T14:10:09.000Z</time>
      </trkpt>
      <trkpt lat="43.32602" lon="6.60269">
        <ele>16.2</ele>
        <time>2022-09-28T14:10:10.001Z</time>
      </trkpt>
      <trkpt lat="43.32603" lon="6.60265">
        <ele>16.3</ele>
        <time>2022-09-28T14:10:11.001Z</time>
      </trkpt>
      <trkpt lat="43.32605" lon="6.60261">
        <ele>16.5</ele>
        <time>2022-09-28T14:10:12.001Z</time>
      </trkpt>
      <trkpt lat="43.32607" lon="6.60257">
        <ele>16.6</ele>
        <time>2022-09-28T14:10:13.001Z</time>
      </trkpt>
      <trkpt lat="43.32609" lon="6.60254">
        <ele>16.8</ele>
        <time>2022-09-28T14:10:14.001Z</time>
      </trkpt>
      <trkpt lat="43.32611" lon="6.6025">
        <ele>17</ele>
        <time>2022-09-28T14:10:15.002Z</time>
      </trkpt>
      <trkpt lat="43.32613" lon="6.60247">
        <ele>16.6</ele>
        <time>2022-09-28T14:10:16.000Z</time>
      </trkpt>
      <trkpt lat="43.32615" lon="6.60243">
        <ele>16.2</ele>
        <time>2022-09-28T14:10:17.000Z</time>
      </trkpt>
      <trkpt lat="43.32618" lon="6.6024">
        <ele>15.9</ele>
        <time>2022-09-28T14:10:18.002Z</time>
      </trkpt>
      <trkpt lat="43.32621" lon="6.60238">
        <ele>15.6</ele>
        <time>2022-09-28T14:10:19.000Z</time>
      </trkpt>
      <trkpt lat="43.32625" lon="6.60236">
        <ele>15.3</ele>
        <time>2022-09-28T14:10:20.000Z</time>
      </trkpt>
      <trkpt lat="43.32628" lon="6.60235">
        <ele>15</ele>
        <time>2022-09-28T14:10:21.000Z</time>
      </trkpt>
      <trkpt lat="43.32631" lon="6.60234">
        <ele>14.7</ele>
        <time>2022-09-28T14:10:22.001Z</time>
      </trkpt>
      <trkpt lat="43.32634" lon="6.60234">
        <ele>14.5</ele>
        <time>2022-09-28T14:10:23.001Z</time>
      </trkpt>
      <trkpt lat="43.32637" lon="6.60233">
        <ele>14.4</ele>
        <time>2022-09-28T14:10:24.001Z</time>
      </trkpt>
      <trkpt lat="43.32639" lon="6.60233">
        <ele>14.3</ele>
        <time>2022-09-28T14:10:25.001Z</time>
      </trkpt>
      <trkpt lat="43.32641" lon="6.60232">
        <ele>14.5</ele>
        <time>2022-09-28T14:10:26.001Z</time>
      </trkpt>
      <trkpt lat="43.32642" lon="6.60232">
        <ele>14.6</ele>
        <time>2022-09-28T14:10:27.001Z</time>
      </trkpt>
      <trkpt lat="43.32644" lon="6.60231">
        <ele>14.8</ele>
        <time>2022-09-28T14:10:28.000Z</time>
      </trkpt>
      <trkpt lat="43.32646" lon="6.60231">
        <ele>15</ele>
        <time>2022-09-28T14:10:29.003Z</time>
      </trkpt>
      <trkpt lat="43.32647" lon="6.6023">
        <ele>15.2</ele>
        <time>2022-09-28T14:10:30.000Z</time>
      </trkpt>
      <trkpt lat="43.32649" lon="6.6023">
        <ele>15.3</ele>
        <time>2022-09-28T14:10:31.000Z</time>
      </trkpt>
      <trkpt lat="43.3265" lon="6.6023">
        <ele>15.4</ele>
        <time>2022-09-28T14:10:32.001Z</time>
      </trkpt>
      <trkpt lat="43.32651" lon="6.6023">
        <ele>15.6</ele>
        <time>2022-09-28T14:10:33.001Z</time>
      </trkpt>
      <trkpt lat="43.32653" lon="6.6023">
        <ele>15.7</ele>
        <time>2022-09-28T14:10:34.002Z</time>
      </trkpt>
      <trkpt lat="43.32655" lon="6.60228">
        <ele>16</ele>
        <time>2022-09-28T14:10:35.001Z</time>
      </trkpt>
      <trkpt lat="43.32657" lon="6.60228">
        <ele>16.2</ele>
        <time>2022-09-28T14:10:36.001Z</time>
      </trkpt>
      <trkpt lat="43.32659" lon="6.60227">
        <ele>16.3</ele>
        <time>2022-09-28T14:10:37.002Z</time>
      </trkpt>
      <trkpt lat="43.32661" lon="6.60226">
        <ele>16.5</ele>
        <time>2022-09-28T14:10:38.000Z</time>
      </trkpt>
      <trkpt lat="43.32663" lon="6.60226">
        <ele>16.7</ele>
        <time>2022-09-28T14:10:39.000Z</time>
      </trkpt>
      <trkpt lat="43.32665" lon="6.60225">
        <ele>16.9</ele>
        <time>2022-09-28T14:10:40.000Z</time>
      </trkpt>
      <trkpt lat="43.32667" lon="6.60224">
        <ele>17.1</ele>
        <time>2022-09-28T14:10:41.000Z</time>
      </trkpt>
      <trkpt lat="43.32669" lon="6.60224">
        <ele>17.4</ele>
        <time>2022-09-28T14:10:42.001Z</time>
      </trkpt>
      <trkpt lat="43.32671" lon="6.60223">
        <ele>17.6</ele>
        <time>2022-09-28T14:10:43.000Z</time>
      </trkpt>
      <trkpt lat="43.32672" lon="6.60223">
        <ele>17.8</ele>
        <time>2022-09-28T14:10:44.003Z</time>
      </trkpt>
      <trkpt lat="43.32673" lon="6.60223">
        <ele>17.9</ele>
        <time>2022-09-28T14:10:45.001Z</time>
      </trkpt>
      <trkpt lat="43.32674" lon="6.60223">
        <ele>18</ele>
        <time>2022-09-28T14:10:46.003Z</time>
      </trkpt>
      <trkpt lat="43.32674" lon="6.60222">
        <ele>18.1</ele>
        <time>2022-09-28T14:10:50.000Z</time>
      </trkpt>
      <trkpt lat="43.32673" lon="6.60222">
        <ele>17.9</ele>
        <time>2022-09-28T14:10:53.001Z</time>
      </trkpt>
      <trkpt lat="43.32672" lon="6.60222">
        <ele>17.8</ele>
        <time>2022-09-28T14:10:58.000Z</time>
      </trkpt>
      <trkpt lat="43.32673" lon="6.60222">
        <ele>18</ele>
        <time>2022-09-28T14:11:33.001Z</time>
      </trkpt>
      <trkpt lat="43.32674" lon="6.60222">
        <ele>18.1</ele>
        <time>2022-09-28T14:11:37.000Z</time>
      </trkpt>
      <trkpt lat="43.32675" lon="6.60221">
        <ele>18.2</ele>
        <time>2022-09-28T14:11:40.000Z</time>
      </trkpt>
      <trkpt lat="43.32677" lon="6.60221">
        <ele>18.5</ele>
        <time>2022-09-28T14:11:41.000Z</time>
      </trkpt>
      <trkpt lat="43.32679" lon="6.60221">
        <ele>18.8</ele>
        <time>2022-09-28T14:11:42.000Z</time>
      </trkpt>
      <trkpt lat="43.32681" lon="6.60222">
        <ele>19.1</ele>
        <time>2022-09-28T14:11:43.001Z</time>
      </trkpt>
      <trkpt lat="43.32683" lon="6.60224">
        <ele>19.2</ele>
        <time>2022-09-28T14:11:44.001Z</time>
      </trkpt>
      <trkpt lat="43.32684" lon="6.60227">
        <ele>19</ele>
        <time>2022-09-28T14:11:45.001Z</time>
      </trkpt>
      <trkpt lat="43.32684" lon="6.60234">
        <ele>18.5</ele>
        <time>2022-09-28T14:11:46.002Z</time>
      </trkpt>
      <trkpt lat="43.32684" lon="6.60238">
        <ele>18.1</ele>
        <time>2022-09-28T14:11:47.000Z</time>
      </trkpt>
      <trkpt lat="43.32685" lon="6.60245">
        <ele>17.5</ele>
        <time>2022-09-28T14:11:48.000Z</time>
      </trkpt>
      <trkpt lat="43.32685" lon="6.6025">
        <ele>17</ele>
        <time>2022-09-28T14:11:49.001Z</time>
      </trkpt>
      <trkpt lat="43.32686" lon="6.60257">
        <ele>16.9</ele>
        <time>2022-09-28T14:11:50.002Z</time>
      </trkpt>
      <trkpt lat="43.3269" lon="6.6027">
        <ele>16.9</ele>
        <time>2022-09-28T14:11:52.000Z</time>
      </trkpt>
      <trkpt lat="43.32692" lon="6.60277">
        <ele>16.9</ele>
        <time>2022-09-28T14:11:53.000Z</time>
      </trkpt>
      <trkpt lat="43.32694" lon="6.60284">
        <ele>16.8</ele>
        <time>2022-09-28T14:11:54.000Z</time>
      </trkpt>
      <trkpt lat="43.32696" lon="6.60289">
        <ele>16.7</ele>
        <time>2022-09-28T14:11:55.001Z</time>
      </trkpt>
      <trkpt lat="43.32697" lon="6.60292">
        <ele>16.8</ele>
        <time>2022-09-28T14:11:56.002Z</time>
      </trkpt>
      <trkpt lat="43.32699" lon="6.60297">
        <ele>16.7</ele>
        <time>2022-09-28T14:11:57.001Z</time>
      </trkpt>
      <trkpt lat="43.32699" lon="6.60301">
        <ele>16.5</ele>
        <time>2022-09-28T14:11:58.000Z</time>
      </trkpt>
      <trkpt lat="43.32699" lon="6.60304">
        <ele>16.4</ele>
        <time>2022-09-28T14:11:59.002Z</time>
      </trkpt>
      <trkpt lat="43.327" lon="6.60308">
        <ele>16.4</ele>
        <time>2022-09-28T14:12:00.001Z</time>
      </trkpt>
      <trkpt lat="43.327" lon="6.60312">
        <ele>16.3</ele>
        <time>2022-09-28T14:12:01.001Z</time>
      </trkpt>
      <trkpt lat="43.327" lon="6.60317">
        <ele>16.3</ele>
        <time>2022-09-28T14:12:02.001Z</time>
      </trkpt>
      <trkpt lat="43.32701" lon="6.6032">
        <ele>16.3</ele>
        <time>2022-09-28T14:12:03.001Z</time>
      </trkpt>
      <trkpt lat="43.32702" lon="6.60324">
        <ele>16.4</ele>
        <time>2022-09-28T14:12:04.000Z</time>
      </trkpt>
      <trkpt lat="43.32705" lon="6.60326">
        <ele>16.5</ele>
        <time>2022-09-28T14:12:05.000Z</time>
      </trkpt>
      <trkpt lat="43.32709" lon="6.60325">
        <ele>16.7</ele>
        <time>2022-09-28T14:12:06.000Z</time>
      </trkpt>
      <trkpt lat="43.32713" lon="6.60323">
        <ele>16.9</ele>
        <time>2022-09-28T14:12:07.001Z</time>
      </trkpt>
      <trkpt lat="43.32717" lon="6.60322">
        <ele>17.2</ele>
        <time>2022-09-28T14:12:08.000Z</time>
      </trkpt>
      <trkpt lat="43.32723" lon="6.60322">
        <ele>17.6</ele>
        <time>2022-09-28T14:12:09.003Z</time>
      </trkpt>
      <trkpt lat="43.32728" lon="6.60322">
        <ele>18.4</ele>
        <time>2022-09-28T14:12:10.000Z</time>
      </trkpt>
      <trkpt lat="43.32731" lon="6.60322">
        <ele>18.9</ele>
        <time>2022-09-28T14:12:11.003Z</time>
      </trkpt>
      <trkpt lat="43.32735" lon="6.60322">
        <ele>19.6</ele>
        <time>2022-09-28T14:12:12.000Z</time>
      </trkpt>
      <trkpt lat="43.32738" lon="6.60322">
        <ele>20.2</ele>
        <time>2022-09-28T14:12:13.000Z</time>
      </trkpt>
      <trkpt lat="43.32741" lon="6.60322">
        <ele>20.8</ele>
        <time>2022-09-28T14:12:14.000Z</time>
      </trkpt>
      <trkpt lat="43.32744" lon="6.60322">
        <ele>21.1</ele>
        <time>2022-09-28T14:12:15.001Z</time>
      </trkpt>
      <trkpt lat="43.32747" lon="6.60323">
        <ele>21.6</ele>
        <time>2022-09-28T14:12:16.000Z</time>
      </trkpt>
      <trkpt lat="43.3275" lon="6.60323">
        <ele>22.1</ele>
        <time>2022-09-28T14:12:17.000Z</time>
      </trkpt>
      <trkpt lat="43.32751" lon="6.60323">
        <ele>22.2</ele>
        <time>2022-09-28T14:12:18.001Z</time>
      </trkpt>
      <trkpt lat="43.32753" lon="6.60323">
        <ele>22.4</ele>
        <time>2022-09-28T14:12:19.001Z</time>
      </trkpt>
      <trkpt lat="43.32754" lon="6.60324">
        <ele>22.5</ele>
        <time>2022-09-28T14:12:20.001Z</time>
      </trkpt>
      <trkpt lat="43.32756" lon="6.60324">
        <ele>22.5</ele>
        <time>2022-09-28T14:12:21.001Z</time>
      </trkpt>
      <trkpt lat="43.32757" lon="6.60324">
        <ele>22.7</ele>
        <time>2022-09-28T14:12:22.000Z</time>
      </trkpt>
      <trkpt lat="43.32759" lon="6.60325">
        <ele>22.7</ele>
        <time>2022-09-28T14:12:24.001Z</time>
      </trkpt>
      <trkpt lat="43.3276" lon="6.60327">
        <ele>22.6</ele>
        <time>2022-09-28T14:12:25.000Z</time>
      </trkpt>
      <trkpt lat="43.32762" lon="6.60327">
        <ele>22.7</ele>
        <time>2022-09-28T14:12:27.000Z</time>
      </trkpt>
      <trkpt lat="43.32762" lon="6.6033">
        <ele>22.4</ele>
        <time>2022-09-28T14:12:29.001Z</time>
      </trkpt>
      <trkpt lat="43.32762" lon="6.60331">
        <ele>22.1</ele>
        <time>2022-09-28T14:12:31.000Z</time>
      </trkpt>
      <trkpt lat="43.32762" lon="6.60333">
        <ele>21.9</ele>
        <time>2022-09-28T14:12:40.000Z</time>
      </trkpt>
      <trkpt lat="43.32763" lon="6.60334">
        <ele>21.8</ele>
        <time>2022-09-28T14:12:41.000Z</time>
      </trkpt>
      <trkpt lat="43.32763" lon="6.60336">
        <ele>21.7</ele>
        <time>2022-09-28T14:12:42.001Z</time>
      </trkpt>
      <trkpt lat="43.32764" lon="6.60336">
        <ele>21.7</ele>
        <time>2022-09-28T14:12:47.000Z</time>
      </trkpt>
      <trkpt lat="43.32765" lon="6.60337">
        <ele>21.7</ele>
        <time>2022-09-28T14:12:50.001Z</time>
      </trkpt>
      <trkpt lat="43.32766" lon="6.60336">
        <ele>21.8</ele>
        <time>2022-09-28T14:12:54.001Z</time>
      </trkpt>
      <trkpt lat="43.32767" lon="6.60336">
        <ele>21.9</ele>
        <time>2022-09-28T14:13:01.003Z</time>
      </trkpt>
      <trkpt lat="43.32768" lon="6.60336">
        <ele>22</ele>
        <time>2022-09-28T14:13:07.001Z</time>
      </trkpt>
      <trkpt lat="43.32769" lon="6.60336">
        <ele>22.1</ele>
        <time>2022-09-28T14:13:16.001Z</time>
      </trkpt>
      <trkpt lat="43.3277" lon="6.60337">
        <ele>22.1</ele>
        <time>2022-09-28T14:13:17.000Z</time>
      </trkpt>
      <trkpt lat="43.32771" lon="6.60338">
        <ele>22</ele>
        <time>2022-09-28T14:13:18.001Z</time>
      </trkpt>
      <trkpt lat="43.32772" lon="6.6034">
        <ele>21.9</ele>
        <time>2022-09-28T14:13:19.001Z</time>
      </trkpt>
      <trkpt lat="43.32773" lon="6.60341">
        <ele>21.8</ele>
        <time>2022-09-28T14:13:20.000Z</time>
      </trkpt>
      <trkpt lat="43.32774" lon="6.60342">
        <ele>21.8</ele>
        <time>2022-09-28T14:13:21.001Z</time>
      </trkpt>
      <trkpt lat="43.32775" lon="6.60344">
        <ele>21.7</ele>
        <time>2022-09-28T14:13:22.005Z</time>
      </trkpt>
      <trkpt lat="43.32775" lon="6.60343">
        <ele>21.8</ele>
        <time>2022-09-28T14:14:49.001Z</time>
      </trkpt>
      <trkpt lat="43.32776" lon="6.60344">
        <ele>21.7</ele>
        <time>2022-09-28T14:14:52.000Z</time>
      </trkpt>
      <trkpt lat="43.32777" lon="6.60345">
        <ele>21.7</ele>
        <time>2022-09-28T14:14:53.001Z</time>
      </trkpt>
      <trkpt lat="43.32779" lon="6.60348">
        <ele>21.6</ele>
        <time>2022-09-28T14:14:54.000Z</time>
      </trkpt>
      <trkpt lat="43.32781" lon="6.60352">
        <ele>21.5</ele>
        <time>2022-09-28T14:14:55.002Z</time>
      </trkpt>
      <trkpt lat="43.32784" lon="6.60357">
        <ele>21.5</ele>
        <time>2022-09-28T14:14:57.001Z</time>
      </trkpt>
      <trkpt lat="43.32786" lon="6.6036">
        <ele>21.4</ele>
        <time>2022-09-28T14:14:58.002Z</time>
      </trkpt>
      <trkpt lat="43.32789" lon="6.60364">
        <ele>21.1</ele>
        <time>2022-09-28T14:14:59.000Z</time>
      </trkpt>
      <trkpt lat="43.32791" lon="6.60366">
        <ele>20.9</ele>
        <time>2022-09-28T14:15:00.001Z</time>
      </trkpt>
      <trkpt lat="43.32793" lon="6.60369">
        <ele>20.6</ele>
        <time>2022-09-28T14:15:01.001Z</time>
      </trkpt>
      <trkpt lat="43.32798" lon="6.60373">
        <ele>20.3</ele>
        <time>2022-09-28T14:15:03.000Z</time>
      </trkpt>
      <trkpt lat="43.32801" lon="6.60375">
        <ele>20.2</ele>
        <time>2022-09-28T14:15:04.001Z</time>
      </trkpt>
      <trkpt lat="43.32804" lon="6.60376">
        <ele>20</ele>
        <time>2022-09-28T14:15:05.001Z</time>
      </trkpt>
      <trkpt lat="43.32807" lon="6.60378">
        <ele>20</ele>
        <time>2022-09-28T14:15:06.000Z</time>
      </trkpt>
      <trkpt lat="43.32809" lon="6.60378">
        <ele>20</ele>
        <time>2022-09-28T14:15:07.000Z</time>
      </trkpt>
      <trkpt lat="43.32812" lon="6.6038">
        <ele>19.9</ele>
        <time>2022-09-28T14:15:08.000Z</time>
      </trkpt>
      <trkpt lat="43.32816" lon="6.60381">
        <ele>20</ele>
        <time>2022-09-28T14:15:09.001Z</time>
      </trkpt>
      <trkpt lat="43.3282" lon="6.60381">
        <ele>20</ele>
        <time>2022-09-28T14:15:10.000Z</time>
      </trkpt>
      <trkpt lat="43.32823" lon="6.60383">
        <ele>19.8</ele>
        <time>2022-09-28T14:15:11.000Z</time>
      </trkpt>
      <trkpt lat="43.32828" lon="6.60384">
        <ele>19.9</ele>
        <time>2022-09-28T14:15:12.001Z</time>
      </trkpt>
      <trkpt lat="43.32832" lon="6.60385">
        <ele>20</ele>
        <time>2022-09-28T14:15:13.001Z</time>
      </trkpt>
      <trkpt lat="43.32837" lon="6.60386">
        <ele>20.2</ele>
        <time>2022-09-28T14:15:15.001Z</time>
      </trkpt>
      <trkpt lat="43.32841" lon="6.60386">
        <ele>20.5</ele>
        <time>2022-09-28T14:15:16.000Z</time>
      </trkpt>
      <trkpt lat="43.32845" lon="6.60386">
        <ele>20.6</ele>
        <time>2022-09-28T14:15:17.000Z</time>
      </trkpt>
      <trkpt lat="43.32849" lon="6.60388">
        <ele>20.4</ele>
        <time>2022-09-28T14:15:18.001Z</time>
      </trkpt>
      <trkpt lat="43.32853" lon="6.60391">
        <ele>20.1</ele>
        <time>2022-09-28T14:15:19.000Z</time>
      </trkpt>
      <trkpt lat="43.32859" lon="6.60395">
        <ele>20</ele>
        <time>2022-09-28T14:15:21.000Z</time>
      </trkpt>
      <trkpt lat="43.32865" lon="6.60397">
        <ele>20</ele>
        <time>2022-09-28T14:15:22.000Z</time>
      </trkpt>
      <trkpt lat="43.32868" lon="6.60399">
        <ele>19.9</ele>
        <time>2022-09-28T14:15:23.001Z</time>
      </trkpt>
      <trkpt lat="43.32874" lon="6.604">
        <ele>20</ele>
        <time>2022-09-28T14:15:24.001Z</time>
      </trkpt>
      <trkpt lat="43.32879" lon="6.60402">
        <ele>19.7</ele>
        <time>2022-09-28T14:15:25.000Z</time>
      </trkpt>
      <trkpt lat="43.32884" lon="6.60403">
        <ele>19.7</ele>
        <time>2022-09-28T14:15:27.000Z</time>
      </trkpt>
      <trkpt lat="43.32889" lon="6.60404">
        <ele>19.8</ele>
        <time>2022-09-28T14:15:28.000Z</time>
      </trkpt>
      <trkpt lat="43.32894" lon="6.60405">
        <ele>20.1</ele>
        <time>2022-09-28T14:15:29.001Z</time>
      </trkpt>
      <trkpt lat="43.32896" lon="6.60406">
        <ele>20.1</ele>
        <time>2022-09-28T14:15:30.001Z</time>
      </trkpt>
      <trkpt lat="43.329" lon="6.60408">
        <ele>20</ele>
        <time>2022-09-28T14:15:31.000Z</time>
      </trkpt>
      <trkpt lat="43.32906" lon="6.60409">
        <ele>20.3</ele>
        <time>2022-09-28T14:15:32.000Z</time>
      </trkpt>
      <trkpt lat="43.32914" lon="6.60411">
        <ele>20.5</ele>
        <time>2022-09-28T14:15:34.001Z</time>
      </trkpt>
      <trkpt lat="43.32917" lon="6.60412">
        <ele>20.5</ele>
        <time>2022-09-28T14:15:35.003Z</time>
      </trkpt>
      <trkpt lat="43.32923" lon="6.60414">
        <ele>20.7</ele>
        <time>2022-09-28T14:15:36.001Z</time>
      </trkpt>
      <trkpt lat="43.32928" lon="6.60415">
        <ele>20.7</ele>
        <time>2022-09-28T14:15:37.003Z</time>
      </trkpt>
      <trkpt lat="43.32932" lon="6.60416">
        <ele>20.9</ele>
        <time>2022-09-28T14:15:38.001Z</time>
      </trkpt>
      <trkpt lat="43.32937" lon="6.60417">
        <ele>21</ele>
        <time>2022-09-28T14:15:39.001Z</time>
      </trkpt>
      <trkpt lat="43.32939" lon="6.60417">
        <ele>21.2</ele>
        <time>2022-09-28T14:15:40.000Z</time>
      </trkpt>
      <trkpt lat="43.32943" lon="6.60417">
        <ele>21.8</ele>
        <time>2022-09-28T14:15:41.001Z</time>
      </trkpt>
      <trkpt lat="43.32948" lon="6.60418">
        <ele>21.3</ele>
        <time>2022-09-28T14:15:42.000Z</time>
      </trkpt>
      <trkpt lat="43.32953" lon="6.60421">
        <ele>20.4</ele>
        <time>2022-09-28T14:15:43.001Z</time>
      </trkpt>
      <trkpt lat="43.32959" lon="6.60419">
        <ele>20.5</ele>
        <time>2022-09-28T14:15:45.001Z</time>
      </trkpt>
      <trkpt lat="43.32963" lon="6.60416">
        <ele>20.8</ele>
        <time>2022-09-28T14:15:46.001Z</time>
      </trkpt>
      <trkpt lat="43.32967" lon="6.60412">
        <ele>21.2</ele>
        <time>2022-09-28T14:15:47.000Z</time>
      </trkpt>
      <trkpt lat="43.32971" lon="6.60409">
        <ele>21.3</ele>
        <time>2022-09-28T14:15:48.002Z</time>
      </trkpt>
      <trkpt lat="43.32975" lon="6.6041">
        <ele>22.3</ele>
        <time>2022-09-28T14:15:49.000Z</time>
      </trkpt>
      <trkpt lat="43.32978" lon="6.60415">
        <ele>23.1</ele>
        <time>2022-09-28T14:15:50.002Z</time>
      </trkpt>
      <trkpt lat="43.32979" lon="6.60421">
        <ele>23.1</ele>
        <time>2022-09-28T14:15:51.001Z</time>
      </trkpt>
      <trkpt lat="43.3298" lon="6.60425">
        <ele>22.7</ele>
        <time>2022-09-28T14:15:52.001Z</time>
      </trkpt>
      <trkpt lat="43.3298" lon="6.60431">
        <ele>21.9</ele>
        <time>2022-09-28T14:15:53.001Z</time>
      </trkpt>
      <trkpt lat="43.32978" lon="6.60439">
        <ele>19.7</ele>
        <time>2022-09-28T14:15:54.001Z</time>
      </trkpt>
      <trkpt lat="43.32979" lon="6.60445">
        <ele>19.5</ele>
        <time>2022-09-28T14:15:55.000Z</time>
      </trkpt>
      <trkpt lat="43.32981" lon="6.60451">
        <ele>20.2</ele>
        <time>2022-09-28T14:15:56.001Z</time>
      </trkpt>
      <trkpt lat="43.32981" lon="6.60458">
        <ele>19.9</ele>
        <time>2022-09-28T14:15:57.000Z</time>
      </trkpt>
      <trkpt lat="43.32982" lon="6.60465">
        <ele>19.8</ele>
        <time>2022-09-28T14:15:58.000Z</time>
      </trkpt>
      <trkpt lat="43.32982" lon="6.60472">
        <ele>19.5</ele>
        <time>2022-09-28T14:15:59.001Z</time>
      </trkpt>
      <trkpt lat="43.3298" lon="6.60482">
        <ele>19.3</ele>
        <time>2022-09-28T14:16:01.000Z</time>
      </trkpt>
      <trkpt lat="43.32979" lon="6.60489">
        <ele>19</ele>
        <time>2022-09-28T14:16:02.001Z</time>
      </trkpt>
      <trkpt lat="43.32976" lon="6.60495">
        <ele>18.3</ele>
        <time>2022-09-28T14:16:03.001Z</time>
      </trkpt>
      <trkpt lat="43.32974" lon="6.60501">
        <ele>17.9</ele>
        <time>2022-09-28T14:16:04.001Z</time>
      </trkpt>
      <trkpt lat="43.32973" lon="6.60508">
        <ele>18</ele>
        <time>2022-09-28T14:16:05.001Z</time>
      </trkpt>
      <trkpt lat="43.32972" lon="6.60515">
        <ele>18</ele>
        <time>2022-09-28T14:16:06.000Z</time>
      </trkpt>
      <trkpt lat="43.32971" lon="6.60521">
        <ele>18.4</ele>
        <time>2022-09-28T14:16:07.000Z</time>
      </trkpt>
      <trkpt lat="43.32971" lon="6.60528">
        <ele>18.8</ele>
        <time>2022-09-28T14:16:08.000Z</time>
      </trkpt>
      <trkpt lat="43.3297" lon="6.60534">
        <ele>18.6</ele>
        <time>2022-09-28T14:16:09.000Z</time>
      </trkpt>
      <trkpt lat="43.32968" lon="6.6054">
        <ele>18.4</ele>
        <time>2022-09-28T14:16:10.000Z</time>
      </trkpt>
      <trkpt lat="43.32967" lon="6.60542">
        <ele>18.2</ele>
        <time>2022-09-28T14:16:11.002Z</time>
      </trkpt>
      <trkpt lat="43.32966" lon="6.60553">
        <ele>17.8</ele>
        <time>2022-09-28T14:16:12.000Z</time>
      </trkpt>
      <trkpt lat="43.32965" lon="6.60559">
        <ele>17.8</ele>
        <time>2022-09-28T14:16:13.000Z</time>
      </trkpt>
      <trkpt lat="43.32963" lon="6.60566">
        <ele>17.7</ele>
        <time>2022-09-28T14:16:15.001Z</time>
      </trkpt>
      <trkpt lat="43.32961" lon="6.60572">
        <ele>17.6</ele>
        <time>2022-09-28T14:16:16.000Z</time>
      </trkpt>
      <trkpt lat="43.3296" lon="6.60578">
        <ele>17.6</ele>
        <time>2022-09-28T14:16:17.001Z</time>
      </trkpt>
      <trkpt lat="43.3296" lon="6.60585">
        <ele>17.8</ele>
        <time>2022-09-28T14:16:18.002Z</time>
      </trkpt>
      <trkpt lat="43.32959" lon="6.60596">
        <ele>17.7</ele>
        <time>2022-09-28T14:16:20.001Z</time>
      </trkpt>
      <trkpt lat="43.32959" lon="6.606">
        <ele>17.7</ele>
        <time>2022-09-28T14:16:21.000Z</time>
      </trkpt>
      <trkpt lat="43.3296" lon="6.60607">
        <ele>17.8</ele>
        <time>2022-09-28T14:16:22.000Z</time>
      </trkpt>
      <trkpt lat="43.32958" lon="6.60614">
        <ele>17.6</ele>
        <time>2022-09-28T14:16:23.000Z</time>
      </trkpt>
      <trkpt lat="43.32957" lon="6.6062">
        <ele>17.8</ele>
        <time>2022-09-28T14:16:24.000Z</time>
      </trkpt>
      <trkpt lat="43.32956" lon="6.60625">
        <ele>17.9</ele>
        <time>2022-09-28T14:16:25.001Z</time>
      </trkpt>
      <trkpt lat="43.32954" lon="6.60632">
        <ele>18</ele>
        <time>2022-09-28T14:16:26.000Z</time>
      </trkpt>
      <trkpt lat="43.32953" lon="6.60637">
        <ele>18.1</ele>
        <time>2022-09-28T14:16:27.001Z</time>
      </trkpt>
      <trkpt lat="43.32951" lon="6.60643">
        <ele>18.2</ele>
        <time>2022-09-28T14:16:28.000Z</time>
      </trkpt>
      <trkpt lat="43.32952" lon="6.60649">
        <ele>18.8</ele>
        <time>2022-09-28T14:16:29.000Z</time>
      </trkpt>
      <trkpt lat="43.32956" lon="6.60653">
        <ele>19.5</ele>
        <time>2022-09-28T14:16:30.003Z</time>
      </trkpt>
      <trkpt lat="43.32959" lon="6.60653">
        <ele>19.9</ele>
        <time>2022-09-28T14:16:31.001Z</time>
      </trkpt>
      <trkpt lat="43.32964" lon="6.60656">
        <ele>20.5</ele>
        <time>2022-09-28T14:16:33.000Z</time>
      </trkpt>
      <trkpt lat="43.32965" lon="6.6066">
        <ele>20.9</ele>
        <time>2022-09-28T14:16:34.001Z</time>
      </trkpt>
      <trkpt lat="43.32966" lon="6.60663">
        <ele>21.1</ele>
        <time>2022-09-28T14:16:35.001Z</time>
      </trkpt>
      <trkpt lat="43.32968" lon="6.60666">
        <ele>21.5</ele>
        <time>2022-09-28T14:16:36.002Z</time>
      </trkpt>
      <trkpt lat="43.32968" lon="6.60669">
        <ele>21.8</ele>
        <time>2022-09-28T14:16:37.001Z</time>
      </trkpt>
      <trkpt lat="43.32968" lon="6.60672">
        <ele>22.1</ele>
        <time>2022-09-28T14:16:39.001Z</time>
      </trkpt>
      <trkpt lat="43.32969" lon="6.60675">
        <ele>22.6</ele>
        <time>2022-09-28T14:16:40.001Z</time>
      </trkpt>
      <trkpt lat="43.32969" lon="6.60677">
        <ele>22.9</ele>
        <time>2022-09-28T14:16:41.001Z</time>
      </trkpt>
      <trkpt lat="43.32968" lon="6.6068">
        <ele>23.2</ele>
        <time>2022-09-28T14:16:42.001Z</time>
      </trkpt>
      <trkpt lat="43.32968" lon="6.60683">
        <ele>23.6</ele>
        <time>2022-09-28T14:16:43.000Z</time>
      </trkpt>
      <trkpt lat="43.32968" lon="6.60686">
        <ele>23.9</ele>
        <time>2022-09-28T14:16:45.000Z</time>
      </trkpt>
      <trkpt lat="43.32967" lon="6.60688">
        <ele>24</ele>
        <time>2022-09-28T14:16:46.001Z</time>
      </trkpt>
      <trkpt lat="43.32966" lon="6.6069">
        <ele>24</ele>
        <time>2022-09-28T14:16:47.001Z</time>
      </trkpt>
      <trkpt lat="43.32966" lon="6.60692">
        <ele>24.1</ele>
        <time>2022-09-28T14:16:48.000Z</time>
      </trkpt>
      <trkpt lat="43.32965" lon="6.60694">
        <ele>24.1</ele>
        <time>2022-09-28T14:16:49.002Z</time>
      </trkpt>
      <trkpt lat="43.32964" lon="6.60695">
        <ele>24.1</ele>
        <time>2022-09-28T14:16:50.000Z</time>
      </trkpt>
      <trkpt lat="43.32964" lon="6.60696">
        <ele>24</ele>
        <time>2022-09-28T14:16:51.000Z</time>
      </trkpt>
      <trkpt lat="43.32962" lon="6.60698">
        <ele>23.9</ele>
        <time>2022-09-28T14:16:52.001Z</time>
      </trkpt>
      <trkpt lat="43.32961" lon="6.607">
        <ele>23.8</ele>
        <time>2022-09-28T14:16:53.001Z</time>
      </trkpt>
      <trkpt lat="43.3296" lon="6.60703">
        <ele>23.8</ele>
        <time>2022-09-28T14:16:55.000Z</time>
      </trkpt>
      <trkpt lat="43.32959" lon="6.60705">
        <ele>23.8</ele>
        <time>2022-09-28T14:16:57.001Z</time>
      </trkpt>
      <trkpt lat="43.32958" lon="6.60706">
        <ele>23.9</ele>
        <time>2022-09-28T14:16:58.000Z</time>
      </trkpt>
      <trkpt lat="43.32957" lon="6.60708">
        <ele>23.9</ele>
        <time>2022-09-28T14:16:59.001Z</time>
      </trkpt>
      <trkpt lat="43.32957" lon="6.60711">
        <ele>24.3</ele>
        <time>2022-09-28T14:17:01.002Z</time>
      </trkpt>
      <trkpt lat="43.32959" lon="6.60714">
        <ele>25.1</ele>
        <time>2022-09-28T14:17:02.000Z</time>
      </trkpt>
      <trkpt lat="43.3296" lon="6.60714">
        <ele>25.3</ele>
        <time>2022-09-28T14:17:05.001Z</time>
      </trkpt>
      <trkpt lat="43.32961" lon="6.60716">
        <ele>25.6</ele>
        <time>2022-09-28T14:17:08.000Z</time>
      </trkpt>
      <trkpt lat="43.32959" lon="6.60718">
        <ele>25.5</ele>
        <time>2022-09-28T14:17:11.000Z</time>
      </trkpt>
      <trkpt lat="43.32956" lon="6.6072">
        <ele>25.4</ele>
        <time>2022-09-28T14:17:12.002Z</time>
      </trkpt>
      <trkpt lat="43.32955" lon="6.60722">
        <ele>25.5</ele>
        <time>2022-09-28T14:17:13.006Z</time>
      </trkpt>
      <trkpt lat="43.32954" lon="6.60725">
        <ele>25.1</ele>
        <time>2022-09-28T14:17:14.003Z</time>
      </trkpt>
      <trkpt lat="43.32953" lon="6.60727">
        <ele>24.8</ele>
        <time>2022-09-28T14:17:15.001Z</time>
      </trkpt>
      <trkpt lat="43.32952" lon="6.60729">
        <ele>24.4</ele>
        <time>2022-09-28T14:17:16.001Z</time>
      </trkpt>
      <trkpt lat="43.32951" lon="6.60732">
        <ele>24.2</ele>
        <time>2022-09-28T14:17:17.001Z</time>
      </trkpt>
      <trkpt lat="43.32951" lon="6.60734">
        <ele>23.9</ele>
        <time>2022-09-28T14:17:18.000Z</time>
      </trkpt>
      <trkpt lat="43.32951" lon="6.60735">
        <ele>23.8</ele>
        <time>2022-09-28T14:17:19.001Z</time>
      </trkpt>
      <trkpt lat="43.32953" lon="6.60737">
        <ele>23.9</ele>
        <time>2022-09-28T14:17:21.001Z</time>
      </trkpt>
      <trkpt lat="43.32955" lon="6.6074">
        <ele>23.7</ele>
        <time>2022-09-28T14:17:23.001Z</time>
      </trkpt>
      <trkpt lat="43.32956" lon="6.60743">
        <ele>23.5</ele>
        <time>2022-09-28T14:17:24.002Z</time>
      </trkpt>
      <trkpt lat="43.32955" lon="6.60746">
        <ele>23.2</ele>
        <time>2022-09-28T14:17:25.000Z</time>
      </trkpt>
      <trkpt lat="43.32956" lon="6.60749">
        <ele>22.9</ele>
        <time>2022-09-28T14:17:26.003Z</time>
      </trkpt>
      <trkpt lat="43.32956" lon="6.6075">
        <ele>22.8</ele>
        <time>2022-09-28T14:17:27.001Z</time>
      </trkpt>
      <trkpt lat="43.32956" lon="6.60748">
        <ele>23</ele>
        <time>2022-09-28T14:17:29.000Z</time>
      </trkpt>
      <trkpt lat="43.32957" lon="6.60747">
        <ele>23.2</ele>
        <time>2022-09-28T14:17:31.001Z</time>
      </trkpt>
      <trkpt lat="43.32957" lon="6.60746">
        <ele>23.3</ele>
        <time>2022-09-28T14:17:35.001Z</time>
      </trkpt>
      <trkpt lat="43.32959" lon="6.60746">
        <ele>23.5</ele>
        <time>2022-09-28T14:17:36.001Z</time>
      </trkpt>
      <trkpt lat="43.3296" lon="6.60746">
        <ele>23.6</ele>
        <time>2022-09-28T14:17:37.000Z</time>
      </trkpt>
      <trkpt lat="43.32961" lon="6.60746">
        <ele>23.7</ele>
        <time>2022-09-28T14:17:39.001Z</time>
      </trkpt>
      <trkpt lat="43.32961" lon="6.60744">
        <ele>23.9</ele>
        <time>2022-09-28T14:17:44.002Z</time>
      </trkpt>
      <trkpt lat="43.32961" lon="6.60743">
        <ele>24</ele>
        <time>2022-09-28T14:17:48.001Z</time>
      </trkpt>
      <trkpt lat="43.32958" lon="6.6074">
        <ele>24.1</ele>
        <time>2022-09-28T14:20:55.001Z</time>
      </trkpt>
      <trkpt lat="43.32959" lon="6.6074">
        <ele>24.2</ele>
        <time>2022-09-28T14:20:57.000Z</time>
      </trkpt>
      <trkpt lat="43.32961" lon="6.6074">
        <ele>24.4</ele>
        <time>2022-09-28T14:20:58.000Z</time>
      </trkpt>
      <trkpt lat="43.32962" lon="6.60739">
        <ele>24.5</ele>
        <time>2022-09-28T14:20:59.000Z</time>
      </trkpt>
      <trkpt lat="43.32963" lon="6.60739">
        <ele>24.6</ele>
        <time>2022-09-28T14:21:02.001Z</time>
      </trkpt>
      <trkpt lat="43.32964" lon="6.6074">
        <ele>24.6</ele>
        <time>2022-09-28T14:21:03.001Z</time>
      </trkpt>
      <trkpt lat="43.32965" lon="6.60742">
        <ele>24.5</ele>
        <time>2022-09-28T14:21:04.001Z</time>
      </trkpt>
      <trkpt lat="43.32967" lon="6.60744">
        <ele>24.4</ele>
        <time>2022-09-28T14:21:05.000Z</time>
      </trkpt>
      <trkpt lat="43.32971" lon="6.60745">
        <ele>24.6</ele>
        <time>2022-09-28T14:21:06.000Z</time>
      </trkpt>
      <trkpt lat="43.32978" lon="6.60743">
        <ele>23.6</ele>
        <time>2022-09-28T14:21:07.002Z</time>
      </trkpt>
      <trkpt lat="43.32983" lon="6.60739">
        <ele>23.2</ele>
        <time>2022-09-28T14:21:08.001Z</time>
      </trkpt>
      <trkpt lat="43.32987" lon="6.60735">
        <ele>23.4</ele>
        <time>2022-09-28T14:21:09.001Z</time>
      </trkpt>
      <trkpt lat="43.32989" lon="6.60731">
        <ele>23.9</ele>
        <time>2022-09-28T14:21:10.000Z</time>
      </trkpt>
      <trkpt lat="43.32989" lon="6.60732">
        <ele>23.7</ele>
        <time>2022-09-28T14:21:11.000Z</time>
      </trkpt>
      <trkpt lat="43.32993" lon="6.60726">
        <ele>24.7</ele>
        <time>2022-09-28T14:21:12.001Z</time>
      </trkpt>
      <trkpt lat="43.32997" lon="6.60719">
        <ele>25.9</ele>
        <time>2022-09-28T14:21:14.001Z</time>
      </trkpt>
      <trkpt lat="43.32999" lon="6.60713">
        <ele>26.9</ele>
        <time>2022-09-28T14:21:15.000Z</time>
      </trkpt>
      <trkpt lat="43.33003" lon="6.60708">
        <ele>27.3</ele>
        <time>2022-09-28T14:21:17.000Z</time>
      </trkpt>
      <trkpt lat="43.33004" lon="6.60703">
        <ele>27.8</ele>
        <time>2022-09-28T14:21:18.001Z</time>
      </trkpt>
      <trkpt lat="43.33007" lon="6.607">
        <ele>27.6</ele>
        <time>2022-09-28T14:21:19.000Z</time>
      </trkpt>
      <trkpt lat="43.33011" lon="6.60695">
        <ele>27.7</ele>
        <time>2022-09-28T14:21:21.001Z</time>
      </trkpt>
      <trkpt lat="43.33014" lon="6.60692">
        <ele>27.6</ele>
        <time>2022-09-28T14:21:22.000Z</time>
      </trkpt>
      <trkpt lat="43.33016" lon="6.60689">
        <ele>27.5</ele>
        <time>2022-09-28T14:21:23.000Z</time>
      </trkpt>
      <trkpt lat="43.3302" lon="6.60686">
        <ele>27.9</ele>
        <time>2022-09-28T14:21:24.000Z</time>
      </trkpt>
      <trkpt lat="43.33022" lon="6.60683">
        <ele>28.4</ele>
        <time>2022-09-28T14:21:26.000Z</time>
      </trkpt>
      <trkpt lat="43.33025" lon="6.60677">
        <ele>30.2</ele>
        <time>2022-09-28T14:21:27.000Z</time>
      </trkpt>
      <trkpt lat="43.3303" lon="6.60671">
        <ele>31.6</ele>
        <time>2022-09-28T14:21:29.001Z</time>
      </trkpt>
      <trkpt lat="43.33032" lon="6.60668">
        <ele>31.8</ele>
        <time>2022-09-28T14:21:30.000Z</time>
      </trkpt>
      <trkpt lat="43.33034" lon="6.60665">
        <ele>31.8</ele>
        <time>2022-09-28T14:21:31.002Z</time>
      </trkpt>
      <trkpt lat="43.33038" lon="6.6066">
        <ele>31.2</ele>
        <time>2022-09-28T14:21:33.001Z</time>
      </trkpt>
      <trkpt lat="43.33041" lon="6.60657">
        <ele>31.1</ele>
        <time>2022-09-28T14:21:34.001Z</time>
      </trkpt>
      <trkpt lat="43.33043" lon="6.60653">
        <ele>31.3</ele>
        <time>2022-09-28T14:21:35.000Z</time>
      </trkpt>
      <trkpt lat="43.33046" lon="6.60649">
        <ele>31.6</ele>
        <time>2022-09-28T14:21:36.000Z</time>
      </trkpt>
      <trkpt lat="43.33048" lon="6.60645">
        <ele>32.2</ele>
        <time>2022-09-28T14:21:38.001Z</time>
      </trkpt>
      <trkpt lat="43.33052" lon="6.60641">
        <ele>32.7</ele>
        <time>2022-09-28T14:21:39.000Z</time>
      </trkpt>
      <trkpt lat="43.33054" lon="6.60639">
        <ele>33.1</ele>
        <time>2022-09-28T14:21:40.000Z</time>
      </trkpt>
      <trkpt lat="43.33056" lon="6.60637">
        <ele>33.1</ele>
        <time>2022-09-28T14:21:41.001Z</time>
      </trkpt>
      <trkpt lat="43.33059" lon="6.60634">
        <ele>33</ele>
        <time>2022-09-28T14:21:42.000Z</time>
      </trkpt>
      <trkpt lat="43.33061" lon="6.60632">
        <ele>32.9</ele>
        <time>2022-09-28T14:21:43.000Z</time>
      </trkpt>
      <trkpt lat="43.33064" lon="6.6063">
        <ele>32.7</ele>
        <time>2022-09-28T14:21:44.000Z</time>
      </trkpt>
      <trkpt lat="43.33067" lon="6.60627">
        <ele>32.8</ele>
        <time>2022-09-28T14:21:45.001Z</time>
      </trkpt>
      <trkpt lat="43.33069" lon="6.60625">
        <ele>32.9</ele>
        <time>2022-09-28T14:21:46.000Z</time>
      </trkpt>
      <trkpt lat="43.33072" lon="6.60623">
        <ele>32.9</ele>
        <time>2022-09-28T14:21:47.000Z</time>
      </trkpt>
      <trkpt lat="43.33075" lon="6.60621">
        <ele>32.9</ele>
        <time>2022-09-28T14:21:48.001Z</time>
      </trkpt>
      <trkpt lat="43.33078" lon="6.60619">
        <ele>32.9</ele>
        <time>2022-09-28T14:21:50.001Z</time>
      </trkpt>
      <trkpt lat="43.33082" lon="6.60617">
        <ele>33.1</ele>
        <time>2022-09-28T14:21:51.000Z</time>
      </trkpt>
      <trkpt lat="43.33085" lon="6.60616">
        <ele>33.1</ele>
        <time>2022-09-28T14:21:52.000Z</time>
      </trkpt>
      <trkpt lat="43.33088" lon="6.60614">
        <ele>33</ele>
        <time>2022-09-28T14:21:54.001Z</time>
      </trkpt>
      <trkpt lat="43.33091" lon="6.60613">
        <ele>32.8</ele>
        <time>2022-09-28T14:21:55.000Z</time>
      </trkpt>
      <trkpt lat="43.33093" lon="6.60612">
        <ele>33.1</ele>
        <time>2022-09-28T14:21:56.000Z</time>
      </trkpt>
      <trkpt lat="43.33095" lon="6.60609">
        <ele>33.4</ele>
        <time>2022-09-28T14:21:58.002Z</time>
      </trkpt>
      <trkpt lat="43.33097" lon="6.60609">
        <ele>33.2</ele>
        <time>2022-09-28T14:21:59.000Z</time>
      </trkpt>
      <trkpt lat="43.33099" lon="6.60607">
        <ele>33.3</ele>
        <time>2022-09-28T14:22:00.000Z</time>
      </trkpt>
      <trkpt lat="43.33101" lon="6.60606">
        <ele>33.4</ele>
        <time>2022-09-28T14:22:01.001Z</time>
      </trkpt>
      <trkpt lat="43.33103" lon="6.60604">
        <ele>33.5</ele>
        <time>2022-09-28T14:22:02.001Z</time>
      </trkpt>
      <trkpt lat="43.33105" lon="6.60602">
        <ele>33.8</ele>
        <time>2022-09-28T14:22:03.000Z</time>
      </trkpt>
      <trkpt lat="43.33109" lon="6.60599">
        <ele>34.4</ele>
        <time>2022-09-28T14:22:04.000Z</time>
      </trkpt>
      <trkpt lat="43.33111" lon="6.60597">
        <ele>34.5</ele>
        <time>2022-09-28T14:22:05.000Z</time>
      </trkpt>
      <trkpt lat="43.33115" lon="6.60593">
        <ele>34.7</ele>
        <time>2022-09-28T14:22:07.000Z</time>
      </trkpt>
      <trkpt lat="43.33117" lon="6.60591">
        <ele>34.9</ele>
        <time>2022-09-28T14:22:08.001Z</time>
      </trkpt>
      <trkpt lat="43.3312" lon="6.60588">
        <ele>35.1</ele>
        <time>2022-09-28T14:22:09.001Z</time>
      </trkpt>
      <trkpt lat="43.33124" lon="6.60585">
        <ele>35.5</ele>
        <time>2022-09-28T14:22:11.002Z</time>
      </trkpt>
      <trkpt lat="43.33127" lon="6.60583">
        <ele>35.7</ele>
        <time>2022-09-28T14:22:12.002Z</time>
      </trkpt>
      <trkpt lat="43.33129" lon="6.60582">
        <ele>35.5</ele>
        <time>2022-09-28T14:22:13.001Z</time>
      </trkpt>
      <trkpt lat="43.33131" lon="6.6058">
        <ele>35.3</ele>
        <time>2022-09-28T14:22:14.022Z</time>
      </trkpt>
      <trkpt lat="43.33134" lon="6.60578">
        <ele>35.3</ele>
        <time>2022-09-28T14:22:15.000Z</time>
      </trkpt>
      <trkpt lat="43.33136" lon="6.60576">
        <ele>35.1</ele>
        <time>2022-09-28T14:22:16.000Z</time>
      </trkpt>
      <trkpt lat="43.33138" lon="6.60575">
        <ele>35</ele>
        <time>2022-09-28T14:22:17.000Z</time>
      </trkpt>
      <trkpt lat="43.3314" lon="6.60572">
        <ele>35.2</ele>
        <time>2022-09-28T14:22:18.001Z</time>
      </trkpt>
      <trkpt lat="43.33145" lon="6.60568">
        <ele>35.7</ele>
        <time>2022-09-28T14:22:20.002Z</time>
      </trkpt>
      <trkpt lat="43.33148" lon="6.60566">
        <ele>35.8</ele>
        <time>2022-09-28T14:22:21.000Z</time>
      </trkpt>
      <trkpt lat="43.33151" lon="6.60564">
        <ele>36.1</ele>
        <time>2022-09-28T14:22:22.003Z</time>
      </trkpt>
      <trkpt lat="43.33155" lon="6.60563">
        <ele>36.3</ele>
        <time>2022-09-28T14:22:23.000Z</time>
      </trkpt>
      <trkpt lat="43.33158" lon="6.60563">
        <ele>36.2</ele>
        <time>2022-09-28T14:22:24.001Z</time>
      </trkpt>
      <trkpt lat="43.33163" lon="6.60563">
        <ele>35.9</ele>
        <time>2022-09-28T14:22:26.001Z</time>
      </trkpt>
      <trkpt lat="43.33166" lon="6.60563">
        <ele>35.6</ele>
        <time>2022-09-28T14:22:27.000Z</time>
      </trkpt>
      <trkpt lat="43.3317" lon="6.60564">
        <ele>35</ele>
        <time>2022-09-28T14:22:29.001Z</time>
      </trkpt>
      <trkpt lat="43.33173" lon="6.60565">
        <ele>34.5</ele>
        <time>2022-09-28T14:22:30.001Z</time>
      </trkpt>
      <trkpt lat="43.33176" lon="6.60565">
        <ele>34.2</ele>
        <time>2022-09-28T14:22:31.000Z</time>
      </trkpt>
      <trkpt lat="43.33178" lon="6.60565">
        <ele>34.1</ele>
        <time>2022-09-28T14:22:32.003Z</time>
      </trkpt>
      <trkpt lat="43.33181" lon="6.60564">
        <ele>34.5</ele>
        <time>2022-09-28T14:22:33.001Z</time>
      </trkpt>
      <trkpt lat="43.33184" lon="6.60562">
        <ele>35</ele>
        <time>2022-09-28T14:22:34.000Z</time>
      </trkpt>
      <trkpt lat="43.33187" lon="6.60561">
        <ele>35.3</ele>
        <time>2022-09-28T14:22:35.000Z</time>
      </trkpt>
      <trkpt lat="43.3319" lon="6.6056">
        <ele>35.7</ele>
        <time>2022-09-28T14:22:36.001Z</time>
      </trkpt>
      <trkpt lat="43.33193" lon="6.60557">
        <ele>36.6</ele>
        <time>2022-09-28T14:22:37.002Z</time>
      </trkpt>
      <trkpt lat="43.33196" lon="6.60555">
        <ele>37</ele>
        <time>2022-09-28T14:22:39.000Z</time>
      </trkpt>
      <trkpt lat="43.33199" lon="6.60553">
        <ele>37.2</ele>
        <time>2022-09-28T14:22:40.001Z</time>
      </trkpt>
      <trkpt lat="43.33201" lon="6.60551">
        <ele>37.5</ele>
        <time>2022-09-28T14:22:41.000Z</time>
      </trkpt>
      <trkpt lat="43.33205" lon="6.60548">
        <ele>37.9</ele>
        <time>2022-09-28T14:22:42.000Z</time>
      </trkpt>
      <trkpt lat="43.33209" lon="6.60547">
        <ele>38</ele>
        <time>2022-09-28T14:22:43.001Z</time>
      </trkpt>
      <trkpt lat="43.33213" lon="6.60549">
        <ele>37.6</ele>
        <time>2022-09-28T14:22:45.001Z</time>
      </trkpt>
      <trkpt lat="43.33218" lon="6.60552">
        <ele>36.9</ele>
        <time>2022-09-28T14:22:47.001Z</time>
      </trkpt>
      <trkpt lat="43.33222" lon="6.60554">
        <ele>36.4</ele>
        <time>2022-09-28T14:22:48.001Z</time>
      </trkpt>
      <trkpt lat="43.33225" lon="6.60555">
        <ele>36.8</ele>
        <time>2022-09-28T14:22:49.001Z</time>
      </trkpt>
      <trkpt lat="43.3323" lon="6.60557">
        <ele>36.9</ele>
        <time>2022-09-28T14:22:50.000Z</time>
      </trkpt>
      <trkpt lat="43.33234" lon="6.6056">
        <ele>36.8</ele>
        <time>2022-09-28T14:22:51.000Z</time>
      </trkpt>
      <trkpt lat="43.3324" lon="6.60562">
        <ele>37</ele>
        <time>2022-09-28T14:22:53.001Z</time>
      </trkpt>
      <trkpt lat="43.33244" lon="6.60565">
        <ele>37</ele>
        <time>2022-09-28T14:22:54.001Z</time>
      </trkpt>
      <trkpt lat="43.3325" lon="6.60568">
        <ele>36.9</ele>
        <time>2022-09-28T14:22:55.001Z</time>
      </trkpt>
      <trkpt lat="43.33254" lon="6.60571">
        <ele>36.8</ele>
        <time>2022-09-28T14:22:56.001Z</time>
      </trkpt>
      <trkpt lat="43.33258" lon="6.60574">
        <ele>36.7</ele>
        <time>2022-09-28T14:22:57.000Z</time>
      </trkpt>
      <trkpt lat="43.33262" lon="6.60577">
        <ele>36.7</ele>
        <time>2022-09-28T14:22:59.001Z</time>
      </trkpt>
      <trkpt lat="43.33266" lon="6.60579">
        <ele>36.9</ele>
        <time>2022-09-28T14:23:00.000Z</time>
      </trkpt>
      <trkpt lat="43.3327" lon="6.60582">
        <ele>37.1</ele>
        <time>2022-09-28T14:23:01.001Z</time>
      </trkpt>
      <trkpt lat="43.33273" lon="6.60583">
        <ele>37.5</ele>
        <time>2022-09-28T14:23:02.001Z</time>
      </trkpt>
      <trkpt lat="43.33276" lon="6.60586">
        <ele>37.6</ele>
        <time>2022-09-28T14:23:03.001Z</time>
      </trkpt>
      <trkpt lat="43.33279" lon="6.60589">
        <ele>37.1</ele>
        <time>2022-09-28T14:23:04.002Z</time>
      </trkpt>
      <trkpt lat="43.33282" lon="6.60592">
        <ele>36.6</ele>
        <time>2022-09-28T14:23:05.000Z</time>
      </trkpt>
      <trkpt lat="43.33286" lon="6.60594">
        <ele>36.6</ele>
        <time>2022-09-28T14:23:06.001Z</time>
      </trkpt>
      <trkpt lat="43.3329" lon="6.60597">
        <ele>36.5</ele>
        <time>2022-09-28T14:23:08.001Z</time>
      </trkpt>
      <trkpt lat="43.33293" lon="6.606">
        <ele>36.6</ele>
        <time>2022-09-28T14:23:09.001Z</time>
      </trkpt>
      <trkpt lat="43.33297" lon="6.60603">
        <ele>37</ele>
        <time>2022-09-28T14:23:10.002Z</time>
      </trkpt>
      <trkpt lat="43.333" lon="6.60606">
        <ele>37.3</ele>
        <time>2022-09-28T14:23:11.000Z</time>
      </trkpt>
      <trkpt lat="43.33302" lon="6.60608">
        <ele>37.5</ele>
        <time>2022-09-28T14:23:12.000Z</time>
      </trkpt>
      <trkpt lat="43.33305" lon="6.6061">
        <ele>37.9</ele>
        <time>2022-09-28T14:23:13.001Z</time>
      </trkpt>
      <trkpt lat="43.33309" lon="6.60612">
        <ele>37.7</ele>
        <time>2022-09-28T14:23:15.000Z</time>
      </trkpt>
      <trkpt lat="43.33311" lon="6.60612">
        <ele>37.5</ele>
        <time>2022-09-28T14:23:16.000Z</time>
      </trkpt>
      <trkpt lat="43.33314" lon="6.60614">
        <ele>37</ele>
        <time>2022-09-28T14:23:17.001Z</time>
      </trkpt>
      <trkpt lat="43.33316" lon="6.60614">
        <ele>36.9</ele>
        <time>2022-09-28T14:23:18.000Z</time>
      </trkpt>
      <trkpt lat="43.3332" lon="6.60613">
        <ele>37.1</ele>
        <time>2022-09-28T14:23:19.000Z</time>
      </trkpt>
      <trkpt lat="43.33324" lon="6.60612">
        <ele>37.1</ele>
        <time>2022-09-28T14:23:21.000Z</time>
      </trkpt>
      <trkpt lat="43.3333" lon="6.60609">
        <ele>37.5</ele>
        <time>2022-09-28T14:23:22.000Z</time>
      </trkpt>
      <trkpt lat="43.33334" lon="6.60607">
        <ele>37.9</ele>
        <time>2022-09-28T14:23:24.001Z</time>
      </trkpt>
      <trkpt lat="43.33337" lon="6.60607">
        <ele>38</ele>
        <time>2022-09-28T14:23:25.001Z</time>
      </trkpt>
      <trkpt lat="43.3334" lon="6.60606">
        <ele>38.2</ele>
        <time>2022-09-28T14:23:26.000Z</time>
      </trkpt>
      <trkpt lat="43.33343" lon="6.60606">
        <ele>38.2</ele>
        <time>2022-09-28T14:23:27.000Z</time>
      </trkpt>
      <trkpt lat="43.33346" lon="6.60607">
        <ele>38.2</ele>
        <time>2022-09-28T14:23:28.000Z</time>
      </trkpt>
      <trkpt lat="43.33349" lon="6.60608">
        <ele>38.1</ele>
        <time>2022-09-28T14:23:30.001Z</time>
      </trkpt>
      <trkpt lat="43.33352" lon="6.60607">
        <ele>38.2</ele>
        <time>2022-09-28T14:23:31.000Z</time>
      </trkpt>
      <trkpt lat="43.33356" lon="6.60606">
        <ele>38.4</ele>
        <time>2022-09-28T14:23:32.000Z</time>
      </trkpt>
      <trkpt lat="43.33359" lon="6.60605">
        <ele>38.6</ele>
        <time>2022-09-28T14:23:33.000Z</time>
      </trkpt>
      <trkpt lat="43.33364" lon="6.60603">
        <ele>38</ele>
        <time>2022-09-28T14:23:34.003Z</time>
      </trkpt>
      <trkpt lat="43.33366" lon="6.606">
        <ele>37.5</ele>
        <time>2022-09-28T14:23:35.001Z</time>
      </trkpt>
      <trkpt lat="43.33369" lon="6.60595">
        <ele>37.2</ele>
        <time>2022-09-28T14:23:37.000Z</time>
      </trkpt>
      <trkpt lat="43.33369" lon="6.60589">
        <ele>37.6</ele>
        <time>2022-09-28T14:23:38.000Z</time>
      </trkpt>
      <trkpt lat="43.33369" lon="6.60584">
        <ele>38.1</ele>
        <time>2022-09-28T14:23:40.001Z</time>
      </trkpt>
      <trkpt lat="43.33367" lon="6.6058">
        <ele>38.7</ele>
        <time>2022-09-28T14:23:41.000Z</time>
      </trkpt>
      <trkpt lat="43.33366" lon="6.60579">
        <ele>38.8</ele>
        <time>2022-09-28T14:23:42.000Z</time>
      </trkpt>
      <trkpt lat="43.33366" lon="6.60577">
        <ele>38.5</ele>
        <time>2022-09-28T14:23:43.001Z</time>
      </trkpt>
      <trkpt lat="43.33365" lon="6.60579">
        <ele>39</ele>
        <time>2022-09-28T14:23:45.001Z</time>
      </trkpt>
      <trkpt lat="43.33365" lon="6.60581">
        <ele>39.4</ele>
        <time>2022-09-28T14:23:47.000Z</time>
      </trkpt>
      <trkpt lat="43.33366" lon="6.6058">
        <ele>39.1</ele>
        <time>2022-09-28T14:24:02.000Z</time>
      </trkpt>
      <trkpt lat="43.33365" lon="6.6058">
        <ele>39.3</ele>
        <time>2022-09-28T14:24:28.000Z</time>
      </trkpt>
      <trkpt lat="43.33364" lon="6.60581">
        <ele>39.7</ele>
        <time>2022-09-28T14:24:47.001Z</time>
      </trkpt>
      <trkpt lat="43.33363" lon="6.60581">
        <ele>40.1</ele>
        <time>2022-09-28T14:25:21.000Z</time>
      </trkpt>
      <trkpt lat="43.33363" lon="6.60579">
        <ele>39.8</ele>
        <time>2022-09-28T14:25:56.000Z</time>
      </trkpt>
      <trkpt lat="43.33363" lon="6.60577">
        <ele>39.7</ele>
        <time>2022-09-28T14:25:57.000Z</time>
      </trkpt>
      <trkpt lat="43.33363" lon="6.60576">
        <ele>39.6</ele>
        <time>2022-09-28T14:25:58.001Z</time>
      </trkpt>
      <trkpt lat="43.33362" lon="6.60574">
        <ele>39.5</ele>
        <time>2022-09-28T14:25:59.001Z</time>
      </trkpt>
      <trkpt lat="43.33362" lon="6.60572">
        <ele>39.2</ele>
        <time>2022-09-28T14:26:00.000Z</time>
      </trkpt>
      <trkpt lat="43.33363" lon="6.6057">
        <ele>38.9</ele>
        <time>2022-09-28T14:26:01.000Z</time>
      </trkpt>
      <trkpt lat="43.33363" lon="6.60568">
        <ele>38.6</ele>
        <time>2022-09-28T14:26:02.001Z</time>
      </trkpt>
      <trkpt lat="43.33365" lon="6.60564">
        <ele>37.5</ele>
        <time>2022-09-28T14:26:03.001Z</time>
      </trkpt>
      <trkpt lat="43.33366" lon="6.60557">
        <ele>36.1</ele>
        <time>2022-09-28T14:26:05.000Z</time>
      </trkpt>
      <trkpt lat="43.33365" lon="6.60553">
        <ele>36.2</ele>
        <time>2022-09-28T14:26:07.000Z</time>
      </trkpt>
      <trkpt lat="43.33362" lon="6.60549">
        <ele>36.7</ele>
        <time>2022-09-28T14:26:08.001Z</time>
      </trkpt>
      <trkpt lat="43.33362" lon="6.60544">
        <ele>36.1</ele>
        <time>2022-09-28T14:26:09.001Z</time>
      </trkpt>
      <trkpt lat="43.33363" lon="6.6054">
        <ele>35.2</ele>
        <time>2022-09-28T14:26:10.000Z</time>
      </trkpt>
      <trkpt lat="43.33364" lon="6.60536">
        <ele>34.6</ele>
        <time>2022-09-28T14:26:12.000Z</time>
      </trkpt>
      <trkpt lat="43.33364" lon="6.60532">
        <ele>34.1</ele>
        <time>2022-09-28T14:26:13.001Z</time>
      </trkpt>
      <trkpt lat="43.33363" lon="6.60528">
        <ele>33.8</ele>
        <time>2022-09-28T14:26:14.050Z</time>
      </trkpt>
      <trkpt lat="43.33362" lon="6.60523">
        <ele>33.4</ele>
        <time>2022-09-28T14:26:15.001Z</time>
      </trkpt>
      <trkpt lat="43.33362" lon="6.60521">
        <ele>33.3</ele>
        <time>2022-09-28T14:26:17.001Z</time>
      </trkpt>
      <trkpt lat="43.33361" lon="6.6052">
        <ele>33.3</ele>
        <time>2022-09-28T14:26:18.001Z</time>
      </trkpt>
      <trkpt lat="43.33361" lon="6.60519">
        <ele>33.2</ele>
        <time>2022-09-28T14:26:19.001Z</time>
      </trkpt>
      <trkpt lat="43.3336" lon="6.60519">
        <ele>33.6</ele>
        <time>2022-09-28T14:26:27.000Z</time>
      </trkpt>
      <trkpt lat="43.33359" lon="6.60518">
        <ele>33.8</ele>
        <time>2022-09-28T14:26:37.000Z</time>
      </trkpt>
      <trkpt lat="43.33359" lon="6.60516">
        <ele>33.7</ele>
        <time>2022-09-28T14:26:42.001Z</time>
      </trkpt>
      <trkpt lat="43.33358" lon="6.60515">
        <ele>33.7</ele>
        <time>2022-09-28T14:26:47.002Z</time>
      </trkpt>
      <trkpt lat="43.33359" lon="6.60513">
        <ele>33.5</ele>
        <time>2022-09-28T14:27:52.000Z</time>
      </trkpt>
      <trkpt lat="43.33359" lon="6.60511">
        <ele>32.9</ele>
        <time>2022-09-28T14:27:54.000Z</time>
      </trkpt>
      <trkpt lat="43.33361" lon="6.60511">
        <ele>32.3</ele>
        <time>2022-09-28T14:27:57.000Z</time>
      </trkpt>
      <trkpt lat="43.33361" lon="6.60512">
        <ele>32.3</ele>
        <time>2022-09-28T14:27:59.001Z</time>
      </trkpt>
      <trkpt lat="43.33362" lon="6.60514">
        <ele>32.5</ele>
        <time>2022-09-28T14:28:03.000Z</time>
      </trkpt>
      <trkpt lat="43.33364" lon="6.60514">
        <ele>32.5</ele>
        <time>2022-09-28T14:28:12.000Z</time>
      </trkpt>
      <trkpt lat="43.33365" lon="6.60514">
        <ele>32.4</ele>
        <time>2022-09-28T14:28:14.001Z</time>
      </trkpt>
      <trkpt lat="43.33368" lon="6.60514">
        <ele>32.4</ele>
        <time>2022-09-28T14:28:15.000Z</time>
      </trkpt>
      <trkpt lat="43.33371" lon="6.60516">
        <ele>32.4</ele>
        <time>2022-09-28T14:28:16.001Z</time>
      </trkpt>
      <trkpt lat="43.33373" lon="6.60517">
        <ele>32.3</ele>
        <time>2022-09-28T14:28:17.001Z</time>
      </trkpt>
      <trkpt lat="43.33375" lon="6.60517">
        <ele>32.2</ele>
        <time>2022-09-28T14:28:18.000Z</time>
      </trkpt>
      <trkpt lat="43.33377" lon="6.60514">
        <ele>32.2</ele>
        <time>2022-09-28T14:28:20.001Z</time>
      </trkpt>
      <trkpt lat="43.33378" lon="6.60513">
        <ele>32.2</ele>
        <time>2022-09-28T14:28:27.000Z</time>
      </trkpt>
      <trkpt lat="43.33377" lon="6.60513">
        <ele>32.3</ele>
        <time>2022-09-28T14:28:44.001Z</time>
      </trkpt>
      <trkpt lat="43.33379" lon="6.60513">
        <ele>32.2</ele>
        <time>2022-09-28T14:28:50.001Z</time>
      </trkpt>
      <trkpt lat="43.3338" lon="6.60513">
        <ele>32.2</ele>
        <time>2022-09-28T14:28:51.001Z</time>
      </trkpt>
      <trkpt lat="43.33382" lon="6.60513">
        <ele>32.2</ele>
        <time>2022-09-28T14:28:52.000Z</time>
      </trkpt>
      <trkpt lat="43.33383" lon="6.60513">
        <ele>32.2</ele>
        <time>2022-09-28T14:28:53.001Z</time>
      </trkpt>
      <trkpt lat="43.33385" lon="6.60515">
        <ele>32</ele>
        <time>2022-09-28T14:28:54.001Z</time>
      </trkpt>
      <trkpt lat="43.33388" lon="6.60517">
        <ele>31.6</ele>
        <time>2022-09-28T14:28:55.000Z</time>
      </trkpt>
      <trkpt lat="43.3339" lon="6.60519">
        <ele>31.7</ele>
        <time>2022-09-28T14:28:57.001Z</time>
      </trkpt>
      <trkpt lat="43.33392" lon="6.6052">
        <ele>31.9</ele>
        <time>2022-09-28T14:28:58.000Z</time>
      </trkpt>
      <trkpt lat="43.33392" lon="6.60518">
        <ele>32.1</ele>
        <time>2022-09-28T14:29:01.000Z</time>
      </trkpt>
      <trkpt lat="43.33393" lon="6.6052">
        <ele>32.2</ele>
        <time>2022-09-28T14:29:11.001Z</time>
      </trkpt>
      <trkpt lat="43.33393" lon="6.60523">
        <ele>31.9</ele>
        <time>2022-09-28T14:29:13.000Z</time>
      </trkpt>
      <trkpt lat="43.33394" lon="6.60528">
        <ele>31.5</ele>
        <time>2022-09-28T14:29:14.024Z</time>
      </trkpt>
      <trkpt lat="43.33396" lon="6.60531">
        <ele>31.5</ele>
        <time>2022-09-28T14:29:15.001Z</time>
      </trkpt>
      <trkpt lat="43.33397" lon="6.60534">
        <ele>31.4</ele>
        <time>2022-09-28T14:29:16.000Z</time>
      </trkpt>
      <trkpt lat="43.33397" lon="6.60537">
        <ele>31.4</ele>
        <time>2022-09-28T14:29:18.000Z</time>
      </trkpt>
      <trkpt lat="43.33399" lon="6.60541">
        <ele>31.3</ele>
        <time>2022-09-28T14:29:19.001Z</time>
      </trkpt>
      <trkpt lat="43.33401" lon="6.60546">
        <ele>31.3</ele>
        <time>2022-09-28T14:29:20.001Z</time>
      </trkpt>
      <trkpt lat="43.33404" lon="6.60553">
        <ele>31.1</ele>
        <time>2022-09-28T14:29:21.001Z</time>
      </trkpt>
      <trkpt lat="43.33406" lon="6.60559">
        <ele>31.4</ele>
        <time>2022-09-28T14:29:22.001Z</time>
      </trkpt>
      <trkpt lat="43.33408" lon="6.60565">
        <ele>31.8</ele>
        <time>2022-09-28T14:29:24.001Z</time>
      </trkpt>
      <trkpt lat="43.3341" lon="6.60573">
        <ele>32</ele>
        <time>2022-09-28T14:29:25.000Z</time>
      </trkpt>
      <trkpt lat="43.33412" lon="6.60581">
        <ele>31.9</ele>
        <time>2022-09-28T14:29:27.000Z</time>
      </trkpt>
      <trkpt lat="43.33415" lon="6.60586">
        <ele>31.7</ele>
        <time>2022-09-28T14:29:28.001Z</time>
      </trkpt>
      <trkpt lat="43.33416" lon="6.60589">
        <ele>31.3</ele>
        <time>2022-09-28T14:29:29.002Z</time>
      </trkpt>
      <trkpt lat="43.33417" lon="6.60593">
        <ele>31</ele>
        <time>2022-09-28T14:29:30.001Z</time>
      </trkpt>
      <trkpt lat="43.33419" lon="6.60598">
        <ele>30.8</ele>
        <time>2022-09-28T14:29:31.001Z</time>
      </trkpt>
      <trkpt lat="43.33422" lon="6.60601">
        <ele>30.8</ele>
        <time>2022-09-28T14:29:32.001Z</time>
      </trkpt>
      <trkpt lat="43.33425" lon="6.60602">
        <ele>30.8</ele>
        <time>2022-09-28T14:29:33.000Z</time>
      </trkpt>
      <trkpt lat="43.33426" lon="6.60603">
        <ele>30.8</ele>
        <time>2022-09-28T14:29:35.001Z</time>
      </trkpt>
      <trkpt lat="43.33428" lon="6.60604">
        <ele>30.9</ele>
        <time>2022-09-28T14:29:36.001Z</time>
      </trkpt>
      <trkpt lat="43.33431" lon="6.60604">
        <ele>31.2</ele>
        <time>2022-09-28T14:29:37.003Z</time>
      </trkpt>
      <trkpt lat="43.33433" lon="6.60604">
        <ele>31.5</ele>
        <time>2022-09-28T14:29:38.000Z</time>
      </trkpt>
      <trkpt lat="43.33437" lon="6.60603">
        <ele>31.9</ele>
        <time>2022-09-28T14:29:39.000Z</time>
      </trkpt>
      <trkpt lat="43.3344" lon="6.60603">
        <ele>32.2</ele>
        <time>2022-09-28T14:29:40.000Z</time>
      </trkpt>
      <trkpt lat="43.33443" lon="6.60604">
        <ele>32.4</ele>
        <time>2022-09-28T14:29:41.001Z</time>
      </trkpt>
      <trkpt lat="43.33445" lon="6.60604">
        <ele>32.6</ele>
        <time>2022-09-28T14:29:42.001Z</time>
      </trkpt>
      <trkpt lat="43.33452" lon="6.60605">
        <ele>33.2</ele>
        <time>2022-09-28T14:29:44.001Z</time>
      </trkpt>
      <trkpt lat="43.33455" lon="6.60605">
        <ele>33.5</ele>
        <time>2022-09-28T14:29:45.001Z</time>
      </trkpt>
      <trkpt lat="43.33458" lon="6.60605">
        <ele>33.8</ele>
        <time>2022-09-28T14:29:46.003Z</time>
      </trkpt>
      <trkpt lat="43.33461" lon="6.60606">
        <ele>33.9</ele>
        <time>2022-09-28T14:29:48.001Z</time>
      </trkpt>
      <trkpt lat="43.33465" lon="6.60608">
        <ele>34</ele>
        <time>2022-09-28T14:29:49.001Z</time>
      </trkpt>
      <trkpt lat="43.33467" lon="6.60608">
        <ele>34.2</ele>
        <time>2022-09-28T14:29:50.000Z</time>
      </trkpt>
      <trkpt lat="43.33471" lon="6.60609">
        <ele>34.3</ele>
        <time>2022-09-28T14:29:51.001Z</time>
      </trkpt>
      <trkpt lat="43.33474" lon="6.6061">
        <ele>34.5</ele>
        <time>2022-09-28T14:29:52.001Z</time>
      </trkpt>
      <trkpt lat="43.33476" lon="6.60612">
        <ele>34.5</ele>
        <time>2022-09-28T14:29:53.000Z</time>
      </trkpt>
      <trkpt lat="43.33479" lon="6.60615">
        <ele>34.4</ele>
        <time>2022-09-28T14:29:54.000Z</time>
      </trkpt>
      <trkpt lat="43.33482" lon="6.60617">
        <ele>34.4</ele>
        <time>2022-09-28T14:29:55.002Z</time>
      </trkpt>
      <trkpt lat="43.33484" lon="6.60619">
        <ele>34.3</ele>
        <time>2022-09-28T14:29:56.002Z</time>
      </trkpt>
      <trkpt lat="43.33489" lon="6.60622">
        <ele>34.3</ele>
        <time>2022-09-28T14:29:57.002Z</time>
      </trkpt>
      <trkpt lat="43.33492" lon="6.60625">
        <ele>34.2</ele>
        <time>2022-09-28T14:29:58.001Z</time>
      </trkpt>
      <trkpt lat="43.33496" lon="6.60627">
        <ele>34.2</ele>
        <time>2022-09-28T14:29:59.000Z</time>
      </trkpt>
      <trkpt lat="43.335" lon="6.60629">
        <ele>34.1</ele>
        <time>2022-09-28T14:30:01.000Z</time>
      </trkpt>
      <trkpt lat="43.33504" lon="6.60631">
        <ele>34</ele>
        <time>2022-09-28T14:30:02.001Z</time>
      </trkpt>
      <trkpt lat="43.33507" lon="6.60633">
        <ele>33.8</ele>
        <time>2022-09-28T14:30:03.001Z</time>
      </trkpt>
      <trkpt lat="43.33513" lon="6.60634">
        <ele>34</ele>
        <time>2022-09-28T14:30:04.002Z</time>
      </trkpt>
      <trkpt lat="43.3352" lon="6.60634">
        <ele>34.6</ele>
        <time>2022-09-28T14:30:06.001Z</time>
      </trkpt>
      <trkpt lat="43.33524" lon="6.60632">
        <ele>35</ele>
        <time>2022-09-28T14:30:07.001Z</time>
      </trkpt>
      <trkpt lat="43.33527" lon="6.60629">
        <ele>35.3</ele>
        <time>2022-09-28T14:30:08.000Z</time>
      </trkpt>
      <trkpt lat="43.33529" lon="6.60625">
        <ele>35.6</ele>
        <time>2022-09-28T14:30:09.000Z</time>
      </trkpt>
      <trkpt lat="43.33531" lon="6.60621">
        <ele>36</ele>
        <time>2022-09-28T14:30:10.000Z</time>
      </trkpt>
      <trkpt lat="43.33534" lon="6.60617">
        <ele>36.5</ele>
        <time>2022-09-28T14:30:11.004Z</time>
      </trkpt>
      <trkpt lat="43.33537" lon="6.60611">
        <ele>37</ele>
        <time>2022-09-28T14:30:12.001Z</time>
      </trkpt>
      <trkpt lat="43.3354" lon="6.60604">
        <ele>37.6</ele>
        <time>2022-09-28T14:30:14.019Z</time>
      </trkpt>
      <trkpt lat="43.33542" lon="6.60596">
        <ele>38</ele>
        <time>2022-09-28T14:30:15.004Z</time>
      </trkpt>
      <trkpt lat="43.33544" lon="6.60589">
        <ele>38.3</ele>
        <time>2022-09-28T14:30:16.000Z</time>
      </trkpt>
      <trkpt lat="43.33546" lon="6.60583">
        <ele>38.4</ele>
        <time>2022-09-28T14:30:18.002Z</time>
      </trkpt>
      <trkpt lat="43.33547" lon="6.60577">
        <ele>38.4</ele>
        <time>2022-09-28T14:30:19.001Z</time>
      </trkpt>
      <trkpt lat="43.33548" lon="6.60572">
        <ele>38.3</ele>
        <time>2022-09-28T14:30:20.001Z</time>
      </trkpt>
      <trkpt lat="43.3355" lon="6.60565">
        <ele>38</ele>
        <time>2022-09-28T14:30:21.002Z</time>
      </trkpt>
      <trkpt lat="43.33552" lon="6.60558">
        <ele>37.7</ele>
        <time>2022-09-28T14:30:23.001Z</time>
      </trkpt>
      <trkpt lat="43.33555" lon="6.60552">
        <ele>37.5</ele>
        <time>2022-09-28T14:30:24.003Z</time>
      </trkpt>
      <trkpt lat="43.33561" lon="6.60547">
        <ele>38.2</ele>
        <time>2022-09-28T14:30:25.001Z</time>
      </trkpt>
      <trkpt lat="43.33564" lon="6.60543">
        <ele>38.7</ele>
        <time>2022-09-28T14:30:26.001Z</time>
      </trkpt>
      <trkpt lat="43.33565" lon="6.6054">
        <ele>39</ele>
        <time>2022-09-28T14:30:27.000Z</time>
      </trkpt>
      <trkpt lat="43.33568" lon="6.60533">
        <ele>39.6</ele>
        <time>2022-09-28T14:30:28.000Z</time>
      </trkpt>
      <trkpt lat="43.3357" lon="6.60528">
        <ele>39.9</ele>
        <time>2022-09-28T14:30:29.000Z</time>
      </trkpt>
      <trkpt lat="43.33572" lon="6.60524">
        <ele>40.3</ele>
        <time>2022-09-28T14:30:30.000Z</time>
      </trkpt>
      <trkpt lat="43.33574" lon="6.6052">
        <ele>40.6</ele>
        <time>2022-09-28T14:30:32.001Z</time>
      </trkpt>
      <trkpt lat="43.33577" lon="6.60515">
        <ele>40.8</ele>
        <time>2022-09-28T14:30:33.000Z</time>
      </trkpt>
      <trkpt lat="43.3358" lon="6.60511">
        <ele>40.8</ele>
        <time>2022-09-28T14:30:34.001Z</time>
      </trkpt>
      <trkpt lat="43.33583" lon="6.60507">
        <ele>40.6</ele>
        <time>2022-09-28T14:30:35.000Z</time>
      </trkpt>
      <trkpt lat="43.33587" lon="6.60501">
        <ele>41.1</ele>
        <time>2022-09-28T14:30:37.001Z</time>
      </trkpt>
      <trkpt lat="43.33588" lon="6.60498">
        <ele>41.5</ele>
        <time>2022-09-28T14:30:38.001Z</time>
      </trkpt>
      <trkpt lat="43.33592" lon="6.60494">
        <ele>42.2</ele>
        <time>2022-09-28T14:30:39.001Z</time>
      </trkpt>
      <trkpt lat="43.33595" lon="6.60491">
        <ele>42.7</ele>
        <time>2022-09-28T14:30:40.000Z</time>
      </trkpt>
      <trkpt lat="43.33599" lon="6.60487">
        <ele>43.1</ele>
        <time>2022-09-28T14:30:42.000Z</time>
      </trkpt>
      <trkpt lat="43.33601" lon="6.60484">
        <ele>43.4</ele>
        <time>2022-09-28T14:30:43.003Z</time>
      </trkpt>
      <trkpt lat="43.33604" lon="6.6048">
        <ele>43.7</ele>
        <time>2022-09-28T14:30:44.003Z</time>
      </trkpt>
      <trkpt lat="43.33607" lon="6.60476">
        <ele>44</ele>
        <time>2022-09-28T14:30:46.001Z</time>
      </trkpt>
      <trkpt lat="43.3361" lon="6.60472">
        <ele>44.1</ele>
        <time>2022-09-28T14:30:47.000Z</time>
      </trkpt>
      <trkpt lat="43.33613" lon="6.60468">
        <ele>44.4</ele>
        <time>2022-09-28T14:30:48.001Z</time>
      </trkpt>
      <trkpt lat="43.33615" lon="6.60465">
        <ele>44.9</ele>
        <time>2022-09-28T14:30:49.001Z</time>
      </trkpt>
      <trkpt lat="43.33619" lon="6.60459">
        <ele>45.6</ele>
        <time>2022-09-28T14:30:51.001Z</time>
      </trkpt>
      <trkpt lat="43.33621" lon="6.60456">
        <ele>46.1</ele>
        <time>2022-09-28T14:30:52.000Z</time>
      </trkpt>
      <trkpt lat="43.33624" lon="6.6045">
        <ele>46.6</ele>
        <time>2022-09-28T14:30:53.001Z</time>
      </trkpt>
      <trkpt lat="43.33626" lon="6.60446">
        <ele>47</ele>
        <time>2022-09-28T14:30:54.001Z</time>
      </trkpt>
      <trkpt lat="43.33628" lon="6.60441">
        <ele>47.5</ele>
        <time>2022-09-28T14:30:56.000Z</time>
      </trkpt>
      <trkpt lat="43.3363" lon="6.60436">
        <ele>48.1</ele>
        <time>2022-09-28T14:30:57.000Z</time>
      </trkpt>
      <trkpt lat="43.33632" lon="6.60431">
        <ele>48.5</ele>
        <time>2022-09-28T14:30:58.001Z</time>
      </trkpt>
      <trkpt lat="43.33634" lon="6.60427">
        <ele>48.7</ele>
        <time>2022-09-28T14:30:59.000Z</time>
      </trkpt>
      <trkpt lat="43.33635" lon="6.60422">
        <ele>49</ele>
        <time>2022-09-28T14:31:00.000Z</time>
      </trkpt>
      <trkpt lat="43.33637" lon="6.60417">
        <ele>49.1</ele>
        <time>2022-09-28T14:31:01.000Z</time>
      </trkpt>
      <trkpt lat="43.3364" lon="6.60413">
        <ele>49.4</ele>
        <time>2022-09-28T14:31:02.001Z</time>
      </trkpt>
      <trkpt lat="43.33642" lon="6.60409">
        <ele>49.8</ele>
        <time>2022-09-28T14:31:03.001Z</time>
      </trkpt>
      <trkpt lat="43.33643" lon="6.60406">
        <ele>50.1</ele>
        <time>2022-09-28T14:31:04.001Z</time>
      </trkpt>
      <trkpt lat="43.33644" lon="6.60402">
        <ele>50.4</ele>
        <time>2022-09-28T14:31:05.000Z</time>
      </trkpt>
      <trkpt lat="43.33646" lon="6.60397">
        <ele>50.8</ele>
        <time>2022-09-28T14:31:06.001Z</time>
      </trkpt>
      <trkpt lat="43.33647" lon="6.60391">
        <ele>51.2</ele>
        <time>2022-09-28T14:31:07.001Z</time>
      </trkpt>
      <trkpt lat="43.33649" lon="6.60386">
        <ele>51.7</ele>
        <time>2022-09-28T14:31:08.001Z</time>
      </trkpt>
      <trkpt lat="43.33652" lon="6.60381">
        <ele>52.2</ele>
        <time>2022-09-28T14:31:09.000Z</time>
      </trkpt>
      <trkpt lat="43.33654" lon="6.60376">
        <ele>52.7</ele>
        <time>2022-09-28T14:31:10.001Z</time>
      </trkpt>
      <trkpt lat="43.33656" lon="6.60369">
        <ele>53.1</ele>
        <time>2022-09-28T14:31:12.000Z</time>
      </trkpt>
      <trkpt lat="43.33658" lon="6.60362">
        <ele>53.5</ele>
        <time>2022-09-28T14:31:13.000Z</time>
      </trkpt>
      <trkpt lat="43.3366" lon="6.60356">
        <ele>53.6</ele>
        <time>2022-09-28T14:31:14.000Z</time>
      </trkpt>
      <trkpt lat="43.33662" lon="6.6035">
        <ele>53.5</ele>
        <time>2022-09-28T14:31:16.001Z</time>
      </trkpt>
      <trkpt lat="43.33663" lon="6.60345">
        <ele>53.4</ele>
        <time>2022-09-28T14:31:17.003Z</time>
      </trkpt>
      <trkpt lat="43.33666" lon="6.60335">
        <ele>53.2</ele>
        <time>2022-09-28T14:31:19.001Z</time>
      </trkpt>
      <trkpt lat="43.33667" lon="6.60329">
        <ele>53.6</ele>
        <time>2022-09-28T14:31:20.000Z</time>
      </trkpt>
      <trkpt lat="43.3367" lon="6.60322">
        <ele>54.4</ele>
        <time>2022-09-28T14:31:21.001Z</time>
      </trkpt>
      <trkpt lat="43.33672" lon="6.60315">
        <ele>55.3</ele>
        <time>2022-09-28T14:31:23.000Z</time>
      </trkpt>
      <trkpt lat="43.33673" lon="6.60311">
        <ele>55.8</ele>
        <time>2022-09-28T14:31:24.001Z</time>
      </trkpt>
      <trkpt lat="43.33675" lon="6.60305">
        <ele>56.3</ele>
        <time>2022-09-28T14:31:25.000Z</time>
      </trkpt>
      <trkpt lat="43.33677" lon="6.60299">
        <ele>56.7</ele>
        <time>2022-09-28T14:31:26.001Z</time>
      </trkpt>
      <trkpt lat="43.33679" lon="6.60295">
        <ele>56.9</ele>
        <time>2022-09-28T14:31:27.001Z</time>
      </trkpt>
      <trkpt lat="43.3368" lon="6.60289">
        <ele>57.1</ele>
        <time>2022-09-28T14:31:28.000Z</time>
      </trkpt>
      <trkpt lat="43.33682" lon="6.60285">
        <ele>57.2</ele>
        <time>2022-09-28T14:31:30.000Z</time>
      </trkpt>
      <trkpt lat="43.33684" lon="6.6028">
        <ele>57.3</ele>
        <time>2022-09-28T14:31:31.001Z</time>
      </trkpt>
      <trkpt lat="43.33685" lon="6.60276">
        <ele>57.4</ele>
        <time>2022-09-28T14:31:32.001Z</time>
      </trkpt>
      <trkpt lat="43.33687" lon="6.60272">
        <ele>57.3</ele>
        <time>2022-09-28T14:31:34.001Z</time>
      </trkpt>
      <trkpt lat="43.33688" lon="6.60268">
        <ele>57.3</ele>
        <time>2022-09-28T14:31:35.001Z</time>
      </trkpt>
      <trkpt lat="43.3369" lon="6.60265">
        <ele>57.3</ele>
        <time>2022-09-28T14:31:37.001Z</time>
      </trkpt>
      <trkpt lat="43.3369" lon="6.60263">
        <ele>57.2</ele>
        <time>2022-09-28T14:31:38.001Z</time>
      </trkpt>
      <trkpt lat="43.3369" lon="6.60261">
        <ele>57.3</ele>
        <time>2022-09-28T14:31:40.001Z</time>
      </trkpt>
      <trkpt lat="43.33712" lon="6.60204">
        <ele>56</ele>
        <time>2022-09-28T14:31:41.001Z</time>
      </trkpt>
      <trkpt lat="43.33729" lon="6.60158">
        <ele>54.4</ele>
      </trkpt>
      <trkpt lat="43.33733" lon="6.60098">
        <ele>51.2</ele>
      </trkpt>
      <trkpt lat="43.33752" lon="6.60033">
        <ele>48.7</ele>
      </trkpt>
      <trkpt lat="43.33829" lon="6.59956">
        <ele>49.4</ele>
      </trkpt>
      <trkpt lat="43.33887" lon="6.59873">
        <ele>48.7</ele>
      </trkpt>
      <trkpt lat="43.3391" lon="6.59863">
        <ele>48.8</ele>
      </trkpt>
      <trkpt lat="43.33935" lon="6.59782">
        <ele>49.1</ele>
      </trkpt>
      <trkpt lat="43.3395" lon="6.59671">
        <ele>47.6</ele>
      </trkpt>
      <trkpt lat="43.33995" lon="6.5957">
        <ele>52.6</ele>
        <time>2022-09-28T14:38:44.001Z</time>
      </trkpt>
      <trkpt lat="43.34058" lon="6.59512">
        <ele>53.8</ele>
        <time>2022-09-28T14:38:46.001Z</time>
      </trkpt>
      <trkpt lat="43.34079" lon="6.59477">
        <ele>53.4</ele>
        <time>2022-09-28T14:38:47.000Z</time>
      </trkpt>
      <trkpt lat="43.34096" lon="6.59448">
        <ele>54.7</ele>
      </trkpt>
      <trkpt lat="43.34114" lon="6.59427">
        <ele>56.4</ele>
      </trkpt>
      <trkpt lat="43.34161" lon="6.59393">
        <ele>57.4</ele>
        <time>2022-09-28T14:38:48.000Z</time>
      </trkpt>
      <trkpt lat="43.34225" lon="6.59341">
        <ele>55.4</ele>
      </trkpt>
      <trkpt lat="43.34258" lon="6.59344">
        <ele>60</ele>
      </trkpt>
      <trkpt lat="43.34281" lon="6.59246">
        <ele>51.7</ele>
      </trkpt>
      <trkpt lat="43.34293" lon="6.59188">
        <ele>52.3</ele>
      </trkpt>
      <trkpt lat="43.34275" lon="6.59121">
        <ele>54.1</ele>
      </trkpt>
      <trkpt lat="43.34286" lon="6.59029">
        <ele>55.2</ele>
      </trkpt>
      <trkpt lat="43.34316" lon="6.58955">
        <ele>58.1</ele>
      </trkpt>
      <trkpt lat="43.34333" lon="6.58866">
        <ele>59.6</ele>
        <time>2022-09-28T14:41:00.000Z</time>
      </trkpt>
      <trkpt lat="43.34301" lon="6.58827">
        <ele>58.7</ele>
      </trkpt>
      <trkpt lat="43.34263" lon="6.58879">
        <ele>60.3</ele>
      </trkpt>
      <trkpt lat="43.34178" lon="6.58934">
        <ele>69.8</ele>
      </trkpt>
      <trkpt lat="43.34154" lon="6.5889">
        <ele>79.5</ele>
      </trkpt>
      <trkpt lat="43.34186" lon="6.58701">
        <ele>101.6</ele>
      </trkpt>
      <trkpt lat="43.34133" lon="6.58753">
        <ele>108.3</ele>
      </trkpt>
      <trkpt lat="43.34151" lon="6.58681">
        <ele>114.8</ele>
      </trkpt>
      <trkpt lat="43.34125" lon="6.58695">
        <ele>119.5</ele>
      </trkpt>
      <trkpt lat="43.34091" lon="6.58612">
        <ele>126.1</ele>
        <time>2022-09-28T14:41:51.000Z</time>
      </trkpt>
      <trkpt lat="43.341" lon="6.58503">
        <ele>133.9</ele>
        <time>2022-09-28T14:42:58.003Z</time>
      </trkpt>
      <trkpt lat="43.34055" lon="6.58516">
        <ele>143.4</ele>
      </trkpt>
      <trkpt lat="43.34059" lon="6.58439">
        <ele>149.2</ele>
      </trkpt>
      <trkpt lat="43.3402" lon="6.58467">
        <ele>157.4</ele>
      </trkpt>
      <trkpt lat="43.34019" lon="6.58408">
        <ele>164.4</ele>
      </trkpt>
      <trkpt lat="43.34008" lon="6.58382">
        <ele>167.9</ele>
      </trkpt>
      <trkpt lat="43.33986" lon="6.5842">
        <ele>171.1</ele>
      </trkpt>
      <trkpt lat="43.33971" lon="6.5829">
        <ele>183.8</ele>
      </trkpt>
      <trkpt lat="43.33972" lon="6.5822">
        <ele>185.2</ele>
      </trkpt>
      <trkpt lat="43.33951" lon="6.58192">
        <ele>190.1</ele>
      </trkpt>
      <trkpt lat="43.34012" lon="6.58126">
        <ele>187.7</ele>
      </trkpt>
      <trkpt lat="43.34114" lon="6.58055">
        <ele>179.9</ele>
      </trkpt>
      <trkpt lat="43.34175" lon="6.58051">
        <ele>172.3</ele>
      </trkpt>
      <trkpt lat="43.34209" lon="6.57984">
        <ele>163.1</ele>
      </trkpt>
      <trkpt lat="43.34223" lon="6.57949">
        <ele>160.1</ele>
      </trkpt>
      <trkpt lat="43.34234" lon="6.57949">
        <ele>157.6</ele>
      </trkpt>
      <trkpt lat="43.34246" lon="6.57959">
        <ele>155.5</ele>
      </trkpt>
      <trkpt lat="43.34247" lon="6.57894">
        <ele>148</ele>
      </trkpt>
      <trkpt lat="43.34268" lon="6.57898">
        <ele>145</ele>
      </trkpt>
      <trkpt lat="43.34288" lon="6.57919">
        <ele>141.5</ele>
      </trkpt>
      <trkpt lat="43.34283" lon="6.5788">
        <ele>139.9</ele>
      </trkpt>
      <trkpt lat="43.34261" lon="6.5783">
        <ele>131.5</ele>
      </trkpt>
      <trkpt lat="43.34259" lon="6.57784">
        <ele>127</ele>
      </trkpt>
      <trkpt lat="43.34276" lon="6.57737">
        <ele>123.4</ele>
      </trkpt>
      <trkpt lat="43.34113" lon="6.57672">
        <ele>110.4</ele>
      </trkpt>
      <trkpt lat="43.33996" lon="6.57627">
        <ele>99.2</ele>
      </trkpt>
      <trkpt lat="43.33971" lon="6.57568">
        <ele>99.5</ele>
      </trkpt>
      <trkpt lat="43.33981" lon="6.57529">
        <ele>101</ele>
      </trkpt>
      <trkpt lat="43.33955" lon="6.57459">
        <ele>101.2</ele>
      </trkpt>
      <trkpt lat="43.33827" lon="6.57491">
        <ele>101.4</ele>
        <time>2022-09-28T14:54:30.000Z</time>
      </trkpt>
      <trkpt lat="43.33828" lon="6.5749">
        <ele>101.3</ele>
        <time>2022-09-28T14:54:35.001Z</time>
      </trkpt>
      <trkpt lat="43.33828" lon="6.57489">
        <ele>101.1</ele>
        <time>2022-09-28T14:54:40.001Z</time>
      </trkpt>
      <trkpt lat="43.33826" lon="6.5749">
        <ele>101.4</ele>
        <time>2022-09-28T14:54:47.004Z</time>
      </trkpt>
      <trkpt lat="43.33824" lon="6.5749">
        <ele>101.7</ele>
        <time>2022-09-28T14:54:48.001Z</time>
      </trkpt>
      <trkpt lat="43.33821" lon="6.57492">
        <ele>102</ele>
        <time>2022-09-28T14:54:49.001Z</time>
      </trkpt>
      <trkpt lat="43.33818" lon="6.57493">
        <ele>102.4</ele>
        <time>2022-09-28T14:54:50.002Z</time>
      </trkpt>
      <trkpt lat="43.33816" lon="6.57492">
        <ele>102.6</ele>
        <time>2022-09-28T14:54:51.001Z</time>
      </trkpt>
      <trkpt lat="43.33814" lon="6.57492">
        <ele>102.8</ele>
        <time>2022-09-28T14:54:52.001Z</time>
      </trkpt>
      <trkpt lat="43.33808" lon="6.57496">
        <ele>103.6</ele>
        <time>2022-09-28T14:54:53.000Z</time>
      </trkpt>
      <trkpt lat="43.33803" lon="6.575">
        <ele>104.3</ele>
        <time>2022-09-28T14:54:55.001Z</time>
      </trkpt>
      <trkpt lat="43.338" lon="6.57503">
        <ele>104.6</ele>
        <time>2022-09-28T14:54:56.000Z</time>
      </trkpt>
      <trkpt lat="43.33798" lon="6.57508">
        <ele>104.7</ele>
        <time>2022-09-28T14:54:58.001Z</time>
      </trkpt>
      <trkpt lat="43.33796" lon="6.57511">
        <ele>104.8</ele>
        <time>2022-09-28T14:54:59.001Z</time>
      </trkpt>
      <trkpt lat="43.33795" lon="6.57513">
        <ele>104.9</ele>
        <time>2022-09-28T14:55:00.001Z</time>
      </trkpt>
      <trkpt lat="43.33794" lon="6.57515">
        <ele>105</ele>
        <time>2022-09-28T14:55:01.000Z</time>
      </trkpt>
      <trkpt lat="43.33793" lon="6.57516">
        <ele>105.2</ele>
        <time>2022-09-28T14:55:02.000Z</time>
      </trkpt>
      <trkpt lat="43.33791" lon="6.57517">
        <ele>105.5</ele>
        <time>2022-09-28T14:55:03.001Z</time>
      </trkpt>
      <trkpt lat="43.33789" lon="6.57517">
        <ele>105.8</ele>
        <time>2022-09-28T14:55:04.001Z</time>
      </trkpt>
      <trkpt lat="43.33788" lon="6.57519">
        <ele>106.1</ele>
        <time>2022-09-28T14:55:06.000Z</time>
      </trkpt>
      <trkpt lat="43.33785" lon="6.57523">
        <ele>106.4</ele>
        <time>2022-09-28T14:55:08.002Z</time>
      </trkpt>
      <trkpt lat="43.33784" lon="6.57524">
        <ele>106.7</ele>
        <time>2022-09-28T14:55:09.000Z</time>
      </trkpt>
      <trkpt lat="43.33783" lon="6.57523">
        <ele>106.9</ele>
        <time>2022-09-28T14:55:10.001Z</time>
      </trkpt>
      <trkpt lat="43.33781" lon="6.57523">
        <ele>107.4</ele>
        <time>2022-09-28T14:55:12.000Z</time>
      </trkpt>
      <trkpt lat="43.33779" lon="6.57522">
        <ele>107.7</ele>
        <time>2022-09-28T14:55:13.005Z</time>
      </trkpt>
      <trkpt lat="43.33778" lon="6.57522">
        <ele>108</ele>
        <time>2022-09-28T14:55:14.001Z</time>
      </trkpt>
      <trkpt lat="43.33776" lon="6.57522">
        <ele>108.3</ele>
        <time>2022-09-28T14:55:15.000Z</time>
      </trkpt>
      <trkpt lat="43.33773" lon="6.57521">
        <ele>108.8</ele>
        <time>2022-09-28T14:55:16.000Z</time>
      </trkpt>
      <trkpt lat="43.33772" lon="6.57521">
        <ele>109.1</ele>
        <time>2022-09-28T14:55:17.001Z</time>
      </trkpt>
      <trkpt lat="43.3377" lon="6.57522">
        <ele>109.3</ele>
        <time>2022-09-28T14:55:18.001Z</time>
      </trkpt>
      <trkpt lat="43.33769" lon="6.57524">
        <ele>109.6</ele>
        <time>2022-09-28T14:55:20.000Z</time>
      </trkpt>
      <trkpt lat="43.33768" lon="6.57527">
        <ele>109.8</ele>
        <time>2022-09-28T14:55:21.000Z</time>
      </trkpt>
      <trkpt lat="43.33766" lon="6.57528">
        <ele>110.1</ele>
        <time>2022-09-28T14:55:23.000Z</time>
      </trkpt>
      <trkpt lat="43.33765" lon="6.57528">
        <ele>110.2</ele>
        <time>2022-09-28T14:55:24.004Z</time>
      </trkpt>
      <trkpt lat="43.33764" lon="6.57529">
        <ele>110.4</ele>
        <time>2022-09-28T14:55:26.001Z</time>
      </trkpt>
      <trkpt lat="43.33763" lon="6.57528">
        <ele>110.6</ele>
        <time>2022-09-28T14:55:33.000Z</time>
      </trkpt>
      <trkpt lat="43.33762" lon="6.57527">
        <ele>110.8</ele>
        <time>2022-09-28T14:55:34.003Z</time>
      </trkpt>
      <trkpt lat="43.33762" lon="6.57523">
        <ele>110.9</ele>
        <time>2022-09-28T14:55:35.002Z</time>
      </trkpt>
      <trkpt lat="43.3376" lon="6.57521">
        <ele>111.1</ele>
        <time>2022-09-28T14:55:36.000Z</time>
      </trkpt>
      <trkpt lat="43.33759" lon="6.57517">
        <ele>111.4</ele>
        <time>2022-09-28T14:55:38.001Z</time>
      </trkpt>
      <trkpt lat="43.33758" lon="6.57515">
        <ele>111.6</ele>
        <time>2022-09-28T14:55:39.001Z</time>
      </trkpt>
      <trkpt lat="43.33756" lon="6.57513">
        <ele>111.9</ele>
        <time>2022-09-28T14:55:40.003Z</time>
      </trkpt>
      <trkpt lat="43.33755" lon="6.57511">
        <ele>112.1</ele>
        <time>2022-09-28T14:55:41.001Z</time>
      </trkpt>
      <trkpt lat="43.33754" lon="6.5751">
        <ele>112.3</ele>
        <time>2022-09-28T14:55:42.001Z</time>
      </trkpt>
      <trkpt lat="43.33753" lon="6.57509">
        <ele>112.4</ele>
        <time>2022-09-28T14:55:43.002Z</time>
      </trkpt>
      <trkpt lat="43.33753" lon="6.57507">
        <ele>112.5</ele>
        <time>2022-09-28T14:55:44.002Z</time>
      </trkpt>
      <trkpt lat="43.33752" lon="6.57504">
        <ele>112.6</ele>
        <time>2022-09-28T14:55:45.001Z</time>
      </trkpt>
      <trkpt lat="43.33752" lon="6.57502">
        <ele>112.6</ele>
        <time>2022-09-28T14:55:46.000Z</time>
      </trkpt>
      <trkpt lat="43.33752" lon="6.575">
        <ele>112.7</ele>
        <time>2022-09-28T14:55:47.001Z</time>
      </trkpt>
      <trkpt lat="43.33751" lon="6.57498">
        <ele>112.7</ele>
        <time>2022-09-28T14:55:48.001Z</time>
      </trkpt>
      <trkpt lat="43.33751" lon="6.57496">
        <ele>112.6</ele>
        <time>2022-09-28T14:55:49.002Z</time>
      </trkpt>
      <trkpt lat="43.33751" lon="6.57494">
        <ele>112.6</ele>
        <time>2022-09-28T14:55:50.002Z</time>
      </trkpt>
      <trkpt lat="43.3375" lon="6.57492">
        <ele>112.6</ele>
        <time>2022-09-28T14:55:52.001Z</time>
      </trkpt>
      <trkpt lat="43.3375" lon="6.57491">
        <ele>112.7</ele>
        <time>2022-09-28T14:55:58.001Z</time>
      </trkpt>
      <trkpt lat="43.3375" lon="6.57489">
        <ele>112.6</ele>
        <time>2022-09-28T14:56:06.000Z</time>
      </trkpt>
      <trkpt lat="43.33751" lon="6.57488">
        <ele>112.4</ele>
        <time>2022-09-28T14:56:40.000Z</time>
      </trkpt>
      <trkpt lat="43.33751" lon="6.57486">
        <ele>112.3</ele>
        <time>2022-09-28T14:56:41.000Z</time>
      </trkpt>
      <trkpt lat="43.3375" lon="6.57483">
        <ele>112.3</ele>
        <time>2022-09-28T14:56:43.000Z</time>
      </trkpt>
      <trkpt lat="43.3375" lon="6.57482">
        <ele>112.4</ele>
        <time>2022-09-28T14:56:44.001Z</time>
      </trkpt>
      <trkpt lat="43.33749" lon="6.57481">
        <ele>112.6</ele>
        <time>2022-09-28T14:56:47.001Z</time>
      </trkpt>
      <trkpt lat="43.33748" lon="6.57481">
        <ele>112.9</ele>
        <time>2022-09-28T14:56:51.001Z</time>
      </trkpt>
      <trkpt lat="43.33747" lon="6.5748">
        <ele>113.2</ele>
        <time>2022-09-28T14:56:57.001Z</time>
      </trkpt>
      <trkpt lat="43.33747" lon="6.57478">
        <ele>113.2</ele>
        <time>2022-09-28T14:57:03.004Z</time>
      </trkpt>
      <trkpt lat="43.33746" lon="6.57477">
        <ele>113.3</ele>
        <time>2022-09-28T14:57:04.001Z</time>
      </trkpt>
      <trkpt lat="43.33745" lon="6.57474">
        <ele>113.4</ele>
        <time>2022-09-28T14:57:06.002Z</time>
      </trkpt>
      <trkpt lat="43.33745" lon="6.57471">
        <ele>113.4</ele>
        <time>2022-09-28T14:57:07.001Z</time>
      </trkpt>
      <trkpt lat="43.33746" lon="6.5747">
        <ele>113.1</ele>
        <time>2022-09-28T14:57:08.001Z</time>
      </trkpt>
      <trkpt lat="43.33747" lon="6.57466">
        <ele>113</ele>
        <time>2022-09-28T14:57:09.000Z</time>
      </trkpt>
      <trkpt lat="43.33748" lon="6.57462">
        <ele>112.7</ele>
        <time>2022-09-28T14:57:10.001Z</time>
      </trkpt>
      <trkpt lat="43.3375" lon="6.57457">
        <ele>112.1</ele>
        <time>2022-09-28T14:57:11.000Z</time>
      </trkpt>
      <trkpt lat="43.3375" lon="6.57454">
        <ele>112</ele>
        <time>2022-09-28T14:57:12.001Z</time>
      </trkpt>
      <trkpt lat="43.3375" lon="6.5745">
        <ele>112</ele>
        <time>2022-09-28T14:57:13.002Z</time>
      </trkpt>
      <trkpt lat="43.33749" lon="6.57445">
        <ele>112.2</ele>
        <time>2022-09-28T14:57:14.000Z</time>
      </trkpt>
      <trkpt lat="43.3375" lon="6.5744">
        <ele>111.8</ele>
        <time>2022-09-28T14:57:15.001Z</time>
      </trkpt>
      <trkpt lat="43.33751" lon="6.57435">
        <ele>111.5</ele>
        <time>2022-09-28T14:57:16.000Z</time>
      </trkpt>
      <trkpt lat="43.33752" lon="6.5743">
        <ele>111.1</ele>
        <time>2022-09-28T14:57:17.001Z</time>
      </trkpt>
      <trkpt lat="43.33753" lon="6.57424">
        <ele>110.7</ele>
        <time>2022-09-28T14:57:18.001Z</time>
      </trkpt>
      <trkpt lat="43.33754" lon="6.57419">
        <ele>110.2</ele>
        <time>2022-09-28T14:57:20.000Z</time>
      </trkpt>
      <trkpt lat="43.33754" lon="6.57415">
        <ele>109.9</ele>
        <time>2022-09-28T14:57:21.001Z</time>
      </trkpt>
      <trkpt lat="43.33754" lon="6.57412">
        <ele>109.9</ele>
        <time>2022-09-28T14:57:22.001Z</time>
      </trkpt>
      <trkpt lat="43.33755" lon="6.5741">
        <ele>109.5</ele>
        <time>2022-09-28T14:57:23.001Z</time>
      </trkpt>
      <trkpt lat="43.33756" lon="6.57407">
        <ele>108.9</ele>
        <time>2022-09-28T14:57:24.001Z</time>
      </trkpt>
      <trkpt lat="43.33757" lon="6.57403">
        <ele>108.3</ele>
        <time>2022-09-28T14:57:25.002Z</time>
      </trkpt>
      <trkpt lat="43.33757" lon="6.57398">
        <ele>107.9</ele>
        <time>2022-09-28T14:57:26.001Z</time>
      </trkpt>
      <trkpt lat="43.33757" lon="6.57394">
        <ele>107.5</ele>
        <time>2022-09-28T14:57:27.001Z</time>
      </trkpt>
      <trkpt lat="43.33758" lon="6.57391">
        <ele>106.8</ele>
        <time>2022-09-28T14:57:28.002Z</time>
      </trkpt>
      <trkpt lat="43.33759" lon="6.57386">
        <ele>106.1</ele>
        <time>2022-09-28T14:57:29.001Z</time>
      </trkpt>
      <trkpt lat="43.33759" lon="6.57384">
        <ele>106</ele>
        <time>2022-09-28T14:57:31.003Z</time>
      </trkpt>
      <trkpt lat="43.33759" lon="6.5738">
        <ele>106.1</ele>
        <time>2022-09-28T14:57:32.001Z</time>
      </trkpt>
      <trkpt lat="43.33758" lon="6.57377">
        <ele>106.2</ele>
        <time>2022-09-28T14:57:33.001Z</time>
      </trkpt>
      <trkpt lat="43.33758" lon="6.57373">
        <ele>105.9</ele>
        <time>2022-09-28T14:57:34.001Z</time>
      </trkpt>
      <trkpt lat="43.33759" lon="6.5737">
        <ele>105.6</ele>
        <time>2022-09-28T14:57:35.003Z</time>
      </trkpt>
      <trkpt lat="43.33759" lon="6.57367">
        <ele>105.3</ele>
        <time>2022-09-28T14:57:37.000Z</time>
      </trkpt>
      <trkpt lat="43.33758" lon="6.57362">
        <ele>105.4</ele>
        <time>2022-09-28T14:57:38.000Z</time>
      </trkpt>
      <trkpt lat="43.33757" lon="6.57357">
        <ele>105.3</ele>
        <time>2022-09-28T14:57:39.001Z</time>
      </trkpt>
      <trkpt lat="43.33757" lon="6.5735">
        <ele>104.8</ele>
        <time>2022-09-28T14:57:40.000Z</time>
      </trkpt>
      <trkpt lat="43.33758" lon="6.57346">
        <ele>104.2</ele>
        <time>2022-09-28T14:57:41.001Z</time>
      </trkpt>
      <trkpt lat="43.33758" lon="6.57343">
        <ele>103.9</ele>
        <time>2022-09-28T14:57:42.001Z</time>
      </trkpt>
      <trkpt lat="43.33758" lon="6.57339">
        <ele>103.7</ele>
        <time>2022-09-28T14:57:43.000Z</time>
      </trkpt>
      <trkpt lat="43.33757" lon="6.57335">
        <ele>103.5</ele>
        <time>2022-09-28T14:57:45.001Z</time>
      </trkpt>
      <trkpt lat="43.33757" lon="6.57334">
        <ele>103.4</ele>
        <time>2022-09-28T14:57:46.000Z</time>
      </trkpt>
      <trkpt lat="43.33758" lon="6.57332">
        <ele>103</ele>
        <time>2022-09-28T14:57:47.001Z</time>
      </trkpt>
      <trkpt lat="43.33759" lon="6.5733">
        <ele>102.3</ele>
        <time>2022-09-28T14:57:48.001Z</time>
      </trkpt>
      <trkpt lat="43.3376" lon="6.57329">
        <ele>101.8</ele>
        <time>2022-09-28T14:57:50.001Z</time>
      </trkpt>
      <trkpt lat="43.33761" lon="6.57328">
        <ele>101.4</ele>
        <time>2022-09-28T14:57:51.001Z</time>
      </trkpt>
      <trkpt lat="43.33762" lon="6.57324">
        <ele>100.5</ele>
        <time>2022-09-28T14:57:52.000Z</time>
      </trkpt>
      <trkpt lat="43.33763" lon="6.5732">
        <ele>99.8</ele>
        <time>2022-09-28T14:57:53.000Z</time>
      </trkpt>
      <trkpt lat="43.33762" lon="6.57316">
        <ele>99.6</ele>
        <time>2022-09-28T14:57:54.001Z</time>
      </trkpt>
      <trkpt lat="43.33761" lon="6.57313">
        <ele>99.8</ele>
        <time>2022-09-28T14:57:55.002Z</time>
      </trkpt>
      <trkpt lat="43.33758" lon="6.57312">
        <ele>100.6</ele>
        <time>2022-09-28T14:57:56.000Z</time>
      </trkpt>
      <trkpt lat="43.33754" lon="6.57307">
        <ele>101</ele>
        <time>2022-09-28T14:57:57.001Z</time>
      </trkpt>
      <trkpt lat="43.33754" lon="6.57304">
        <ele>100.7</ele>
        <time>2022-09-28T14:57:59.000Z</time>
      </trkpt>
      <trkpt lat="43.33752" lon="6.57302">
        <ele>100.7</ele>
        <time>2022-09-28T14:58:00.001Z</time>
      </trkpt>
      <trkpt lat="43.33751" lon="6.57302">
        <ele>101</ele>
        <time>2022-09-28T14:58:02.001Z</time>
      </trkpt>
      <trkpt lat="43.33749" lon="6.57299">
        <ele>101</ele>
        <time>2022-09-28T14:58:03.001Z</time>
      </trkpt>
      <trkpt lat="43.33749" lon="6.57294">
        <ele>100.2</ele>
        <time>2022-09-28T14:58:04.004Z</time>
      </trkpt>
      <trkpt lat="43.33749" lon="6.57291">
        <ele>99.6</ele>
        <time>2022-09-28T14:58:06.001Z</time>
      </trkpt>
      <trkpt lat="43.33749" lon="6.57288">
        <ele>99</ele>
        <time>2022-09-28T14:58:07.000Z</time>
      </trkpt>
      <trkpt lat="43.33749" lon="6.57284">
        <ele>98.4</ele>
        <time>2022-09-28T14:58:08.000Z</time>
      </trkpt>
      <trkpt lat="43.33748" lon="6.57279">
        <ele>97.8</ele>
        <time>2022-09-28T14:58:10.000Z</time>
      </trkpt>
      <trkpt lat="43.33749" lon="6.57276">
        <ele>97</ele>
        <time>2022-09-28T14:58:12.001Z</time>
      </trkpt>
      <trkpt lat="43.33749" lon="6.57271">
        <ele>96.1</ele>
        <time>2022-09-28T14:58:13.000Z</time>
      </trkpt>
      <trkpt lat="43.33748" lon="6.57268">
        <ele>95.7</ele>
        <time>2022-09-28T14:58:14.056Z</time>
      </trkpt>
      <trkpt lat="43.33748" lon="6.57263">
        <ele>95</ele>
        <time>2022-09-28T14:58:16.001Z</time>
      </trkpt>
      <trkpt lat="43.33746" lon="6.57259">
        <ele>95.1</ele>
        <time>2022-09-28T14:58:17.001Z</time>
      </trkpt>
      <trkpt lat="43.33745" lon="6.57254">
        <ele>94.5</ele>
        <time>2022-09-28T14:58:18.002Z</time>
      </trkpt>
      <trkpt lat="43.33745" lon="6.57251">
        <ele>93.9</ele>
        <time>2022-09-28T14:58:19.003Z</time>
      </trkpt>
      <trkpt lat="43.33746" lon="6.57247">
        <ele>92.9</ele>
        <time>2022-09-28T14:58:20.003Z</time>
      </trkpt>
      <trkpt lat="43.33747" lon="6.57241">
        <ele>91.6</ele>
        <time>2022-09-28T14:58:21.001Z</time>
      </trkpt>
      <trkpt lat="43.33743" lon="6.57229">
        <ele>91.1</ele>
        <time>2022-09-28T14:58:23.000Z</time>
      </trkpt>
      <trkpt lat="43.33741" lon="6.57227">
        <ele>91.4</ele>
        <time>2022-09-28T14:58:24.001Z</time>
      </trkpt>
      <trkpt lat="43.33739" lon="6.57223">
        <ele>91.3</ele>
        <time>2022-09-28T14:58:25.000Z</time>
      </trkpt>
      <trkpt lat="43.33739" lon="6.57211">
        <ele>89.4</ele>
        <time>2022-09-28T14:58:27.000Z</time>
      </trkpt>
      <trkpt lat="43.33737" lon="6.57201">
        <ele>88.5</ele>
        <time>2022-09-28T14:58:29.001Z</time>
      </trkpt>
      <trkpt lat="43.33736" lon="6.57198">
        <ele>88.1</ele>
        <time>2022-09-28T14:58:30.001Z</time>
      </trkpt>
      <trkpt lat="43.33735" lon="6.57196">
        <ele>88</ele>
        <time>2022-09-28T14:58:31.011Z</time>
      </trkpt>
      <trkpt lat="43.33736" lon="6.57193">
        <ele>87.3</ele>
        <time>2022-09-28T14:58:33.002Z</time>
      </trkpt>
      <trkpt lat="43.33736" lon="6.57189">
        <ele>86.6</ele>
        <time>2022-09-28T14:58:34.001Z</time>
      </trkpt>
      <trkpt lat="43.33734" lon="6.57187">
        <ele>86.6</ele>
        <time>2022-09-28T14:58:35.000Z</time>
      </trkpt>
      <trkpt lat="43.3373" lon="6.57185">
        <ele>87</ele>
        <time>2022-09-28T14:58:36.001Z</time>
      </trkpt>
      <trkpt lat="43.33727" lon="6.5718">
        <ele>86.8</ele>
        <time>2022-09-28T14:58:37.001Z</time>
      </trkpt>
      <trkpt lat="43.33724" lon="6.57176">
        <ele>86.6</ele>
        <time>2022-09-28T14:58:39.002Z</time>
      </trkpt>
      <trkpt lat="43.33721" lon="6.57174">
        <ele>86.7</ele>
        <time>2022-09-28T14:58:40.001Z</time>
      </trkpt>
      <trkpt lat="43.33718" lon="6.57173">
        <ele>86.7</ele>
        <time>2022-09-28T14:58:41.000Z</time>
      </trkpt>
      <trkpt lat="43.33716" lon="6.57172">
        <ele>86.7</ele>
        <time>2022-09-28T14:58:42.000Z</time>
      </trkpt>
      <trkpt lat="43.33714" lon="6.5717">
        <ele>86.3</ele>
        <time>2022-09-28T14:58:43.000Z</time>
      </trkpt>
      <trkpt lat="43.3371" lon="6.57165">
        <ele>85.6</ele>
        <time>2022-09-28T14:58:44.001Z</time>
      </trkpt>
      <trkpt lat="43.33707" lon="6.57161">
        <ele>85.1</ele>
        <time>2022-09-28T14:58:45.001Z</time>
      </trkpt>
      <trkpt lat="43.33705" lon="6.57161">
        <ele>85.2</ele>
        <time>2022-09-28T14:58:46.002Z</time>
      </trkpt>
      <trkpt lat="43.33702" lon="6.57163">
        <ele>85.7</ele>
        <time>2022-09-28T14:58:47.000Z</time>
      </trkpt>
      <trkpt lat="43.33699" lon="6.57165">
        <ele>86.3</ele>
        <time>2022-09-28T14:58:48.001Z</time>
      </trkpt>
      <trkpt lat="43.33698" lon="6.57165">
        <ele>86.5</ele>
        <time>2022-09-28T14:58:49.000Z</time>
      </trkpt>
      <trkpt lat="43.33695" lon="6.57164">
        <ele>86.4</ele>
        <time>2022-09-28T14:58:51.002Z</time>
      </trkpt>
      <trkpt lat="43.33694" lon="6.57164">
        <ele>86.5</ele>
        <time>2022-09-28T14:58:52.002Z</time>
      </trkpt>
      <trkpt lat="43.33694" lon="6.57165">
        <ele>86.8</ele>
        <time>2022-09-28T14:58:56.001Z</time>
      </trkpt>
      <trkpt lat="43.33694" lon="6.57164">
        <ele>86.6</ele>
        <time>2022-09-28T14:59:13.001Z</time>
      </trkpt>
      <trkpt lat="43.33693" lon="6.57163">
        <ele>86.6</ele>
        <time>2022-09-28T14:59:27.000Z</time>
      </trkpt>
      <trkpt lat="43.33692" lon="6.57162">
        <ele>86.8</ele>
        <time>2022-09-28T14:59:28.001Z</time>
      </trkpt>
      <trkpt lat="43.3369" lon="6.57162">
        <ele>87</ele>
        <time>2022-09-28T14:59:29.001Z</time>
      </trkpt>
      <trkpt lat="43.33689" lon="6.5716">
        <ele>87</ele>
        <time>2022-09-28T14:59:30.003Z</time>
      </trkpt>
      <trkpt lat="43.33686" lon="6.57156">
        <ele>87</ele>
        <time>2022-09-28T14:59:31.000Z</time>
      </trkpt>
      <trkpt lat="43.33684" lon="6.57153">
        <ele>86.9</ele>
        <time>2022-09-28T14:59:32.000Z</time>
      </trkpt>
      <trkpt lat="43.33685" lon="6.57151">
        <ele>86.5</ele>
        <time>2022-09-28T14:59:33.004Z</time>
      </trkpt>
      <trkpt lat="43.33683" lon="6.57146">
        <ele>86</ele>
        <time>2022-09-28T14:59:35.000Z</time>
      </trkpt>
      <trkpt lat="43.33685" lon="6.57139">
        <ele>84.4</ele>
        <time>2022-09-28T14:59:36.001Z</time>
      </trkpt>
      <trkpt lat="43.33687" lon="6.57135">
        <ele>83.2</ele>
        <time>2022-09-28T14:59:37.002Z</time>
      </trkpt>
      <trkpt lat="43.33693" lon="6.57127">
        <ele>80.6</ele>
        <time>2022-09-28T14:59:39.000Z</time>
      </trkpt>
      <trkpt lat="43.33696" lon="6.57122">
        <ele>79.4</ele>
        <time>2022-09-28T14:59:41.002Z</time>
      </trkpt>
      <trkpt lat="43.33697" lon="6.57115">
        <ele>78.5</ele>
        <time>2022-09-28T14:59:42.001Z</time>
      </trkpt>
      <trkpt lat="43.33697" lon="6.57107">
        <ele>77.3</ele>
        <time>2022-09-28T14:59:43.001Z</time>
      </trkpt>
      <trkpt lat="43.33697" lon="6.57101">
        <ele>76.4</ele>
        <time>2022-09-28T14:59:44.001Z</time>
      </trkpt>
      <trkpt lat="43.33698" lon="6.57094">
        <ele>75.4</ele>
        <time>2022-09-28T14:59:45.001Z</time>
      </trkpt>
      <trkpt lat="43.33698" lon="6.57089">
        <ele>74.7</ele>
        <time>2022-09-28T14:59:46.000Z</time>
      </trkpt>
      <trkpt lat="43.337" lon="6.57089">
        <ele>74.5</ele>
        <time>2022-09-28T14:59:48.003Z</time>
      </trkpt>
      <trkpt lat="43.33703" lon="6.57087">
        <ele>74.2</ele>
        <time>2022-09-28T14:59:49.000Z</time>
      </trkpt>
      <trkpt lat="43.33703" lon="6.57084">
        <ele>73.8</ele>
        <time>2022-09-28T14:59:50.000Z</time>
      </trkpt>
      <trkpt lat="43.337" lon="6.57081">
        <ele>73.5</ele>
        <time>2022-09-28T14:59:52.000Z</time>
      </trkpt>
      <trkpt lat="43.33698" lon="6.57078">
        <ele>73.2</ele>
        <time>2022-09-28T14:59:53.000Z</time>
      </trkpt>
      <trkpt lat="43.33694" lon="6.57074">
        <ele>72.7</ele>
        <time>2022-09-28T14:59:54.001Z</time>
      </trkpt>
      <trkpt lat="43.33695" lon="6.57071">
        <ele>72.2</ele>
        <time>2022-09-28T14:59:56.001Z</time>
      </trkpt>
      <trkpt lat="43.33696" lon="6.57067">
        <ele>71.7</ele>
        <time>2022-09-28T14:59:57.001Z</time>
      </trkpt>
      <trkpt lat="43.33693" lon="6.57065">
        <ele>71.5</ele>
        <time>2022-09-28T14:59:59.002Z</time>
      </trkpt>
      <trkpt lat="43.33691" lon="6.57063">
        <ele>71.4</ele>
        <time>2022-09-28T15:00:00.000Z</time>
      </trkpt>
      <trkpt lat="43.33691" lon="6.5706">
        <ele>70.9</ele>
        <time>2022-09-28T15:00:01.001Z</time>
      </trkpt>
      <trkpt lat="43.33692" lon="6.57053">
        <ele>70</ele>
        <time>2022-09-28T15:00:02.001Z</time>
      </trkpt>
      <trkpt lat="43.33692" lon="6.57047">
        <ele>69.3</ele>
        <time>2022-09-28T15:00:03.000Z</time>
      </trkpt>
      <trkpt lat="43.33692" lon="6.57044">
        <ele>69</ele>
        <time>2022-09-28T15:00:04.001Z</time>
      </trkpt>
      <trkpt lat="43.3369" lon="6.57041">
        <ele>68.9</ele>
        <time>2022-09-28T15:00:05.001Z</time>
      </trkpt>
      <trkpt lat="43.33682" lon="6.57037">
        <ele>69</ele>
        <time>2022-09-28T15:00:06.001Z</time>
      </trkpt>
      <trkpt lat="43.33681" lon="6.57035">
        <ele>68.8</ele>
        <time>2022-09-28T15:00:07.003Z</time>
      </trkpt>
      <trkpt lat="43.33681" lon="6.57029">
        <ele>68.2</ele>
        <time>2022-09-28T15:00:08.001Z</time>
      </trkpt>
      <trkpt lat="43.3368" lon="6.57021">
        <ele>67.5</ele>
        <time>2022-09-28T15:00:09.000Z</time>
      </trkpt>
      <trkpt lat="43.33678" lon="6.57017">
        <ele>67.2</ele>
        <time>2022-09-28T15:00:10.001Z</time>
      </trkpt>
      <trkpt lat="43.33673" lon="6.57018">
        <ele>67.5</ele>
        <time>2022-09-28T15:00:11.002Z</time>
      </trkpt>
      <trkpt lat="43.33669" lon="6.57016">
        <ele>67.6</ele>
        <time>2022-09-28T15:00:13.001Z</time>
      </trkpt>
      <trkpt lat="43.33668" lon="6.57012">
        <ele>67.3</ele>
        <time>2022-09-28T15:00:14.001Z</time>
      </trkpt>
      <trkpt lat="43.33666" lon="6.57008">
        <ele>66.9</ele>
        <time>2022-09-28T15:00:15.001Z</time>
      </trkpt>
      <trkpt lat="43.33664" lon="6.57004">
        <ele>66.6</ele>
        <time>2022-09-28T15:00:17.001Z</time>
      </trkpt>
      <trkpt lat="43.33663" lon="6.57001">
        <ele>66.3</ele>
        <time>2022-09-28T15:00:18.003Z</time>
      </trkpt>
      <trkpt lat="43.33661" lon="6.56996">
        <ele>65.8</ele>
        <time>2022-09-28T15:00:19.000Z</time>
      </trkpt>
      <trkpt lat="43.33659" lon="6.56991">
        <ele>65.4</ele>
        <time>2022-09-28T15:00:20.000Z</time>
      </trkpt>
      <trkpt lat="43.33657" lon="6.56988">
        <ele>65.2</ele>
        <time>2022-09-28T15:00:21.004Z</time>
      </trkpt>
      <trkpt lat="43.33654" lon="6.56986">
        <ele>65.2</ele>
        <time>2022-09-28T15:00:22.000Z</time>
      </trkpt>
      <trkpt lat="43.3365" lon="6.56984">
        <ele>65.2</ele>
        <time>2022-09-28T15:00:23.000Z</time>
      </trkpt>
      <trkpt lat="43.33646" lon="6.5698">
        <ele>65.1</ele>
        <time>2022-09-28T15:00:25.002Z</time>
      </trkpt>
      <trkpt lat="43.33644" lon="6.56978">
        <ele>65.1</ele>
        <time>2022-09-28T15:00:26.000Z</time>
      </trkpt>
      <trkpt lat="43.33643" lon="6.56977">
        <ele>65.1</ele>
        <time>2022-09-28T15:00:27.001Z</time>
      </trkpt>
      <trkpt lat="43.33644" lon="6.56979">
        <ele>65.2</ele>
        <time>2022-09-28T15:00:28.001Z</time>
      </trkpt>
      <trkpt lat="43.33644" lon="6.5698">
        <ele>65.3</ele>
        <time>2022-09-28T15:00:29.000Z</time>
      </trkpt>
      <trkpt lat="43.33644" lon="6.56982">
        <ele>65.4</ele>
        <time>2022-09-28T15:00:34.001Z</time>
      </trkpt>
      <trkpt lat="43.33642" lon="6.5698">
        <ele>65.4</ele>
        <time>2022-09-28T15:00:36.002Z</time>
      </trkpt>
      <trkpt lat="43.33637" lon="6.56978">
        <ele>65.6</ele>
        <time>2022-09-28T15:00:38.001Z</time>
      </trkpt>
      <trkpt lat="43.33634" lon="6.56975">
        <ele>65.7</ele>
        <time>2022-09-28T15:00:39.000Z</time>
      </trkpt>
      <trkpt lat="43.33632" lon="6.56973">
        <ele>65.8</ele>
        <time>2022-09-28T15:00:40.002Z</time>
      </trkpt>
      <trkpt lat="43.33631" lon="6.56971">
        <ele>65.8</ele>
        <time>2022-09-28T15:00:41.000Z</time>
      </trkpt>
      <trkpt lat="43.33627" lon="6.56967">
        <ele>65.7</ele>
        <time>2022-09-28T15:00:42.000Z</time>
      </trkpt>
      <trkpt lat="43.33625" lon="6.56965">
        <ele>65.6</ele>
        <time>2022-09-28T15:00:43.001Z</time>
      </trkpt>
      <trkpt lat="43.33621" lon="6.56962">
        <ele>65.6</ele>
        <time>2022-09-28T15:00:45.003Z</time>
      </trkpt>
      <trkpt lat="43.33617" lon="6.5696">
        <ele>65.7</ele>
        <time>2022-09-28T15:00:46.004Z</time>
      </trkpt>
      <trkpt lat="43.33614" lon="6.56958">
        <ele>65.7</ele>
        <time>2022-09-28T15:00:47.004Z</time>
      </trkpt>
      <trkpt lat="43.3361" lon="6.56957">
        <ele>65.8</ele>
        <time>2022-09-28T15:00:48.000Z</time>
      </trkpt>
      <trkpt lat="43.33607" lon="6.56957">
        <ele>65.6</ele>
        <time>2022-09-28T15:00:49.001Z</time>
      </trkpt>
      <trkpt lat="43.33603" lon="6.56957">
        <ele>65.4</ele>
        <time>2022-09-28T15:00:50.001Z</time>
      </trkpt>
      <trkpt lat="43.33599" lon="6.56958">
        <ele>65.3</ele>
        <time>2022-09-28T15:00:51.000Z</time>
      </trkpt>
      <trkpt lat="43.33596" lon="6.56959">
        <ele>65.3</ele>
        <time>2022-09-28T15:00:52.000Z</time>
      </trkpt>
      <trkpt lat="43.3359" lon="6.56958">
        <ele>64.9</ele>
        <time>2022-09-28T15:00:53.005Z</time>
      </trkpt>
      <trkpt lat="43.33581" lon="6.56956">
        <ele>64.1</ele>
        <time>2022-09-28T15:00:55.001Z</time>
      </trkpt>
      <trkpt lat="43.33577" lon="6.56956">
        <ele>63.7</ele>
        <time>2022-09-28T15:00:56.000Z</time>
      </trkpt>
      <trkpt lat="43.33573" lon="6.56956">
        <ele>63.3</ele>
        <time>2022-09-28T15:00:57.000Z</time>
      </trkpt>
      <trkpt lat="43.3357" lon="6.56956">
        <ele>63.1</ele>
        <time>2022-09-28T15:00:58.002Z</time>
      </trkpt>
      <trkpt lat="43.33567" lon="6.56956">
        <ele>62.8</ele>
        <time>2022-09-28T15:00:59.000Z</time>
      </trkpt>
      <trkpt lat="43.33564" lon="6.56963">
        <ele>63.1</ele>
        <time>2022-09-28T15:01:00.000Z</time>
      </trkpt>
      <trkpt lat="43.33558" lon="6.56967">
        <ele>62.9</ele>
        <time>2022-09-28T15:01:01.003Z</time>
      </trkpt>
      <trkpt lat="43.33552" lon="6.56969">
        <ele>62.7</ele>
        <time>2022-09-28T15:01:03.000Z</time>
      </trkpt>
      <trkpt lat="43.3355" lon="6.56973">
        <ele>62.9</ele>
        <time>2022-09-28T15:01:04.002Z</time>
      </trkpt>
      <trkpt lat="43.33548" lon="6.56979">
        <ele>63.2</ele>
        <time>2022-09-28T15:01:06.001Z</time>
      </trkpt>
      <trkpt lat="43.33548" lon="6.56982">
        <ele>63.4</ele>
        <time>2022-09-28T15:01:07.001Z</time>
      </trkpt>
      <trkpt lat="43.33549" lon="6.56982">
        <ele>63.5</ele>
        <time>2022-09-28T15:01:09.000Z</time>
      </trkpt>
      <trkpt lat="43.3355" lon="6.56981">
        <ele>63.4</ele>
        <time>2022-09-28T15:01:10.001Z</time>
      </trkpt>
      <trkpt lat="43.33551" lon="6.56982">
        <ele>63.5</ele>
        <time>2022-09-28T15:01:17.001Z</time>
      </trkpt>
      <trkpt lat="43.33551" lon="6.56983">
        <ele>63.6</ele>
        <time>2022-09-28T15:01:23.001Z</time>
      </trkpt>
      <trkpt lat="43.3355" lon="6.56984">
        <ele>63.7</ele>
        <time>2022-09-28T15:02:11.000Z</time>
      </trkpt>
      <trkpt lat="43.33549" lon="6.56986">
        <ele>63.8</ele>
        <time>2022-09-28T15:02:13.000Z</time>
      </trkpt>
      <trkpt lat="43.33549" lon="6.56988">
        <ele>63.9</ele>
        <time>2022-09-28T15:02:14.001Z</time>
      </trkpt>
      <trkpt lat="43.33548" lon="6.56989">
        <ele>64</ele>
        <time>2022-09-28T15:02:16.000Z</time>
      </trkpt>
      <trkpt lat="43.33546" lon="6.5699">
        <ele>64</ele>
        <time>2022-09-28T15:02:18.000Z</time>
      </trkpt>
      <trkpt lat="43.33545" lon="6.56992">
        <ele>64</ele>
        <time>2022-09-28T15:02:19.000Z</time>
      </trkpt>
      <trkpt lat="43.33542" lon="6.56991">
        <ele>63.8</ele>
        <time>2022-09-28T15:02:20.000Z</time>
      </trkpt>
      <trkpt lat="43.33537" lon="6.56987">
        <ele>63.4</ele>
        <time>2022-09-28T15:02:21.001Z</time>
      </trkpt>
      <trkpt lat="43.33533" lon="6.56978">
        <ele>62.6</ele>
        <time>2022-09-28T15:02:23.001Z</time>
      </trkpt>
      <trkpt lat="43.33521" lon="6.56956">
        <ele>60.3</ele>
      </trkpt>
      <trkpt lat="43.33509" lon="6.56906">
        <ele>58.3</ele>
      </trkpt>
      <trkpt lat="43.33519" lon="6.56878">
        <ele>56.5</ele>
      </trkpt>
      <trkpt lat="43.3351" lon="6.56842">
        <ele>53.9</ele>
      </trkpt>
      <trkpt lat="43.33508" lon="6.568">
        <ele>49.7</ele>
      </trkpt>
      <trkpt lat="43.33493" lon="6.56758">
        <ele>46.6</ele>
      </trkpt>
      <trkpt lat="43.33596" lon="6.56707">
        <ele>47.3</ele>
      </trkpt>
      <trkpt lat="43.33675" lon="6.5664">
        <ele>46.8</ele>
      </trkpt>
      <trkpt lat="43.33667" lon="6.56576">
        <ele>44.8</ele>
      </trkpt>
      <trkpt lat="43.33637" lon="6.56554">
        <ele>42.9</ele>
      </trkpt>
      <trkpt lat="43.3372" lon="6.56208">
        <ele>49.4</ele>
      </trkpt>
      <trkpt lat="43.33741" lon="6.56117">
        <ele>48.7</ele>
      </trkpt>
      <trkpt lat="43.33782" lon="6.56071">
        <ele>49.3</ele>
      </trkpt>
      <trkpt lat="43.33767" lon="6.56022">
        <ele>48.8</ele>
      </trkpt>
      <trkpt lat="43.33794" lon="6.55964">
        <ele>51.2</ele>
      </trkpt>
      <trkpt lat="43.33805" lon="6.55905">
        <ele>52</ele>
      </trkpt>
      <trkpt lat="43.33797" lon="6.55865">
        <ele>52.6</ele>
      </trkpt>
      <trkpt lat="43.33781" lon="6.55834">
        <ele>53.8</ele>
      </trkpt>
      <trkpt lat="43.33778" lon="6.55789">
        <ele>53.4</ele>
      </trkpt>
      <trkpt lat="43.33765" lon="6.55712">
        <ele>53.9</ele>
      </trkpt>
      <trkpt lat="43.33702" lon="6.55627">
        <ele>54.1</ele>
      </trkpt>
      <trkpt lat="43.33779" lon="6.55531">
        <ele>56.9</ele>
      </trkpt>
      <trkpt lat="43.33796" lon="6.55501">
        <ele>57</ele>
      </trkpt>
      <trkpt lat="43.33794" lon="6.55477">
        <ele>57.8</ele>
      </trkpt>
      <trkpt lat="43.3377" lon="6.55401">
        <ele>57.3</ele>
      </trkpt>
      <trkpt lat="43.33776" lon="6.55387">
        <ele>56.7</ele>
      </trkpt>
      <trkpt lat="43.33813" lon="6.55403">
        <ele>56.8</ele>
      </trkpt>
      <trkpt lat="43.33939" lon="6.55343">
        <ele>58.8</ele>
      </trkpt>
      <trkpt lat="43.33958" lon="6.55295">
        <ele>58.6</ele>
      </trkpt>
      <trkpt lat="43.33987" lon="6.55192">
        <ele>63.7</ele>
      </trkpt>
      <trkpt lat="43.33963" lon="6.55153">
        <ele>65.1</ele>
      </trkpt>
      <trkpt lat="43.33936" lon="6.55115">
        <ele>64.7</ele>
      </trkpt>
      <trkpt lat="43.33919" lon="6.55036">
        <ele>64.9</ele>
      </trkpt>
      <trkpt lat="43.33907" lon="6.5495">
        <ele>66.5</ele>
      </trkpt>
      <trkpt lat="43.33898" lon="6.54905">
        <ele>67.6</ele>
      </trkpt>
      <trkpt lat="43.3389" lon="6.54862">
        <ele>68.1</ele>
      </trkpt>
      <trkpt lat="43.33878" lon="6.54824">
        <ele>68.9</ele>
      </trkpt>
      <trkpt lat="43.33878" lon="6.54798">
        <ele>69.6</ele>
      </trkpt>
      <trkpt lat="43.33892" lon="6.54751">
        <ele>70</ele>
      </trkpt>
      <trkpt lat="43.33797" lon="6.54698">
        <ele>71.7</ele>
        <time>2022-09-28T15:02:24.001Z</time>
      </trkpt>
    </trkseg>
  </trk>
</gpx>